<
# Wetter Temperatur Luftdruck Luftfeuchtigkeit Sichtweite Windgeschwindigkeit Windrichtung Zeit
1 Snow -1 1018 98 0 1.4 14 21:42 28.01.2020
2 Snow -1 1018 98 0 1.4 14 21:22 28.01.2020
3 Snow -1 1018 98 0 1.4 14 20:57 28.01.2020
4 Snow -1 1018 98 0 1.4 14 20:39 28.01.2020
5 Snow -1 1018 98 0 1.4 14 20:39 28.01.2020
6 Snow 0 1016 90 0 1.67 6 20:21 28.01.2020
7 Snow 0 1016 90 0 1.67 6 19:39 28.01.2020
8 Snow 0 1016 90 0 1.67 6 19:20 28.01.2020
9 Snow 0 1016 90 0 1.67 6 18:58 28.01.2020
10 Snow 0 1016 90 0 1.67 6 18:58 28.01.2020
11 Snow 0 1016 90 0 1.67 6 18:39 28.01.2020
12 Snow 0 1016 90 0 1.67 6 18:21 28.01.2020
13 Snow 0 1016 90 0 1.67 6 17:57 28.01.2020
14 Snow 0 1016 90 0 1.67 6 17:37 28.01.2020
15 Snow 0 1016 94 0 2.42 331 17:19 28.01.2020
16 Snow 0 1016 94 0 2.42 331 16:54 28.01.2020
17 Snow 0 1016 94 0 2.42 331 16:36 28.01.2020
18 Snow 0 1016 94 0 2.42 331 16:18 28.01.2020
19 Snow 0 1016 94 0 2.42 331 15:41 28.01.2020
20 Snow 0 1016 94 0 2.42 331 15:19 28.01.2020
21 Snow 0 1016 94 0 2.42 331 14:46 28.01.2020
22 Snow 2 1012 86 0 1.71 9 14:20 28.01.2020
23 Snow 2 1012 86 0 1.71 9 13:58 28.01.2020
24 Snow 2 1012 86 0 1.71 9 13:39 28.01.2020
25 Snow 2 1012 86 0 1.71 9 13:39 28.01.2020
26 Snow 1 1012 95 0 0.52 88 13:20 28.01.2020
27 Snow 1 1012 95 0 0.52 88 12:42 28.01.2020
28 Snow 1 1012 95 0 0.52 88 12:23 28.01.2020
29 Snow 1 1012 95 0 0.52 88 11:48 28.01.2020
30 Snow 1 1012 95 0 0.52 88 11:23 28.01.2020
31 Snow 1 1012 91 0 1.01 244 10:59 28.01.2020
32 Snow 1 1012 91 0 1.01 244 10:40 28.01.2020
33 Snow 1 1012 91 0 1.01 244 10:20 28.01.2020
34 Snow 1 1012 91 0 1.01 244 09:43 28.01.2020
35 Snow 1 1012 91 0 1.01 244 09:21 28.01.2020
36 Snow 1 1012 91 0 1.01 244 08:58 28.01.2020
37 Snow 1 1012 91 0 1.01 244 08:39 28.01.2020
38 Snow 1 1016 73 0 3.09 171 08:19 28.01.2020
39 Snow 1 1016 73 0 3.09 171 07:37 28.01.2020
40 Snow 1 1016 73 0 3.09 171 06:51 28.01.2020
41 Snow 1 1016 73 0 3.09 171 06:28 28.01.2020
42 Snow 1 1016 73 0 3.09 171 05:55 28.01.2020
43 Snow 1 1016 73 0 3.09 171 05:33 28.01.2020
44 Clouds 1 1019 66 0 1.69 52 04:38 28.01.2020
45 Clouds 1 1019 66 0 1.69 52 03:33 28.01.2020
46 Clouds 1 1019 66 0 1.69 52 02:25 28.01.2020
47 Clouds 1 1019 66 0 1.69 52 02:25 28.01.2020
48 Snow 0 1017 67 0 1.54 15 01:58 28.01.2020
49 Snow 0 1017 67 0 1.54 15 01:40 28.01.2020
50 Clouds 0 1017 62 0 2.25 4 00:51 28.01.2020
51 Clouds 0 1017 62 0 2.25 4 00:29 28.01.2020
52 Clouds 0 1017 62 0 2.25 4 23:53 27.01.2020
53 Clouds 0 1017 62 0 2.25 4 23:30 27.01.2020
54 Snow 0 1018 75 0 3.67 28 22:59 27.01.2020
55 Snow 0 1018 75 0 3.67 28 22:41 27.01.2020
56 Snow 0 1018 75 0 3.67 28 22:20 27.01.2020
57 Snow 0 1018 75 0 3.67 28 21:57 27.01.2020
58 Snow 0 1018 75 0 3.67 28 21:38 27.01.2020
59 Snow 0 1018 75 0 3.67 28 21:18 27.01.2020
60 Snow 0 1018 75 0 3.67 28 21:18 27.01.2020
61 Snow 0 1018 75 0 3.67 28 20:55 27.01.2020
62 Snow 0 1018 75 0 3.67 28 20:37 27.01.2020
63 Snow 0 1019 67 0 3.38 19 20:18 27.01.2020
64 Snow 0 1019 67 0 3.38 19 19:41 27.01.2020
65 Snow 0 1019 67 0 3.38 19 19:23 27.01.2020
66 Snow 0 1019 67 0 3.38 19 18:57 27.01.2020
67 Snow 0 1019 67 0 3.38 19 18:39 27.01.2020
68 Snow 0 1019 67 0 3.38 19 18:39 27.01.2020
69 Snow 0 1019 67 0 3.38 19 18:20 27.01.2020
70 Snow 0 1019 67 0 3.38 19 17:55 27.01.2020
71 Snow 0 1019 67 0 3.38 19 17:37 27.01.2020
72 Snow 0 1019 67 0 3.38 19 17:37 27.01.2020
73 Snow 1 1018 69 0 2.55 26 17:18 27.01.2020
74 Snow 1 1018 69 0 2.55 26 16:42 27.01.2020
75 Snow 1 1018 69 0 2.55 26 16:24 27.01.2020
76 Snow 1 1018 69 0 2.55 26 16:24 27.01.2020
77 Snow 1 1018 69 0 2.55 26 15:55 27.01.2020
78 Snow 1 1018 69 0 2.55 26 15:37 27.01.2020
79 Snow 1 1018 69 0 2.55 26 15:19 27.01.2020
80 Snow 1 1018 69 0 2.55 26 14:55 27.01.2020
81 Snow 1 1018 69 0 2.55 26 14:36 27.01.2020
82 Clouds 2 1015 71 0 1.12 257 14:18 27.01.2020
83 Clouds 2 1015 71 0 1.12 257 13:42 27.01.2020
84 Clouds 2 1015 71 0 1.12 257 13:21 27.01.2020
85 Clouds 2 1015 71 0 1.12 257 13:21 27.01.2020
86 Clouds 2 1015 70 0 0.94 265 12:56 27.01.2020
87 Clouds 2 1015 70 0 0.94 265 12:37 27.01.2020
88 Clouds 2 1015 70 0 0.94 265 12:19 27.01.2020
89 Clouds 2 1015 70 0 0.94 265 12:19 27.01.2020
90 Clouds 2 1015 70 0 0.94 265 11:42 27.01.2020
91 Clouds 2 1015 70 0 0.94 265 11:42 27.01.2020
92 Clouds 6 1015 37 0 2.9 220 11:21 27.01.2020
93 Clouds 6 1015 37 0 2.9 220 11:21 27.01.2020
94 Clouds 6 1015 37 0 2.9 220 10:55 27.01.2020
95 Clouds 6 1015 37 0 2.9 220 10:36 27.01.2020
96 Clouds 6 1015 37 0 2.9 220 10:18 27.01.2020
97 Clouds 6 1015 37 0 2.9 220 09:39 27.01.2020
98 Clouds 6 1015 37 0 2.9 220 09:19 27.01.2020
99 Clouds 6 1015 37 0 2.9 220 08:47 27.01.2020
100 Clouds 5 1015 35 0 2.62 214 08:23 27.01.2020
101 Clouds 6 1018 27 0 2.11 197 07:55 27.01.2020
102 Clouds 6 1018 27 0 2.11 197 07:36 27.01.2020
103 Clouds 6 1018 27 0 2.11 197 07:18 27.01.2020
104 Clouds 6 1018 27 0 2.11 197 06:32 27.01.2020
105 Clouds 6 1018 27 0 2.11 197 05:37 27.01.2020
106 Clouds 0 1023 38 0 2.47 350 04:20 27.01.2020
107 Clouds 0 1023 38 0 2.47 350 03:27 27.01.2020
108 Clear -2 1022 40 0 3.58 1 01:42 27.01.2020
109 Clear -2 1022 39 0 3.61 7 01:22 27.01.2020
110 Clear -2 1022 39 0 3.61 7 00:40 27.01.2020
111 Clear -2 1022 39 0 3.61 7 00:19 27.01.2020
112 Clear -2 1022 39 0 3.61 7 23:42 26.01.2020
113 Clear -2 1022 46 0 3.18 9 23:20 26.01.2020
114 Clear -2 1022 46 0 3.18 9 22:57 26.01.2020
115 Clear -2 1022 46 0 3.18 9 22:37 26.01.2020
116 Clear -2 1022 46 0 3.18 9 22:19 26.01.2020
117 Clear -2 1022 46 0 3.18 9 22:19 26.01.2020
118 Clear -2 1022 46 0 3.18 9 21:57 26.01.2020
119 Clear -2 1022 46 0 3.18 9 21:38 26.01.2020
120 Clear -2 1022 46 0 3.18 9 21:20 26.01.2020
121 Clear -2 1022 46 0 3.18 9 20:57 26.01.2020
122 Clear -2 1022 46 0 3.18 9 20:38 26.01.2020
123 Clear -1 1023 46 0 3.67 17 20:18 26.01.2020
124 Clear -1 1023 46 0 3.67 17 19:57 26.01.2020
125 Clear -1 1023 46 0 3.67 17 19:38 26.01.2020
126 Clear -1 1023 46 0 3.67 17 19:18 26.01.2020
127 Clear -1 1023 46 0 3.67 17 18:54 26.01.2020
128 Clear -1 1023 46 0 3.67 17 18:54 26.01.2020
129 Clear -1 1023 46 0 3.67 17 18:36 26.01.2020
130 Clear -1 1023 46 0 3.67 17 18:18 26.01.2020
131 Clear -1 1023 46 0 3.67 17 18:18 26.01.2020
132 Clear -1 1023 46 0 3.67 17 17:55 26.01.2020
133 Clear -1 1023 46 0 3.67 17 17:36 26.01.2020
134 Clouds 0 1022 64 0 3.42 22 17:18 26.01.2020
135 Clouds 0 1022 64 0 3.42 22 16:55 26.01.2020
136 Clouds 0 1022 64 0 3.42 22 16:37 26.01.2020
137 Clouds 0 1022 64 0 3.42 22 16:18 26.01.2020
138 Clouds 0 1022 64 0 3.42 22 15:42 26.01.2020
139 Clouds 0 1022 64 0 3.42 22 15:19 26.01.2020
140 Clouds 0 1022 64 0 3.42 22 14:55 26.01.2020
141 Clouds 0 1022 64 0 3.42 22 14:37 26.01.2020
142 Snow 2 1017 82 0 0.86 246 14:18 26.01.2020
143 Snow 2 1017 82 0 0.86 246 13:39 26.01.2020
144 Snow 2 1017 82 0 0.86 246 13:18 26.01.2020
145 Snow 2 1017 83 0 0.78 259 12:54 26.01.2020
146 Snow 2 1017 83 0 0.78 259 12:36 26.01.2020
147 Snow 2 1017 83 0 0.78 259 12:18 26.01.2020
148 Snow 2 1017 83 0 0.78 259 11:56 26.01.2020
149 Snow 2 1017 83 0 0.78 259 11:36 26.01.2020
150 Snow 6 1015 63 0 2.67 210 11:18 26.01.2020
151 Snow 6 1015 63 0 2.67 210 10:39 26.01.2020
152 Snow 6 1015 63 0 2.67 210 10:21 26.01.2020
153 Snow 6 1015 63 0 2.67 210 09:59 26.01.2020
154 Snow 6 1015 63 0 2.67 210 09:41 26.01.2020
155 Snow 6 1015 63 0 2.67 210 09:22 26.01.2020
156 Snow 6 1015 63 0 2.67 210 08:55 26.01.2020
157 Snow 6 1015 63 0 2.67 210 08:37 26.01.2020
158 Clear 6 1019 51 0 2.21 205 08:18 26.01.2020
159 Clear 6 1019 51 0 2.21 205 07:45 26.01.2020
160 Clear 6 1019 51 0 2.21 205 07:22 26.01.2020
161 Clear 6 1019 51 0 2.21 205 06:32 26.01.2020
162 Clear 6 1019 51 0 2.21 205 05:37 26.01.2020
163 Clouds 1 1023 62 0 2.36 13 04:58 26.01.2020
164 Clouds 1 1023 62 0 2.36 13 03:22 26.01.2020
165 Clouds -1 1021 74 0 2.67 16 01:59 26.01.2020
166 Clouds -1 1021 74 0 2.67 16 01:39 26.01.2020
167 Snow -1 1021 81 0 1.82 14 01:19 26.01.2020
168 Snow -1 1021 81 0 1.82 14 00:39 26.01.2020
169 Snow -1 1021 81 0 1.82 14 00:20 26.01.2020
170 Snow -1 1021 81 0 1.82 14 23:38 25.01.2020
171 Snow 0 1020 94 0 1.37 46 23:20 25.01.2020
172 Snow 0 1020 94 0 1.37 46 22:43 25.01.2020
173 Snow 0 1020 94 0 1.37 46 22:21 25.01.2020
174 Snow 0 1020 94 0 1.37 46 21:59 25.01.2020
175 Snow 0 1020 94 0 1.37 46 21:41 25.01.2020
176 Snow 0 1020 94 0 1.37 46 21:22 25.01.2020
177 Snow 0 1020 94 0 1.37 46 20:54 25.01.2020
178 Snow 0 1020 94 0 1.37 46 20:36 25.01.2020
179 Snow 1 1020 94 0 1.35 70 20:18 25.01.2020
180 Snow 1 1020 94 0 1.2 51 19:41 25.01.2020
181 Snow 1 1020 94 0 1.2 51 19:19 25.01.2020
182 Snow 1 1020 94 0 1.2 51 18:56 25.01.2020
183 Snow 1 1020 94 0 1.2 51 18:38 25.01.2020
184 Snow 1 1020 94 0 1.2 51 18:20 25.01.2020
185 Snow 1 1020 94 0 1.35 70 18:20 25.01.2020
186 Snow 1 1020 94 0 1.2 51 17:40 25.01.2020
187 Clouds 0 1019 79 0 1.56 32 17:19 25.01.2020
188 Clouds 0 1019 79 0 1.56 32 16:57 25.01.2020
189 Clouds 0 1019 79 0 1.56 32 16:38 25.01.2020
190 Clouds 0 1019 79 0 1.56 32 16:19 25.01.2020
191 Clouds 0 1019 79 0 1.56 32 15:46 25.01.2020
192 Clouds 0 1019 79 0 1.56 32 15:25 25.01.2020
193 Clouds 0 1019 79 0 1.56 32 14:57 25.01.2020
194 Clouds 0 1019 79 0 1.56 32 14:39 25.01.2020
195 Snow 3 1016 72 0 1.2 68 14:18 25.01.2020
196 Snow 3 1016 72 0 1.2 68 13:41 25.01.2020
197 Snow 3 1016 72 0 1.2 68 13:22 25.01.2020
198 Snow 3 1016 72 0 1.2 68 13:22 25.01.2020
199 Snow 2 1016 73 0 1.67 29 12:45 25.01.2020
200 Snow 2 1016 73 0 1.67 29 12:25 25.01.2020
201 Snow 2 1016 73 0 1.67 29 11:45 25.01.2020
202 Snow 2 1016 73 0 1.67 29 11:22 25.01.2020
203 Snow 2 1016 73 0 1.67 29 11:22 25.01.2020
204 Snow 2 1016 73 0 1.67 29 11:22 25.01.2020
205 Snow 6 1016 54 0 1.14 205 10:58 25.01.2020
206 Snow 6 1016 54 0 1.14 205 10:40 25.01.2020
207 Snow 6 1016 54 0 1.14 205 10:20 25.01.2020
208 Snow 6 1016 54 0 1.14 205 09:41 25.01.2020
209 Snow 6 1016 54 0 1.14 205 09:22 25.01.2020
210 Snow 6 1016 54 0 1.14 205 08:44 25.01.2020
211 Snow 6 1016 54 0 1.14 205 08:26 25.01.2020
212 Snow 4 1019 64 0 2.61 8 07:50 25.01.2020
213 Snow 4 1019 64 0 2.61 8 06:53 25.01.2020
214 Snow 4 1019 64 0 2.61 8 06:28 25.01.2020
215 Snow 4 1019 64 0 2.61 8 05:48 25.01.2020
216 Clouds 4 1022 45 0 2.1 12 05:18 25.01.2020
217 Clouds 4 1022 45 0 2.1 12 03:52 25.01.2020
218 Clouds 4 1022 45 0 2.1 12 03:22 25.01.2020
219 Clouds 4 1022 45 0 2.1 12 02:22 25.01.2020
220 Clouds 2 1020 40 0 2.99 10 01:52 25.01.2020
221 Clouds 1 1020 40 0 2.73 342 00:44 25.01.2020
222 Clouds 1 1020 40 0 2.73 342 00:26 25.01.2020
223 Clouds 1 1020 40 0 2.73 342 23:59 24.01.2020
224 Clouds 1 1020 40 0 2.73 342 23:40 24.01.2020
225 Clouds 1 1020 40 0 2.73 342 23:22 24.01.2020
226 Clouds 2 1021 39 0 2.69 347 22:45 24.01.2020
227 Clouds 2 1021 39 0 2.69 347 22:25 24.01.2020
228 Clouds 2 1021 39 0 2.69 347 21:56 24.01.2020
229 Clouds 2 1021 39 0 2.69 347 21:38 24.01.2020
230 Clouds 2 1021 39 0 2.69 347 21:18 24.01.2020
231 Clouds 2 1021 39 0 2.69 347 20:42 24.01.2020
232 Clouds 3 1021 43 0 3.24 1 20:21 24.01.2020
233 Clouds 3 1021 43 0 3.24 1 19:57 24.01.2020
234 Clouds 3 1021 43 0 3.24 1 19:39 24.01.2020
235 Clouds 3 1021 43 0 3.24 1 19:21 24.01.2020
236 Clouds 3 1021 43 0 3.24 1 18:43 24.01.2020
237 Clouds 3 1021 43 0 3.24 1 18:25 24.01.2020
238 Clouds 3 1021 43 0 3.24 1 17:56 24.01.2020
239 Clouds 3 1021 43 0 3.24 1 17:56 24.01.2020
240 Clouds 3 1021 43 0 3.24 1 17:38 24.01.2020
241 Clouds 3 1021 48 0 3.15 12 17:20 24.01.2020
242 Clouds 3 1021 48 0 3.15 12 16:39 24.01.2020
243 Clouds 3 1021 48 0 3.15 12 16:21 24.01.2020
244 Clouds 3 1021 48 0 3.15 12 15:56 24.01.2020
245 Clouds 3 1021 48 0 3.15 12 15:38 24.01.2020
246 Clouds 3 1021 48 0 3.15 12 15:19 24.01.2020
247 Clouds 3 1021 48 0 3.15 12 14:41 24.01.2020
248 Clouds 3 1021 48 0 3.15 12 14:22 24.01.2020
249 Clouds 4 1017 57 0 1.16 14 13:45 24.01.2020
250 Clouds 4 1017 56 0 1.3 25 13:24 24.01.2020
251 Clouds 4 1017 56 0 1.3 25 12:55 24.01.2020
252 Clouds 4 1017 56 0 1.3 25 12:36 24.01.2020
253 Clouds 4 1017 56 0 1.3 25 12:18 24.01.2020
254 Clouds 4 1017 56 0 1.3 25 11:42 24.01.2020
255 Clear 9 1016 34 0 1.96 190 11:19 24.01.2020
256 Clear 9 1016 34 0 1.96 190 10:43 24.01.2020
257 Clear 9 1016 34 0 1.96 190 10:22 24.01.2020
258 Clear 9 1016 34 0 1.96 190 09:56 24.01.2020
259 Clear 9 1016 34 0 1.96 190 09:38 24.01.2020
260 Clear 9 1016 34 0 1.96 190 09:20 24.01.2020
261 Clear 9 1016 34 0 1.96 190 08:40 24.01.2020
262 Clear 8 1021 27 0 1.22 231 08:19 24.01.2020
263 Clear 8 1021 27 0 1.22 231 07:50 24.01.2020
264 Clear 8 1021 27 0 1.22 231 07:28 24.01.2020
265 Clear 8 1021 27 0 1.22 231 06:48 24.01.2020
266 Clear 8 1021 27 0 1.22 231 06:28 24.01.2020
267 Clear 8 1021 27 0 1.22 231 05:58 24.01.2020
268 Clear 2 1026 27 0 2.95 358 04:54 24.01.2020
269 Clear 2 1026 27 0 2.95 358 02:53 24.01.2020
270 Clear 2 1026 27 0 2.95 358 02:24 24.01.2020
271 Clear -1 1026 22 0 3.47 355 01:42 24.01.2020
272 Clear -1 1026 22 0 3.47 355 01:24 24.01.2020
273 Clear -1 1026 22 0 3.44 355 00:23 24.01.2020
274 Clear -1 1026 22 0 3.44 355 23:49 23.01.2020
275 Clear -1 1026 22 0 3.44 355 23:31 23.01.2020
276 Clear -1 1027 26 0 3.94 3 22:59 23.01.2020
277 Clear -1 1027 26 0 3.94 3 22:38 23.01.2020
278 Clear -1 1027 26 0 3.94 3 22:19 23.01.2020
279 Clear -1 1027 26 0 3.94 3 21:57 23.01.2020
280 Clear -1 1027 26 0 3.94 3 21:39 23.01.2020
281 Clear -1 1027 26 0 3.94 3 21:20 23.01.2020
282 Clear -1 1027 26 0 3.94 3 20:58 23.01.2020
283 Clear -1 1027 26 0 3.94 3 20:38 23.01.2020
284 Clear -2 1028 29 0 2.94 1 20:19 23.01.2020
285 Clear -2 1028 28 0 2.9 10 19:56 23.01.2020
286 Clear -2 1028 28 0 2.9 10 19:38 23.01.2020
287 Clear -2 1028 28 0 2.9 10 19:19 23.01.2020
288 Clear -2 1028 28 0 2.9 10 18:42 23.01.2020
289 Clear -2 1028 28 0 2.9 10 18:21 23.01.2020
290 Clear -2 1028 28 0 2.9 10 17:58 23.01.2020
291 Clear -2 1028 28 0 2.9 10 17:40 23.01.2020
292 Clear -2 1028 40 0 4.13 19 17:20 23.01.2020
293 Clear -2 1028 40 0 4.13 19 16:56 23.01.2020
294 Clear -2 1028 40 0 4.13 19 16:36 23.01.2020
295 Clear -2 1028 40 0 4.13 19 16:18 23.01.2020
296 Clear -2 1028 40 0 4.13 19 15:54 23.01.2020
297 Clear -2 1028 40 0 4.13 19 15:36 23.01.2020
298 Clear -2 1028 40 0 4.13 19 15:18 23.01.2020
299 Clear -2 1028 40 0 4.13 19 15:18 23.01.2020
300 Clear -2 1028 40 0 4.13 19 14:54 23.01.2020
301 Clear -2 1028 40 0 4.13 19 14:36 23.01.2020
302 Clear 0 1023 68 0 1.27 37 14:18 23.01.2020
303 Clear 0 1023 68 0 1.27 37 13:39 23.01.2020
304 Clear 0 1023 67 0 0.97 35 13:20 23.01.2020
305 Clear 0 1022 66 0 1.15 22 12:47 23.01.2020
306 Clear 0 1023 67 0 0.97 35 12:25 23.01.2020
307 Clear 0 1022 66 0 1.15 22 11:59 23.01.2020
308 Clear 0 1022 66 0 1.15 22 11:39 23.01.2020
309 Clear 5 1020 40 0 2.5 211 11:19 23.01.2020
310 Clear 5 1020 41 0 2.58 209 10:45 23.01.2020
311 Clear 5 1020 41 0 2.58 209 10:23 23.01.2020
312 Clear 5 1020 40 0 2.5 211 09:59 23.01.2020
313 Clear 5 1020 41 0 2.58 209 09:39 23.01.2020
314 Clear 5 1020 40 0 2.5 211 09:20 23.01.2020
315 Clear 5 1020 41 0 2.58 209 08:43 23.01.2020
316 Clear 5 1020 40 0 2.5 211 08:24 23.01.2020
317 Clear 5 1024 30 0 1.29 213 07:49 23.01.2020
318 Clear 5 1024 30 0 1.29 213 07:27 23.01.2020
319 Clear 5 1024 30 0 1.29 213 06:54 23.01.2020
320 Clear 5 1024 30 0 1.29 213 06:24 23.01.2020
321 Clear 5 1024 30 0 1.29 213 05:58 23.01.2020
322 Clear -1 1030 42 0 2.19 11 04:24 23.01.2020
323 Clear -1 1030 42 0 2.19 11 02:45 23.01.2020
324 Clear -3 1028 47 0 3.27 6 01:50 23.01.2020
325 Clear -3 1028 47 0 3.19 8 00:29 23.01.2020
326 Clear -3 1028 47 0 3.19 8 23:57 22.01.2020
327 Clear -3 1028 47 0 3.19 8 23:39 22.01.2020
328 Clear -3 1029 52 0 3.25 8 23:20 22.01.2020
329 Clear -3 1029 52 0 3.25 8 22:42 22.01.2020
330 Clear -3 1029 52 0 3.25 8 22:23 22.01.2020
331 Clear -3 1029 52 0 3.25 8 21:58 22.01.2020
332 Clear -3 1029 52 0 3.25 8 21:36 22.01.2020
333 Clear -3 1029 52 0 3.25 8 21:18 22.01.2020
334 Clear -3 1029 52 0 3.25 8 20:41 22.01.2020
335 Clear -3 1029 51 0 3.25 6 20:23 22.01.2020
336 Clear -2 1029 55 0 3.63 11 19:58 22.01.2020
337 Clear -2 1029 55 0 3.63 11 19:58 22.01.2020
338 Clear -2 1029 55 0 3.63 11 19:40 22.01.2020
339 Clear -2 1029 55 0 3.63 11 19:20 22.01.2020
340 Clear -2 1029 55 0 3.63 11 18:58 22.01.2020
341 Clear -2 1029 55 0 3.63 11 18:39 22.01.2020
342 Clear -2 1029 55 0 3.63 11 18:20 22.01.2020
343 Clear -2 1029 55 0 3.63 11 17:56 22.01.2020
344 Clear -2 1029 55 0 3.63 11 17:38 22.01.2020
345 Clear -2 1028 61 0 3.63 15 17:19 22.01.2020
346 Clear -2 1028 61 0 3.63 15 16:54 22.01.2020
347 Clear -2 1028 61 0 3.63 15 16:36 22.01.2020
348 Clear -2 1028 61 0 3.63 15 16:18 22.01.2020
349 Clear -2 1028 61 0 3.63 15 15:41 22.01.2020
350 Clear -2 1028 61 0 3.63 15 15:23 22.01.2020
351 Clear -2 1028 61 0 3.63 15 14:58 22.01.2020
352 Clear -2 1028 61 0 3.63 15 14:37 22.01.2020
353 Snow 0 1023 79 0 0.95 300 14:19 22.01.2020
354 Snow 0 1023 79 0 0.95 300 13:56 22.01.2020
355 Snow 0 1023 79 0 0.95 300 13:37 22.01.2020
356 Snow 0 1023 79 0 0.7 275 13:19 22.01.2020
357 Snow 0 1023 79 0 0.7 275 12:56 22.01.2020
358 Snow 0 1023 79 0 0.7 275 12:38 22.01.2020
359 Snow 0 1023 79 0 0.7 275 12:18 22.01.2020
360 Snow 0 1023 79 0 0.7 275 11:56 22.01.2020
361 Snow 0 1023 79 0 0.7 275 11:38 22.01.2020
362 Snow 4 1021 55 0 2.36 213 11:19 22.01.2020
363 Snow 4 1021 55 0 2.36 213 10:45 22.01.2020
364 Snow 4 1021 55 0 2.36 213 10:21 22.01.2020
365 Snow 4 1021 55 0 2.36 213 09:57 22.01.2020
366 Snow 4 1021 55 0 2.36 213 09:39 22.01.2020
367 Snow 4 1021 55 0 2.36 213 09:20 22.01.2020
368 Snow 4 1021 55 0 2.36 213 08:54 22.01.2020
369 Snow 4 1021 55 0 2.36 213 08:36 22.01.2020
370 Clouds 2 1026 76 0 0.81 186 08:18 22.01.2020
371 Clouds 2 1026 76 0 0.81 186 07:40 22.01.2020
372 Clouds 2 1026 76 0 0.81 186 07:21 22.01.2020
373 Clouds 2 1026 76 0 0.81 186 07:21 22.01.2020
374 Clouds 2 1026 76 0 0.81 186 06:33 22.01.2020
375 Clouds 2 1026 76 0 0.81 186 05:42 22.01.2020
376 Clouds -2 1031 76 0 3.36 11 04:25 22.01.2020
377 Clouds -2 1031 76 0 3.36 11 03:26 22.01.2020
378 Clouds -2 1031 76 0 3.36 11 02:39 22.01.2020
379 Clouds -4 1028 79 0 3.71 17 00:47 22.01.2020
380 Clouds -4 1028 79 0 3.71 17 00:47 22.01.2020
381 Clouds -4 1028 79 0 3.71 17 00:27 22.01.2020
382 Clouds -4 1028 79 0 3.71 17 23:55 21.01.2020
383 Clouds -4 1028 79 0 3.71 17 23:37 21.01.2020
384 Snow -3 1028 84 0 3.02 14 23:18 21.01.2020
385 Snow -3 1028 84 0 3.02 14 22:40 21.01.2020
386 Snow -3 1028 84 0 3.02 14 22:21 21.01.2020
387 Snow -3 1028 84 0 3.02 14 21:58 21.01.2020
388 Snow -3 1028 84 0 3.02 14 21:38 21.01.2020
389 Snow -3 1028 84 0 3.02 14 21:20 21.01.2020
390 Snow -3 1028 84 0 3.02 14 20:57 21.01.2020
391 Snow -3 1028 84 0 3.02 14 20:38 21.01.2020
392 Snow -1 1026 96 0 0.83 328 20:20 21.01.2020
393 Snow -1 1026 96 0 0.83 328 19:57 21.01.2020
394 Snow -1 1026 96 0 0.83 328 19:39 21.01.2020
395 Snow -1 1026 96 0 0.83 328 19:20 21.01.2020
396 Snow -1 1026 96 0 0.83 328 19:20 21.01.2020
397 Snow -1 1026 96 0 0.83 328 18:55 21.01.2020
398 Snow -1 1026 96 0 0.83 328 18:37 21.01.2020
399 Snow -1 1026 96 0 0.83 328 18:18 21.01.2020
400 Snow -1 1026 96 0 0.83 328 17:45 21.01.2020
401 Snow -2 1024 94 0 1.14 344 17:20 21.01.2020
402 Snow -2 1024 94 0 1.14 344 16:59 21.01.2020
403 Snow -2 1024 94 0 1.14 344 16:37 21.01.2020
404 Snow -2 1024 94 0 1.14 344 16:19 21.01.2020
405 Snow -2 1024 94 0 1.14 344 15:56 21.01.2020
406 Snow -2 1024 94 0 1.14 344 15:37 21.01.2020
407 Snow -2 1024 94 0 1.14 344 15:18 21.01.2020
408 Snow -2 1024 94 0 1.14 344 14:38 21.01.2020
409 Snow -2 1019 97 0 1.57 296 14:20 21.01.2020
410 Snow -2 1019 97 0 1.57 296 13:41 21.01.2020
411 Snow -2 1019 98 0 1.3 257 13:19 21.01.2020
412 Snow -2 1019 98 0 1.3 257 12:56 21.01.2020
413 Snow -2 1019 98 0 1.3 257 12:38 21.01.2020
414 Snow -2 1019 98 0 1.3 257 12:19 21.01.2020
415 Snow -2 1019 98 0 1.3 257 11:40 21.01.2020
416 Snow -1 1017 96 0 1.1 243 11:21 21.01.2020
417 Snow -1 1017 96 0 1.1 243 10:59 21.01.2020
418 Snow -1 1017 96 0 1.1 243 10:40 21.01.2020
419 Snow -1 1017 96 0 1.1 243 10:21 21.01.2020
420 Snow -1 1017 96 0 1.1 243 09:42 21.01.2020
421 Snow -1 1017 96 0 1.1 243 09:23 21.01.2020
422 Snow -1 1017 96 0 1.1 243 08:56 21.01.2020
423 Snow -1 1017 96 0 1.1 243 08:38 21.01.2020
424 Snow 0 1020 95 0 1.31 207 08:19 21.01.2020
425 Snow 0 1020 95 0 1.31 207 07:41 21.01.2020
426 Snow 0 1020 95 0 1.31 207 07:22 21.01.2020
427 Snow 0 1020 95 0 1.31 207 06:55 21.01.2020
428 Snow 0 1020 95 0 1.31 207 06:37 21.01.2020
429 Snow 0 1020 95 0 1.31 207 05:50 21.01.2020
430 Snow -2 1022 97 0 0.73 188 04:41 21.01.2020
431 Snow -2 1022 97 0 0.73 188 03:40 21.01.2020
432 Snow -2 1022 97 0 0.73 188 02:26 21.01.2020
433 Snow -2 1021 98 0 0.8 200 01:31 21.01.2020
434 Snow -2 1021 98 0 0.8 200 00:41 21.01.2020
435 Snow -2 1021 98 0 0.8 200 00:21 21.01.2020
436 Snow -2 1021 98 0 0.8 200 23:41 20.01.2020
437 Snow -2 1021 97 0 0.79 120 23:19 20.01.2020
438 Snow -2 1021 97 0 0.79 120 22:59 20.01.2020
439 Snow -2 1021 97 0 0.79 120 22:39 20.01.2020
440 Snow -2 1021 97 0 0.79 120 22:21 20.01.2020
441 Snow -2 1021 97 0 0.79 120 21:58 20.01.2020
442 Snow -2 1021 97 0 0.79 120 21:38 20.01.2020
443 Snow -2 1021 97 0 0.79 120 21:20 20.01.2020
444 Snow -2 1021 97 0 0.79 120 20:58 20.01.2020
445 Snow -2 1021 97 0 0.79 120 20:39 20.01.2020
446 Snow -1 1022 82 0 1.09 70 20:19 20.01.2020
447 Snow -1 1022 82 0 1.09 70 20:19 20.01.2020
448 Snow -1 1022 82 0 1.09 70 19:57 20.01.2020
449 Snow -1 1022 82 0 1.09 70 19:38 20.01.2020
450 Snow -1 1022 82 0 1.09 70 19:19 20.01.2020
451 Snow -1 1022 82 0 1.09 70 18:45 20.01.2020
452 Snow -1 1022 82 0 1.09 70 18:24 20.01.2020
453 Snow -1 1022 82 0 1.09 70 17:59 20.01.2020
454 Snow -1 1022 82 0 1.09 70 17:37 20.01.2020
455 Clouds -1 1021 66 0 1.37 25 17:18 20.01.2020
456 -273 0 0 0 0 0 16:44 20.01.2020
457 Clouds -1 1021 66 0 1.37 25 16:25 20.01.2020
458 Clouds -1 1021 66 0 1.37 25 15:58 20.01.2020
459 Clouds -1 1021 66 0 1.37 25 15:58 20.01.2020
460 Clouds -1 1021 66 0 1.37 25 15:40 20.01.2020
461 Clouds -1 1021 66 0 1.37 25 15:21 20.01.2020
462 Clouds -1 1021 66 0 1.37 25 14:56 20.01.2020
463 Clouds -1 1021 66 0 1.37 25 14:37 20.01.2020
464 Clouds 0 1018 63 0 0.47 281 14:19 20.01.2020
465 Clouds 0 1018 63 0 0.47 281 13:42 20.01.2020
466 Clouds 0 1018 65 0 0.32 293 13:23 20.01.2020
467 Clouds 0 1018 65 0 0.32 293 12:56 20.01.2020
468 Clouds 0 1018 65 0 0.32 293 12:38 20.01.2020
469 Clouds 0 1018 65 0 0.32 293 12:19 20.01.2020
470 Clouds 0 1018 65 0 0.32 293 11:43 20.01.2020
471 Clouds 0 1018 65 0 0.32 293 11:24 20.01.2020
472 Clouds 4 1016 41 0 1.92 205 10:57 20.01.2020
473 Clouds 4 1016 41 0 1.92 205 10:39 20.01.2020
474 Clouds 4 1016 41 0 1.92 205 10:20 20.01.2020
475 Clouds 4 1016 41 0 1.92 205 09:41 20.01.2020
476 Clouds 4 1016 41 0 1.92 205 09:22 20.01.2020
477 Clouds 4 1016 41 0 1.92 205 08:51 20.01.2020
478 Clouds 4 1016 39 0 2.47 212 08:31 20.01.2020
479 Clouds 4 1020 34 0 1.61 156 07:54 20.01.2020
480 Clouds 4 1020 34 0 1.61 156 07:30 20.01.2020
481 Clouds 4 1020 34 0 1.61 156 06:59 20.01.2020
482 Clouds 4 1020 34 0 1.61 156 06:59 20.01.2020
483 Clouds 4 1020 34 0 1.61 156 06:34 20.01.2020
484 Clouds 4 1020 34 0 1.61 156 05:49 20.01.2020
485 Clouds 4 1020 34 0 1.61 156 05:30 20.01.2020
486 Clouds 4 1020 34 0 1.61 156 05:30 20.01.2020
487 Clouds 0 1023 42 0 2.02 18 04:58 20.01.2020
488 Clouds 0 1023 42 0 2.02 18 03:30 20.01.2020
489 Clouds -2 1022 44 0 2.59 351 01:58 20.01.2020
490 Clouds -2 1022 44 0 2.59 351 01:38 20.01.2020
491 Clouds -2 1022 42 0 2.8 355 00:46 20.01.2020
492 Clouds -2 1022 42 0 2.8 355 00:26 20.01.2020
493 Clouds -2 1022 42 0 2.8 355 23:54 19.01.2020
494 Clouds -2 1022 42 0 2.8 355 23:36 19.01.2020
495 Clouds -2 1024 45 0 3.17 3 23:18 19.01.2020
496 Clouds -2 1024 45 0 3.17 3 23:18 19.01.2020
497 Clouds -2 1024 45 0 3.17 3 22:54 19.01.2020
498 Clouds -2 1024 45 0 3.17 3 22:36 19.01.2020
499 Clouds -2 1024 45 0 3.17 3 22:18 19.01.2020
500 Clouds -2 1024 45 0 3.17 3 21:54 19.01.2020
501 Clouds -2 1024 45 0 3.17 3 21:36 19.01.2020
502 Clouds -2 1024 45 0 3.17 3 21:18 19.01.2020
503 Clouds -2 1024 45 0 3.17 3 20:54 19.01.2020
504 Clouds -2 1024 45 0 3.17 3 20:36 19.01.2020
505 Clouds -3 1027 51 0 3.25 7 20:18 19.01.2020
506 Clouds -3 1027 51 0 3.25 7 19:54 19.01.2020
507 Clouds -3 1027 51 0 3.25 7 19:36 19.01.2020
508 Clouds -3 1027 51 0 3.25 7 19:18 19.01.2020
509 Clouds -3 1027 51 0 3.25 7 18:54 19.01.2020
510 Clouds -3 1027 51 0 3.25 7 18:36 19.01.2020
511 Clouds -3 1027 51 0 3.25 7 18:36 19.01.2020
512 Clouds -3 1027 51 0 3.25 7 18:18 19.01.2020
513 Clouds -3 1027 51 0 3.25 7 17:56 19.01.2020
514 Clouds -3 1027 51 0 3.25 7 17:37 19.01.2020
515 Clear -3 1026 54 0 3.12 17 17:18 19.01.2020
516 Clear -3 1026 54 0 3.12 17 16:54 19.01.2020
517 Clear -3 1026 54 0 3.12 17 16:36 19.01.2020
518 Clear -3 1026 54 0 3.12 17 16:18 19.01.2020
519 Clear -3 1026 54 0 3.12 17 15:41 19.01.2020
520 Clear -3 1026 54 0 3.12 17 15:22 19.01.2020
521 Clear -3 1026 54 0 3.12 17 14:59 19.01.2020
522 Clear -3 1026 54 0 3.12 17 14:40 19.01.2020
523 Clear -2 1022 74 0 0.42 274 14:19 19.01.2020
524 Clear -2 1022 74 0 0.42 274 13:58 19.01.2020
525 Clear -2 1022 74 0 0.42 274 13:39 19.01.2020
526 Clear -2 1022 71 0 0.32 302 13:21 19.01.2020
527 Clear -2 1022 71 0 0.32 302 12:59 19.01.2020
528 Clear -2 1022 71 0 0.32 302 12:40 19.01.2020
529 Clear -2 1022 71 0 0.32 302 12:21 19.01.2020
530 Clear -2 1022 71 0 0.32 302 11:57 19.01.2020
531 Clear -2 1022 71 0 0.32 302 11:37 19.01.2020
532 Clear 4 1020 43 0 2.77 210 11:18 19.01.2020
533 Clear 4 1020 43 0 2.77 210 10:40 19.01.2020
534 Clear 4 1020 43 0 2.77 210 10:20 19.01.2020
535 Clear 4 1020 43 0 2.77 210 09:57 19.01.2020
536 Clear 4 1020 43 0 2.77 210 09:38 19.01.2020
537 Clear 4 1020 43 0 2.77 210 09:20 19.01.2020
538 Clear 4 1020 43 0 2.77 210 08:55 19.01.2020
539 Clear 4 1020 46 0 2.8 210 08:33 19.01.2020
540 Clear 4 1024 37 0 1.64 221 07:55 19.01.2020
541 Clear 4 1024 37 0 1.64 221 07:29 19.01.2020
542 Clear 4 1024 37 0 1.64 221 06:55 19.01.2020
543 Clear 4 1024 37 0 1.64 221 06:22 19.01.2020
544 Clear -2 1029 49 0 2.43 3 03:58 19.01.2020
545 Clear -2 1029 49 0 2.43 3 02:34 19.01.2020
546 Clear -4 1027 54 0 2.88 4 01:43 19.01.2020
547 Clear -4 1027 51 0 2.82 5 01:20 19.01.2020
548 Clear -4 1027 51 0 2.82 5 00:44 19.01.2020
549 Clear -4 1027 51 0 2.82 5 00:24 19.01.2020
550 Clear -4 1027 51 0 2.82 5 23:54 18.01.2020
551 Clear -4 1027 51 0 2.82 5 23:36 18.01.2020
552 Clear -4 1027 55 0 3.09 359 23:18 18.01.2020
553 Clear -4 1027 55 0 3.09 359 22:41 18.01.2020
554 Clear -4 1027 55 0 3.09 359 22:23 18.01.2020
555 Clear -4 1027 55 0 3.09 359 21:58 18.01.2020
556 Clear -4 1027 55 0 3.09 359 21:39 18.01.2020
557 Clear -4 1027 55 0 3.09 359 21:20 18.01.2020
558 Clear -4 1027 55 0 3.09 359 20:57 18.01.2020
559 Clear -4 1027 55 0 3.09 359 20:39 18.01.2020
560 Clouds -3 1026 57 0 3.15 11 20:19 18.01.2020
561 Clouds -3 1025 59 0 2.82 4 19:43 18.01.2020
562 Clouds -3 1025 59 0 2.82 4 19:24 18.01.2020
563 Clouds -3 1025 59 0 2.82 4 18:54 18.01.2020
564 Clouds -3 1025 59 0 2.82 4 18:36 18.01.2020
565 Clouds -3 1025 59 0 2.82 4 18:18 18.01.2020
566 Clouds -3 1025 59 0 2.82 4 17:41 18.01.2020
567 Snow -2 1024 68 0 1.88 21 17:21 18.01.2020
568 Snow -2 1024 68 0 1.88 21 16:57 18.01.2020
569 Snow -2 1024 68 0 1.88 21 16:38 18.01.2020
570 Snow -2 1024 68 0 1.88 21 16:20 18.01.2020
571 Snow -2 1024 68 0 1.88 21 15:56 18.01.2020
572 Snow -2 1024 68 0 1.88 21 15:38 18.01.2020
573 Snow -2 1024 68 0 1.88 21 15:20 18.01.2020
574 Snow -2 1024 68 0 1.88 21 14:41 18.01.2020
575 Snow -1 1020 83 0 0.87 279 14:20 18.01.2020
576 Snow -1 1020 83 0 0.87 279 13:58 18.01.2020
577 Snow -1 1020 83 0 0.87 279 13:39 18.01.2020
578 Snow 0 1019 81 0 1.07 275 13:20 18.01.2020
579 Snow 0 1019 81 0 1.07 275 12:54 18.01.2020
580 Snow 0 1019 81 0 1.07 275 12:54 18.01.2020
581 Snow 0 1019 81 0 1.07 275 12:36 18.01.2020
582 Snow 0 1019 81 0 1.07 275 12:18 18.01.2020
583 Snow 0 1019 81 0 1.07 275 11:43 18.01.2020
584 Clouds 3 1019 51 0 1.84 209 11:21 18.01.2020
585 Clouds 3 1019 51 0 1.84 209 10:43 18.01.2020
586 Clouds 3 1019 51 0 1.84 209 10:22 18.01.2020
587 Clouds 3 1019 51 0 1.84 209 09:57 18.01.2020
588 Clouds 3 1019 51 0 1.84 209 09:39 18.01.2020
589 Clouds 3 1019 51 0 1.84 209 09:19 18.01.2020
590 Clouds 3 1019 51 0 1.84 209 08:42 18.01.2020
591 Clouds 3 1022 53 0 1.68 218 08:20 18.01.2020
592 Clouds 3 1022 53 0 1.68 218 07:59 18.01.2020
593 Clouds 3 1022 53 0 1.68 218 07:39 18.01.2020
594 Clouds 3 1022 53 0 1.68 218 06:52 18.01.2020
595 Clouds 3 1022 53 0 1.68 218 06:33 18.01.2020
596 Clouds 3 1022 53 0 1.68 218 05:52 18.01.2020
597 Clouds -1 1025 63 0 2.81 11 04:25 18.01.2020
598 Clouds -1 1025 63 0 2.81 11 02:38 18.01.2020
599 Clouds -2 1022 66 0 2.34 13 01:40 18.01.2020
600 Clouds -3 1021 66 0 2.29 13 00:39 18.01.2020
601 Clouds -3 1021 66 0 2.29 13 00:20 18.01.2020
602 Clouds -3 1021 66 0 2.29 13 23:58 17.01.2020
603 Clouds -3 1021 66 0 2.29 13 23:39 17.01.2020
604 Clouds -2 1022 74 0 2.49 14 23:18 17.01.2020
605 Clouds -2 1022 74 0 2.49 14 22:42 17.01.2020
606 Clouds -2 1022 74 0 2.49 14 22:20 17.01.2020
607 Clouds -2 1022 74 0 2.49 14 21:57 17.01.2020
608 Clouds -2 1022 74 0 2.49 14 21:38 17.01.2020
609 Clouds -2 1022 74 0 2.49 14 21:20 17.01.2020
610 Clouds -2 1022 74 0 2.49 14 20:55 17.01.2020
611 Clouds -2 1022 74 0 2.49 14 20:36 17.01.2020
612 Snow -1 1022 88 0 1.72 23 20:18 17.01.2020
613 Snow -1 1022 88 0 1.72 23 19:54 17.01.2020
614 Snow -1 1022 88 0 1.72 23 19:36 17.01.2020
615 Snow -1 1022 88 0 1.72 23 19:18 17.01.2020
616 Snow -1 1022 88 0 1.72 23 18:44 17.01.2020
617 Snow -1 1022 88 0 1.72 23 18:26 17.01.2020
618 Snow -1 1022 88 0 1.72 23 17:56 17.01.2020
619 Snow -1 1022 88 0 1.72 23 17:38 17.01.2020
620 Snow -1 1021 91 0 1.08 31 17:19 17.01.2020
621 Snow -1 1021 91 0 1.08 31 16:41 17.01.2020
622 Snow -1 1021 91 0 1.08 31 16:20 17.01.2020
623 Snow -1 1021 91 0 1.08 31 15:48 17.01.2020
624 Snow -1 1021 91 0 1.08 31 15:27 17.01.2020
625 Snow -1 1021 91 0 1.08 31 14:56 17.01.2020
626 Snow -1 1021 91 0 1.08 31 14:37 17.01.2020
627 Snow 0 1016 94 0 0.9 247 14:19 17.01.2020
628 Snow 0 1016 94 0 0.9 247 13:39 17.01.2020
629 Snow 0 1016 95 0 0.89 243 13:20 17.01.2020
630 Snow 0 1016 95 0 0.89 243 12:45 17.01.2020
631 Snow 0 1016 95 0 0.89 243 12:23 17.01.2020
632 Snow 0 1016 95 0 0.89 243 11:41 17.01.2020
633 Snow 2 1015 86 0 1.98 212 11:19 17.01.2020
634 Snow 2 1015 86 0 1.98 212 10:54 17.01.2020
635 Snow 2 1015 86 0 1.98 212 10:36 17.01.2020
636 Snow 2 1015 86 0 1.98 212 10:18 17.01.2020
637 Snow 2 1015 86 0 1.98 212 09:41 17.01.2020
638 Snow 2 1015 86 0 1.98 212 09:20 17.01.2020
639 Snow 2 1015 86 0 1.98 212 08:55 17.01.2020
640 Snow 2 1015 86 0 1.98 212 08:37 17.01.2020
641 Snow 2 1019 81 0 1.98 190 08:18 17.01.2020
642 Snow 2 1019 81 0 1.98 190 07:43 17.01.2020
643 Snow 2 1019 81 0 1.98 190 07:24 17.01.2020
644 Snow 2 1019 81 0 1.98 190 06:47 17.01.2020
645 Snow 2 1019 81 0 1.98 190 06:29 17.01.2020
646 Snow -1 1022 84 0 1.54 52 04:26 17.01.2020
647 Snow -1 1022 84 0 1.54 52 02:56 17.01.2020
648 Snow -1 1022 84 0 1.54 52 02:32 17.01.2020
649 Snow -1 1021 87 0 2.31 38 01:33 17.01.2020
650 Snow -1 1020 88 0 2.61 40 00:59 17.01.2020
651 Snow -1 1020 88 0 2.61 40 00:37 17.01.2020
652 Snow -1 1020 88 0 2.61 40 23:59 16.01.2020
653 Snow -1 1020 88 0 2.61 40 23:41 16.01.2020
654 Snow -1 1020 88 0 2.61 40 23:22 16.01.2020
655 Snow -1 1021 83 0 1.78 44 22:41 16.01.2020
656 Snow -1 1021 83 0 1.78 44 22:21 16.01.2020
657 Snow -1 1021 83 0 1.78 44 21:57 16.01.2020
658 Snow -1 1021 83 0 1.78 44 21:57 16.01.2020
659 Snow -1 1021 83 0 1.78 44 21:38 16.01.2020
660 Snow -1 1021 83 0 1.78 44 21:19 16.01.2020
661 Snow -1 1021 83 0 1.78 44 21:19 16.01.2020
662 Snow -1 1021 83 0 1.78 44 20:57 16.01.2020
663 Snow -1 1021 83 0 1.78 44 20:38 16.01.2020
664 Snow 0 1020 74 0 1.82 30 20:19 16.01.2020
665 Snow 0 1020 74 0 1.82 30 19:56 16.01.2020
666 Snow 0 1020 74 0 1.82 30 19:37 16.01.2020
667 Snow 0 1020 74 0 1.82 30 19:19 16.01.2020
668 Snow 0 1020 74 0 1.82 30 18:55 16.01.2020
669 Snow 0 1020 74 0 1.82 30 18:37 16.01.2020
670 Snow 0 1020 74 0 1.82 30 18:18 16.01.2020
671 Snow 0 1020 74 0 1.82 30 18:18 16.01.2020
672 Snow 0 1020 74 0 1.82 30 17:42 16.01.2020
673 Snow 0 1020 74 0 1.82 30 17:23 16.01.2020
674 Snow 0 1021 87 0 0.43 140 16:57 16.01.2020
675 Snow 0 1021 87 0 0.43 140 16:39 16.01.2020
676 Snow 0 1021 87 0 0.43 140 16:19 16.01.2020
677 Snow 0 1021 87 0 0.43 140 15:44 16.01.2020
678 Snow 0 1021 87 0 0.43 140 15:23 16.01.2020
679 Snow 0 1021 87 0 0.43 140 14:57 16.01.2020
680 Snow 0 1021 87 0 0.43 140 14:39 16.01.2020
681 Snow 1 1017 90 0 1.29 260 14:20 16.01.2020
682 Snow 1 1017 90 0 1.29 260 13:45 16.01.2020
683 Snow 1 1017 90 0 1.29 260 13:26 16.01.2020
684 Snow 1 1017 90 0 0.98 230 12:47 16.01.2020
685 Snow 1 1017 90 0 0.98 230 12:29 16.01.2020
686 Snow 1 1017 90 0 0.98 230 12:29 16.01.2020
687 Snow 1 1017 90 0 0.98 230 12:29 16.01.2020
688 Snow 1 1017 90 0 0.98 230 11:59 16.01.2020
689 Snow 1 1017 90 0 0.98 230 11:41 16.01.2020
690 Snow 1 1017 90 0 0.98 230 11:41 16.01.2020
691 Snow 1 1017 90 0 0.98 230 11:23 16.01.2020
692 Snow 5 1017 55 0 2.22 220 10:55 16.01.2020
693 Snow 5 1017 55 0 2.22 220 10:36 16.01.2020
694 Snow 5 1017 55 0 2.22 220 10:18 16.01.2020
695 Snow 5 1017 55 0 2.22 220 09:42 16.01.2020
696 Snow 5 1017 55 0 2.22 220 09:24 16.01.2020
697 Snow 5 1017 55 0 2.22 220 08:58 16.01.2020
698 Snow 5 1017 55 0 2.22 220 08:39 16.01.2020
699 Clouds 6 1020 38 0 1.81 217 08:18 16.01.2020
700 Clouds 5 1020 41 0 1.83 212 07:42 16.01.2020
701 Clouds 5 1020 41 0 1.83 212 07:23 16.01.2020
702 Clouds 5 1020 41 0 1.83 212 06:50 16.01.2020
703 Clouds 5 1020 41 0 1.83 212 06:32 16.01.2020
704 Clouds 5 1020 41 0 1.83 212 05:49 16.01.2020
705 Clouds 1 1025 43 0 2.21 5 04:46 16.01.2020
706 Clouds 1 1025 43 0 2.21 5 04:46 16.01.2020
707 Clouds 1 1025 43 0 2.21 5 03:56 16.01.2020
708 Clouds 1 1025 43 0 2.21 5 02:46 16.01.2020
709 Clouds -1 1023 43 0 2.73 10 01:32 16.01.2020
710 Clouds -1 1023 43 0 2.67 10 00:43 16.01.2020
711 Clouds -1 1023 43 0 2.67 10 00:23 16.01.2020
712 Clouds -1 1023 43 0 2.67 10 23:44 15.01.2020
713 Clouds -1 1023 45 0 3.15 15 23:22 15.01.2020
714 Clouds -1 1023 45 0 3.15 15 23:22 15.01.2020
715 Clouds -1 1023 45 0 3.15 15 23:21 15.01.2020
716 Clouds -1 1023 45 0 3.15 15 22:56 15.01.2020
717 Clouds -1 1023 45 0 3.15 15 22:38 15.01.2020
718 Clouds -1 1023 45 0 3.15 15 22:18 15.01.2020
719 Clouds -1 1023 45 0 3.15 15 21:56 15.01.2020
720 Clouds -1 1023 45 0 3.15 15 21:56 15.01.2020
721 Clouds -1 1023 45 0 3.15 15 21:37 15.01.2020
722 Clouds -1 1023 45 0 3.15 15 21:18 15.01.2020
723 Clouds -1 1023 45 0 3.15 15 20:55 15.01.2020
724 Clouds -1 1023 45 0 3.15 15 20:37 15.01.2020
725 Clouds 0 1023 53 0 2.52 17 20:18 15.01.2020
726 Clouds 0 1023 53 0 2.52 17 19:54 15.01.2020
727 Clouds 0 1023 53 0 2.52 17 19:36 15.01.2020
728 Clouds 0 1023 53 0 2.52 17 19:18 15.01.2020
729 Clouds 0 1023 53 0 2.52 17 19:18 15.01.2020
730 Clouds 0 1023 53 0 2.52 17 18:55 15.01.2020
731 Clouds 0 1023 53 0 2.52 17 18:37 15.01.2020
732 Clouds 0 1023 53 0 2.52 17 18:19 15.01.2020
733 Clouds 0 1023 53 0 2.52 17 17:41 15.01.2020
734 Clouds 0 1023 53 0 2.52 17 17:22 15.01.2020
735 Clouds 0 1022 60 0 2.4 24 16:59 15.01.2020
736 Clouds 0 1022 60 0 2.4 24 16:38 15.01.2020
737 Clouds 0 1022 60 0 2.4 24 16:20 15.01.2020
738 Clouds 0 1022 60 0 2.4 24 15:43 15.01.2020
739 Clouds 0 1022 60 0 2.4 24 15:21 15.01.2020
740 Clouds 0 1022 60 0 2.4 24 15:21 15.01.2020
741 Clouds 0 1022 60 0 2.4 24 14:58 15.01.2020
742 Clouds 0 1022 60 0 2.4 24 14:39 15.01.2020
743 Snow 1 1018 78 0 0.69 305 14:18 15.01.2020
744 Snow 1 1018 78 0 0.69 305 13:45 15.01.2020
745 Snow 1 1018 78 0 0.69 305 13:26 15.01.2020
746 Snow 1 1018 75 0 0.64 313 12:58 15.01.2020
747 Snow 1 1018 75 0 0.64 313 12:39 15.01.2020
748 Snow 1 1018 75 0 0.64 313 12:19 15.01.2020
749 Snow 1 1018 75 0 0.64 313 11:56 15.01.2020
750 Snow 1 1018 75 0 0.64 313 11:37 15.01.2020
751 Clear 6 1018 54 0 2.58 215 11:18 15.01.2020
752 Clear 6 1018 54 0 2.58 215 10:42 15.01.2020
753 Clear 6 1018 54 0 2.58 215 10:24 15.01.2020
754 Clear 6 1018 54 0 2.58 215 09:42 15.01.2020
755 Clear 6 1018 54 0 2.58 215 09:23 15.01.2020
756 Clear 6 1018 54 0 2.58 215 08:56 15.01.2020
757 Clear 6 1018 54 0 2.58 215 08:37 15.01.2020
758 Clear 6 1022 46 0 1.89 204 08:19 15.01.2020
759 Clear 6 1022 46 0 1.89 204 07:50 15.01.2020
760 Clear 6 1022 46 0 1.89 204 07:30 15.01.2020
761 Clear 6 1022 46 0 1.89 204 06:44 15.01.2020
762 Clear 6 1022 46 0 1.89 204 06:18 15.01.2020
763 Clear 0 1026 53 0 2.52 9 04:36 15.01.2020
764 Clear 0 1026 53 0 2.52 9 02:32 15.01.2020
765 Clear -2 1025 57 0 3.22 10 01:27 15.01.2020
766 Clear -2 1025 57 0 3.22 10 00:45 15.01.2020
767 Clear -2 1025 57 0 3.22 10 00:26 15.01.2020
768 Clear -2 1025 57 0 3.22 10 23:55 14.01.2020
769 Clear -2 1025 57 0 3.22 10 23:36 14.01.2020
770 Clear -1 1025 58 0 2.96 7 23:18 14.01.2020
771 Clear -1 1025 58 0 2.96 7 22:41 14.01.2020
772 Clear -1 1025 58 0 2.96 7 22:19 14.01.2020
773 Clear -1 1025 58 0 2.96 7 21:58 14.01.2020
774 Clear -1 1025 58 0 2.96 7 21:39 14.01.2020
775 Clear -1 1025 58 0 2.96 7 21:21 14.01.2020
776 Clear -1 1025 58 0 2.96 7 21:21 14.01.2020
777 Clear -1 1025 58 0 2.96 7 20:58 14.01.2020
778 Clear -1 1025 58 0 2.96 7 20:40 14.01.2020
779 Clouds -1 1024 62 0 2.79 4 20:19 14.01.2020
780 Clouds -1 1024 62 0 2.79 4 19:56 14.01.2020
781 Clouds -1 1024 62 0 2.79 4 19:37 14.01.2020
782 Clouds -1 1024 62 0 2.79 4 19:18 14.01.2020
783 Clouds -1 1024 62 0 2.79 4 18:55 14.01.2020
784 Clouds -1 1024 62 0 2.79 4 18:37 14.01.2020
785 Clouds -1 1024 62 0 2.79 4 18:18 14.01.2020
786 Clouds -1 1024 62 0 2.79 4 17:38 14.01.2020
787 Clouds -1 1022 63 0 3.05 12 17:19 14.01.2020
788 Clouds -1 1022 63 0 3.05 12 16:55 14.01.2020
789 Clouds -1 1022 63 0 3.05 12 16:37 14.01.2020
790 Clouds -1 1022 63 0 3.05 12 16:19 14.01.2020
791 Clouds -1 1022 63 0 3.05 12 15:43 14.01.2020
792 Clouds -1 1022 63 0 3.05 12 15:19 14.01.2020
793 Clouds -1 1022 63 0 3.05 12 14:47 14.01.2020
794 Clouds -1 1022 63 0 3.05 12 14:23 14.01.2020
795 Snow 1 1017 85 0 0.85 331 13:59 14.01.2020
796 Snow 1 1017 85 0 0.85 331 13:41 14.01.2020
797 Snow 1 1016 85 0 0.77 316 13:19 14.01.2020
798 Snow 1 1016 85 0 0.77 316 12:43 14.01.2020
799 Snow 1 1016 85 0 0.77 316 12:25 14.01.2020
800 Snow 1 1016 85 0 0.77 316 11:59 14.01.2020
801 Snow 1 1016 85 0 0.77 316 11:40 14.01.2020
802 Snow 1 1016 85 0 0.77 316 11:22 14.01.2020
803 Clouds 5 1015 65 0 1.79 216 10:56 14.01.2020
804 Clouds 5 1015 65 0 1.79 216 10:37 14.01.2020
805 Clouds 5 1015 65 0 1.79 216 10:19 14.01.2020
806 Clouds 5 1015 65 0 1.79 216 09:55 14.01.2020
807 Clouds 5 1015 65 0 1.79 216 09:37 14.01.2020
808 Clouds 5 1015 65 0 1.79 216 09:19 14.01.2020
809 Clouds 5 1015 65 0 1.79 216 08:41 14.01.2020
810 Clouds 5 1015 65 0 1.79 216 08:41 14.01.2020
811 Clouds 5 1015 65 0 1.79 216 08:41 14.01.2020
812 Clouds 5 1015 65 0 1.79 216 08:22 14.01.2020
813 Clouds 3 1019 82 0 1.07 224 07:53 14.01.2020
814 Clouds 3 1019 82 0 1.07 224 07:25 14.01.2020
815 Clouds 3 1019 82 0 1.07 224 06:44 14.01.2020
816 Clouds 3 1019 82 0 1.07 224 06:18 14.01.2020
817 Clouds -1 1024 75 0 2.83 4 04:56 14.01.2020
818 Clouds -1 1024 75 0 2.83 4 03:48 14.01.2020
819 Clouds -1 1024 75 0 2.83 4 02:40 14.01.2020
820 Clouds -2 1021 71 0 4.05 2 01:34 14.01.2020
821 Clouds -3 1022 67 0 4.04 4 00:49 14.01.2020
822 Clouds -3 1022 67 0 4.04 4 00:26 14.01.2020
823 Clouds -3 1022 67 0 4.04 4 23:47 13.01.2020
824 Clouds -2 1019 83 0 3.07 2 23:19 13.01.2020
825 Clouds -2 1019 83 0 3.07 2 22:59 13.01.2020
826 Clouds -2 1019 83 0 3.07 2 22:40 13.01.2020
827 Clouds -2 1019 83 0 3.07 2 22:20 13.01.2020
828 Clouds -2 1019 83 0 3.07 2 21:56 13.01.2020
829 Clouds -2 1019 83 0 3.07 2 21:37 13.01.2020
830 Clouds -2 1019 83 0 3.07 2 21:37 13.01.2020
831 Clouds -2 1019 83 0 3.07 2 21:18 13.01.2020
832 Clouds -2 1019 83 0 3.07 2 20:57 13.01.2020
833 Clouds -2 1019 83 0 3.07 2 20:57 13.01.2020
834 Clouds -2 1019 83 0 3.07 2 20:38 13.01.2020
835 Snow 0 1014 96 0 0.46 336 20:20 13.01.2020
836 Snow 0 1014 96 0 0.46 336 19:58 13.01.2020
837 Snow 0 1014 96 0 0.46 336 19:39 13.01.2020
838 Snow 0 1014 96 0 0.46 336 19:19 13.01.2020
839 Snow 0 1014 96 0 0.46 336 18:56 13.01.2020
840 Snow 0 1014 96 0 0.46 336 18:37 13.01.2020
841 Snow 0 1014 96 0 0.46 336 18:37 13.01.2020
842 Snow 0 1014 96 0 0.46 336 18:18 13.01.2020
843 -273 0 0 0 0 0 18:18 13.01.2020
844 Snow 0 1014 96 0 0.46 336 17:40 13.01.2020
845 Snow 0 1014 96 0 0.46 336 17:22 13.01.2020
846 Snow 0 1014 96 0 0.46 336 17:22 13.01.2020
847 Snow -1 1011 98 0 2.98 263 16:57 13.01.2020
848 Snow -1 1011 98 0 2.98 263 16:38 13.01.2020
849 Snow -1 1011 98 0 2.98 263 16:20 13.01.2020
850 Snow -1 1011 98 0 2.98 263 15:44 13.01.2020
851 Snow -1 1011 98 0 2.98 263 15:24 13.01.2020
852 Snow -1 1011 98 0 2.98 263 14:58 13.01.2020
853 Snow -1 1011 98 0 2.98 263 14:38 13.01.2020
854 Snow 2 1006 99 0 3.26 222 14:20 13.01.2020
855 Snow 2 1006 99 0 3.26 222 14:20 13.01.2020
856 Snow 2 1006 99 0 3.26 222 13:55 13.01.2020
857 Snow 2 1006 99 0 3.26 222 13:37 13.01.2020
858 Snow 2 1006 99 0 3.26 222 13:19 13.01.2020
859 Snow 2 1006 97 0 1.14 272 12:43 13.01.2020
860 Snow 2 1006 97 0 1.14 272 12:23 13.01.2020
861 Snow 2 1006 97 0 1.14 272 11:57 13.01.2020
862 Snow 2 1006 97 0 1.14 272 11:37 13.01.2020
863 Snow 2 1006 97 0 1.14 272 11:37 13.01.2020
864 Snow 3 1007 96 0 1.02 251 11:19 13.01.2020
865 Snow 3 1007 96 0 1.02 251 10:56 13.01.2020
866 Snow 3 1007 96 0 1.02 251 10:37 13.01.2020
867 Snow 3 1007 96 0 1.02 251 10:19 13.01.2020
868 Snow 3 1007 96 0 1.02 251 09:44 13.01.2020
869 Snow 3 1007 96 0 1.02 251 09:24 13.01.2020
870 Snow 3 1007 96 0 1.02 251 08:57 13.01.2020
871 Snow 3 1007 96 0 1.02 251 08:37 13.01.2020
872 Snow 5 1012 77 0 1.84 25 08:18 13.01.2020
873 Snow 5 1011 72 0 1.76 0 07:44 13.01.2020
874 Snow 5 1011 72 0 1.76 0 07:26 13.01.2020
875 Snow 5 1011 72 0 1.76 0 06:37 13.01.2020
876 Snow 5 1011 72 0 1.76 0 05:42 13.01.2020
877 Clouds 5 1014 62 0 3.19 353 05:19 13.01.2020
878 Clouds 5 1014 62 0 3.19 353 03:44 13.01.2020
879 Clouds 5 1014 62 0 3.19 353 02:51 13.01.2020
880 Clouds 5 1014 62 0 3.19 353 02:30 13.01.2020
881 Clouds 4 1014 59 0 3.32 1 01:33 13.01.2020
882 Clouds 4 1014 59 0 3.32 1 00:55 13.01.2020
883 Clouds 4 1014 59 0 3.32 1 00:36 13.01.2020
884 Clouds 4 1014 59 0 3.32 1 00:18 13.01.2020
885 Clouds 4 1014 59 0 3.32 1 23:40 12.01.2020
886 Clouds 6 1016 56 0 3.78 19 23:22 12.01.2020
887 Clouds 6 1016 56 0 3.78 19 22:57 12.01.2020
888 Clouds 6 1016 56 0 3.78 19 22:39 12.01.2020
889 Clouds 6 1016 56 0 3.78 19 22:19 12.01.2020
890 Clouds 6 1016 56 0 3.78 19 21:54 12.01.2020
891 Clouds 6 1016 56 0 3.78 19 21:54 12.01.2020
892 Clouds 6 1016 56 0 3.78 19 21:36 12.01.2020
893 Clouds 6 1016 56 0 3.78 19 21:18 12.01.2020
894 Clouds 6 1016 56 0 3.78 19 20:54 12.01.2020
895 Clouds 6 1016 56 0 3.78 19 20:36 12.01.2020
896 Clouds 5 1018 57 0 4.85 4 20:18 12.01.2020
897 Clouds 6 1018 53 0 4.32 1 19:54 12.01.2020
898 Clouds 6 1018 53 0 4.32 1 19:36 12.01.2020
899 Clouds 6 1018 53 0 4.32 1 19:18 12.01.2020
900 Clouds 6 1018 53 0 4.32 1 18:54 12.01.2020
901 Clouds 6 1018 53 0 4.32 1 18:36 12.01.2020
902 Clouds 6 1018 53 0 4.32 1 18:18 12.01.2020
903 Clouds 6 1018 53 0 4.32 1 17:42 12.01.2020
904 Clouds 6 1020 54 0 4.22 9 17:20 12.01.2020
905 Clouds 6 1020 54 0 4.22 9 16:57 12.01.2020
906 Clouds 6 1020 54 0 4.22 9 16:38 12.01.2020
907 Clouds 6 1020 54 0 4.22 9 16:19 12.01.2020
908 Clouds 6 1020 54 0 4.22 9 15:55 12.01.2020
909 Clouds 6 1020 54 0 4.22 9 15:36 12.01.2020
910 Clouds 6 1020 54 0 4.22 9 15:18 12.01.2020
911 Clouds 6 1020 54 0 4.22 9 14:42 12.01.2020
912 Clouds 6 1020 54 0 4.22 9 14:22 12.01.2020
913 Snow 6 1018 65 0 3.77 21 13:56 12.01.2020
914 Snow 6 1018 65 0 3.77 21 13:38 12.01.2020
915 Snow 6 1018 65 0 3.77 21 13:20 12.01.2020
916 Rain 6 1018 66 0 3 24 12:44 12.01.2020
917 Rain 6 1018 66 0 3 24 12:21 12.01.2020
918 Rain 6 1018 66 0 3 24 11:59 12.01.2020
919 Rain 6 1018 66 0 3 24 11:40 12.01.2020
920 Rain 9 1018 66 0 1.72 32 11:22 12.01.2020
921 Rain 9 1018 66 0 1.72 32 10:56 12.01.2020
922 Rain 9 1018 66 0 1.72 32 10:37 12.01.2020
923 Rain 9 1018 66 0 1.72 32 10:18 12.01.2020
924 Rain 9 1018 66 0 1.72 32 09:41 12.01.2020
925 -273 0 0 0 0 0 09:22 12.01.2020
926 Rain 9 1018 66 0 1.72 32 08:48 12.01.2020
927 Rain 9 1018 66 0 1.72 32 08:24 12.01.2020
928 Rain 6 1021 79 0 2.75 43 07:49 12.01.2020
929 Rain 6 1021 79 0 2.75 43 07:30 12.01.2020
930 Rain 6 1021 79 0 2.75 43 06:59 12.01.2020
931 Rain 6 1021 79 0 2.75 43 06:59 12.01.2020
932 Rain 6 1021 79 0 2.75 43 06:59 12.01.2020
933 Rain 6 1021 79 0 2.75 43 06:36 12.01.2020
934 Rain 6 1021 79 0 2.75 43 05:55 12.01.2020
935 Snow 3 1023 87 0 3.47 51 04:56 12.01.2020
936 Snow 3 1023 87 0 3.47 51 03:43 12.01.2020
937 Snow 3 1023 87 0 3.47 51 02:48 12.01.2020
938 Snow 3 1023 87 0 3.47 51 02:24 12.01.2020
939 Snow 3 1023 71 0 3.19 10 01:34 12.01.2020
940 Snow 3 1023 71 0 3.19 10 00:46 12.01.2020
941 Snow 3 1023 71 0 3.19 10 00:22 12.01.2020
942 Snow 3 1023 71 0 3.19 10 00:22 12.01.2020
943 Snow 3 1023 71 0 3.19 10 23:59 11.01.2020
944 Snow 3 1023 71 0 3.19 10 23:41 11.01.2020
945 Snow 4 1024 56 0 3.45 12 23:18 11.01.2020
946 Snow 4 1024 56 0 3.45 12 22:56 11.01.2020
947 Snow 4 1024 56 0 3.45 12 22:38 11.01.2020
948 Snow 4 1024 56 0 3.45 12 22:19 11.01.2020
949 Snow 4 1024 56 0 3.45 12 21:44 11.01.2020
950 Snow 4 1024 56 0 3.45 12 21:20 11.01.2020
951 Snow 4 1024 56 0 3.45 12 20:59 11.01.2020
952 Snow 4 1024 56 0 3.45 12 20:39 11.01.2020
953 Clouds 4 1025 45 0 2.58 355 20:20 11.01.2020
954 Clouds 4 1024 42 0 2.27 347 19:57 11.01.2020
955 Clouds 4 1024 42 0 2.27 347 19:38 11.01.2020
956 Clouds 4 1024 42 0 2.27 347 19:38 11.01.2020
957 Clouds 4 1024 42 0 2.27 347 19:20 11.01.2020
958 Clouds 4 1024 42 0 2.27 347 18:56 11.01.2020
959 Clouds 4 1024 42 0 2.27 347 18:37 11.01.2020
960 Clouds 4 1024 42 0 2.27 347 18:19 11.01.2020
961 Clouds 4 1024 42 0 2.27 347 18:19 11.01.2020
962 Clouds 4 1024 42 0 2.27 347 17:57 11.01.2020
963 Clouds 4 1024 42 0 2.27 347 17:39 11.01.2020
964 Clouds 4 1024 40 0 2.53 6 17:18 11.01.2020
965 Clouds 4 1024 40 0 2.53 6 16:44 11.01.2020
966 Clouds 4 1024 40 0 2.53 6 16:25 11.01.2020
967 Clouds 4 1024 40 0 2.53 6 15:57 11.01.2020
968 Clouds 4 1024 40 0 2.53 6 15:39 11.01.2020
969 Clouds 4 1024 40 0 2.53 6 15:20 11.01.2020
970 Clouds 4 1024 40 0 2.53 6 14:47 11.01.2020
971 Clouds 4 1024 40 0 2.53 6 14:26 11.01.2020
972 Clouds 4 1022 51 0 1.8 17 13:59 11.01.2020
973 Clouds 4 1022 51 0 1.8 17 13:38 11.01.2020
974 Clouds 4 1022 51 0 1.8 17 13:20 11.01.2020
975 Clouds 4 1021 50 0 1.81 23 12:56 11.01.2020
976 Clouds 4 1021 50 0 1.81 23 12:38 11.01.2020
977 Clouds 4 1021 50 0 1.81 23 12:20 11.01.2020
978 Clouds 4 1021 50 0 1.81 23 11:45 11.01.2020
979 Clouds 4 1021 50 0 1.81 23 11:24 11.01.2020
980 Clouds 8 1020 35 0 1.71 204 10:50 11.01.2020
981 Clouds 8 1020 35 0 1.71 204 10:30 11.01.2020
982 Clouds 8 1020 35 0 1.71 204 09:55 11.01.2020
983 Clouds 8 1020 35 0 1.71 204 09:37 11.01.2020
984 Clouds 8 1020 35 0 1.71 204 09:18 11.01.2020
985 Clouds 8 1020 35 0 1.71 204 08:41 11.01.2020
986 Clouds 8 1024 27 0 1.07 205 08:21 11.01.2020
987 Clouds 8 1024 29 0 1.42 232 07:43 11.01.2020
988 Clouds 8 1024 29 0 1.42 232 07:25 11.01.2020
989 Clouds 8 1024 29 0 1.42 232 06:45 11.01.2020
990 Clouds 8 1024 29 0 1.42 232 05:34 11.01.2020
991 Clouds 2 1027 28 0 3.25 8 04:46 11.01.2020
992 Clouds 2 1027 28 0 3.25 8 04:27 11.01.2020
993 Clouds 2 1027 28 0 3.25 8 02:49 11.01.2020
994 Clouds 0 1027 24 0 3.69 1 01:57 11.01.2020
995 Clouds 0 1027 24 0 3.69 1 01:38 11.01.2020
996 Clouds 1 1027 25 0 3.51 358 01:18 11.01.2020
997 Clouds 1 1027 25 0 3.51 358 00:38 11.01.2020
998 Clouds 1 1027 25 0 3.51 358 23:59 10.01.2020
999 Clouds 1 1027 25 0 3.51 358 23:40 10.01.2020
1000 Clouds 1 1027 25 0 3.51 358 23:40 10.01.2020
1001 Clouds 0 1028 30 0 3.94 8 23:21 10.01.2020
1002 Clouds 0 1028 30 0 3.94 8 22:56 10.01.2020
1003 Clouds 0 1028 30 0 3.94 8 22:38 10.01.2020
1004 Clouds 0 1028 30 0 3.94 8 22:19 10.01.2020
1005 Clouds 0 1028 30 0 3.94 8 21:55 10.01.2020
1006 Clouds 0 1028 30 0 3.94 8 21:36 10.01.2020
1007 Clouds 0 1028 30 0 3.94 8 21:18 10.01.2020
1008 Clouds 0 1028 30 0 3.94 8 20:42 10.01.2020
1009 Clouds 0 1027 28 0 3.88 9 20:24 10.01.2020
1010 Clouds 0 1028 33 0 3.85 0 19:56 10.01.2020
1011 Clouds 0 1028 33 0 3.85 0 19:37 10.01.2020
1012 Clouds 0 1028 33 0 3.85 0 19:19 10.01.2020
1013 Clouds 0 1028 33 0 3.85 0 19:19 10.01.2020
1014 Clouds 0 1028 33 0 3.85 0 18:42 10.01.2020
1015 Clouds 0 1028 33 0 3.85 0 18:19 10.01.2020
1016 Clouds 0 1028 33 0 3.85 0 17:57 10.01.2020
1017 Clouds 0 1028 33 0 3.85 0 17:39 10.01.2020
1018 Clouds 0 1027 41 0 3.99 21 17:20 10.01.2020
1019 Clouds 0 1027 41 0 3.99 21 16:57 10.01.2020
1020 Clouds 0 1027 41 0 3.99 21 16:38 10.01.2020
1021 Clouds 0 1027 41 0 3.99 21 16:19 10.01.2020
1022 Clouds 0 1027 41 0 3.99 21 15:56 10.01.2020
1023 Clouds 0 1027 41 0 3.99 21 15:37 10.01.2020
1024 Clouds 0 1027 41 0 3.99 21 15:18 10.01.2020
1025 Clouds 0 1027 41 0 3.99 21 14:55 10.01.2020
1026 Clouds 0 1027 41 0 3.99 21 14:37 10.01.2020
1027 Clear 0 1023 57 0 2.25 25 14:18 10.01.2020
1028 Clear 0 1023 57 0 2.25 25 13:44 10.01.2020
1029 Clear 0 1023 56 0 2.22 22 13:26 10.01.2020
1030 Clear 0 1023 56 0 2.22 22 12:59 10.01.2020
1031 Clear 0 1023 56 0 2.22 22 12:39 10.01.2020
1032 Clear 0 1023 56 0 2.22 22 12:21 10.01.2020
1033 Clear 0 1023 56 0 2.22 22 12:21 10.01.2020
1034 Clear 0 1023 56 0 2.22 22 11:56 10.01.2020
1035 Clear 0 1023 56 0 2.22 22 11:38 10.01.2020
1036 Clear 6 1020 38 0 2.05 206 11:19 10.01.2020
1037 Clear 6 1020 38 0 2.05 206 10:58 10.01.2020
1038 Clear 6 1020 38 0 2.05 206 10:58 10.01.2020
1039 Clear 6 1020 38 0 2.05 206 10:58 10.01.2020
1040 Clear 6 1020 38 0 2.05 206 10:37 10.01.2020
1041 Clear 6 1020 38 0 2.05 206 10:18 10.01.2020
1042 Clear 6 1020 38 0 2.05 206 10:18 10.01.2020
1043 Clear 6 1020 38 0 2.05 206 09:45 10.01.2020
1044 Clear 6 1020 38 0 2.05 206 09:25 10.01.2020
1045 Clear 6 1020 38 0 2.05 206 08:56 10.01.2020
1046 Clear 6 1020 38 0 2.05 206 08:37 10.01.2020
1047 Clear 6 1024 24 0 1.33 212 08:18 10.01.2020
1048 Clear 6 1024 25 0 1.52 216 07:41 10.01.2020
1049 Clear 6 1024 25 0 1.52 216 07:19 10.01.2020
1050 Clear 6 1024 25 0 1.52 216 06:37 10.01.2020
1051 Clear 6 1024 25 0 1.52 216 06:19 10.01.2020
1052 Clear -1 1028 25 0 3.16 357 05:19 10.01.2020
1053 Clear -1 1028 25 0 3.16 357 03:31 10.01.2020
1054 Clear -1 1028 25 0 3.16 357 02:52 10.01.2020
1055 Clear -1 1028 25 0 3.16 357 02:33 10.01.2020
1056 Clear -3 1027 25 0 3.75 358 01:32 10.01.2020
1057 Clear -3 1027 25 0 3.75 358 00:53 10.01.2020
1058 Clear -3 1027 25 0 3.75 358 00:34 10.01.2020
1059 Clear -3 1027 25 0 3.75 358 23:57 09.01.2020
1060 Clear -3 1027 25 0 3.75 358 23:37 09.01.2020
1061 Clear -3 1028 31 0 3.71 1 23:19 09.01.2020
1062 Clear -3 1028 31 0 3.71 1 22:56 09.01.2020
1063 Clear -3 1028 31 0 3.71 1 22:37 09.01.2020
1064 Clear -3 1028 31 0 3.71 1 22:18 09.01.2020
1065 Clear -3 1028 31 0 3.71 1 21:55 09.01.2020
1066 Clear -3 1028 31 0 3.71 1 21:37 09.01.2020
1067 Clear -3 1028 31 0 3.71 1 21:18 09.01.2020
1068 Clear -3 1028 31 0 3.71 1 20:55 09.01.2020
1069 Clear -3 1028 31 0 3.71 1 20:37 09.01.2020
1070 Clear -3 1030 34 0 3.58 1 20:18 09.01.2020
1071 Clear -3 1030 34 0 3.58 1 20:18 09.01.2020
1072 Clear -3 1030 33 0 3.68 360 19:39 09.01.2020
1073 Clear -3 1030 33 0 3.68 360 19:21 09.01.2020
1074 Clear -3 1030 33 0 3.68 360 18:59 09.01.2020
1075 Clear -3 1030 33 0 3.68 360 18:40 09.01.2020
1076 Clear -3 1030 33 0 3.68 360 18:21 09.01.2020
1077 Clear -3 1030 33 0 3.68 360 17:57 09.01.2020
1078 Clear -3 1030 33 0 3.68 360 17:39 09.01.2020
1079 Clear -4 1029 34 0 3.35 8 17:18 09.01.2020
1080 Clear -4 1029 34 0 3.35 8 16:42 09.01.2020
1081 Clear -4 1029 34 0 3.35 8 16:21 09.01.2020
1082 Clear -4 1029 34 0 3.35 8 15:43 09.01.2020
1083 Clear -4 1029 34 0 3.35 8 15:23 09.01.2020
1084 Clear -4 1029 34 0 3.35 8 14:59 09.01.2020
1085 Clear -4 1029 34 0 3.35 8 14:41 09.01.2020
1086 Clear -3 1025 66 0 1.38 17 14:19 09.01.2020
1087 Clear -3 1025 66 0 1.38 17 13:56 09.01.2020
1088 Clear -3 1025 66 0 1.38 17 13:38 09.01.2020
1089 Clear -3 1025 66 0 1.38 17 13:19 09.01.2020
1090 Clear -3 1024 65 0 1.32 11 12:56 09.01.2020
1091 Clear -3 1024 65 0 1.32 11 12:38 09.01.2020
1092 Clear -3 1024 65 0 1.32 11 12:18 09.01.2020
1093 Clear -3 1024 65 0 1.32 11 11:42 09.01.2020
1094 Clear -3 1024 65 0 1.32 11 11:24 09.01.2020
1095 Clear -3 1024 65 0 1.32 11 11:24 09.01.2020
1096 Clear -3 1024 65 0 1.32 11 11:24 09.01.2020
1097 Clear 3 1021 41 0 2.24 199 10:58 09.01.2020
1098 Clear 3 1021 41 0 2.24 199 10:40 09.01.2020
1099 Clear 3 1021 41 0 2.24 199 10:21 09.01.2020
1100 Clear 3 1021 41 0 2.24 199 09:47 09.01.2020
1101 Clear 3 1021 41 0 2.24 199 09:25 09.01.2020
1102 Clear 3 1021 41 0 2.24 199 08:59 09.01.2020
1103 Clear 3 1021 41 0 2.24 199 08:39 09.01.2020
1104 Clear 0 1025 71 0 0.9 248 08:21 09.01.2020
1105 Clear 0 1025 71 0 0.9 248 07:53 09.01.2020
1106 Clear 0 1025 71 0 0.9 248 07:33 09.01.2020
1107 Clear 0 1025 71 0 0.9 248 06:52 09.01.2020
1108 Clear 0 1025 71 0 0.9 248 06:32 09.01.2020
1109 Clear 0 1025 71 0 0.9 248 05:52 09.01.2020
1110 Clear 0 1025 71 0 0.9 248 05:28 09.01.2020
1111 Clear -6 1030 63 0 3.76 355 04:41 09.01.2020
1112 Clear -6 1030 63 0 3.76 355 03:28 09.01.2020
1113 Clear -6 1030 63 0 3.76 355 02:47 09.01.2020
1114 Clear -8 1028 61 0 3.72 357 01:53 09.01.2020
1115 Clear -8 1028 61 0 3.72 357 01:33 09.01.2020
1116 Clear -8 1028 60 0 3.87 357 00:39 09.01.2020
1117 Clear -8 1028 60 0 3.87 357 00:19 09.01.2020
1118 Clear -8 1028 60 0 3.87 357 23:41 08.01.2020
1119 Clear -8 1028 60 0 3.87 357 23:23 08.01.2020
1120 Clear -8 1026 65 0 4.22 2 22:56 08.01.2020
1121 Clear -8 1026 65 0 4.22 2 22:38 08.01.2020
1122 Clear -8 1026 65 0 4.22 2 22:19 08.01.2020
1123 Clear -8 1026 65 0 4.22 2 21:56 08.01.2020
1124 Clear -8 1026 65 0 4.22 2 21:37 08.01.2020
1125 Clear -8 1026 65 0 4.22 2 21:18 08.01.2020
1126 Clear -8 1026 65 0 4.22 2 20:57 08.01.2020
1127 Clear -8 1026 65 0 4.22 2 20:38 08.01.2020
1128 Clouds -7 1022 70 0 3.85 6 20:19 08.01.2020
1129 Clouds -7 1022 70 0 3.85 6 19:55 08.01.2020
1130 Clouds -7 1022 70 0 3.85 6 19:55 08.01.2020
1131 Clouds -7 1022 70 0 3.85 6 19:36 08.01.2020
1132 Clouds -7 1022 70 0 3.85 6 19:18 08.01.2020
1133 Clouds -7 1022 70 0 3.85 6 18:54 08.01.2020
1134 Clouds -7 1022 70 0 3.85 6 18:36 08.01.2020
1135 Clouds -7 1022 70 0 3.85 6 18:18 08.01.2020
1136 Clouds -7 1022 70 0 3.85 6 17:42 08.01.2020
1137 Clouds -7 1022 70 0 3.85 6 17:23 08.01.2020
1138 Clouds -5 1021 82 0 2.55 23 16:57 08.01.2020
1139 Clouds -5 1021 82 0 2.55 23 16:38 08.01.2020
1140 Clouds -5 1021 82 0 2.55 23 16:19 08.01.2020
1141 Clouds -5 1021 82 0 2.55 23 16:19 08.01.2020
1142 Clouds -5 1021 82 0 2.55 23 15:56 08.01.2020
1143 Clouds -5 1021 82 0 2.55 23 15:38 08.01.2020
1144 Clouds -5 1021 82 0 2.55 23 15:18 08.01.2020
1145 Clouds -5 1021 82 0 2.55 23 14:41 08.01.2020
1146 Snow -4 1016 95 0 0.73 79 14:21 08.01.2020
1147 Snow -4 1016 95 0 0.73 79 13:56 08.01.2020
1148 Snow -4 1016 95 0 0.73 79 13:37 08.01.2020
1149 Snow -3 1015 97 0 1.05 103 13:18 08.01.2020
1150 Snow -3 1015 97 0 1.05 103 12:41 08.01.2020
1151 Snow -3 1015 97 0 1.05 103 12:18 08.01.2020
1152 Snow -3 1015 97 0 1.05 103 11:55 08.01.2020
1153 Snow -3 1015 97 0 1.05 103 11:37 08.01.2020
1154 Snow -2 1013 97 0 1.95 140 11:18 08.01.2020
1155 Snow -2 1013 97 0 1.95 140 10:41 08.01.2020
1156 Snow -2 1013 97 0 1.95 140 10:22 08.01.2020
1157 Snow -2 1013 97 0 1.95 140 09:59 08.01.2020
1158 Snow -2 1013 97 0 1.95 140 09:41 08.01.2020
1159 Snow -2 1013 97 0 1.95 140 09:19 08.01.2020
1160 Snow -2 1013 97 0 1.95 140 08:43 08.01.2020
1161 Snow -2 1013 97 0 1.95 140 08:24 08.01.2020
1162 Snow -1 1017 87 0 0.48 115 07:59 08.01.2020
1163 Snow -1 1017 87 0 0.48 115 07:41 08.01.2020
1164 Snow -1 1017 87 0 0.48 115 07:23 08.01.2020
1165 Snow -1 1017 87 0 0.48 115 06:44 08.01.2020
1166 Snow -1 1017 87 0 0.48 115 05:59 08.01.2020
1167 Snow -1 1017 87 0 0.48 115 05:28 08.01.2020
1168 Snow -3 1020 85 0 1.77 346 04:46 08.01.2020
1169 Snow -3 1020 85 0 1.77 346 03:33 08.01.2020
1170 Snow -3 1020 85 0 1.77 346 02:44 08.01.2020
1171 Snow -2 1017 99 0 1.47 226 02:19 08.01.2020
1172 Snow -2 1017 99 0 1.47 226 01:40 08.01.2020
1173 Snow -3 1017 97 0 2.03 276 00:59 08.01.2020
1174 Snow -3 1017 97 0 2.03 276 00:27 08.01.2020
1175 Snow -3 1017 97 0 2.03 276 23:47 07.01.2020
1176 Snow -2 1016 99 0 2.25 202 23:22 07.01.2020
1177 Snow -2 1016 99 0 2.25 202 22:58 07.01.2020
1178 Snow -2 1016 99 0 2.25 202 22:39 07.01.2020
1179 Snow -2 1016 99 0 2.25 202 22:20 07.01.2020
1180 Snow -2 1016 99 0 2.25 202 21:55 07.01.2020
1181 Snow -2 1016 99 0 2.25 202 21:37 07.01.2020
1182 Snow -2 1016 99 0 2.25 202 21:19 07.01.2020
1183 Snow -2 1016 99 0 2.25 202 20:42 07.01.2020
1184 Snow -2 1016 99 0 1.21 190 20:24 07.01.2020
1185 Snow -2 1015 99 0 2.31 171 19:59 07.01.2020
1186 Snow -2 1015 99 0 2.31 171 19:38 07.01.2020
1187 Snow -2 1015 99 0 2.31 171 19:19 07.01.2020
1188 Snow -2 1015 99 0 2.31 171 18:58 07.01.2020
1189 Snow -2 1015 99 0 2.31 171 18:39 07.01.2020
1190 Snow -2 1015 99 0 2.31 171 18:18 07.01.2020
1191 Snow -2 1015 99 0 2.31 171 18:18 07.01.2020
1192 Snow -2 1015 99 0 2.31 171 17:58 07.01.2020
1193 Snow -2 1015 99 0 2.31 171 17:39 07.01.2020
1194 Snow -1 1015 99 0 1.21 226 17:20 07.01.2020
1195 Snow -1 1015 99 0 1.21 226 16:56 07.01.2020
1196 Snow -1 1015 99 0 1.21 226 16:37 07.01.2020
1197 Snow -1 1015 99 0 1.21 226 16:18 07.01.2020
1198 Snow -1 1015 99 0 1.21 226 15:55 07.01.2020
1199 Snow -1 1015 99 0 1.21 226 15:36 07.01.2020
1200 Snow -1 1015 99 0 1.21 226 15:18 07.01.2020
1201 Snow -1 1015 99 0 1.21 226 14:42 07.01.2020
1202 Snow -1 1015 99 0 1.21 226 14:23 07.01.2020
1203 Snow -1 1015 99 0 1.21 226 14:23 07.01.2020
1204 Snow -1 1013 99 0 2.33 185 13:56 07.01.2020
1205 Snow -1 1013 99 0 2.33 185 13:38 07.01.2020
1206 Snow 0 1013 99 0 1.79 180 13:18 07.01.2020
1207 Snow 0 1013 99 0 1.79 180 12:41 07.01.2020
1208 Snow 0 1013 99 0 1.79 180 12:19 07.01.2020
1209 Snow 0 1013 99 0 1.79 180 11:44 07.01.2020
1210 Snow 0 1013 99 0 1.79 180 11:23 07.01.2020
1211 Snow 2 1014 95 0 1.13 153 10:59 07.01.2020
1212 Snow 2 1014 95 0 1.13 153 10:40 07.01.2020
1213 Snow 2 1014 95 0 1.13 153 10:22 07.01.2020
1214 Snow 2 1014 95 0 1.13 153 09:56 07.01.2020
1215 Snow 2 1014 95 0 1.13 153 09:37 07.01.2020
1216 Snow 2 1014 95 0 1.13 153 09:19 07.01.2020
1217 Snow 2 1014 95 0 1.13 153 08:42 07.01.2020
1218 Snow 3 1018 92 0 2.47 195 08:21 07.01.2020
1219 Snow 1 1019 98 0 1.44 176 07:51 07.01.2020
1220 Snow 1 1019 98 0 1.44 176 07:26 07.01.2020
1221 Snow 1 1019 98 0 1.44 176 06:52 07.01.2020
1222 Snow 1 1019 98 0 1.44 176 06:32 07.01.2020
1223 Snow 1 1019 98 0 1.44 176 05:46 07.01.2020
1224 Snow 0 1022 89 0 1.03 19 04:31 07.01.2020
1225 Snow 0 1022 89 0 1.03 19 03:26 07.01.2020
1226 Snow -1 1019 97 0 1 22 02:21 07.01.2020
1227 Snow -1 1019 97 0 1 22 01:51 07.01.2020
1228 Snow -1 1019 97 0 1 22 01:26 07.01.2020
1229 Snow -1 1019 97 0 1.11 19 00:23 07.01.2020
1230 Snow -1 1019 97 0 1.11 19 23:59 06.01.2020
1231 Snow -1 1019 97 0 1.11 19 23:39 06.01.2020
1232 Snow -1 1019 98 0 1.15 36 23:21 06.01.2020
1233 Snow -1 1019 98 0 1.15 36 22:58 06.01.2020
1234 Snow -1 1019 98 0 1.15 36 22:37 06.01.2020
1235 Snow -1 1019 98 0 1.15 36 22:19 06.01.2020
1236 Snow -1 1019 98 0 1.15 36 21:55 06.01.2020
1237 Snow -1 1019 98 0 1.15 36 21:37 06.01.2020
1238 Snow -1 1019 98 0 1.15 36 21:18 06.01.2020
1239 Snow -1 1019 98 0 1.15 36 20:55 06.01.2020
1240 Snow -1 1019 98 0 1.15 36 20:37 06.01.2020
1241 Snow -1 1019 98 0 0.91 50 20:19 06.01.2020
1242 Snow -1 1019 98 0 0.91 50 20:19 06.01.2020
1243 Snow -1 1020 98 0 1.05 51 19:55 06.01.2020
1244 Snow -1 1020 98 0 1.05 51 19:36 06.01.2020
1245 Snow -1 1020 98 0 1.05 51 19:36 06.01.2020
1246 Snow -1 1020 98 0 1.05 51 19:18 06.01.2020
1247 Snow -1 1020 98 0 1.05 51 18:44 06.01.2020
1248 Snow -1 1020 98 0 1.05 51 18:20 06.01.2020
1249 Snow -1 1020 98 0 1.05 51 17:40 06.01.2020
1250 Snow -1 1020 98 0 0.53 54 17:20 06.01.2020
1251 Snow -1 1020 98 0 0.53 54 16:57 06.01.2020
1252 Snow -1 1020 98 0 0.53 54 16:39 06.01.2020
1253 Snow -1 1020 98 0 0.53 54 16:21 06.01.2020
1254 Snow -1 1020 98 0 0.53 54 15:59 06.01.2020
1255 Snow -1 1020 98 0 0.53 54 15:36 06.01.2020
1256 Snow -1 1020 98 0 0.53 54 15:18 06.01.2020
1257 Snow -1 1020 98 0 0.53 54 14:41 06.01.2020
1258 Snow -1 1020 98 0 0.53 54 14:41 06.01.2020
1259 Snow 0 1018 98 0 0.3 223 14:22 06.01.2020
1260 Snow 0 1018 98 0 0.3 223 13:59 06.01.2020
1261 Snow 0 1018 98 0 0.3 223 13:39 06.01.2020
1262 Snow 0 1019 98 0 0.47 169 13:21 06.01.2020
1263 Snow 0 1019 98 0 0.47 169 12:56 06.01.2020
1264 Snow 0 1019 98 0 0.47 169 12:37 06.01.2020
1265 Snow 0 1019 98 0 0.47 169 12:19 06.01.2020
1266 Snow 0 1019 98 0 0.47 169 12:19 06.01.2020
1267 Snow 0 1019 98 0 0.47 169 11:43 06.01.2020
1268 Snow 0 1019 98 0 0.47 169 11:43 06.01.2020
1269 Snow 0 1019 98 0 0.47 169 11:24 06.01.2020
1270 Snow 1 1018 95 0 1.19 200 10:59 06.01.2020
1271 Snow 1 1018 95 0 1.19 200 10:41 06.01.2020
1272 Snow 1 1018 95 0 1.19 200 10:21 06.01.2020
1273 Snow 1 1018 95 0 1.19 200 09:42 06.01.2020
1274 Snow 1 1018 95 0 1.19 200 09:23 06.01.2020
1275 Snow 1 1018 95 0 1.19 200 08:55 06.01.2020
1276 Snow 1 1018 95 0 1.19 200 08:37 06.01.2020
1277 Snow 2 1021 77 0 1.96 192 07:57 06.01.2020
1278 Snow 2 1021 77 0 1.96 192 07:38 06.01.2020
1279 Snow 2 1021 77 0 1.96 192 06:51 06.01.2020
1280 Snow 2 1021 77 0 1.96 192 06:32 06.01.2020
1281 Snow 2 1021 77 0 1.96 192 05:48 06.01.2020
1282 Snow 2 1021 77 0 1.96 192 05:23 06.01.2020
1283 Snow 1 1022 74 0 1.64 39 04:23 06.01.2020
1284 Snow 1 1022 74 0 1.64 39 03:30 06.01.2020
1285 Snow 1 1022 74 0 1.64 39 02:27 06.01.2020
1286 Snow 0 1021 78 0 2.57 30 01:53 06.01.2020
1287 Snow 0 1022 72 0 2.45 31 01:30 06.01.2020
1288 Snow 0 1022 72 0 2.45 31 00:46 06.01.2020
1289 Snow 0 1022 72 0 2.45 31 00:27 06.01.2020
1290 Snow 0 1022 72 0 2.45 31 23:57 05.01.2020
1291 Snow 0 1022 72 0 2.45 31 23:38 05.01.2020
1292 Snow 0 1023 63 0 2.65 29 23:19 05.01.2020
1293 Snow 0 1023 63 0 2.65 29 22:40 05.01.2020
1294 Snow 0 1023 63 0 2.65 29 22:20 05.01.2020
1295 Snow 0 1023 63 0 2.65 29 22:20 05.01.2020
1296 Snow 0 1023 63 0 2.65 29 21:57 05.01.2020
1297 Snow 0 1023 63 0 2.65 29 21:39 05.01.2020
1298 Snow 0 1023 63 0 2.65 29 21:20 05.01.2020
1299 Snow 0 1023 63 0 2.65 29 20:56 05.01.2020
1300 Snow 0 1023 63 0 2.65 29 20:38 05.01.2020
1301 Clouds 0 1024 42 0 2.01 16 20:19 05.01.2020
1302 Clouds 0 1024 42 0 2.01 16 19:58 05.01.2020
1303 Clouds 0 1024 42 0 2.01 16 19:38 05.01.2020
1304 Clouds 0 1024 42 0 2.01 16 19:20 05.01.2020
1305 Clouds 0 1024 42 0 2.01 16 19:20 05.01.2020
1306 Clouds 0 1024 42 0 2.01 16 18:55 05.01.2020
1307 Clouds 0 1024 42 0 2.01 16 18:37 05.01.2020
1308 Clouds 0 1024 42 0 2.01 16 18:19 05.01.2020
1309 Clouds 0 1024 42 0 2.01 16 17:57 05.01.2020
1310 Clouds 0 1024 42 0 2.01 16 17:38 05.01.2020
1311 Clouds 0 1024 42 0 2.01 16 17:38 05.01.2020
1312 Clouds 0 1024 42 0 2.01 16 17:38 05.01.2020
1313 Clouds 0 1024 42 0 2.01 16 17:38 05.01.2020
1314 Clouds -1 1024 44 0 1.36 37 17:19 05.01.2020
1315 Clouds -1 1024 44 0 1.36 37 16:56 05.01.2020
1316 Clouds -1 1024 44 0 1.36 37 16:38 05.01.2020
1317 Clouds -1 1024 44 0 1.36 37 16:19 05.01.2020
1318 Clouds -1 1024 44 0 1.36 37 15:38 05.01.2020
1319 Clouds -1 1024 44 0 1.36 37 15:38 05.01.2020
1320 Clouds -1 1024 44 0 1.36 37 15:20 05.01.2020
1321 Clouds -1 1024 44 0 1.36 37 14:56 05.01.2020
1322 Clouds -1 1024 44 0 1.36 37 14:37 05.01.2020
1323 Clouds -1 1021 53 0 0.86 34 14:19 05.01.2020
1324 Clouds -1 1021 53 0 0.86 34 13:56 05.01.2020
1325 Clouds -1 1021 53 0 0.86 34 13:37 05.01.2020
1326 Clouds -1 1021 54 0 0.87 37 13:18 05.01.2020
1327 Clouds -1 1021 53 0 0.86 34 13:18 05.01.2020
1328 Clouds -1 1021 54 0 0.87 37 12:55 05.01.2020
1329 Clouds -1 1021 54 0 0.87 37 12:37 05.01.2020
1330 Clouds -1 1021 54 0 0.87 37 12:18 05.01.2020
1331 Clouds -1 1021 54 0 0.87 37 12:18 05.01.2020
1332 Clouds -1 1021 54 0 0.87 37 11:43 05.01.2020
1333 Clouds 3 1019 33 0 2.54 212 11:20 05.01.2020
1334 Clouds 3 1019 33 0 2.54 212 10:58 05.01.2020
1335 Clouds 3 1019 33 0 2.54 212 10:39 05.01.2020
1336 Clouds 3 1019 33 0 2.54 212 10:39 05.01.2020
1337 Clouds 3 1019 33 0 2.54 212 10:19 05.01.2020
1338 Clouds 3 1019 33 0 2.54 212 09:42 05.01.2020
1339 Clouds 3 1019 33 0 2.54 212 09:22 05.01.2020
1340 Clouds 3 1019 33 0 2.54 212 08:51 05.01.2020
1341 Clouds 3 1019 33 0 2.54 212 08:32 05.01.2020
1342 Clouds 2 1024 30 0 1.37 238 07:59 05.01.2020
1343 Clouds 2 1024 30 0 1.37 238 07:39 05.01.2020
1344 Clouds 2 1024 30 0 1.37 238 07:20 05.01.2020
1345 Clouds 2 1024 30 0 1.37 238 06:40 05.01.2020
1346 Clouds 2 1024 30 0 1.37 238 05:34 05.01.2020
1347 Clouds -3 1029 47 0 1.9 15 04:49 05.01.2020
1348 Clouds -3 1029 47 0 1.9 15 04:18 05.01.2020
1349 Clouds -3 1029 47 0 1.9 15 03:18 05.01.2020
1350 Clouds -3 1029 47 0 1.9 15 02:32 05.01.2020
1351 Clear -5 1028 54 0 2.39 358 01:49 05.01.2020
1352 Clear -5 1028 57 0 2.42 359 01:20 05.01.2020
1353 Clear -5 1028 57 0 2.42 359 00:56 05.01.2020
1354 Clear -5 1028 57 0 2.42 359 00:37 05.01.2020
1355 Clear -5 1028 57 0 2.42 359 00:19 05.01.2020
1356 Clear -5 1028 57 0 2.42 359 23:41 04.01.2020
1357 Clear -5 1027 57 0 3.56 7 23:20 04.01.2020
1358 Clear -5 1027 57 0 3.56 7 22:55 04.01.2020
1359 Clear -5 1027 57 0 3.56 7 22:37 04.01.2020
1360 Clear -5 1027 57 0 3.56 7 22:19 04.01.2020
1361 Clear -5 1027 57 0 3.56 7 21:55 04.01.2020
1362 Clear -5 1027 57 0 3.56 7 21:36 04.01.2020
1363 Clear -5 1027 57 0 3.56 7 21:18 04.01.2020
1364 Clear -5 1027 57 0 3.56 7 20:41 04.01.2020
1365 Clear -5 1027 56 0 3.55 9 20:22 04.01.2020
1366 Snow -4 1026 68 0 2.91 0 19:57 04.01.2020
1367 Snow -4 1026 68 0 2.91 0 19:39 04.01.2020
1368 Snow -4 1026 68 0 2.91 0 19:21 04.01.2020
1369 Snow -4 1026 68 0 2.91 0 18:57 04.01.2020
1370 Snow -4 1026 68 0 2.91 0 18:38 04.01.2020
1371 Snow -4 1026 68 0 2.91 0 18:19 04.01.2020
1372 Snow -4 1026 68 0 2.91 0 17:55 04.01.2020
1373 Snow -4 1026 68 0 2.91 0 17:37 04.01.2020
1374 Clear -4 1024 78 0 2.41 8 17:18 04.01.2020
1375 Clear -4 1024 78 0 2.41 8 16:41 04.01.2020
1376 Clear -4 1024 78 0 2.41 8 16:23 04.01.2020
1377 Clear -4 1024 78 0 2.41 8 15:57 04.01.2020
1378 Clear -4 1024 78 0 2.41 8 15:38 04.01.2020
1379 Clear -4 1024 78 0 2.41 8 15:19 04.01.2020
1380 Clear -4 1024 78 0 2.41 8 14:56 04.01.2020
1381 Clear -4 1024 78 0 2.41 8 14:38 04.01.2020
1382 Snow -2 1019 89 0 0.69 234 14:19 04.01.2020
1383 Snow -2 1019 89 0 0.69 234 13:55 04.01.2020
1384 Snow -2 1019 89 0 0.69 234 13:36 04.01.2020
1385 Snow -2 1018 88 0 0.59 210 13:18 04.01.2020
1386 Snow -2 1018 88 0 0.59 210 12:41 04.01.2020
1387 Snow -2 1018 88 0 0.59 210 12:19 04.01.2020
1388 Snow -2 1018 88 0 0.59 210 11:58 04.01.2020
1389 Snow -2 1018 88 0 0.59 210 11:39 04.01.2020
1390 Snow 2 1017 68 0 2.52 231 11:19 04.01.2020
1391 Snow 2 1017 68 0 2.52 231 10:42 04.01.2020
1392 Snow 2 1017 68 0 2.52 231 10:23 04.01.2020
1393 Snow 2 1017 68 0 2.52 231 09:59 04.01.2020
1394 Snow 2 1017 68 0 2.52 231 09:41 04.01.2020
1395 Snow 2 1017 68 0 2.52 231 09:21 04.01.2020
1396 Snow 2 1017 68 0 2.52 231 08:41 04.01.2020
1397 Snow 2 1021 64 0 2.22 219 08:21 04.01.2020
1398 Snow 2 1021 60 0 2.31 214 07:44 04.01.2020
1399 Snow 2 1021 60 0 2.31 214 07:20 04.01.2020
1400 Snow 2 1021 60 0 2.31 214 06:33 04.01.2020
1401 Snow 2 1021 60 0 2.31 214 05:39 04.01.2020
1402 Snow -1 1024 77 0 1.25 56 04:44 04.01.2020
1403 Snow -1 1024 77 0 1.25 56 04:25 04.01.2020
1404 Snow -1 1024 77 0 1.25 56 03:18 04.01.2020
1405 Snow -1 1024 77 0 1.25 56 02:23 04.01.2020
1406 Clouds -1 1024 63 0 2.05 19 01:55 04.01.2020
1407 Clouds -1 1024 63 0 2.05 19 01:32 04.01.2020
1408 Clouds -2 1024 54 0 2.29 10 00:46 04.01.2020
1409 Clouds -2 1024 54 0 2.29 10 00:27 04.01.2020
1410 Clouds -2 1024 54 0 2.29 10 23:48 03.01.2020
1411 Clouds -2 1024 54 0 2.29 10 23:26 03.01.2020
1412 Clouds -1 1025 48 0 1.15 21 22:54 03.01.2020
1413 Clouds -1 1025 48 0 1.15 21 22:36 03.01.2020
1414 Clouds -1 1025 48 0 1.15 21 22:18 03.01.2020
1415 Clouds -1 1025 48 0 1.15 21 21:54 03.01.2020
1416 Clouds -1 1025 48 0 1.15 21 21:36 03.01.2020
1417 Clouds -1 1025 48 0 1.15 21 21:18 03.01.2020
1418 Clouds -1 1025 48 0 1.15 21 20:42 03.01.2020
1419 Clouds -1 1025 48 0 1.66 8 20:19 03.01.2020
1420 Clouds -1 1025 48 0 1.66 8 19:58 03.01.2020
1421 Clouds -1 1025 48 0 1.66 8 19:39 03.01.2020
1422 Clouds -1 1025 48 0 1.66 8 19:21 03.01.2020
1423 Clouds -1 1025 48 0 1.66 8 18:44 03.01.2020
1424 Clouds -1 1025 48 0 1.66 8 18:26 03.01.2020
1425 Clouds -1 1025 48 0 1.66 8 17:57 03.01.2020
1426 Clouds -1 1025 48 0 1.66 8 17:39 03.01.2020
1427 Clouds -1 1024 58 0 2.17 20 17:19 03.01.2020
1428 Clouds -1 1024 58 0 2.17 20 16:43 03.01.2020
1429 Clouds -1 1024 58 0 2.17 20 16:24 03.01.2020
1430 Clouds -1 1024 58 0 2.17 20 15:58 03.01.2020
1431 Clouds -1 1024 58 0 2.17 20 15:40 03.01.2020
1432 Clouds -1 1024 58 0 2.17 20 15:18 03.01.2020
1433 Clouds -1 1024 58 0 2.17 20 14:39 03.01.2020
1434 Clear 0 1021 75 0 1.03 266 14:20 03.01.2020
1435 Clear 0 1021 75 0 1.03 266 13:57 03.01.2020
1436 Clear 0 1021 75 0 1.03 266 13:38 03.01.2020
1437 Snow 0 1020 75 0 0.91 279 13:20 03.01.2020
1438 Snow 0 1020 75 0 0.91 279 12:40 03.01.2020
1439 Snow 0 1020 75 0 0.91 279 12:21 03.01.2020
1440 Snow 0 1020 75 0 0.91 279 11:49 03.01.2020
1441 Snow 0 1020 75 0 0.91 279 11:30 03.01.2020
1442 Snow 6 1019 38 0 2.74 213 10:57 03.01.2020
1443 Snow 6 1019 38 0 2.74 213 10:38 03.01.2020
1444 Snow 6 1019 38 0 2.74 213 10:20 03.01.2020
1445 Snow 6 1019 38 0 2.74 213 09:54 03.01.2020
1446 Snow 6 1019 38 0 2.74 213 09:36 03.01.2020
1447 Snow 6 1019 38 0 2.74 213 09:18 03.01.2020
1448 Snow 6 1019 38 0 2.74 213 08:44 03.01.2020
1449 Clouds 5 1025 33 0 2.1 219 08:21 03.01.2020
1450 Clouds 5 1025 33 0 2.1 219 07:42 03.01.2020
1451 Clouds 5 1025 33 0 2.1 219 07:19 03.01.2020
1452 Clouds 5 1025 33 0 2.1 219 06:57 03.01.2020
1453 Clouds 5 1025 33 0 2.1 219 06:39 03.01.2020
1454 Clouds 5 1025 33 0 2.1 219 06:20 03.01.2020
1455 Clouds 1 1030 41 0 1.76 3 04:43 03.01.2020
1456 Clouds 1 1030 41 0 1.76 3 03:37 03.01.2020
1457 Clouds 1 1030 41 0 1.76 3 02:50 03.01.2020
1458 Clouds -1 1029 45 0 2.08 1 01:50 03.01.2020
1459 Clouds -1 1030 42 0 2.04 360 01:18 03.01.2020
1460 Clouds -1 1030 42 0 2.04 360 00:34 03.01.2020
1461 Clouds -1 1030 42 0 2.04 360 23:59 02.01.2020
1462 Clouds -1 1030 42 0 2.04 360 23:39 02.01.2020
1463 Clouds 0 1030 40 0 1.77 4 23:20 02.01.2020
1464 Clouds 0 1030 40 0 1.77 4 22:58 02.01.2020
1465 Clouds 0 1030 40 0 1.77 4 22:40 02.01.2020
1466 Clouds 0 1030 40 0 1.77 4 22:19 02.01.2020
1467 Clouds 0 1030 40 0 1.77 4 21:56 02.01.2020
1468 Clouds 0 1030 40 0 1.77 4 21:38 02.01.2020
1469 Clouds 0 1030 40 0 1.77 4 21:19 02.01.2020
1470 Clouds 0 1030 40 0 1.77 4 20:56 02.01.2020
1471 Clouds 0 1030 40 0 1.77 4 20:37 02.01.2020
1472 Clouds 1 1030 39 0 2.39 7 20:18 02.01.2020
1473 Clouds 1 1030 39 0 2.39 7 19:54 02.01.2020
1474 Clouds 1 1030 39 0 2.39 7 19:36 02.01.2020
1475 Clouds 1 1030 39 0 2.39 7 19:18 02.01.2020
1476 Clouds 1 1030 39 0 2.39 7 18:43 02.01.2020
1477 Clouds 1 1030 39 0 2.39 7 18:24 02.01.2020
1478 Clouds 1 1030 39 0 2.39 7 17:58 02.01.2020
1479 Clouds 1 1030 39 0 2.39 7 17:39 02.01.2020
1480 Clouds 1 1029 40 0 2.01 13 17:20 02.01.2020
1481 Clouds 1 1029 40 0 2.01 13 16:58 02.01.2020
1482 Clouds 1 1029 40 0 2.01 13 16:58 02.01.2020
1483 Clouds 1 1029 40 0 2.01 13 16:40 02.01.2020
1484 Clouds 1 1029 40 0 2.01 13 16:20 02.01.2020
1485 Clouds 1 1029 40 0 2.01 13 15:58 02.01.2020
1486 Clouds 1 1029 40 0 2.01 13 15:40 02.01.2020
1487 Clouds 1 1029 40 0 2.01 13 15:21 02.01.2020
1488 Clouds 1 1029 40 0 2.01 13 14:57 02.01.2020
1489 Clouds 1 1029 40 0 2.01 13 14:36 02.01.2020
1490 Clouds 1 1029 40 0 2.01 13 14:36 02.01.2020
1491 Clouds 0 1027 50 0 0.48 327 14:18 02.01.2020
1492 Clouds 0 1027 50 0 0.48 327 13:49 02.01.2020
1493 Clouds 0 1027 50 0 0.48 327 13:31 02.01.2020
1494 Clouds 0 1027 47 0 0.63 338 12:46 02.01.2020
1495 Clouds 0 1027 47 0 0.63 338 12:26 02.01.2020
1496 Clouds 0 1027 47 0 0.63 338 11:59 02.01.2020
1497 Clouds 0 1027 47 0 0.63 338 11:40 02.01.2020
1498 Clouds 5 1025 29 0 2.31 214 11:20 02.01.2020
1499 Clouds 5 1025 29 0 2.31 214 10:44 02.01.2020
1500 Clouds 5 1025 29 0 2.31 214 10:26 02.01.2020
1501 Clouds 5 1025 29 0 2.31 214 09:51 02.01.2020
1502 Clouds 5 1025 29 0 2.31 214 09:33 02.01.2020
1503 Clouds 5 1025 29 0 2.31 214 08:47 02.01.2020
1504 Clouds 5 1025 29 0 2.31 214 08:27 02.01.2020
1505 Clouds 5 1030 30 0 1.74 227 07:54 02.01.2020
1506 Clouds 5 1030 30 0 1.74 227 07:31 02.01.2020
1507 Clouds 5 1030 30 0 1.74 227 06:55 02.01.2020
1508 Clouds 5 1030 30 0 1.74 227 06:36 02.01.2020
1509 Clouds 5 1030 30 0 1.74 227 05:36 02.01.2020
1510 Clouds 1 1034 37 0 1.54 17 04:33 02.01.2020
1511 Clouds 1 1034 37 0 1.54 17 02:55 02.01.2020
1512 Clouds 0 1033 39 0 2.29 18 02:20 02.01.2020
1513 Clouds 0 1033 39 0 2.29 18 01:47 02.01.2020
1514 Clouds 0 1033 39 0 2.29 18 01:19 02.01.2020
1515 Clouds 0 1033 41 0 3 17 00:36 02.01.2020
1516 Clouds 0 1033 41 0 3 17 00:18 02.01.2020
1517 Clouds 0 1033 41 0 3 17 23:40 01.01.2020
1518 Clouds 1 1034 36 0 2.86 15 23:20 01.01.2020
1519 Clouds 1 1034 36 0 2.86 15 22:38 01.01.2020
1520 Clouds 1 1034 36 0 2.86 15 22:20 01.01.2020
1521 Clouds 1 1034 36 0 2.86 15 21:57 01.01.2020
1522 Clouds 1 1034 36 0 2.86 15 21:38 01.01.2020
1523 Clouds 1 1034 36 0 2.86 15 21:20 01.01.2020
1524 Clouds 1 1034 36 0 2.86 15 20:56 01.01.2020
1525 Clouds 1 1034 36 0 2.86 15 20:38 01.01.2020
1526 Clouds 0 1033 30 0 2.57 12 20:19 01.01.2020
1527 Clouds 0 1033 30 0 2.4 14 19:55 01.01.2020
1528 Clouds 0 1033 30 0 2.4 14 19:55 01.01.2020
1529 Clouds 0 1033 30 0 2.4 14 19:55 01.01.2020
1530 Clouds 0 1033 30 0 2.4 14 19:55 01.01.2020
1531 Clouds 0 1033 30 0 2.4 14 19:37 01.01.2020
1532 Clouds 0 1033 30 0 2.4 14 19:37 01.01.2020
1533 Clouds 0 1033 30 0 2.4 14 19:19 01.01.2020
1534 Clouds 0 1033 30 0 2.4 14 18:56 01.01.2020
1535 Clouds 0 1033 30 0 2.4 14 18:36 01.01.2020
1536 Clouds 0 1033 30 0 2.4 14 18:18 01.01.2020
1537 Clouds 0 1033 30 0 2.4 14 17:56 01.01.2020
1538 Clouds 0 1033 30 0 2.4 14 17:38 01.01.2020
1539 Clouds 0 1032 32 0 2.8 18 17:19 01.01.2020
1540 Clouds 0 1032 32 0 2.8 18 16:42 01.01.2020
1541 Clouds 0 1032 32 0 2.8 18 16:24 01.01.2020
1542 Clouds 0 1032 32 0 2.8 18 15:58 01.01.2020
1543 Clouds 0 1032 32 0 2.8 18 15:40 01.01.2020
1544 Clouds 0 1032 32 0 2.8 18 15:22 01.01.2020
1545 Clouds 0 1032 32 0 2.8 18 14:59 01.01.2020
1546 Clouds 0 1032 32 0 2.8 18 14:40 01.01.2020
1547 Clouds 0 1028 45 0 0.78 315 14:22 01.01.2020
1548 Clouds 0 1028 45 0 0.78 315 13:56 01.01.2020
1549 Clouds 0 1028 45 0 0.78 315 13:37 01.01.2020
1550 Clouds 0 1028 44 0 0.74 317 13:19 01.01.2020
1551 Clouds 0 1028 44 0 0.74 317 12:57 01.01.2020
1552 Clouds 0 1028 44 0 0.74 317 12:39 01.01.2020
1553 Clouds 0 1028 44 0 0.74 317 12:19 01.01.2020
1554 Clouds 0 1028 44 0 0.74 317 11:55 01.01.2020
1555 Clouds 0 1028 44 0 0.74 317 11:36 01.01.2020
1556 Clouds 5 1026 23 0 1.96 204 11:18 01.01.2020
1557 Clouds 5 1026 23 0 1.96 204 10:41 01.01.2020
1558 Clouds 5 1026 23 0 1.96 204 10:21 01.01.2020
1559 Clouds 5 1026 23 0 1.96 204 09:59 01.01.2020
1560 Clouds 5 1026 23 0 1.96 204 09:38 01.01.2020
1561 Clouds 5 1026 23 0 1.96 204 09:38 01.01.2020
1562 Clouds 5 1026 23 0 1.96 204 09:19 01.01.2020
1563 Clouds 5 1026 23 0 1.96 204 08:55 01.01.2020
1564 Clouds 5 1026 23 0 1.96 204 08:37 01.01.2020
1565 Clouds 5 1029 19 0 2.16 201 08:18 01.01.2020
1566 Clouds 5 1029 19 0 2.16 201 07:54 01.01.2020
1567 Clouds 5 1029 19 0 2.16 201 07:36 01.01.2020
1568 Clouds 5 1029 19 0 2.16 201 06:45 01.01.2020
1569 Clouds 5 1029 19 0 2.16 201 06:21 01.01.2020
1570 Clouds 5 1029 19 0 2.16 201 05:22 01.01.2020
1571 Clouds 1 1032 27 0 1.78 13 03:46 01.01.2020
1572 Clouds 1 1032 27 0 1.78 13 03:23 01.01.2020
1573 Clouds 1 1032 27 0 1.78 13 03:23 01.01.2020
1574 Clouds 1 1032 27 0 1.78 13 02:57 01.01.2020
1575 Clouds 1 1032 27 0 1.78 13 02:36 01.01.2020
1576 Clouds -1 1031 29 0 2.48 9 01:59 01.01.2020
1577 Clouds -1 1031 29 0 2.48 9 01:38 01.01.2020
1578 Clouds -1 1031 32 0 2.57 11 01:20 01.01.2020
1579 Clouds -1 1031 32 0 2.57 11 00:44 01.01.2020
1580 Clouds -1 1031 32 0 2.57 11 00:25 01.01.2020
1581 Clouds -1 1031 32 0 2.57 11 23:41 31.12.2019
1582 Clouds -1 1031 36 0 2.67 8 23:22 31.12.2019
1583 Clouds -1 1031 36 0 2.67 8 22:58 31.12.2019
1584 Clouds -1 1031 36 0 2.67 8 22:39 31.12.2019
1585 Clouds -1 1031 36 0 2.67 8 22:20 31.12.2019
1586 Clouds -1 1031 36 0 2.67 8 21:59 31.12.2019
1587 Clouds -1 1031 36 0 2.67 8 21:40 31.12.2019
1588 Clouds -1 1031 36 0 2.67 8 21:22 31.12.2019
1589 Clouds -1 1031 36 0 2.67 8 20:57 31.12.2019
1590 Clouds -1 1031 36 0 2.67 8 20:37 31.12.2019
1591 Clouds -1 1030 39 0 2.39 7 20:19 31.12.2019
1592 Clouds -1 1030 39 0 2.39 7 19:55 31.12.2019
1593 Clouds -1 1030 39 0 2.39 7 19:37 31.12.2019
1594 Clouds -1 1030 39 0 2.39 7 19:18 31.12.2019
1595 Clouds -1 1030 39 0 2.39 7 18:54 31.12.2019
1596 Clouds -1 1030 39 0 2.39 7 18:36 31.12.2019
1597 Clouds -1 1030 39 0 2.39 7 18:18 31.12.2019
1598 Clouds -1 1030 39 0 2.39 7 17:55 31.12.2019
1599 Clouds -1 1030 39 0 2.39 7 17:36 31.12.2019
1600 Clouds -1 1030 39 0 2.39 7 17:36 31.12.2019
1601 Clear -1 1029 45 0 2.34 15 17:18 31.12.2019
1602 Clear -1 1029 45 0 2.34 15 16:55 31.12.2019
1603 Clear -1 1029 45 0 2.34 15 16:36 31.12.2019
1604 Clear -1 1029 45 0 2.34 15 16:18 31.12.2019
1605 Clear -1 1029 45 0 2.34 15 15:55 31.12.2019
1606 Clear -1 1029 45 0 2.34 15 15:37 31.12.2019
1607 Clear -1 1029 45 0 2.34 15 15:19 31.12.2019
1608 Clear -1 1029 45 0 2.34 15 14:55 31.12.2019
1609 Clear -1 1029 45 0 2.34 15 14:37 31.12.2019
1610 Clear -1 1029 45 0 2.34 15 14:37 31.12.2019
1611 Clouds 0 1024 59 0 1.01 293 14:18 31.12.2019
1612 Clouds 0 1024 59 0 1.01 293 13:55 31.12.2019
1613 Clouds 0 1024 59 0 1.01 293 13:37 31.12.2019
1614 Clouds 0 1024 60 0 0.95 285 13:19 31.12.2019
1615 Clouds 0 1024 60 0 0.95 285 12:55 31.12.2019
1616 Clouds 0 1024 60 0 0.95 285 12:37 31.12.2019
1617 Clouds 0 1024 60 0 0.95 285 12:18 31.12.2019
1618 Clouds 0 1024 60 0 0.95 285 11:54 31.12.2019
1619 Clouds 0 1024 60 0 0.95 285 11:36 31.12.2019
1620 Clouds 5 1021 31 0 2.74 222 11:18 31.12.2019
1621 Clouds 5 1021 31 0 2.74 222 10:54 31.12.2019
1622 Clouds 5 1021 31 0 2.74 222 10:36 31.12.2019
1623 Clouds 5 1021 31 0 2.74 222 10:18 31.12.2019
1624 Clouds 5 1021 31 0 2.74 222 09:55 31.12.2019
1625 Clouds 5 1021 31 0 2.74 222 09:37 31.12.2019
1626 Clouds 5 1021 31 0 2.74 222 09:37 31.12.2019
1627 Clouds 5 1021 31 0 2.74 222 09:18 31.12.2019
1628 Clouds 5 1021 31 0 2.74 222 08:42 31.12.2019
1629 Clouds 6 1025 23 0 2.79 208 08:22 31.12.2019
1630 Clouds 6 1025 24 0 2.78 210 07:56 31.12.2019
1631 Clouds 6 1025 24 0 2.78 210 07:37 31.12.2019
1632 Clouds 6 1025 24 0 2.78 210 07:18 31.12.2019
1633 Clouds 6 1025 24 0 2.78 210 06:29 31.12.2019
1634 Clouds 1 1029 33 0 1.49 14 04:58 31.12.2019
1635 Clouds 1 1029 33 0 1.49 14 04:25 31.12.2019
1636 Clouds 1 1029 33 0 1.49 14 02:58 31.12.2019
1637 Clouds 1 1029 33 0 1.49 14 02:34 31.12.2019
1638 Clouds -1 1027 33 0 2.28 357 01:51 31.12.2019
1639 Clouds -1 1027 33 0 2.18 0 01:32 31.12.2019
1640 Clouds -1 1027 33 0 2.28 357 01:32 31.12.2019
1641 Clouds -1 1027 33 0 2.18 0 00:54 31.12.2019
1642 Clouds -1 1027 33 0 2.18 0 00:36 31.12.2019
1643 Clouds -1 1027 33 0 2.18 0 00:18 31.12.2019
1644 Clouds -1 1027 33 0 2.18 0 23:54 30.12.2019
1645 Clouds -1 1027 33 0 2.18 0 23:36 30.12.2019
1646 Clouds 0 1027 33 0 2.72 354 23:18 30.12.2019
1647 Clouds 0 1027 33 0 2.72 354 22:54 30.12.2019
1648 Clouds 0 1027 33 0 2.72 354 22:36 30.12.2019
1649 Clouds 0 1027 33 0 2.72 354 22:18 30.12.2019
1650 Clouds 0 1027 33 0 2.72 354 21:55 30.12.2019
1651 Clouds 0 1027 33 0 2.72 354 21:36 30.12.2019
1652 Clouds 0 1027 33 0 2.72 354 21:18 30.12.2019
1653 Clouds 0 1027 33 0 2.72 354 20:41 30.12.2019
1654 Clouds 0 1026 34 0 2.47 354 20:20 30.12.2019
1655 Clouds 0 1026 34 0 2.47 354 19:59 30.12.2019
1656 Clouds 0 1026 34 0 2.47 354 19:40 30.12.2019
1657 Clouds 0 1026 34 0 2.47 354 19:20 30.12.2019
1658 Clouds 0 1026 34 0 2.47 354 18:59 30.12.2019
1659 Clouds 0 1026 34 0 2.47 354 18:41 30.12.2019
1660 Clouds 0 1026 34 0 2.47 354 18:21 30.12.2019
1661 Clouds 0 1026 34 0 2.47 354 17:58 30.12.2019
1662 Clouds 0 1026 34 0 2.47 354 17:40 30.12.2019
1663 Clear 0 1026 37 0 2.46 10 17:19 30.12.2019
1664 Clear 0 1026 37 0 2.46 10 16:59 30.12.2019
1665 Clear 0 1026 37 0 2.46 10 16:38 30.12.2019
1666 Clear 0 1026 37 0 2.46 10 16:20 30.12.2019
1667 Clear 0 1026 37 0 2.46 10 15:56 30.12.2019
1668 Clear 0 1026 37 0 2.46 10 15:38 30.12.2019
1669 Clear 0 1026 37 0 2.46 10 15:19 30.12.2019
1670 Clear 0 1026 37 0 2.46 10 14:43 30.12.2019
1671 Clouds 0 1022 59 0 1.02 350 14:21 30.12.2019
1672 Clouds 0 1022 59 0 1.02 350 13:59 30.12.2019
1673 Clouds 0 1022 59 0 1.02 350 13:41 30.12.2019
1674 Clouds 1 1021 56 0 1.1 356 13:22 30.12.2019
1675 Clouds 1 1021 56 0 1.1 356 12:57 30.12.2019
1676 Clouds 1 1021 56 0 1.1 356 12:38 30.12.2019
1677 Clouds 1 1021 56 0 1.1 356 12:19 30.12.2019
1678 Clouds 1 1021 56 0 1.1 356 11:56 30.12.2019
1679 Clouds 1 1021 56 0 1.1 356 11:37 30.12.2019
1680 Clouds 7 1018 29 0 2.44 214 11:18 30.12.2019
1681 Clouds 7 1018 29 0 2.44 214 10:40 30.12.2019
1682 Clouds 7 1018 29 0 2.44 214 10:20 30.12.2019
1683 Clouds 7 1018 29 0 2.44 214 09:44 30.12.2019
1684 Clouds 7 1018 29 0 2.44 214 09:21 30.12.2019
1685 Clouds 7 1018 29 0 2.44 214 08:57 30.12.2019
1686 Clouds 7 1018 29 0 2.44 214 08:39 30.12.2019
1687 Clouds 7 1021 20 0 2.01 219 08:20 30.12.2019
1688 Clouds 7 1021 20 0 2.01 219 07:48 30.12.2019
1689 Clouds 7 1021 20 0 2.01 219 07:25 30.12.2019
1690 Clouds 7 1021 20 0 2.01 219 06:39 30.12.2019
1691 Clouds 3 1024 21 0 2.66 353 04:31 30.12.2019
1692 Clouds 3 1024 21 0 2.66 353 03:50 30.12.2019
1693 Clouds 3 1024 21 0 2.66 353 02:47 30.12.2019
1694 Clouds 3 1024 21 0 2.66 353 02:27 30.12.2019
1695 Clear 1 1024 20 0 3.37 357 01:39 30.12.2019
1696 Clouds 1 1024 23 0 3.34 359 01:18 30.12.2019
1697 Clouds 1 1024 23 0 3.34 359 00:42 30.12.2019
1698 Clouds 1 1024 23 0 3.34 359 23:58 29.12.2019
1699 Clouds 1 1024 23 0 3.34 359 23:37 29.12.2019
1700 Clouds 1 1024 31 0 3.02 358 23:19 29.12.2019
1701 Clouds 1 1024 31 0 3.02 358 22:41 29.12.2019
1702 Clouds 1 1024 31 0 3.02 358 22:22 29.12.2019
1703 Clouds 1 1024 31 0 3.02 358 21:56 29.12.2019
1704 Clouds 1 1024 31 0 3.02 358 21:38 29.12.2019
1705 Clouds 1 1024 31 0 3.02 358 21:19 29.12.2019
1706 Clouds 1 1024 31 0 3.02 358 21:19 29.12.2019
1707 Clouds 1 1024 31 0 3.02 358 20:56 29.12.2019
1708 Clouds 1 1024 31 0 3.02 358 20:38 29.12.2019
1709 Clouds 2 1024 31 0 2.5 347 20:18 29.12.2019
1710 Clouds 2 1024 31 0 2.5 347 19:58 29.12.2019
1711 Clouds 2 1024 31 0 2.5 347 19:39 29.12.2019
1712 Clouds 2 1024 31 0 2.5 347 19:20 29.12.2019
1713 Clouds 2 1024 31 0 2.5 347 18:55 29.12.2019
1714 Clouds 2 1024 31 0 2.5 347 18:37 29.12.2019
1715 Clouds 2 1024 31 0 2.5 347 18:19 29.12.2019
1716 Clouds 2 1024 31 0 2.5 347 17:56 29.12.2019
1717 Clouds 2 1024 31 0 2.5 347 17:38 29.12.2019
1718 Clouds 3 1024 33 0 2.92 16 17:19 29.12.2019
1719 Clouds 3 1024 33 0 2.92 16 16:56 29.12.2019
1720 Clouds 3 1024 33 0 2.92 16 16:36 29.12.2019
1721 Clouds 3 1024 33 0 2.92 16 16:18 29.12.2019
1722 Clouds 3 1024 33 0 2.92 16 15:56 29.12.2019
1723 Clouds 3 1024 33 0 2.92 16 15:38 29.12.2019
1724 Clouds 3 1024 33 0 2.92 16 15:19 29.12.2019
1725 Clouds 3 1024 33 0 2.92 16 14:55 29.12.2019
1726 Clouds 3 1024 33 0 2.92 16 14:37 29.12.2019
1727 Clouds 3 1021 47 0 2.03 17 14:18 29.12.2019
1728 Clouds 3 1021 47 0 2.03 17 14:18 29.12.2019
1729 Clouds 3 1021 47 0 2.03 17 13:55 29.12.2019
1730 Clouds 3 1021 47 0 2.03 17 13:37 29.12.2019
1731 Clouds 3 1021 47 0 1.9 18 13:18 29.12.2019
1732 Clouds 3 1021 47 0 1.9 18 13:18 29.12.2019
1733 Clouds 3 1021 47 0 1.9 18 12:43 29.12.2019
1734 Clouds 3 1021 47 0 1.9 18 12:25 29.12.2019
1735 Clouds 3 1021 47 0 1.9 18 12:25 29.12.2019
1736 Clouds 3 1021 47 0 1.9 18 11:56 29.12.2019
1737 Clouds 3 1021 47 0 1.9 18 11:38 29.12.2019
1738 Clouds 3 1021 47 0 1.9 18 11:38 29.12.2019
1739 Clouds 9 1019 31 0 2.01 200 11:20 29.12.2019
1740 Clouds 9 1019 31 0 2.01 200 10:42 29.12.2019
1741 Clouds 9 1019 31 0 2.01 200 10:24 29.12.2019
1742 Clouds 9 1019 31 0 2.01 200 09:58 29.12.2019
1743 Clouds 9 1019 31 0 2.01 200 09:39 29.12.2019
1744 Clouds 9 1019 31 0 2.01 200 09:21 29.12.2019
1745 Clouds 9 1019 31 0 2.01 200 08:47 29.12.2019
1746 Clouds 8 1019 32 0 1.96 195 08:27 29.12.2019
1747 Clouds 9 1022 21 0 2.05 214 07:55 29.12.2019
1748 Clouds 9 1022 21 0 2.05 214 07:28 29.12.2019
1749 Clouds 9 1022 21 0 2.05 214 06:56 29.12.2019
1750 Clouds 9 1022 21 0 2.05 214 06:26 29.12.2019
1751 Clouds 9 1022 21 0 2.05 214 05:52 29.12.2019
1752 Clear 4 1025 22 0 2.78 345 04:36 29.12.2019
1753 Clear 4 1025 22 0 2.78 345 03:54 29.12.2019
1754 Clear 4 1025 22 0 2.78 345 03:20 29.12.2019
1755 Clear 2 1025 21 0 3.28 353 02:20 29.12.2019
1756 Clear 2 1025 21 0 3.28 353 01:38 29.12.2019
1757 Clear 2 1024 23 0 3.16 352 01:19 29.12.2019
1758 Clear 2 1024 23 0 3.16 352 00:40 29.12.2019
1759 Clear 2 1024 23 0 3.16 352 00:22 29.12.2019
1760 Clear 2 1024 23 0 3.16 352 23:43 28.12.2019
1761 Clear 2 1025 28 0 3.23 352 23:18 28.12.2019
1762 Clear 2 1025 28 0 3.23 352 22:39 28.12.2019
1763 Clear 2 1025 28 0 3.23 352 22:21 28.12.2019
1764 Clear 2 1025 28 0 3.23 352 21:58 28.12.2019
1765 Clear 2 1025 28 0 3.23 352 21:39 28.12.2019
1766 Clear 2 1025 28 0 3.23 352 21:21 28.12.2019
1767 Clear 2 1025 28 0 3.23 352 20:58 28.12.2019
1768 Clear 2 1025 28 0 3.23 352 20:38 28.12.2019
1769 Clear 2 1025 32 0 3.15 353 20:20 28.12.2019
1770 Clear 2 1025 32 0 3.15 353 19:58 28.12.2019
1771 Clear 2 1025 32 0 3.15 353 19:39 28.12.2019
1772 Clear 2 1025 32 0 3.15 353 19:20 28.12.2019
1773 Clear 2 1025 32 0 3.15 353 18:58 28.12.2019
1774 Clear 2 1025 32 0 3.15 353 18:40 28.12.2019
1775 Clear 2 1025 32 0 3.15 353 18:19 28.12.2019
1776 Clear 2 1025 32 0 3.15 353 17:55 28.12.2019
1777 Clear 2 1025 32 0 3.15 353 17:36 28.12.2019
1778 Clear 2 1024 37 0 2.86 13 17:18 28.12.2019
1779 Clear 2 1024 37 0 2.86 13 16:46 28.12.2019
1780 Clear 2 1024 37 0 2.86 13 16:26 28.12.2019
1781 Clear 2 1024 37 0 2.86 13 15:46 28.12.2019
1782 Clear 2 1024 37 0 2.86 13 15:24 28.12.2019
1783 Clear 2 1024 37 0 2.86 13 14:59 28.12.2019
1784 Clear 2 1024 37 0 2.86 13 14:39 28.12.2019
1785 Clear 3 1020 49 0 1.71 9 14:20 28.12.2019
1786 Clear 3 1020 49 0 1.71 9 13:56 28.12.2019
1787 Clear 3 1020 49 0 1.71 9 13:37 28.12.2019
1788 Clear 3 1020 51 0 1.6 7 13:18 28.12.2019
1789 Clear 3 1020 51 0 1.6 7 12:43 28.12.2019
1790 Clear 3 1020 51 0 1.6 7 12:43 28.12.2019
1791 Clear 3 1020 51 0 1.6 7 12:24 28.12.2019
1792 Clear 3 1020 51 0 1.6 7 11:56 28.12.2019
1793 Clear 3 1020 51 0 1.6 7 11:38 28.12.2019
1794 Clear 9 1018 29 0 2.32 206 11:19 28.12.2019
1795 Clear 9 1018 29 0 2.32 206 10:44 28.12.2019
1796 Clear 9 1018 29 0 2.32 206 10:22 28.12.2019
1797 Clear 9 1018 29 0 2.32 206 09:58 28.12.2019
1798 Clear 9 1018 29 0 2.32 206 09:40 28.12.2019
1799 Clear 9 1018 29 0 2.32 206 09:20 28.12.2019
1800 Clear 9 1018 29 0 2.32 206 08:44 28.12.2019
1801 Clear 9 1018 31 0 2.25 204 08:26 28.12.2019
1802 Clear 9 1021 22 0 2.12 211 07:55 28.12.2019
1803 Clear 9 1021 22 0 2.12 211 07:31 28.12.2019
1804 Clear 9 1021 22 0 2.12 211 06:41 28.12.2019
1805 Clear 4 1023 21 0 2.84 344 04:59 28.12.2019
1806 Clear 4 1023 21 0 2.84 344 03:47 28.12.2019
1807 Clear 4 1023 21 0 2.84 344 02:49 28.12.2019
1808 Clear 2 1022 20 0 3.58 353 01:59 28.12.2019
1809 Clear 2 1022 20 0 3.58 353 01:31 28.12.2019
1810 Clear 2 1022 21 0 3.55 354 00:58 28.12.2019
1811 Clear 2 1022 21 0 3.55 354 00:40 28.12.2019
1812 Clear 2 1022 21 0 3.55 354 00:20 28.12.2019
1813 Clear 2 1022 21 0 3.55 354 23:44 27.12.2019
1814 Clear 2 1022 21 0 3.55 354 23:44 27.12.2019
1815 Clear 1 1023 23 0 3.49 353 23:20 27.12.2019
1816 Clear 1 1023 23 0 3.49 353 22:58 27.12.2019
1817 Clear 1 1023 23 0 3.49 353 22:39 27.12.2019
1818 Clear 1 1023 23 0 3.49 353 22:20 27.12.2019
1819 Clear 1 1023 23 0 3.49 353 21:58 27.12.2019
1820 Clear 1 1023 23 0 3.49 353 21:37 27.12.2019
1821 Clear 1 1023 23 0 3.49 353 21:19 27.12.2019
1822 Clear 1 1023 23 0 3.49 353 20:42 27.12.2019
1823 Clear 1 1023 23 0 3.49 353 20:23 27.12.2019
1824 Clear 1 1024 29 0 3.36 355 19:54 27.12.2019
1825 Clear 1 1024 29 0 3.36 355 19:36 27.12.2019
1826 Clear 1 1024 29 0 3.36 355 19:18 27.12.2019
1827 Clear 1 1024 29 0 3.36 355 18:40 27.12.2019
1828 Clear 1 1024 29 0 3.36 355 18:22 27.12.2019
1829 Clear 1 1024 29 0 3.36 355 17:58 27.12.2019
1830 Clear 1 1024 29 0 3.36 355 17:40 27.12.2019
1831 Clear 1 1025 33 0 3.04 353 17:19 27.12.2019
1832 Clear 1 1025 33 0 3.04 353 16:59 27.12.2019
1833 Clear 1 1025 33 0 3.04 353 16:39 27.12.2019
1834 Clear 1 1025 33 0 3.04 353 16:20 27.12.2019
1835 Clear 1 1025 33 0 3.04 353 15:45 27.12.2019
1836 Clear 1 1025 33 0 3.04 353 15:23 27.12.2019
1837 Clear 1 1025 33 0 3.04 353 14:58 27.12.2019
1838 Clear 1 1025 33 0 3.04 353 14:40 27.12.2019
1839 Clear 1 1022 40 0 1.84 19 14:21 27.12.2019
1840 Clear 1 1022 40 0 1.84 19 13:58 27.12.2019
1841 Clear 1 1022 40 0 1.84 19 13:40 27.12.2019
1842 Clear 1 1022 40 0 1.75 17 13:21 27.12.2019
1843 Clear 1 1022 40 0 1.75 17 12:44 27.12.2019
1844 Clear 1 1022 40 0 1.75 17 12:26 27.12.2019
1845 Clear 1 1022 40 0 1.75 17 12:26 27.12.2019
1846 Clear 1 1022 40 0 1.75 17 11:56 27.12.2019
1847 Clear 1 1022 40 0 1.75 17 11:38 27.12.2019
1848 Clear 7 1020 21 0 2.37 191 11:19 27.12.2019
1849 Clear 7 1020 21 0 2.37 191 10:45 27.12.2019
1850 Clear 7 1020 21 0 2.37 191 10:23 27.12.2019
1851 Clear 7 1020 21 0 2.37 191 09:55 27.12.2019
1852 Clear 7 1020 21 0 2.37 191 09:37 27.12.2019
1853 Clear 7 1020 21 0 2.37 191 09:19 27.12.2019
1854 Clear 7 1020 21 0 2.37 191 08:43 27.12.2019
1855 Clear 7 1020 21 0 2.37 191 08:25 27.12.2019
1856 Clear 7 1024 15 0 1.54 232 07:38 27.12.2019
1857 Clear 7 1024 15 0 1.54 232 07:19 27.12.2019
1858 Clear 7 1024 15 0 1.54 232 06:25 27.12.2019
1859 Clear 1 1030 13 0 2.71 2 04:39 27.12.2019
1860 Clear 1 1030 13 0 2.71 2 02:29 27.12.2019
1861 Clear -2 1031 12 0 3.55 13 01:45 27.12.2019
1862 Clear -2 1031 12 0 3.55 13 01:23 27.12.2019
1863 Clear -3 1031 12 0 3.57 13 00:47 27.12.2019
1864 Clear -3 1031 12 0 3.57 13 00:27 27.12.2019
1865 Clear -3 1031 12 0 3.57 13 23:56 26.12.2019
1866 Clear -3 1031 12 0 3.57 13 23:38 26.12.2019
1867 Clear -3 1032 14 0 3.56 23 23:20 26.12.2019
1868 Clear -3 1032 14 0 3.56 23 22:41 26.12.2019
1869 Clear -3 1032 14 0 3.56 23 22:19 26.12.2019
1870 Clear -3 1032 14 0 3.56 23 21:55 26.12.2019
1871 Clear -3 1032 14 0 3.56 23 21:37 26.12.2019
1872 Clear -3 1032 14 0 3.56 23 21:19 26.12.2019
1873 Clear -3 1032 14 0 3.56 23 20:44 26.12.2019
1874 Clear -3 1033 18 0 3.4 23 20:22 26.12.2019
1875 Clear -3 1032 17 0 3.41 25 19:57 26.12.2019
1876 Clear -3 1032 17 0 3.41 25 19:38 26.12.2019
1877 Clear -3 1032 17 0 3.41 25 19:20 26.12.2019
1878 Clear -3 1032 17 0 3.41 25 18:57 26.12.2019
1879 Clear -3 1032 17 0 3.41 25 18:37 26.12.2019
1880 Clear -3 1032 17 0 3.41 25 18:19 26.12.2019
1881 Clear -3 1032 17 0 3.41 25 17:42 26.12.2019
1882 Clear -3 1031 18 0 3.96 21 17:22 26.12.2019
1883 Clear -3 1031 18 0 3.96 21 16:58 26.12.2019
1884 Clear -3 1031 18 0 3.96 21 16:39 26.12.2019
1885 Clear -3 1031 18 0 3.96 21 16:20 26.12.2019
1886 Clear -3 1031 18 0 3.96 21 15:41 26.12.2019
1887 Clear -3 1031 18 0 3.96 21 15:41 26.12.2019
1888 Clear -3 1031 18 0 3.96 21 15:20 26.12.2019
1889 Clear -3 1031 18 0 3.96 21 14:58 26.12.2019
1890 Clear -3 1031 18 0 3.96 21 14:38 26.12.2019
1891 Clear -1 1027 37 0 2.81 21 14:20 26.12.2019
1892 Clear -1 1027 37 0 2.81 21 13:43 26.12.2019
1893 Clear -1 1027 37 0 2.81 17 13:20 26.12.2019
1894 Clear -1 1027 37 0 2.81 17 12:56 26.12.2019
1895 Clear -1 1027 37 0 2.81 17 12:37 26.12.2019
1896 Clear -1 1027 37 0 2.81 17 12:19 26.12.2019
1897 Clear -1 1027 37 0 2.81 17 11:56 26.12.2019
1898 Clear -1 1027 37 0 2.81 17 11:37 26.12.2019
1899 Clear 5 1021 21 0 1.75 220 11:19 26.12.2019
1900 Clear 5 1021 21 0 1.75 220 10:42 26.12.2019
1901 Clear 5 1021 21 0 1.75 220 10:18 26.12.2019
1902 Clear 5 1021 21 0 1.75 220 09:45 26.12.2019
1903 Clear 5 1021 21 0 1.75 220 09:26 26.12.2019
1904 Clear 5 1021 21 0 1.75 220 08:42 26.12.2019
1905 Clear 5 1021 21 0 1.79 220 08:24 26.12.2019
1906 Clear 5 1025 16 0 0.97 234 07:53 26.12.2019
1907 Clear 5 1025 16 0 0.97 234 07:27 26.12.2019
1908 Clear 5 1025 16 0 0.97 234 06:53 26.12.2019
1909 Clear 5 1025 16 0 0.97 234 06:32 26.12.2019
1910 Clear 5 1025 16 0 0.97 234 05:45 26.12.2019
1911 Clear -1 1031 20 0 2.42 26 04:55 26.12.2019
1912 Clear -1 1031 20 0 2.42 26 04:29 26.12.2019
1913 Clear -1 1031 20 0 2.42 26 02:56 26.12.2019
1914 Clear -1 1031 20 0 2.42 26 02:34 26.12.2019
1915 Clear -1 1031 20 0 2.42 26 02:34 26.12.2019
1916 Clear -3 1030 22 0 2.7 20 01:50 26.12.2019
1917 Clear -3 1030 22 0 2.71 20 01:32 26.12.2019
1918 Clear -3 1030 22 0 2.71 20 00:49 26.12.2019
1919 Clear -3 1030 22 0 2.71 20 00:27 26.12.2019
1920 Clear -3 1030 22 0 2.71 20 23:58 25.12.2019
1921 Clear -3 1030 22 0 2.71 20 23:39 25.12.2019
1922 Clear -3 1029 25 0 2.7 19 23:21 25.12.2019
1923 Clear -3 1029 25 0 2.7 19 22:59 25.12.2019
1924 Clear -3 1029 25 0 2.7 19 22:39 25.12.2019
1925 Clear -3 1029 25 0 2.7 19 22:21 25.12.2019
1926 Clear -3 1029 25 0 2.7 19 21:58 25.12.2019
1927 Clear -3 1029 25 0 2.7 19 21:39 25.12.2019
1928 Clear -3 1029 25 0 2.7 19 21:20 25.12.2019
1929 Clear -3 1029 25 0 2.7 19 20:56 25.12.2019
1930 Clear -3 1029 25 0 2.7 19 20:38 25.12.2019
1931 Clear -2 1028 28 0 2.55 15 20:18 25.12.2019
1932 Clear -2 1028 28 0 2.55 15 20:18 25.12.2019
1933 Clear -2 1028 28 0 2.55 15 19:43 25.12.2019
1934 Clear -2 1028 28 0 2.55 15 19:24 25.12.2019
1935 Clear -2 1028 28 0 2.55 15 18:58 25.12.2019
1936 Clear -2 1028 28 0 2.55 15 18:37 25.12.2019
1937 Clear -2 1028 28 0 2.55 15 18:18 25.12.2019
1938 Clear -2 1028 28 0 2.55 15 17:41 25.12.2019
1939 Clear -2 1028 33 0 3.17 15 17:19 25.12.2019
1940 Clear -2 1028 33 0 3.17 15 16:58 25.12.2019
1941 Clear -2 1028 33 0 3.17 15 16:37 25.12.2019
1942 Clear -2 1028 33 0 3.17 15 16:18 25.12.2019
1943 Clear -2 1028 33 0 3.17 15 15:57 25.12.2019
1944 Clear -2 1028 33 0 3.17 15 15:57 25.12.2019
1945 Clear -2 1028 33 0 3.17 15 15:38 25.12.2019
1946 Clear -2 1028 33 0 3.17 15 15:20 25.12.2019
1947 Clear -2 1028 33 0 3.17 15 14:57 25.12.2019
1948 Clear -2 1028 33 0 3.17 15 14:39 25.12.2019
1949 Clear -2 1028 33 0 3.17 15 14:39 25.12.2019
1950 Clear -1 1023 50 0 1.58 6 14:20 25.12.2019
1951 Clear -1 1023 50 0 1.58 6 13:44 25.12.2019
1952 Clear -1 1023 50 0 1.58 6 13:21 25.12.2019
1953 Clear -1 1023 49 0 1.56 1 12:57 25.12.2019
1954 Clear -1 1023 49 0 1.56 1 12:38 25.12.2019
1955 Clear -1 1023 49 0 1.56 1 12:38 25.12.2019
1956 Clear -1 1023 49 0 1.56 1 12:19 25.12.2019
1957 Clear -1 1023 49 0 1.56 1 11:43 25.12.2019
1958 Clear -1 1023 49 0 1.56 1 11:22 25.12.2019
1959 Clear 6 1021 24 0 2.54 216 10:59 25.12.2019
1960 Clear 6 1021 24 0 2.54 216 10:59 25.12.2019
1961 Clear 6 1021 24 0 2.54 216 10:37 25.12.2019
1962 Clear 6 1021 24 0 2.54 216 10:19 25.12.2019
1963 Clear 6 1021 24 0 2.54 216 09:45 25.12.2019
1964 Clear 6 1021 24 0 2.54 216 09:27 25.12.2019
1965 Clear 6 1021 24 0 2.54 216 08:47 25.12.2019
1966 Clear 6 1021 24 0 2.54 216 08:28 25.12.2019
1967 Clear 6 1024 18 0 1.19 219 07:49 25.12.2019
1968 Clear 6 1024 18 0 1.19 219 07:31 25.12.2019
1969 Clear 6 1024 18 0 1.19 219 06:49 25.12.2019
1970 Clear 6 1024 18 0 1.19 219 06:22 25.12.2019
1971 Clear 0 1029 22 0 2.3 18 05:18 25.12.2019
1972 Clear 0 1029 22 0 2.3 18 04:39 25.12.2019
1973 Clear 0 1029 22 0 2.3 18 04:20 25.12.2019
1974 Clear 0 1029 22 0 2.3 18 03:41 25.12.2019
1975 Clear 0 1029 22 0 2.3 18 02:51 25.12.2019
1976 Clear -2 1028 23 0 3.04 15 02:20 25.12.2019
1977 Clear -2 1028 22 0 2.92 15 01:25 25.12.2019
1978 Clear -2 1028 22 0 2.92 15 00:53 25.12.2019
1979 Clear -2 1028 22 0 2.92 15 00:30 25.12.2019
1980 Clear -2 1028 22 0 2.92 15 23:57 24.12.2019
1981 Clear -2 1028 22 0 2.92 15 23:38 24.12.2019
1982 Clear -2 1030 27 0 3 14 23:20 24.12.2019
1983 Clear -2 1030 27 0 3 14 22:41 24.12.2019
1984 Clear -2 1030 27 0 3 14 22:21 24.12.2019
1985 Clear -2 1030 27 0 3 14 21:44 24.12.2019
1986 Clear -2 1030 27 0 3 14 21:23 24.12.2019
1987 Clear -2 1030 27 0 3 14 20:57 24.12.2019
1988 Clear -2 1030 27 0 3 14 20:39 24.12.2019
1989 Clear -1 1029 31 0 3.15 15 20:19 24.12.2019
1990 Clear -1 1029 29 0 3.04 16 19:45 24.12.2019
1991 Clear -1 1029 29 0 3.04 16 19:20 24.12.2019
1992 Clear -1 1029 29 0 3.04 16 18:57 24.12.2019
1993 Clear -1 1029 29 0 3.04 16 18:38 24.12.2019
1994 Clear -1 1029 29 0 3.04 16 18:18 24.12.2019
1995 Clear -1 1029 29 0 3.04 16 17:39 24.12.2019
1996 Clear -1 1028 34 0 3.61 17 17:21 24.12.2019
1997 Clear -1 1028 34 0 3.61 17 16:56 24.12.2019
1998 Clear -1 1028 34 0 3.61 17 16:38 24.12.2019
1999 Clear -1 1028 34 0 3.61 17 16:20 24.12.2019
2000 Clear -1 1028 34 0 3.61 17 15:56 24.12.2019
2001 Clear -1 1028 34 0 3.61 17 15:36 24.12.2019
2002 Clear -1 1028 34 0 3.61 17 15:18 24.12.2019
2003 Clear -1 1028 34 0 3.61 17 14:56 24.12.2019
2004 Clear -1 1028 34 0 3.61 17 14:38 24.12.2019
2005 Clear 0 1024 60 0 1.49 357 14:20 24.12.2019
2006 Clear 0 1024 60 0 1.49 357 13:55 24.12.2019
2007 Clear 0 1024 60 0 1.49 357 13:55 24.12.2019
2008 Clear 0 1024 60 0 1.49 357 13:37 24.12.2019
2009 Clear 0 1024 58 0 1.59 358 13:19 24.12.2019
2010 Clear 0 1024 58 0 1.59 358 12:55 24.12.2019
2011 Clear 0 1024 58 0 1.59 358 12:36 24.12.2019
2012 Clear 0 1024 58 0 1.59 358 12:18 24.12.2019
2013 Clear 0 1024 58 0 1.59 358 11:55 24.12.2019
2014 Clear 0 1024 58 0 1.59 358 11:55 24.12.2019
2015 Clear 0 1024 58 0 1.59 358 11:37 24.12.2019
2016 Clear 0 1024 58 0 1.59 358 11:37 24.12.2019
2017 Clear 6 1022 32 0 2.47 216 11:18 24.12.2019
2018 Clear 6 1022 32 0 2.47 216 10:56 24.12.2019
2019 Clear 6 1022 32 0 2.47 216 10:37 24.12.2019
2020 Clear 6 1022 32 0 2.47 216 10:19 24.12.2019
2021 Clear 6 1022 32 0 2.47 216 09:55 24.12.2019
2022 Clear 6 1022 32 0 2.47 216 09:36 24.12.2019
2023 Clear 6 1022 32 0 2.47 216 09:18 24.12.2019
2024 Clear 6 1022 32 0 2.47 216 08:44 24.12.2019
2025 Clear 6 1024 27 0 1.96 214 08:20 24.12.2019
2026 Clear 6 1024 27 0 1.96 214 07:46 24.12.2019
2027 Clear 6 1024 27 0 1.96 214 07:26 24.12.2019
2028 Clear 6 1024 27 0 1.96 214 06:58 24.12.2019
2029 Clear 6 1024 27 0 1.96 214 06:38 24.12.2019
2030 Clear 6 1024 27 0 1.96 214 06:19 24.12.2019
2031 Clear 1 1029 33 0 2.77 2 05:21 24.12.2019
2032 Clear 1 1029 33 0 2.77 2 04:59 24.12.2019
2033 Clear 1 1029 33 0 2.77 2 03:50 24.12.2019
2034 Clear 1 1029 33 0 2.77 2 03:23 24.12.2019
2035 Clear 1 1029 33 0 2.77 2 02:25 24.12.2019
2036 Clouds -1 1027 32 0 3.53 4 01:51 24.12.2019
2037 Clouds -1 1027 32 0 3.53 4 01:51 24.12.2019
2038 Clouds -1 1027 32 0 3.53 4 01:23 24.12.2019
2039 Clouds -1 1027 33 0 3.53 3 00:46 24.12.2019
2040 Clouds -1 1027 33 0 3.53 3 00:26 24.12.2019
2041 Clouds -1 1027 33 0 3.53 3 23:59 23.12.2019
2042 Clouds -1 1027 33 0 3.53 3 23:41 23.12.2019
2043 Clouds -1 1027 33 0 3.53 3 23:23 23.12.2019
2044 Clouds -1 1026 37 0 3.42 356 22:56 23.12.2019
2045 Clouds -1 1026 37 0 3.42 356 22:37 23.12.2019
2046 Clouds -1 1026 37 0 3.42 356 22:37 23.12.2019
2047 Clouds -1 1026 37 0 3.42 356 22:19 23.12.2019
2048 Clouds -1 1026 37 0 3.42 356 21:55 23.12.2019
2049 Clouds -1 1026 37 0 3.42 356 21:36 23.12.2019
2050 Clouds -1 1026 37 0 3.42 356 21:36 23.12.2019
2051 Clouds -1 1026 37 0 3.42 356 21:36 23.12.2019
2052 Clouds -1 1026 37 0 3.42 356 21:18 23.12.2019
2053 Clouds -1 1026 37 0 3.42 356 20:57 23.12.2019
2054 Clouds -1 1026 37 0 3.42 356 20:39 23.12.2019
2055 Clouds 0 1025 35 0 3.21 359 20:18 23.12.2019
2056 Clouds 0 1025 35 0 3.21 359 19:56 23.12.2019
2057 Clouds 0 1025 35 0 3.21 359 19:38 23.12.2019
2058 Clouds 0 1025 35 0 3.21 359 19:19 23.12.2019
2059 Clouds 0 1025 35 0 3.21 359 18:57 23.12.2019
2060 Clouds 0 1025 35 0 3.21 359 18:38 23.12.2019
2061 Clouds 0 1025 35 0 3.21 359 18:20 23.12.2019
2062 Clouds 0 1025 35 0 3.21 359 17:56 23.12.2019
2063 Clouds 0 1025 35 0 3.21 359 17:37 23.12.2019
2064 Clouds 1 1024 38 0 3.32 13 17:19 23.12.2019
2065 Clouds 1 1024 38 0 3.32 13 16:55 23.12.2019
2066 Clouds 1 1024 38 0 3.32 13 16:55 23.12.2019
2067 Clouds 1 1024 38 0 3.32 13 16:36 23.12.2019
2068 Clouds 1 1024 38 0 3.32 13 16:18 23.12.2019
2069 Clouds 1 1024 38 0 3.32 13 15:55 23.12.2019
2070 Clouds 1 1024 38 0 3.32 13 15:36 23.12.2019
2071 Clouds 1 1024 38 0 3.32 13 15:18 23.12.2019
2072 Clouds 1 1024 38 0 3.32 13 14:45 23.12.2019
2073 Clouds 1 1024 38 0 3.32 13 14:26 23.12.2019
2074 Clouds 1 1020 54 0 1.69 6 13:59 23.12.2019
2075 Clouds 1 1020 54 0 1.69 6 13:41 23.12.2019
2076 Clouds 1 1020 54 0 1.69 6 13:22 23.12.2019
2077 Clouds 1 1020 53 0 1.67 5 12:59 23.12.2019
2078 Clouds 1 1020 53 0 1.67 5 12:40 23.12.2019
2079 Clouds 1 1020 53 0 1.67 5 12:21 23.12.2019
2080 Clouds 1 1020 53 0 1.67 5 11:55 23.12.2019
2081 Clouds 1 1020 53 0 1.67 5 11:37 23.12.2019
2082 Clear 7 1018 34 0 2.26 217 11:18 23.12.2019
2083 Clear 7 1018 34 0 2.26 217 10:54 23.12.2019
2084 Clear 7 1018 34 0 2.26 217 10:36 23.12.2019
2085 Clear 7 1018 34 0 2.26 217 10:18 23.12.2019
2086 Clear 7 1018 34 0 2.26 217 09:40 23.12.2019
2087 Clear 7 1018 34 0 2.26 217 09:22 23.12.2019
2088 Clear 7 1018 34 0 2.26 217 08:58 23.12.2019
2089 Clear 7 1018 34 0 2.26 217 08:40 23.12.2019
2090 Clear 8 1021 25 0 1.74 217 08:22 23.12.2019
2091 Clear 8 1021 25 0 1.74 217 07:48 23.12.2019
2092 Clear 8 1021 25 0 1.74 217 07:21 23.12.2019
2093 Clear 8 1021 25 0 1.74 217 06:57 23.12.2019
2094 Clear 8 1021 25 0 1.74 217 06:30 23.12.2019
2095 Clear 8 1021 25 0 1.74 217 05:56 23.12.2019
2096 Clear 8 1021 25 0 1.74 217 05:33 23.12.2019
2097 Clear 2 1025 28 0 3.21 8 04:40 23.12.2019
2098 Clear 2 1025 28 0 3.21 8 03:36 23.12.2019
2099 Clear 2 1025 28 0 3.21 8 02:43 23.12.2019
2100 Clear 0 1024 25 0 3.87 3 02:19 23.12.2019
2101 Clear 0 1024 25 0 3.87 3 01:45 23.12.2019
2102 Clear 0 1024 25 0 3.87 3 01:27 23.12.2019
2103 Clear 0 1024 26 0 3.84 360 00:45 23.12.2019
2104 Clear 0 1024 26 0 3.84 360 00:25 23.12.2019
2105 Clear 0 1024 26 0 3.84 360 23:56 22.12.2019
2106 Clear 0 1024 26 0 3.84 360 23:37 22.12.2019
2107 Clear 0 1024 27 0 3.88 1 23:18 22.12.2019
2108 Clear 0 1024 27 0 3.88 1 22:41 22.12.2019
2109 Clear 0 1024 27 0 3.88 1 22:22 22.12.2019
2110 Clear 0 1024 27 0 3.88 1 21:59 22.12.2019
2111 Clear 0 1024 27 0 3.88 1 21:40 22.12.2019
2112 Clear 0 1024 27 0 3.88 1 21:21 22.12.2019
2113 Clear 0 1024 27 0 3.88 1 20:59 22.12.2019
2114 Clear 0 1024 27 0 3.88 1 20:40 22.12.2019
2115 Clear 0 1025 31 0 3.85 2 20:19 22.12.2019
2116 Clear 0 1025 31 0 3.85 2 19:57 22.12.2019
2117 Clear 0 1025 31 0 3.85 2 19:39 22.12.2019
2118 Clear 0 1025 31 0 3.85 2 19:20 22.12.2019
2119 Clear 0 1025 31 0 3.85 2 18:43 22.12.2019
2120 Clear 0 1025 31 0 3.85 2 18:25 22.12.2019
2121 Clear 0 1025 31 0 3.85 2 17:57 22.12.2019
2122 Clear 0 1025 31 0 3.85 2 17:39 22.12.2019
2123 Clear 0 1026 36 0 3.71 12 17:19 22.12.2019
2124 Clear 0 1026 36 0 3.71 12 16:59 22.12.2019
2125 Clear 0 1026 36 0 3.71 12 16:41 22.12.2019
2126 Clear 0 1026 36 0 3.71 12 16:22 22.12.2019
2127 Clear 0 1026 36 0 3.71 12 15:57 22.12.2019
2128 Clear 0 1026 36 0 3.71 12 15:39 22.12.2019
2129 Clear 0 1026 36 0 3.71 12 15:39 22.12.2019
2130 Clear 0 1026 36 0 3.71 12 15:21 22.12.2019
2131 Clear 0 1026 36 0 3.71 12 14:56 22.12.2019
2132 Clear 0 1026 36 0 3.71 12 14:38 22.12.2019
2133 Clear 1 1022 61 0 2.3 11 14:19 22.12.2019
2134 Clear 1 1022 61 0 2.3 11 14:19 22.12.2019
2135 Clear 1 1022 61 0 2.3 11 13:56 22.12.2019
2136 Clear 1 1022 61 0 2.3 11 13:38 22.12.2019
2137 Clear 1 1022 61 0 2.3 11 13:19 22.12.2019
2138 Clear 1 1022 63 0 2.13 7 13:19 22.12.2019
2139 Clear 1 1022 63 0 2.13 7 12:56 22.12.2019
2140 Clear 1 1022 63 0 2.13 7 12:38 22.12.2019
2141 Clear 1 1022 63 0 2.13 7 12:19 22.12.2019
2142 Clear 1 1022 63 0 2.13 7 11:56 22.12.2019
2143 Clear 1 1022 63 0 2.13 7 11:38 22.12.2019
2144 Clear 7 1020 43 0 2.13 208 11:19 22.12.2019
2145 Clear 7 1020 43 0 2.13 208 10:56 22.12.2019
2146 Clear 7 1020 43 0 2.13 208 10:38 22.12.2019
2147 Clear 7 1020 43 0 2.13 208 10:19 22.12.2019
2148 Clear 7 1020 43 0 2.13 208 10:19 22.12.2019
2149 Clear 7 1020 43 0 2.13 208 09:57 22.12.2019
2150 Clear 7 1020 43 0 2.13 208 09:39 22.12.2019
2151 Clear 7 1020 43 0 2.13 208 09:20 22.12.2019
2152 Clear 7 1020 43 0 2.13 208 08:42 22.12.2019
2153 Clear 6 1023 38 0 1.66 223 08:22 22.12.2019
2154 Clear 6 1023 38 0 1.66 223 07:44 22.12.2019
2155 Clear 6 1023 38 0 1.66 223 07:21 22.12.2019
2156 Clear 6 1023 38 0 1.66 223 06:53 22.12.2019
2157 Clear 6 1023 38 0 1.66 223 06:26 22.12.2019
2158 Clear 6 1023 38 0 1.66 223 05:33 22.12.2019
2159 Clear 1 1028 47 0 2.48 355 04:46 22.12.2019
2160 Clear 1 1028 47 0 2.48 355 04:25 22.12.2019
2161 Clear 1 1028 47 0 2.48 355 02:46 22.12.2019
2162 Clear 1 1028 47 0 2.48 355 02:46 22.12.2019
2163 Clear -1 1026 52 0 3.18 358 02:21 22.12.2019
2164 Clear -1 1026 55 0 3.16 1 01:31 22.12.2019
2165 Clear -1 1026 55 0 3.16 1 00:56 22.12.2019
2166 Clear -1 1026 55 0 3.16 1 00:36 22.12.2019
2167 Clear -1 1026 55 0 3.16 1 00:18 22.12.2019
2168 Clear -1 1026 55 0 3.16 1 23:41 21.12.2019
2169 Clear -1 1026 64 0 3.28 359 23:21 21.12.2019
2170 Clear -1 1026 64 0 3.28 359 22:57 21.12.2019
2171 Clear -1 1026 64 0 3.28 359 22:37 21.12.2019
2172 Clear -1 1026 64 0 3.28 359 22:18 21.12.2019
2173 Clear -1 1026 64 0 3.28 359 21:54 21.12.2019
2174 Clear -1 1026 64 0 3.28 359 21:36 21.12.2019
2175 Clear -1 1026 64 0 3.28 359 21:18 21.12.2019
2176 Clear -1 1026 64 0 3.28 359 20:56 21.12.2019
2177 Clear -1 1026 64 0 3.28 359 20:37 21.12.2019
2178 Clouds -1 1024 73 0 3.02 359 20:19 21.12.2019
2179 Clouds -1 1024 71 0 3.02 357 19:55 21.12.2019
2180 Clouds -1 1024 71 0 3.02 357 19:36 21.12.2019
2181 Clouds -1 1024 71 0 3.02 357 19:18 21.12.2019
2182 Clouds -1 1024 71 0 3.02 357 18:41 21.12.2019
2183 Clouds -1 1024 71 0 3.02 357 18:23 21.12.2019
2184 Clouds -1 1024 71 0 3.02 357 17:56 21.12.2019
2185 Clouds -1 1024 71 0 3.02 357 17:38 21.12.2019
2186 Clouds 0 1023 81 0 1.83 18 17:19 21.12.2019
2187 Clouds 0 1023 81 0 1.83 18 16:57 21.12.2019
2188 Clouds 0 1023 81 0 1.83 18 16:38 21.12.2019
2189 Clouds 0 1023 81 0 1.83 18 16:18 21.12.2019
2190 Clouds 0 1023 81 0 1.83 18 15:55 21.12.2019
2191 Clouds 0 1023 81 0 1.83 18 15:37 21.12.2019
2192 Clouds 0 1023 81 0 1.83 18 15:18 21.12.2019
2193 Clouds 0 1023 81 0 1.83 18 14:41 21.12.2019
2194 Clouds 0 1023 81 0 1.83 18 14:23 21.12.2019
2195 Snow 2 1019 91 0 0.57 240 13:58 21.12.2019
2196 Snow 2 1019 91 0 0.57 240 13:39 21.12.2019
2197 Snow 1 1019 94 0 0.32 271 13:19 21.12.2019
2198 Snow 1 1019 94 0 0.32 271 12:56 21.12.2019
2199 Snow 1 1019 94 0 0.32 271 12:38 21.12.2019
2200 Snow 1 1019 94 0 0.32 271 12:20 21.12.2019
2201 Snow 1 1019 94 0 0.32 271 11:48 21.12.2019
2202 Snow 1 1019 94 0 0.32 271 11:27 21.12.2019
2203 Snow 5 1017 74 0 2.42 228 10:59 21.12.2019
2204 Snow 5 1017 74 0 2.42 228 10:41 21.12.2019
2205 Snow 5 1017 74 0 2.42 228 10:22 21.12.2019
2206 Snow 5 1017 74 0 2.42 228 09:58 21.12.2019
2207 Snow 5 1017 74 0 2.42 228 09:39 21.12.2019
2208 Snow 5 1017 74 0 2.42 228 09:20 21.12.2019
2209 Snow 5 1017 74 0 2.42 228 08:52 21.12.2019
2210 Clouds 6 1018 61 0 2.11 229 08:27 21.12.2019
2211 Clouds 5 1021 59 0 1.56 231 07:58 21.12.2019
2212 Clouds 5 1021 59 0 1.56 231 07:40 21.12.2019
2213 Clouds 5 1021 59 0 1.56 231 07:21 21.12.2019
2214 Clouds 5 1021 59 0 1.56 231 06:41 21.12.2019
2215 Clouds 5 1021 59 0 1.56 231 06:23 21.12.2019
2216 Clouds 5 1021 59 0 1.56 231 05:37 21.12.2019
2217 Clear 1 1026 68 0 2.62 1 04:55 21.12.2019
2218 Clear 1 1026 68 0 2.62 1 03:56 21.12.2019
2219 Clear 1 1026 68 0 2.62 1 02:26 21.12.2019
2220 Snow -1 1024 77 0 3.61 16 01:53 21.12.2019
2221 Snow -1 1024 77 0 3.61 16 01:26 21.12.2019
2222 Snow 0 1024 76 0 2.68 13 00:49 21.12.2019
2223 Snow 0 1024 76 0 2.68 13 00:28 21.12.2019
2224 Snow 0 1024 76 0 2.68 13 23:41 20.12.2019
2225 Snow 1 1023 70 0 3.13 22 23:22 20.12.2019
2226 Snow 1 1023 70 0 3.13 22 22:59 20.12.2019
2227 Snow 1 1023 70 0 3.13 22 22:40 20.12.2019
2228 Snow 1 1023 70 0 3.13 22 22:20 20.12.2019
2229 Snow 1 1023 70 0 3.13 22 21:57 20.12.2019
2230 Snow 1 1023 70 0 3.13 22 21:39 20.12.2019
2231 Snow 1 1023 70 0 3.13 22 21:18 20.12.2019
2232 Snow 1 1023 70 0 3.13 22 20:39 20.12.2019
2233 Snow 0 1021 75 0 3.14 4 20:19 20.12.2019
2234 Snow 0 1021 75 0 3.14 4 19:57 20.12.2019
2235 Snow 0 1021 75 0 3.14 4 19:39 20.12.2019
2236 Snow 0 1021 75 0 3.14 4 19:19 20.12.2019
2237 Snow 0 1021 75 0 3.14 4 18:42 20.12.2019
2238 Snow 0 1021 75 0 3.14 4 18:24 20.12.2019
2239 Snow 0 1021 75 0 3.14 4 17:59 20.12.2019
2240 Snow 0 1021 75 0 3.14 4 17:41 20.12.2019
2241 Snow 1 1020 85 0 2.56 16 17:21 20.12.2019
2242 Snow 1 1020 85 0 2.56 16 17:21 20.12.2019
2243 Snow 1 1020 85 0 2.56 16 16:59 20.12.2019
2244 Snow 1 1020 85 0 2.56 16 16:39 20.12.2019
2245 Snow 1 1020 85 0 2.56 16 16:20 20.12.2019
2246 Snow 1 1020 85 0 2.56 16 15:56 20.12.2019
2247 Snow 1 1020 85 0 2.56 16 15:38 20.12.2019
2248 Snow 1 1020 85 0 2.56 16 15:19 20.12.2019
2249 Snow 1 1020 85 0 2.56 16 14:54 20.12.2019
2250 Snow 1 1020 85 0 2.56 16 14:36 20.12.2019
2251 Snow 2 1015 87 0 2.62 3 14:18 20.12.2019
2252 Snow 2 1015 87 0 2.62 3 13:41 20.12.2019
2253 Snow 2 1015 87 0 2.62 3 13:20 20.12.2019
2254 Snow 1 1015 85 0 2.36 9 12:58 20.12.2019
2255 Snow 1 1015 85 0 2.36 9 12:38 20.12.2019
2256 Snow 1 1015 85 0 2.36 9 12:19 20.12.2019
2257 Snow 1 1015 85 0 2.36 9 11:59 20.12.2019
2258 Snow 1 1015 85 0 2.36 9 11:59 20.12.2019
2259 Snow 1 1015 85 0 2.36 9 11:39 20.12.2019
2260 Snow 4 1014 85 0 0.63 247 11:19 20.12.2019
2261 Snow 4 1014 85 0 0.63 247 10:58 20.12.2019
2262 Snow 4 1014 85 0 0.63 247 10:58 20.12.2019
2263 Snow 4 1014 85 0 0.63 247 10:40 20.12.2019
2264 Snow 4 1014 85 0 0.63 247 10:20 20.12.2019
2265 Snow 4 1014 85 0 0.63 247 09:55 20.12.2019
2266 Snow 4 1014 85 0 0.63 247 09:37 20.12.2019
2267 Snow 4 1014 85 0 0.63 247 09:19 20.12.2019
2268 Snow 4 1014 85 0 0.63 247 08:42 20.12.2019
2269 Snow 4 1016 78 0 0.93 194 08:22 20.12.2019
2270 Snow 7 1016 56 0 1.05 307 07:58 20.12.2019
2271 Snow 7 1016 56 0 1.05 307 07:40 20.12.2019
2272 Snow 7 1016 56 0 1.05 307 07:19 20.12.2019
2273 Snow 7 1016 56 0 1.05 307 07:19 20.12.2019
2274 Snow 7 1016 56 0 1.05 307 06:50 20.12.2019
2275 Snow 7 1016 56 0 1.05 307 06:31 20.12.2019
2276 Snow 7 1016 56 0 1.05 307 05:53 20.12.2019
2277 Snow 7 1016 56 0 1.05 307 05:34 20.12.2019
2278 Snow 4 1018 65 0 2.1 13 04:30 20.12.2019
2279 Snow 4 1018 65 0 2.1 13 03:30 20.12.2019
2280 Snow 4 1018 65 0 2.1 13 02:42 20.12.2019
2281 Clouds 2 1017 68 0 2.49 4 01:49 20.12.2019
2282 Snow 2 1016 78 0 2.61 19 01:30 20.12.2019
2283 Snow 2 1016 78 0 2.61 19 00:43 20.12.2019
2284 Snow 2 1016 78 0 2.61 19 00:23 20.12.2019
2285 Snow 2 1016 78 0 2.61 19 23:44 19.12.2019
2286 Snow 2 1016 78 0 2.61 19 23:25 19.12.2019
2287 Snow 3 1018 67 0 2.73 14 22:59 19.12.2019
2288 Snow 3 1018 67 0 2.73 14 22:59 19.12.2019
2289 Snow 3 1018 67 0 2.73 14 22:37 19.12.2019
2290 Snow 3 1018 67 0 2.73 14 22:18 19.12.2019
2291 Snow 3 1018 67 0 2.73 14 21:55 19.12.2019
2292 Snow 3 1018 67 0 2.73 14 21:37 19.12.2019
2293 Snow 3 1018 67 0 2.73 14 21:18 19.12.2019
2294 Snow 3 1018 67 0 2.73 14 20:55 19.12.2019
2295 Snow 3 1018 67 0 2.73 14 20:36 19.12.2019
2296 Snow 2 1018 79 0 3.27 31 20:18 19.12.2019
2297 Snow 2 1018 79 0 3.27 31 19:54 19.12.2019
2298 Snow 2 1018 79 0 3.27 31 19:36 19.12.2019
2299 Snow 2 1018 79 0 3.27 31 19:18 19.12.2019
2300 Snow 2 1018 79 0 3.27 31 18:41 19.12.2019
2301 Snow 2 1018 79 0 3.27 31 18:22 19.12.2019
2302 Snow 2 1018 79 0 3.27 31 17:57 19.12.2019
2303 Snow 2 1018 79 0 3.27 31 17:39 19.12.2019
2304 Snow 4 1019 60 0 1.57 27 17:19 19.12.2019
2305 Snow 4 1019 60 0 1.57 27 16:57 19.12.2019
2306 Snow 4 1019 60 0 1.57 27 16:39 19.12.2019
2307 Snow 4 1019 60 0 1.57 27 16:21 19.12.2019
2308 Snow 4 1019 60 0 1.57 27 15:59 19.12.2019
2309 Snow 4 1019 60 0 1.57 27 15:39 19.12.2019
2310 Snow 4 1019 60 0 1.57 27 15:20 19.12.2019
2311 Snow 4 1019 60 0 1.57 27 14:59 19.12.2019
2312 Snow 4 1019 60 0 1.57 27 14:40 19.12.2019
2313 Clouds 4 1017 61 0 1.66 48 14:19 19.12.2019
2314 Clouds 4 1017 61 0 1.66 48 13:57 19.12.2019
2315 Clouds 4 1017 61 0 1.66 48 13:37 19.12.2019
2316 Clouds 4 1017 61 0 1.66 48 13:18 19.12.2019
2317 Snow 5 1017 66 0 1.32 48 12:55 19.12.2019
2318 Snow 5 1017 66 0 1.32 48 12:36 19.12.2019
2319 Snow 5 1017 66 0 1.32 48 12:18 19.12.2019
2320 Snow 5 1017 66 0 1.32 48 11:56 19.12.2019
2321 Snow 5 1017 66 0 1.32 48 11:38 19.12.2019
2322 Clouds 8 1018 53 0 1.77 228 11:18 19.12.2019
2323 Clouds 8 1018 53 0 1.77 228 10:39 19.12.2019
2324 Clouds 8 1018 53 0 1.77 228 10:20 19.12.2019
2325 Clouds 8 1018 53 0 1.77 228 10:20 19.12.2019
2326 Clouds 8 1018 53 0 1.77 228 09:59 19.12.2019
2327 Clouds 8 1018 53 0 1.77 228 09:38 19.12.2019
2328 Clouds 8 1018 53 0 1.77 228 09:20 19.12.2019
2329 Clouds 8 1018 53 0 1.77 228 08:57 19.12.2019
2330 Clouds 8 1018 53 0 1.77 228 08:39 19.12.2019
2331 Clouds 9 1020 40 0 1.41 212 08:19 19.12.2019
2332 Clouds 9 1020 40 0 1.41 212 07:56 19.12.2019
2333 Clouds 9 1020 40 0 1.41 212 07:37 19.12.2019
2334 Clouds 9 1020 40 0 1.41 212 07:19 19.12.2019
2335 Clouds 9 1020 40 0 1.41 212 06:46 19.12.2019
2336 Clouds 9 1020 40 0 1.41 212 06:27 19.12.2019
2337 Clouds 9 1020 40 0 1.41 212 05:52 19.12.2019
2338 Clouds 9 1020 40 0 1.41 212 05:32 19.12.2019
2339 Clouds 6 1022 40 0 1.74 345 04:43 19.12.2019
2340 Clouds 6 1022 40 0 1.74 345 02:48 19.12.2019
2341 Clouds 4 1020 40 0 3.09 358 01:47 19.12.2019
2342 Clouds 4 1020 40 0 2.51 343 01:22 19.12.2019
2343 Clouds 4 1020 40 0 2.51 343 00:39 19.12.2019
2344 Clouds 4 1020 40 0 2.51 343 00:39 19.12.2019
2345 Clouds 4 1020 40 0 2.51 343 00:39 19.12.2019
2346 Clouds 4 1020 40 0 2.51 343 00:39 19.12.2019
2347 Clouds 4 1020 40 0 2.51 343 00:20 19.12.2019
2348 Clouds 4 1020 40 0 2.51 343 23:55 18.12.2019
2349 Clouds 4 1020 40 0 2.51 343 23:36 18.12.2019
2350 Clouds 4 1021 39 0 2.72 16 23:18 18.12.2019
2351 Clouds 4 1021 39 0 2.72 16 22:55 18.12.2019
2352 Clouds 4 1021 39 0 2.72 16 22:36 18.12.2019
2353 Clouds 4 1021 39 0 2.72 16 22:18 18.12.2019
2354 Clouds 4 1021 39 0 2.72 16 21:55 18.12.2019
2355 Clouds 4 1021 39 0 2.72 16 21:36 18.12.2019
2356 Clouds 4 1021 39 0 2.72 16 21:18 18.12.2019
2357 Clouds 4 1021 39 0 2.72 16 20:54 18.12.2019
2358 Clouds 4 1021 39 0 2.72 16 20:36 18.12.2019
2359 Clouds 4 1022 41 0 2.96 3 20:18 18.12.2019
2360 Clouds 4 1022 39 0 3.13 5 19:54 18.12.2019
2361 Clouds 4 1022 39 0 3.13 5 19:54 18.12.2019
2362 Clouds 4 1022 39 0 3.13 5 19:36 18.12.2019
2363 Clouds 4 1022 39 0 3.13 5 19:18 18.12.2019
2364 Clouds 4 1022 39 0 3.13 5 18:43 18.12.2019
2365 Clouds 4 1022 39 0 3.13 5 18:25 18.12.2019
2366 Clouds 4 1022 39 0 3.13 5 17:56 18.12.2019
2367 Clouds 4 1022 39 0 3.13 5 17:38 18.12.2019
2368 Clouds 4 1022 44 0 3.44 23 17:19 18.12.2019
2369 Clouds 4 1022 44 0 3.44 23 16:54 18.12.2019
2370 Clouds 4 1022 44 0 3.44 23 16:36 18.12.2019
2371 Clouds 4 1022 44 0 3.44 23 16:18 18.12.2019
2372 Clouds 4 1022 44 0 3.44 23 15:54 18.12.2019
2373 Clouds 4 1022 44 0 3.44 23 15:36 18.12.2019
2374 Clouds 4 1022 44 0 3.44 23 15:18 18.12.2019
2375 Clouds 4 1022 44 0 3.44 23 14:40 18.12.2019
2376 Clouds 3 1020 51 0 1.61 348 14:20 18.12.2019
2377 Clouds 3 1020 51 0 1.61 348 13:56 18.12.2019
2378 Clouds 3 1020 51 0 1.61 348 13:37 18.12.2019
2379 Clouds 3 1020 51 0 1.61 348 13:19 18.12.2019
2380 Clouds 4 1019 52 0 1.98 347 12:57 18.12.2019
2381 Clouds 4 1019 52 0 1.98 347 12:37 18.12.2019
2382 Clouds 4 1019 52 0 1.98 347 12:19 18.12.2019
2383 Clouds 4 1019 52 0 1.98 347 11:55 18.12.2019
2384 Clouds 4 1019 52 0 1.98 347 11:37 18.12.2019
2385 Clouds 9 1019 35 0 1.78 207 11:18 18.12.2019
2386 Clouds 9 1019 35 0 1.78 207 10:55 18.12.2019
2387 Clouds 9 1019 35 0 1.78 207 10:37 18.12.2019
2388 Clouds 9 1019 35 0 1.78 207 10:19 18.12.2019
2389 Clouds 9 1019 35 0 1.78 207 09:43 18.12.2019
2390 Clouds 9 1019 35 0 1.78 207 09:18 18.12.2019
2391 Clouds 9 1019 35 0 1.78 207 08:40 18.12.2019
2392 Clouds 9 1021 26 0 1.15 208 08:21 18.12.2019
2393 Clouds 9 1021 27 0 1.42 214 07:43 18.12.2019
2394 Clouds 9 1021 27 0 1.42 214 07:23 18.12.2019
2395 Clouds 9 1021 27 0 1.42 214 06:55 18.12.2019
2396 Clouds 9 1021 27 0 1.42 214 06:27 18.12.2019
2397 Clouds 9 1021 27 0 1.42 214 05:47 18.12.2019
2398 Clouds 5 1024 25 0 2.69 359 04:57 18.12.2019
2399 Clouds 5 1024 25 0 2.69 359 02:55 18.12.2019
2400 Clouds 5 1024 25 0 2.69 359 02:36 18.12.2019
2401 Clouds 2 1023 21 0 3.48 351 02:18 18.12.2019
2402 Clouds 2 1023 21 0 3.48 351 01:40 18.12.2019
2403 Clouds 2 1023 22 0 3.56 354 01:21 18.12.2019
2404 Clouds 2 1023 22 0 3.56 354 00:41 18.12.2019
2405 Clouds 2 1023 22 0 3.56 354 00:22 18.12.2019
2406 Clouds 2 1023 22 0 3.56 354 23:56 17.12.2019
2407 Clouds 2 1023 22 0 3.56 354 23:38 17.12.2019
2408 Clouds 1 1024 24 0 3.89 3 23:18 17.12.2019
2409 Clouds 1 1024 24 0 3.89 3 22:56 17.12.2019
2410 Clouds 1 1024 24 0 3.89 3 22:37 17.12.2019
2411 Clouds 1 1024 24 0 3.89 3 22:18 17.12.2019
2412 Clouds 1 1024 24 0 3.89 3 21:55 17.12.2019
2413 Clouds 1 1024 24 0 3.89 3 21:37 17.12.2019
2414 Clouds 1 1024 24 0 3.89 3 21:18 17.12.2019
2415 Clouds 1 1024 24 0 3.89 3 20:56 17.12.2019
2416 Clouds 1 1024 24 0 3.89 3 20:37 17.12.2019
2417 Clear 0 1025 31 0 3.7 11 20:18 17.12.2019
2418 Clear 1 1025 30 0 3.73 6 19:54 17.12.2019
2419 Clear 1 1025 30 0 3.73 6 19:36 17.12.2019
2420 Clear 1 1025 30 0 3.73 6 19:18 17.12.2019
2421 Clear 1 1025 30 0 3.73 6 18:41 17.12.2019
2422 Clear 1 1025 30 0 3.73 6 18:22 17.12.2019
2423 Clear 1 1025 30 0 3.73 6 17:59 17.12.2019
2424 Clear 1 1025 30 0 3.73 6 17:41 17.12.2019
2425 Clear 0 1026 38 0 3.21 354 17:19 17.12.2019
2426 Clear 0 1026 38 0 3.21 354 16:56 17.12.2019
2427 Clear 0 1026 38 0 3.21 354 16:37 17.12.2019
2428 Clear 0 1026 38 0 3.21 354 16:19 17.12.2019
2429 Clear 0 1026 38 0 3.21 354 15:56 17.12.2019
2430 Clear 0 1026 38 0 3.21 354 15:37 17.12.2019
2431 Clear 0 1026 38 0 3.21 354 15:37 17.12.2019
2432 Clear 0 1026 38 0 3.21 354 15:19 17.12.2019
2433 Clear 0 1026 38 0 3.21 354 15:19 17.12.2019
2434 Clear 0 1026 38 0 3.21 354 14:55 17.12.2019
2435 Clear 0 1026 38 0 3.21 354 14:36 17.12.2019
2436 Clear 0 1024 49 0 2.49 10 14:18 17.12.2019
2437 Clear 0 1024 49 0 2.49 10 13:55 17.12.2019
2438 Clear 0 1024 49 0 2.49 10 13:37 17.12.2019
2439 Clear 0 1024 49 0 2.33 11 13:18 17.12.2019
2440 Clear 0 1024 49 0 2.33 11 12:41 17.12.2019
2441 Clear 0 1024 49 0 2.33 11 12:19 17.12.2019
2442 Clear 0 1024 49 0 2.33 11 12:19 17.12.2019
2443 Clear 0 1024 49 0 2.33 11 12:19 17.12.2019
2444 Clear 0 1024 49 0 2.33 11 11:59 17.12.2019
2445 Clear 0 1024 49 0 2.33 11 11:37 17.12.2019
2446 Clear 6 1022 29 0 2.3 203 11:19 17.12.2019
2447 Clear 6 1022 29 0 2.3 203 10:59 17.12.2019
2448 Clear 6 1022 29 0 2.3 203 10:41 17.12.2019
2449 Clear 6 1022 29 0 2.3 203 10:41 17.12.2019
2450 Clear 6 1022 29 0 2.3 203 10:22 17.12.2019
2451 Clear 6 1022 29 0 2.3 203 09:59 17.12.2019
2452 Clear 6 1022 29 0 2.3 203 09:41 17.12.2019
2453 Clear 6 1022 29 0 2.3 203 09:20 17.12.2019
2454 Clear 6 1022 29 0 2.3 203 08:56 17.12.2019
2455 Clear 6 1022 29 0 2.3 203 08:38 17.12.2019
2456 Clear 7 1026 21 0 1.56 234 08:19 17.12.2019
2457 Clear 7 1026 21 0 1.56 234 07:47 17.12.2019
2458 Clear 7 1026 21 0 1.56 234 07:27 17.12.2019
2459 Clear 7 1026 21 0 1.56 234 06:59 17.12.2019
2460 Clear 7 1026 21 0 1.56 234 06:35 17.12.2019
2461 Clear 7 1026 21 0 1.56 234 05:54 17.12.2019
2462 Clear 7 1026 21 0 1.56 234 05:36 17.12.2019
2463 Clear 0 1031 25 0 3.22 7 04:31 17.12.2019
2464 Clear 0 1031 25 0 3.22 7 02:45 17.12.2019
2465 Clear -2 1030 22 0 3.59 7 01:56 17.12.2019
2466 Clear -2 1030 23 0 3.71 5 01:18 17.12.2019
2467 Clear -2 1030 23 0 3.71 5 00:38 17.12.2019
2468 Clear -2 1030 23 0 3.71 5 00:38 17.12.2019
2469 Clear -2 1030 23 0 3.71 5 00:19 17.12.2019
2470 Clear -2 1030 23 0 3.71 5 23:42 16.12.2019
2471 Clear -2 1031 27 0 3.45 359 23:19 16.12.2019
2472 Clear -2 1031 27 0 3.45 359 22:58 16.12.2019
2473 Clear -2 1031 27 0 3.45 359 22:37 16.12.2019
2474 Clear -2 1031 27 0 3.45 359 22:19 16.12.2019
2475 Clear -2 1031 27 0 3.45 359 21:56 16.12.2019
2476 Clear -2 1031 27 0 3.45 359 21:38 16.12.2019
2477 Clear -2 1031 27 0 3.45 359 21:38 16.12.2019
2478 Clear -2 1031 27 0 3.45 359 21:20 16.12.2019
2479 Clear -2 1031 27 0 3.45 359 20:57 16.12.2019
2480 Clear -2 1031 27 0 3.45 359 20:38 16.12.2019
2481 Clear -2 1030 37 0 3.36 3 20:19 16.12.2019
2482 Clear -2 1030 35 0 3.34 3 19:56 16.12.2019
2483 Clear -2 1030 35 0 3.34 3 19:37 16.12.2019
2484 Clear -2 1030 35 0 3.34 3 19:19 16.12.2019
2485 Clear -2 1030 35 0 3.34 3 18:56 16.12.2019
2486 Clear -2 1030 35 0 3.34 3 18:38 16.12.2019
2487 Clear -2 1030 35 0 3.34 3 18:19 16.12.2019
2488 Clear -2 1030 35 0 3.34 3 17:57 16.12.2019
2489 Clear -2 1030 35 0 3.34 3 17:38 16.12.2019
2490 Clear -1 1029 40 0 3.8 13 17:20 16.12.2019
2491 Clear -1 1029 40 0 3.8 13 16:57 16.12.2019
2492 Clear -1 1029 40 0 3.8 13 16:38 16.12.2019
2493 Clear -1 1029 40 0 3.8 13 16:19 16.12.2019
2494 Clear -1 1029 40 0 3.8 13 15:57 16.12.2019
2495 Clear -1 1029 40 0 3.8 13 15:38 16.12.2019
2496 Clear -1 1029 40 0 3.8 13 15:20 16.12.2019
2497 Clear -1 1029 40 0 3.8 13 14:55 16.12.2019
2498 Clear -1 1029 40 0 3.8 13 14:37 16.12.2019
2499 Clear -1 1025 65 0 1.97 4 14:18 16.12.2019
2500 Clear -1 1025 65 0 1.97 4 14:18 16.12.2019
2501 Clear -1 1025 65 0 1.97 4 13:56 16.12.2019
2502 Clear -1 1025 65 0 1.97 4 13:37 16.12.2019
2503 Clear -1 1025 66 0 1.85 360 13:19 16.12.2019
2504 Clear -1 1025 66 0 1.85 360 12:57 16.12.2019
2505 Clear -1 1025 67 0 1.83 359 12:39 16.12.2019
2506 Clear -1 1025 67 0 1.83 359 12:18 16.12.2019
2507 Clear -1 1025 66 0 1.85 360 11:57 16.12.2019
2508 Clear -1 1025 66 0 1.85 360 11:39 16.12.2019
2509 Clear 6 1022 36 0 2.29 218 11:19 16.12.2019
2510 Clear 6 1022 36 0 2.29 218 10:55 16.12.2019
2511 Clear 6 1022 36 0 2.29 218 10:36 16.12.2019
2512 Clear 6 1022 36 0 2.29 218 10:18 16.12.2019
2513 Clear 6 1022 36 0 2.29 218 09:44 16.12.2019
2514 Clear 6 1022 36 0 2.29 218 09:44 16.12.2019
2515 Clear 6 1022 36 0 2.29 218 09:26 16.12.2019
2516 Clear 6 1022 36 0 2.29 218 08:41 16.12.2019
2517 Clear 6 1025 29 0 1.62 212 08:21 16.12.2019
2518 Clear 6 1025 29 0 1.62 212 07:57 16.12.2019
2519 Clear 6 1025 29 0 1.62 212 07:38 16.12.2019
2520 Clear 6 1025 29 0 1.62 212 07:19 16.12.2019
2521 Clear 6 1025 29 0 1.62 212 06:40 16.12.2019
2522 Clear 6 1025 29 0 1.62 212 06:21 16.12.2019
2523 Clear 6 1025 29 0 1.62 212 06:21 16.12.2019
2524 Clear 6 1025 29 0 1.62 212 05:44 16.12.2019
2525 Clear 6 1025 29 0 1.62 212 05:26 16.12.2019
2526 Clear 0 1029 41 0 2.47 5 03:33 16.12.2019
2527 Clear -3 1028 45 0 3.16 4 01:57 16.12.2019
2528 Clear -3 1028 45 0 3.16 4 01:39 16.12.2019
2529 Clear -3 1028 44 0 3.12 4 00:41 16.12.2019
2530 Clear -3 1028 44 0 3.12 4 00:23 16.12.2019
2531 Clear -3 1028 44 0 3.12 4 23:58 15.12.2019
2532 Clear -3 1028 44 0 3.12 4 23:37 15.12.2019
2533 Clear -2 1029 47 0 3.05 9 23:19 15.12.2019
2534 Clear -2 1029 47 0 3.05 9 22:54 15.12.2019
2535 Clear -2 1029 47 0 3.05 9 22:36 15.12.2019
2536 Clear -2 1029 47 0 3.05 9 22:18 15.12.2019
2537 Clear -2 1029 47 0 3.05 9 21:55 15.12.2019
2538 Clear -2 1029 47 0 3.05 9 21:37 15.12.2019
2539 Clear -2 1029 47 0 3.05 9 21:37 15.12.2019
2540 Clear -2 1029 47 0 3.05 9 21:18 15.12.2019
2541 Clear -2 1029 47 0 3.05 9 20:54 15.12.2019
2542 Clear -2 1029 47 0 3.05 9 20:36 15.12.2019
2543 Clear -2 1029 47 0 3.05 9 20:36 15.12.2019
2544 Clear -2 1029 52 0 3.39 16 20:18 15.12.2019
2545 Clear -2 1029 51 0 3.29 12 19:54 15.12.2019
2546 Clear -2 1029 51 0 3.29 12 19:36 15.12.2019
2547 Clear -2 1029 51 0 3.29 12 19:18 15.12.2019
2548 Clear -2 1029 51 0 3.29 12 18:54 15.12.2019
2549 Clear -2 1029 51 0 3.29 12 18:36 15.12.2019
2550 Clear -2 1029 51 0 3.29 12 18:18 15.12.2019
2551 Clear -2 1029 51 0 3.29 12 17:55 15.12.2019
2552 Clear -2 1029 51 0 3.29 12 17:36 15.12.2019
2553 Clear -2 1027 54 0 3.07 16 17:18 15.12.2019
2554 Clear -2 1027 54 0 3.07 16 16:42 15.12.2019
2555 Clear -2 1028 55 0 3.1 16 16:22 15.12.2019
2556 Clear -2 1028 55 0 3.1 16 15:57 15.12.2019
2557 Clear -2 1027 54 0 3.07 16 15:39 15.12.2019
2558 Clear -2 1028 55 0 3.1 16 15:19 15.12.2019
2559 Clear -2 1027 54 0 3.07 16 14:56 15.12.2019
2560 Clear -2 1028 55 0 3.1 16 14:37 15.12.2019
2561 Clouds -1 1024 70 0 1.74 357 14:19 15.12.2019
2562 Clouds -1 1024 69 0 1.91 353 13:58 15.12.2019
2563 Clouds -1 1024 70 0 1.74 357 13:39 15.12.2019
2564 Clouds -1 1024 69 0 1.91 353 13:20 15.12.2019
2565 Clouds -1 1024 69 0 1.91 353 12:57 15.12.2019
2566 Clouds -1 1024 69 0 1.91 353 12:57 15.12.2019
2567 Clouds -1 1024 69 0 1.91 353 12:39 15.12.2019
2568 Clouds -1 1024 69 0 1.91 353 12:21 15.12.2019
2569 Clouds -1 1024 69 0 1.91 353 11:59 15.12.2019
2570 Clouds -1 1024 69 0 1.91 353 11:38 15.12.2019
2571 Clouds 4 1021 46 0 2.37 227 11:19 15.12.2019
2572 Clouds 4 1021 46 0 2.37 227 11:19 15.12.2019
2573 Clouds 4 1021 46 0 2.37 227 10:55 15.12.2019
2574 Clouds 4 1021 46 0 2.37 227 10:37 15.12.2019
2575 Clouds 4 1021 46 0 2.37 227 10:19 15.12.2019
2576 Clouds 4 1021 46 0 2.37 227 09:56 15.12.2019
2577 Clouds 4 1021 46 0 2.37 227 09:37 15.12.2019
2578 Clouds 4 1021 46 0 2.37 227 09:18 15.12.2019
2579 Clouds 4 1021 46 0 2.37 227 08:41 15.12.2019
2580 Clouds 5 1024 39 0 1.75 201 08:22 15.12.2019
2581 Clouds 5 1024 39 0 1.75 201 07:57 15.12.2019
2582 Clouds 5 1024 39 0 1.75 201 07:37 15.12.2019
2583 Clouds 5 1024 39 0 1.75 201 06:59 15.12.2019
2584 Clouds 5 1024 39 0 1.75 201 06:24 15.12.2019
2585 Clouds 5 1024 39 0 1.75 201 05:42 15.12.2019
2586 Clouds 0 1029 52 0 2.24 14 05:20 15.12.2019
2587 Clouds 0 1029 52 0 2.24 14 04:18 15.12.2019
2588 Clouds 0 1029 52 0 2.24 14 02:49 15.12.2019
2589 Clouds 0 1029 52 0 2.24 14 02:30 15.12.2019
2590 Clouds -2 1027 53 0 2.87 2 01:40 15.12.2019
2591 Clouds -2 1027 53 0 2.87 2 01:18 15.12.2019
2592 Clouds -1 1027 54 0 2.37 8 00:44 15.12.2019
2593 Clouds -1 1027 54 0 2.37 8 00:44 15.12.2019
2594 Clouds -1 1027 54 0 2.37 8 00:25 15.12.2019
2595 Clouds -1 1027 54 0 2.37 8 23:41 14.12.2019
2596 Clouds -1 1028 55 0 2.88 358 23:22 14.12.2019
2597 Clouds -1 1028 55 0 2.88 358 22:59 14.12.2019
2598 Clouds -1 1028 55 0 2.88 358 22:41 14.12.2019
2599 Clouds -1 1028 55 0 2.88 358 22:22 14.12.2019
2600 Clouds -1 1028 55 0 2.88 358 21:56 14.12.2019
2601 Clouds -1 1028 55 0 2.88 358 21:38 14.12.2019
2602 Clouds -1 1028 55 0 2.88 358 21:19 14.12.2019
2603 Clouds -1 1028 55 0 2.88 358 20:58 14.12.2019
2604 Clouds -1 1028 55 0 2.88 358 20:39 14.12.2019
2605 Clouds -1 1028 58 0 2.61 359 20:20 14.12.2019
2606 Clouds -1 1028 58 0 2.61 359 19:57 14.12.2019
2607 Clouds -1 1028 58 0 2.61 359 19:57 14.12.2019
2608 Clouds -1 1028 58 0 2.61 359 19:37 14.12.2019
2609 Clouds -1 1028 58 0 2.61 359 19:19 14.12.2019
2610 Clouds -1 1028 58 0 2.61 359 18:56 14.12.2019
2611 Clouds -1 1028 58 0 2.61 359 18:37 14.12.2019
2612 Clouds -1 1028 58 0 2.61 359 18:19 14.12.2019
2613 Clouds -1 1028 58 0 2.61 359 17:44 14.12.2019
2614 Clouds -1 1028 58 0 2.61 359 17:24 14.12.2019
2615 Clouds -2 1028 63 0 2.91 15 16:58 14.12.2019
2616 Clouds -2 1028 63 0 2.91 15 16:39 14.12.2019
2617 Clouds -2 1028 63 0 2.91 15 16:18 14.12.2019
2618 Clouds -2 1028 63 0 2.91 15 15:43 14.12.2019
2619 Clouds -2 1028 63 0 2.91 15 15:22 14.12.2019
2620 Clouds -2 1028 63 0 2.91 15 14:59 14.12.2019
2621 Clouds -2 1028 63 0 2.91 15 14:39 14.12.2019
2622 Snow -1 1024 91 0 1.02 346 14:20 14.12.2019
2623 Snow -1 1024 91 0 1.02 346 13:57 14.12.2019
2624 Snow -1 1024 91 0 1.02 346 13:38 14.12.2019
2625 Snow -1 1024 91 0 1.02 346 13:18 14.12.2019
2626 Snow -1 1024 91 0 0.77 336 12:55 14.12.2019
2627 Snow -1 1024 91 0 0.77 336 12:37 14.12.2019
2628 Snow -1 1024 91 0 0.77 336 12:18 14.12.2019
2629 Snow -1 1024 91 0 0.77 336 11:55 14.12.2019
2630 Snow -1 1024 91 0 0.77 336 11:36 14.12.2019
2631 Snow 4 1022 70 0 2.59 227 11:18 14.12.2019
2632 Snow 2 1022 88 0 1.5 230 10:55 14.12.2019
2633 Snow 4 1022 70 0 2.59 227 10:37 14.12.2019
2634 Snow 2 1022 88 0 1.5 230 10:18 14.12.2019
2635 Snow 4 1022 70 0 2.59 227 09:40 14.12.2019
2636 Snow 4 1022 70 0 2.59 227 09:40 14.12.2019
2637 Snow 4 1022 70 0 2.59 227 09:20 14.12.2019
2638 Snow 4 1022 70 0 2.59 227 09:20 14.12.2019
2639 Snow 2 1022 88 0 1.5 230 08:44 14.12.2019
2640 Clouds 2 1025 83 0 1.03 185 08:20 14.12.2019
2641 Clouds 2 1025 83 0 1.03 185 07:57 14.12.2019
2642 Clouds 2 1025 83 0 1.03 185 07:38 14.12.2019
2643 Clouds 2 1025 83 0 1.03 185 07:19 14.12.2019
2644 Clouds 2 1025 83 0 1.03 185 06:41 14.12.2019
2645 Clouds 2 1025 83 0 1.03 185 06:22 14.12.2019
2646 Snow -2 1026 83 0 2.58 18 05:22 14.12.2019
2647 Snow -2 1026 83 0 2.58 18 02:50 14.12.2019
2648 Snow -2 1022 95 0 1.49 11 02:22 14.12.2019
2649 Snow -2 1022 95 0 1.49 11 01:43 14.12.2019
2650 Snow -1 1021 98 0 0.25 70 00:55 14.12.2019
2651 Snow -1 1021 98 0 0.25 70 00:37 14.12.2019
2652 Snow -1 1021 98 0 0.25 70 00:18 14.12.2019
2653 Snow -1 1021 98 0 0.25 70 23:41 13.12.2019
2654 Snow -1 1020 99 0 1.01 181 23:19 13.12.2019
2655 Snow -1 1020 99 0 1.01 181 22:56 13.12.2019
2656 Snow -1 1020 99 0 1.01 181 22:37 13.12.2019
2657 Snow -1 1020 99 0 1.01 181 22:18 13.12.2019
2658 Snow -1 1020 99 0 1.01 181 21:42 13.12.2019
2659 Snow -1 1020 99 0 1.01 181 21:21 13.12.2019
2660 Snow -1 1020 99 0 1.01 181 20:59 13.12.2019
2661 Snow -1 1020 99 0 1.01 181 20:39 13.12.2019
2662 Snow -1 1018 99 0 1.25 173 20:20 13.12.2019
2663 Snow -1 1018 99 0 1.25 173 19:56 13.12.2019
2664 Snow -1 1018 99 0 1.25 173 19:38 13.12.2019
2665 Snow -1 1018 99 0 1.25 173 19:19 13.12.2019
2666 Snow -1 1018 99 0 1.25 173 18:54 13.12.2019
2667 Snow -1 1018 99 0 1.25 173 18:36 13.12.2019
2668 Snow -1 1018 99 0 1.25 173 18:18 13.12.2019
2669 Snow -1 1018 99 0 1.25 173 18:18 13.12.2019
2670 Snow -1 1018 99 0 1.25 173 17:40 13.12.2019
2671 Snow -1 1017 99 0 1.72 187 17:18 13.12.2019
2672 Snow -1 1017 99 0 1.72 187 16:56 13.12.2019
2673 Snow -1 1017 99 0 1.72 187 16:38 13.12.2019
2674 Snow -1 1017 99 0 1.72 187 16:20 13.12.2019
2675 Snow -1 1017 99 0 1.72 187 15:43 13.12.2019
2676 Snow -1 1017 99 0 1.72 187 15:22 13.12.2019
2677 Snow -1 1017 99 0 1.72 187 14:57 13.12.2019
2678 Snow -1 1017 99 0 1.72 187 14:38 13.12.2019
2679 Snow 0 1013 98 0 0.35 135 14:19 13.12.2019
2680 Snow 0 1013 98 0 0.35 135 13:44 13.12.2019
2681 Snow 0 1013 98 0 0.35 135 13:44 13.12.2019
2682 Snow 0 1012 98 0 1.69 185 13:26 13.12.2019
2683 Snow 0 1012 98 0 1.69 185 12:59 13.12.2019
2684 Snow 0 1012 98 0 1.69 185 12:40 13.12.2019
2685 Snow 0 1012 98 0 1.69 185 12:19 13.12.2019
2686 Snow 0 1012 98 0 1.69 185 12:19 13.12.2019
2687 Snow 0 1012 98 0 1.69 185 11:45 13.12.2019
2688 Snow 0 1012 98 0 1.69 185 11:45 13.12.2019
2689 Snow 0 1012 98 0 1.69 185 11:26 13.12.2019
2690 Snow 2 1011 86 0 0.37 276 10:58 13.12.2019
2691 Snow 2 1011 86 0 0.37 276 10:40 13.12.2019
2692 Snow 2 1011 86 0 0.37 276 10:21 13.12.2019
2693 Snow 2 1011 86 0 0.37 276 09:43 13.12.2019
2694 Snow 2 1011 86 0 0.37 276 09:22 13.12.2019
2695 Snow 2 1011 86 0 0.37 276 08:55 13.12.2019
2696 Snow 2 1011 86 0 0.37 276 08:37 13.12.2019
2697 Snow 1 1014 97 0 0.64 193 08:19 13.12.2019
2698 Snow 1 1014 97 0 0.64 193 07:43 13.12.2019
2699 Snow 1 1014 97 0 0.64 193 07:19 13.12.2019
2700 Snow 1 1014 97 0 0.64 193 06:46 13.12.2019
2701 Snow 1 1014 97 0 0.64 193 06:27 13.12.2019
2702 Snow 1 1014 97 0 0.64 193 05:41 13.12.2019
2703 Snow 1 1015 93 0 0.99 353 05:20 13.12.2019
2704 Snow 1 1015 93 0 0.99 353 04:29 13.12.2019
2705 Snow 1 1015 93 0 0.99 353 02:57 13.12.2019
2706 Snow 1 1015 93 0 0.99 353 02:31 13.12.2019
2707 Snow 0 1012 96 0 0.56 54 01:39 13.12.2019
2708 Snow 0 1013 97 0 0.77 26 00:51 13.12.2019
2709 Snow 0 1013 97 0 0.77 26 00:29 13.12.2019
2710 Snow 0 1013 97 0 0.77 26 23:46 12.12.2019
2711 Snow 0 1013 97 0 0.77 26 23:27 12.12.2019
2712 Snow 0 1014 96 0 0.62 268 22:57 12.12.2019
2713 Snow 0 1014 96 0 0.62 268 22:39 12.12.2019
2714 Snow 0 1014 96 0 0.62 268 22:21 12.12.2019
2715 Snow 0 1014 96 0 0.62 268 21:56 12.12.2019
2716 Snow 0 1014 96 0 0.62 268 21:38 12.12.2019
2717 Snow 0 1014 96 0 0.62 268 21:20 12.12.2019
2718 Snow 0 1014 96 0 0.62 268 21:20 12.12.2019
2719 Snow 0 1014 96 0 0.62 268 20:59 12.12.2019
2720 Snow 0 1014 96 0 0.62 268 20:41 12.12.2019
2721 Snow 0 1014 98 0 0.88 108 20:23 12.12.2019
2722 Snow 0 1015 95 0 1.14 63 19:59 12.12.2019
2723 Snow 0 1015 95 0 1.14 63 19:59 12.12.2019
2724 Snow 0 1015 95 0 1.14 63 19:40 12.12.2019
2725 Snow 0 1015 95 0 1.14 63 19:21 12.12.2019
2726 Snow 0 1015 95 0 1.14 63 18:57 12.12.2019
2727 Snow 0 1015 95 0 1.14 63 18:57 12.12.2019
2728 Snow 0 1015 95 0 1.14 63 18:38 12.12.2019
2729 Snow 0 1015 95 0 1.14 63 18:20 12.12.2019
2730 Snow 0 1015 95 0 1.14 63 17:57 12.12.2019
2731 Snow 0 1015 95 0 1.14 63 17:38 12.12.2019
2732 Snow 1 1015 96 0 1.6 271 17:19 12.12.2019
2733 Snow 1 1015 96 0 1.6 271 16:56 12.12.2019
2734 Snow 1 1015 96 0 1.6 271 16:37 12.12.2019
2735 Snow 1 1015 96 0 1.6 271 16:19 12.12.2019
2736 Snow 1 1015 96 0 1.6 271 15:54 12.12.2019
2737 Snow 1 1015 96 0 1.6 271 15:36 12.12.2019
2738 Snow 1 1015 96 0 1.6 271 15:18 12.12.2019
2739 Snow 1 1015 96 0 1.6 271 14:38 12.12.2019
2740 Snow 1 1012 94 0 0.52 193 14:20 12.12.2019
2741 Snow 1 1012 94 0 0.52 193 13:57 12.12.2019
2742 Snow 1 1012 94 0 0.52 193 13:39 12.12.2019
2743 Snow 1 1011 95 0 0.61 264 13:21 12.12.2019
2744 Snow 1 1011 95 0 0.61 264 12:57 12.12.2019
2745 Snow 1 1011 95 0 0.61 264 12:39 12.12.2019
2746 Snow 1 1011 95 0 0.61 264 12:20 12.12.2019
2747 Snow 1 1011 95 0 0.61 264 11:56 12.12.2019
2748 Snow 1 1011 95 0 0.61 264 11:37 12.12.2019
2749 Snow 2 1012 95 0 0.91 238 11:19 12.12.2019
2750 Snow 2 1012 95 0 0.91 238 10:55 12.12.2019
2751 Snow 2 1012 95 0 0.91 238 10:37 12.12.2019
2752 Snow 2 1012 95 0 0.91 238 10:19 12.12.2019
2753 Snow 2 1012 95 0 0.91 238 09:42 12.12.2019
2754 Snow 2 1012 95 0 0.91 238 09:24 12.12.2019
2755 Snow 2 1012 95 0 0.91 238 08:58 12.12.2019
2756 Snow 2 1012 95 0 0.91 238 08:38 12.12.2019
2757 Snow 2 1012 95 0 0.91 238 08:38 12.12.2019
2758 Snow 2 1016 91 0 1.32 157 08:20 12.12.2019
2759 Snow 2 1016 91 0 1.32 157 07:46 12.12.2019
2760 Snow 2 1016 91 0 1.32 157 07:25 12.12.2019
2761 Snow 2 1016 91 0 1.32 157 06:54 12.12.2019
2762 Snow 2 1016 91 0 1.32 157 06:33 12.12.2019
2763 Snow 2 1016 91 0 1.32 157 05:40 12.12.2019
2764 Snow 2 1019 87 0 0.73 104 04:54 12.12.2019
2765 Snow 2 1019 87 0 0.73 104 03:37 12.12.2019
2766 Snow 2 1019 87 0 0.73 104 02:39 12.12.2019
2767 Snow 2 1017 79 0 0.85 54 02:20 12.12.2019
2768 Snow 2 1017 79 0 0.85 54 01:43 12.12.2019
2769 Snow 2 1017 78 0 1.49 52 01:24 12.12.2019
2770 Snow 2 1017 78 0 1.49 52 00:47 12.12.2019
2771 Snow 2 1017 78 0 1.49 52 00:20 12.12.2019
2772 Snow 2 1017 78 0 1.49 52 23:44 11.12.2019
2773 Snow 2 1019 70 0 2.09 47 23:21 11.12.2019
2774 Snow 2 1019 70 0 2.09 47 22:58 11.12.2019
2775 Snow 2 1019 70 0 2.09 47 22:39 11.12.2019
2776 Snow 2 1019 70 0 2.09 47 22:20 11.12.2019
2777 Snow 2 1019 70 0 2.09 47 21:57 11.12.2019
2778 Snow 2 1019 70 0 2.09 47 21:39 11.12.2019
2779 Snow 2 1019 70 0 2.09 47 21:20 11.12.2019
2780 Snow 2 1019 70 0 2.09 47 20:56 11.12.2019
2781 Snow 2 1019 70 0 2.09 47 20:56 11.12.2019
2782 Snow 2 1019 70 0 2.09 47 20:38 11.12.2019
2783 Clouds 4 1019 48 0 1.41 343 20:19 11.12.2019
2784 Clouds 3 1019 49 0 0.78 328 19:58 11.12.2019
2785 Clouds 3 1019 49 0 0.78 328 19:40 11.12.2019
2786 Clouds 3 1019 49 0 0.78 328 19:19 11.12.2019
2787 Clouds 3 1019 49 0 0.78 328 18:55 11.12.2019
2788 Clouds 3 1019 49 0 0.78 328 18:37 11.12.2019
2789 Clouds 3 1019 49 0 0.78 328 18:37 11.12.2019
2790 Clouds 3 1019 49 0 0.78 328 18:18 11.12.2019
2791 Clouds 3 1019 49 0 0.78 328 17:54 11.12.2019
2792 Clouds 3 1019 49 0 0.78 328 17:36 11.12.2019
2793 Clouds 3 1019 52 0 2.23 26 17:18 11.12.2019
2794 Clouds 3 1019 52 0 2.23 26 16:55 11.12.2019
2795 Clouds 3 1019 52 0 2.23 26 16:36 11.12.2019
2796 Clouds 3 1019 52 0 2.23 26 16:18 11.12.2019
2797 Clouds 3 1019 52 0 2.23 26 15:41 11.12.2019
2798 Clouds 3 1019 52 0 2.23 26 15:23 11.12.2019
2799 Clouds 3 1019 52 0 2.23 26 15:23 11.12.2019
2800 Clouds 3 1019 52 0 2.23 26 14:57 11.12.2019
2801 Clouds 3 1019 52 0 2.23 26 14:39 11.12.2019
2802 Clouds 3 1017 64 0 0.92 296 14:20 11.12.2019
2803 Clouds 3 1017 64 0 0.92 296 13:58 11.12.2019
2804 Clouds 3 1017 64 0 0.92 296 13:39 11.12.2019
2805 Clouds 3 1017 64 0 0.93 326 13:20 11.12.2019
2806 Clouds 3 1017 64 0 0.93 326 13:20 11.12.2019
2807 Clouds 3 1017 64 0 0.93 326 12:57 11.12.2019
2808 Clouds 3 1017 64 0 0.93 326 12:38 11.12.2019
2809 Clouds 3 1017 64 0 0.93 326 12:20 11.12.2019
2810 Clouds 3 1017 64 0 0.93 326 11:57 11.12.2019
2811 Clouds 3 1017 64 0 0.93 326 11:38 11.12.2019
2812 Clouds 8 1015 38 0 2.33 210 11:18 11.12.2019
2813 Clouds 8 1015 38 0 2.33 210 10:56 11.12.2019
2814 Clouds 8 1015 38 0 2.33 210 10:38 11.12.2019
2815 Clouds 8 1015 38 0 2.33 210 10:19 11.12.2019
2816 Clouds 8 1015 38 0 2.33 210 09:43 11.12.2019
2817 Clouds 8 1015 38 0 2.33 210 09:21 11.12.2019
2818 Clouds 8 1015 38 0 2.33 210 08:58 11.12.2019
2819 Clouds 8 1015 38 0 2.33 210 08:38 11.12.2019
2820 Clouds 9 1018 33 0 2.84 217 08:19 11.12.2019
2821 Clouds 9 1018 33 0 2.84 217 07:57 11.12.2019
2822 Clouds 9 1018 33 0 2.84 217 07:39 11.12.2019
2823 Clouds 9 1018 33 0 2.84 217 07:21 11.12.2019
2824 Clouds 9 1018 33 0 2.84 217 06:44 11.12.2019
2825 Clouds 9 1018 33 0 2.84 217 06:22 11.12.2019
2826 Clouds 9 1018 33 0 2.84 217 05:45 11.12.2019
2827 Clouds 5 1022 43 0 1.74 3 05:21 11.12.2019
2828 Clouds 5 1022 43 0 1.74 3 04:38 11.12.2019
2829 Clouds 5 1022 43 0 1.74 3 02:49 11.12.2019
2830 Clouds 2 1019 44 0 2.12 3 01:26 11.12.2019
2831 Clouds 2 1019 44 0 2.12 3 00:49 11.12.2019
2832 Clouds 2 1019 44 0 2.12 3 00:23 11.12.2019
2833 Clouds 2 1019 44 0 2.12 3 23:58 10.12.2019
2834 Clouds 2 1019 44 0 2.12 3 23:39 10.12.2019
2835 Clouds 3 1019 44 0 2.54 10 23:21 10.12.2019
2836 Clouds 3 1019 44 0 2.54 10 22:41 10.12.2019
2837 Clouds 3 1019 44 0 2.54 10 22:22 10.12.2019
2838 Clouds 3 1019 44 0 2.54 10 21:57 10.12.2019
2839 Clouds 3 1019 44 0 2.54 10 21:39 10.12.2019
2840 Clouds 3 1019 44 0 2.54 10 21:21 10.12.2019
2841 Clouds 3 1019 44 0 2.54 10 20:57 10.12.2019
2842 Clouds 3 1019 44 0 2.54 10 20:38 10.12.2019
2843 Clouds 3 1019 49 0 1.89 10 20:19 10.12.2019
2844 Clouds 3 1019 49 0 1.89 10 20:19 10.12.2019
2845 Clouds 3 1019 49 0 1.89 10 20:19 10.12.2019
2846 Clouds 3 1019 49 0 1.89 10 19:55 10.12.2019
2847 Clouds 3 1019 49 0 1.89 10 19:37 10.12.2019
2848 Clouds 3 1019 49 0 1.89 10 19:19 10.12.2019
2849 Clouds 3 1019 49 0 1.89 10 18:42 10.12.2019
2850 Clouds 3 1019 49 0 1.89 10 18:21 10.12.2019
2851 Clouds 3 1019 49 0 1.89 10 17:58 10.12.2019
2852 Clouds 3 1019 49 0 1.89 10 17:40 10.12.2019
2853 Clouds 4 1018 49 0 1.07 9 17:22 10.12.2019
2854 Clouds 4 1018 49 0 1.07 9 16:55 10.12.2019
2855 Clouds 4 1018 49 0 1.07 9 16:36 10.12.2019
2856 Clouds 4 1018 49 0 1.07 9 16:18 10.12.2019
2857 Clouds 4 1018 49 0 1.07 9 15:38 10.12.2019
2858 Clouds 4 1018 49 0 1.07 9 15:18 10.12.2019
2859 Clouds 4 1018 49 0 1.07 9 14:56 10.12.2019
2860 Clouds 4 1018 49 0 1.07 9 14:38 10.12.2019
2861 Clouds 4 1016 53 0 1.26 7 14:19 10.12.2019
2862 Clouds 4 1016 53 0 1.26 7 13:57 10.12.2019
2863 Clouds 4 1016 53 0 1.26 7 13:39 10.12.2019
2864 Clouds 4 1016 54 0 1.03 8 13:20 10.12.2019
2865 Clouds 4 1016 54 0 1.03 8 12:48 10.12.2019
2866 Clouds 4 1016 54 0 1.03 8 12:28 10.12.2019
2867 Clouds 4 1016 54 0 1.03 8 11:56 10.12.2019
2868 Clouds 4 1016 54 0 1.03 8 11:38 10.12.2019
2869 Clouds 10 1016 34 0 2.51 212 11:19 10.12.2019
2870 Clouds 10 1016 34 0 2.51 212 10:43 10.12.2019
2871 Clouds 10 1016 34 0 2.51 212 10:24 10.12.2019
2872 Clouds 10 1016 34 0 2.51 212 09:57 10.12.2019
2873 Clouds 10 1016 34 0 2.51 212 09:39 10.12.2019
2874 Clouds 10 1016 34 0 2.51 212 09:20 10.12.2019
2875 Clouds 10 1016 34 0 2.51 212 08:58 10.12.2019
2876 Clouds 10 1016 34 0 2.51 212 08:39 10.12.2019
2877 Clouds 11 1019 26 0 1.88 195 08:20 10.12.2019
2878 Clouds 11 1019 26 0 1.88 195 07:45 10.12.2019
2879 Clouds 11 1019 26 0 1.88 195 07:27 10.12.2019
2880 Clouds 11 1019 26 0 1.88 195 06:55 10.12.2019
2881 Clouds 11 1019 26 0 1.88 195 06:37 10.12.2019
2882 Clouds 11 1019 26 0 1.88 195 06:19 10.12.2019
2883 Clouds 11 1019 26 0 1.88 195 05:47 10.12.2019
2884 Clouds 7 1022 29 0 2.15 7 04:23 10.12.2019
2885 Clouds 7 1022 29 0 2.15 7 03:25 10.12.2019
2886 Clouds 4 1021 31 0 2.91 1 01:57 10.12.2019
2887 Clouds 4 1021 31 0 2.91 1 01:38 10.12.2019
2888 Clouds 4 1021 31 0 2.91 1 01:18 10.12.2019
2889 Clouds 4 1021 28 0 2.87 9 00:29 10.12.2019
2890 Clouds 4 1021 28 0 2.87 9 23:59 09.12.2019
2891 Clouds 4 1021 28 0 2.87 9 23:39 09.12.2019
2892 Clear 4 1023 24 0 2.9 348 23:20 09.12.2019
2893 Clear 4 1023 24 0 2.9 348 22:56 09.12.2019
2894 Clear 4 1023 24 0 2.9 348 22:38 09.12.2019
2895 Clear 4 1023 24 0 2.9 348 22:38 09.12.2019
2896 Clear 4 1023 24 0 2.9 348 22:18 09.12.2019
2897 Clear 4 1023 24 0 2.9 348 22:18 09.12.2019
2898 Clear 4 1023 24 0 2.9 348 21:55 09.12.2019
2899 Clear 4 1023 24 0 2.9 348 21:37 09.12.2019
2900 Clear 4 1023 24 0 2.9 348 21:18 09.12.2019
2901 Clear 4 1023 24 0 2.9 348 20:55 09.12.2019
2902 Clear 4 1023 24 0 2.9 348 20:37 09.12.2019
2903 Clear 4 1023 29 0 3.12 0 20:19 09.12.2019
2904 Clear 4 1023 29 0 3.12 0 19:55 09.12.2019
2905 Clear 4 1023 29 0 3.12 0 19:55 09.12.2019
2906 Clear 4 1023 29 0 3.12 0 19:37 09.12.2019
2907 Clear 4 1023 29 0 3.12 0 19:18 09.12.2019
2908 Clear 4 1023 29 0 3.12 0 18:55 09.12.2019
2909 Clear 4 1023 29 0 3.12 0 18:36 09.12.2019
2910 Clear 4 1023 29 0 3.12 0 18:18 09.12.2019
2911 Clear 4 1023 29 0 3.12 0 18:18 09.12.2019
2912 Clear 4 1023 29 0 3.12 0 17:56 09.12.2019
2913 Clear 4 1023 29 0 3.12 0 17:37 09.12.2019
2914 Clear 4 1023 31 0 2.94 356 17:18 09.12.2019
2915 Clear 4 1023 31 0 2.94 356 16:54 09.12.2019
2916 Clear 4 1023 31 0 2.94 356 16:36 09.12.2019
2917 Clear 4 1023 31 0 2.94 356 16:18 09.12.2019
2918 Clear 4 1023 31 0 2.94 356 15:55 09.12.2019
2919 Clear 4 1023 31 0 2.94 356 15:36 09.12.2019
2920 Clear 4 1023 31 0 2.94 356 15:18 09.12.2019
2921 Clear 4 1023 31 0 2.94 356 14:42 09.12.2019
2922 Clouds 5 1021 45 0 1.96 17 14:19 09.12.2019
2923 Clouds 5 1021 45 0 1.96 17 13:57 09.12.2019
2924 Clouds 5 1021 45 0 1.96 17 13:38 09.12.2019
2925 Clouds 5 1021 45 0 1.96 17 13:38 09.12.2019
2926 Clouds 4 1021 45 0 2.02 14 13:19 09.12.2019
2927 Clouds 4 1021 45 0 2.02 14 12:56 09.12.2019
2928 Clouds 4 1021 45 0 2.02 14 12:37 09.12.2019
2929 Clouds 4 1021 45 0 2.02 14 12:19 09.12.2019
2930 Clouds 4 1021 45 0 2.02 14 11:55 09.12.2019
2931 Clouds 4 1021 45 0 2.02 14 11:37 09.12.2019
2932 Clouds 11 1020 27 0 1.81 192 11:18 09.12.2019
2933 Clouds 11 1020 27 0 1.81 192 10:40 09.12.2019
2934 Clouds 11 1020 27 0 1.81 192 10:20 09.12.2019
2935 Clouds 11 1020 27 0 1.81 192 09:59 09.12.2019
2936 Clouds 11 1020 27 0 1.81 192 09:40 09.12.2019
2937 Clouds 11 1020 27 0 1.81 192 09:21 09.12.2019
2938 Clouds 11 1020 27 0 1.81 192 08:44 09.12.2019
2939 Clouds 10 1020 28 0 1.21 189 08:26 09.12.2019
2940 Clouds 11 1020 27 0 1.81 192 08:26 09.12.2019
2941 Clouds 10 1022 20 0 1.84 217 07:57 09.12.2019
2942 Clouds 10 1022 20 0 1.84 217 07:38 09.12.2019
2943 Clouds 10 1022 20 0 1.84 217 07:20 09.12.2019
2944 Clouds 10 1022 20 0 1.84 217 06:43 09.12.2019
2945 Clouds 10 1022 20 0 1.84 217 06:24 09.12.2019
2946 Clouds 10 1022 20 0 1.84 217 05:28 09.12.2019
2947 Clouds 7 1024 20 0 1.86 354 04:46 09.12.2019
2948 Clouds 7 1024 20 0 1.86 354 03:21 09.12.2019
2949 Clouds 7 1024 20 0 1.86 354 02:24 09.12.2019
2950 Clouds 4 1022 15 0 3.28 2 01:42 09.12.2019
2951 Clouds 4 1022 16 0 3.36 2 00:51 09.12.2019
2952 Clouds 4 1022 16 0 3.36 2 00:31 09.12.2019
2953 Clouds 4 1022 16 0 3.36 2 23:43 08.12.2019
2954 Clouds 4 1022 16 0 3.36 2 23:24 08.12.2019
2955 Clouds 4 1024 19 0 3.37 355 22:58 08.12.2019
2956 Clouds 4 1024 19 0 3.37 355 22:39 08.12.2019
2957 Clouds 4 1024 19 0 3.37 355 22:20 08.12.2019
2958 Clouds 4 1024 19 0 3.37 355 21:58 08.12.2019
2959 Clouds 4 1024 19 0 3.37 355 21:40 08.12.2019
2960 Clouds 4 1024 19 0 3.37 355 21:22 08.12.2019
2961 Clouds 4 1024 19 0 3.37 355 20:57 08.12.2019
2962 Clouds 4 1024 19 0 3.37 355 20:38 08.12.2019
2963 Clear 4 1025 23 0 3.81 358 20:20 08.12.2019
2964 Clouds 4 1024 22 0 3.84 350 19:59 08.12.2019
2965 Clouds 4 1024 22 0 3.84 350 19:41 08.12.2019
2966 Clouds 4 1024 22 0 3.84 350 19:23 08.12.2019
2967 Clouds 4 1024 22 0 3.84 350 19:23 08.12.2019
2968 Clouds 4 1024 22 0 3.84 350 18:56 08.12.2019
2969 Clouds 4 1024 22 0 3.84 350 18:37 08.12.2019
2970 Clouds 4 1024 22 0 3.84 350 18:19 08.12.2019
2971 Clouds 4 1024 22 0 3.84 350 17:57 08.12.2019
2972 Clouds 4 1024 22 0 3.84 350 17:39 08.12.2019
2973 Clear 4 1026 27 0 3.39 3 17:20 08.12.2019
2974 Clear 4 1026 27 0 3.39 3 16:58 08.12.2019
2975 Clear 4 1026 27 0 3.39 3 16:40 08.12.2019
2976 Clear 4 1026 27 0 3.39 3 16:21 08.12.2019
2977 Clear 4 1026 27 0 3.39 3 15:57 08.12.2019
2978 Clear 4 1026 27 0 3.39 3 15:37 08.12.2019
2979 Clear 4 1026 27 0 3.39 3 15:18 08.12.2019
2980 Clear 4 1026 27 0 3.39 3 14:44 08.12.2019
2981 Clear 4 1026 27 0 3.39 3 14:25 08.12.2019
2982 Clear 4 1023 46 0 2.74 11 13:59 08.12.2019
2983 Clear 4 1023 46 0 2.74 11 13:40 08.12.2019
2984 Clear 4 1023 46 0 2.62 11 13:22 08.12.2019
2985 Clear 4 1023 46 0 2.62 11 12:59 08.12.2019
2986 Clear 4 1023 46 0 2.62 11 12:39 08.12.2019
2987 Clear 4 1023 46 0 2.62 11 12:19 08.12.2019
2988 Clear 4 1023 46 0 2.62 11 12:19 08.12.2019
2989 Clear 4 1023 46 0 2.62 11 11:58 08.12.2019
2990 Clear 4 1023 46 0 2.62 11 11:37 08.12.2019
2991 Clear 11 1021 30 0 2.36 207 11:19 08.12.2019
2992 Clear 11 1021 30 0 2.36 207 10:55 08.12.2019
2993 Clear 11 1021 30 0 2.36 207 10:37 08.12.2019
2994 Clear 11 1021 30 0 2.36 207 10:19 08.12.2019
2995 Clear 11 1021 30 0 2.36 207 09:55 08.12.2019
2996 Clear 11 1021 30 0 2.36 207 09:36 08.12.2019
2997 Clear 11 1021 30 0 2.36 207 09:18 08.12.2019
2998 Clear 11 1021 30 0 2.36 207 08:42 08.12.2019
2999 Clear 11 1021 30 0 2.36 207 08:23 08.12.2019
3000 Clear 11 1024 20 0 2.27 216 07:57 08.12.2019
3001 Clear 11 1024 20 0 2.27 216 07:39 08.12.2019
3002 Clear 11 1024 20 0 2.27 216 07:18 08.12.2019
3003 Clear 11 1024 20 0 2.27 216 06:41 08.12.2019
3004 Clear 11 1024 20 0 2.27 216 06:21 08.12.2019
3005 Clear 11 1024 20 0 2.27 216 05:26 08.12.2019
3006 Clear 6 1027 24 0 2.82 345 04:54 08.12.2019
3007 Clear 6 1027 24 0 2.82 345 03:41 08.12.2019
3008 Clear 6 1027 24 0 2.82 345 02:46 08.12.2019
3009 Clear 6 1027 24 0 2.82 345 02:27 08.12.2019
3010 Clear 3 1025 21 0 3.86 352 01:48 08.12.2019
3011 Clear 3 1025 20 0 3.8 352 00:56 08.12.2019
3012 Clear 3 1025 20 0 3.8 352 00:37 08.12.2019
3013 Clear 3 1025 20 0 3.8 352 00:18 08.12.2019
3014 Clear 3 1025 20 0 3.8 352 23:39 07.12.2019
3015 Clear 4 1026 24 0 3.8 359 23:20 07.12.2019
3016 Clear 4 1026 24 0 3.8 359 22:56 07.12.2019
3017 Clear 4 1026 24 0 3.8 359 22:38 07.12.2019
3018 Clear 4 1026 24 0 3.8 359 22:19 07.12.2019
3019 Clear 4 1026 24 0 3.8 359 22:19 07.12.2019
3020 Clear 4 1026 24 0 3.8 359 21:56 07.12.2019
3021 Clear 4 1026 24 0 3.8 359 21:38 07.12.2019
3022 Clear 4 1026 24 0 3.8 359 21:19 07.12.2019
3023 Clear 4 1026 24 0 3.8 359 20:54 07.12.2019
3024 Clear 4 1026 24 0 3.8 359 20:36 07.12.2019
3025 Clear 4 1026 27 0 3.51 353 20:18 07.12.2019
3026 Clear 4 1026 27 0 3.51 353 19:55 07.12.2019
3027 Clear 4 1026 27 0 3.51 353 19:36 07.12.2019
3028 Clear 4 1026 27 0 3.51 353 19:18 07.12.2019
3029 Clear 4 1026 27 0 3.51 353 18:43 07.12.2019
3030 Clear 4 1026 27 0 3.51 353 18:19 07.12.2019
3031 Clear 4 1026 27 0 3.51 353 17:57 07.12.2019
3032 Clear 4 1026 27 0 3.51 353 17:38 07.12.2019
3033 Clear 4 1027 31 0 3.24 0 17:20 07.12.2019
3034 Clear 4 1027 31 0 3.24 0 16:56 07.12.2019
3035 Clear 4 1027 31 0 3.24 0 16:37 07.12.2019
3036 Clear 4 1027 31 0 3.24 0 16:18 07.12.2019
3037 Clear 4 1027 31 0 3.24 0 15:42 07.12.2019
3038 Clear 4 1027 31 0 3.24 0 15:23 07.12.2019
3039 Clear 4 1027 31 0 3.24 0 14:57 07.12.2019
3040 Clear 4 1027 31 0 3.24 0 14:39 07.12.2019
3041 Clear 4 1024 44 0 2.56 8 14:18 07.12.2019
3042 Clear 4 1024 44 0 2.56 8 13:41 07.12.2019
3043 Clear 4 1024 45 0 2.36 8 13:21 07.12.2019
3044 Clear 4 1024 44 0 2.56 8 13:21 07.12.2019
3045 Clear 4 1024 45 0 2.36 8 12:58 07.12.2019
3046 Clear 4 1024 45 0 2.36 8 12:40 07.12.2019
3047 Clear 4 1024 45 0 2.36 8 12:22 07.12.2019
3048 Clear 4 1024 45 0 2.36 8 11:57 07.12.2019
3049 Clear 4 1024 45 0 2.36 8 11:39 07.12.2019
3050 Clear 11 1022 26 0 2.15 205 11:20 07.12.2019
3051 Clear 11 1022 26 0 2.15 205 10:38 07.12.2019
3052 Clear 11 1022 26 0 2.15 205 10:19 07.12.2019
3053 Clear 11 1022 26 0 2.15 205 09:56 07.12.2019
3054 Clear 11 1022 26 0 2.15 205 09:36 07.12.2019
3055 Clear 11 1022 26 0 2.15 205 09:18 07.12.2019
3056 Clear 11 1022 26 0 2.15 205 08:40 07.12.2019
3057 Clear 12 1025 19 0 2.11 220 08:21 07.12.2019
3058 Clear 12 1025 19 0 2.11 220 07:45 07.12.2019
3059 Clear 12 1025 19 0 2.11 220 07:26 07.12.2019
3060 Clear 12 1025 19 0 2.11 220 06:50 07.12.2019
3061 Clear 12 1025 19 0 2.11 220 06:25 07.12.2019
3062 Clear 12 1025 19 0 2.11 220 05:30 07.12.2019
3063 Clear 6 1028 22 0 2.67 355 03:59 07.12.2019
3064 Clear 6 1028 22 0 2.67 355 03:40 07.12.2019
3065 Clear 3 1027 18 0 3.81 353 02:21 07.12.2019
3066 Clear 3 1027 18 0 3.81 353 01:34 07.12.2019
3067 Clear 3 1027 18 0 3.81 353 01:34 07.12.2019
3068 Clear 3 1027 18 0 3.78 353 00:53 07.12.2019
3069 Clear 3 1027 18 0 3.78 353 00:20 07.12.2019
3070 Clear 3 1027 18 0 3.78 353 23:56 06.12.2019
3071 Clear 3 1027 18 0 3.78 353 23:36 06.12.2019
3072 Clear 3 1027 22 0 3.82 358 23:18 06.12.2019
3073 Clear 3 1027 22 0 3.82 358 22:38 06.12.2019
3074 Clear 3 1027 22 0 3.82 358 22:19 06.12.2019
3075 Clear 3 1027 22 0 3.82 358 21:57 06.12.2019
3076 Clear 3 1027 22 0 3.82 358 21:38 06.12.2019
3077 Clear 3 1027 22 0 3.82 358 21:19 06.12.2019
3078 Clear 3 1027 22 0 3.82 358 20:42 06.12.2019
3079 Clear 3 1027 22 0 3.82 358 20:42 06.12.2019
3080 Clear 3 1027 22 0 3.82 358 20:42 06.12.2019
3081 Clear 3 1027 23 0 3.83 357 20:24 06.12.2019
3082 Clear 3 1027 22 0 3.82 358 20:24 06.12.2019
3083 Clear 4 1027 30 0 3.55 357 19:59 06.12.2019
3084 Clear 4 1027 30 0 3.55 357 19:40 06.12.2019
3085 Clear 4 1027 30 0 3.55 357 19:22 06.12.2019
3086 Clear 4 1027 30 0 3.55 357 19:22 06.12.2019
3087 Clear 4 1027 30 0 3.55 357 19:22 06.12.2019
3088 Clear 4 1027 30 0 3.55 357 18:57 06.12.2019
3089 Clear 4 1027 30 0 3.55 357 18:39 06.12.2019
3090 Clear 4 1027 30 0 3.55 357 18:19 06.12.2019
3091 Clear 4 1027 30 0 3.55 357 18:19 06.12.2019
3092 Clear 4 1027 30 0 3.55 357 17:56 06.12.2019
3093 Clear 4 1027 30 0 3.55 357 17:37 06.12.2019
3094 Clear 4 1027 31 0 3.06 355 17:19 06.12.2019
3095 Clear 4 1027 31 0 3.06 355 16:43 06.12.2019
3096 Clear 4 1027 31 0 3.06 355 16:25 06.12.2019
3097 Clear 4 1027 31 0 3.06 355 15:59 06.12.2019
3098 Clear 4 1027 31 0 3.06 355 15:40 06.12.2019
3099 Clear 4 1027 31 0 3.06 355 15:19 06.12.2019
3100 Clear 4 1027 31 0 3.06 355 14:57 06.12.2019
3101 Clear 4 1027 31 0 3.06 355 14:38 06.12.2019
3102 Clear 4 1027 31 0 3.06 355 14:38 06.12.2019
3103 Clear 5 1025 41 0 3.23 16 14:19 06.12.2019
3104 Clear 5 1025 41 0 3.23 16 13:43 06.12.2019
3105 Clear 5 1025 41 0 3.23 16 13:43 06.12.2019
3106 Clear 5 1025 42 0 2.87 14 13:25 06.12.2019
3107 Clear 5 1025 42 0 2.87 14 12:43 06.12.2019
3108 Clear 5 1025 42 0 2.87 14 12:23 06.12.2019
3109 Clear 5 1025 42 0 2.87 14 12:23 06.12.2019
3110 Clear 5 1025 42 0 2.87 14 11:58 06.12.2019
3111 Clear 5 1025 42 0 2.87 14 11:40 06.12.2019
3112 Clear 11 1023 27 0 2.1 208 11:22 06.12.2019
3113 Clear 11 1023 27 0 2.1 208 10:44 06.12.2019
3114 Clear 11 1023 27 0 2.1 208 10:22 06.12.2019
3115 Clear 11 1023 27 0 2.1 208 09:59 06.12.2019
3116 Clear 11 1023 27 0 2.1 208 09:39 06.12.2019
3117 Clear 11 1023 27 0 2.1 208 09:20 06.12.2019
3118 Clear 11 1023 27 0 2.1 208 08:57 06.12.2019
3119 Clear 11 1023 27 0 2.1 208 08:38 06.12.2019
3120 Clear 11 1023 27 0 2.1 208 08:38 06.12.2019
3121 Clouds 12 1026 18 0 1.93 215 08:20 06.12.2019
3122 Clouds 12 1026 18 0 1.93 215 07:38 06.12.2019
3123 Clouds 12 1026 18 0 1.93 215 07:20 06.12.2019
3124 Clouds 12 1026 18 0 1.93 215 06:31 06.12.2019
3125 Clouds 12 1026 18 0 1.93 215 05:56 06.12.2019
3126 Clouds 12 1026 18 0 1.93 215 05:38 06.12.2019
3127 Clear 4 1028 17 0 3.56 2 02:20 06.12.2019
3128 Clear 4 1028 17 0 3.56 2 01:43 06.12.2019
3129 Clear 4 1028 19 0 3.46 3 00:49 06.12.2019
3130 Clear 4 1028 19 0 3.46 3 00:22 06.12.2019
3131 Clear 4 1028 19 0 3.46 3 23:51 05.12.2019
3132 Clear 4 1029 22 0 3.25 360 23:20 05.12.2019
3133 Clear 4 1029 22 0 3.25 360 22:58 05.12.2019
3134 Clear 4 1029 22 0 3.25 360 22:38 05.12.2019
3135 Clear 4 1029 22 0 3.25 360 22:19 05.12.2019
3136 Clear 4 1029 22 0 3.25 360 21:56 05.12.2019
3137 Clear 4 1029 22 0 3.25 360 21:37 05.12.2019
3138 Clear 4 1029 22 0 3.25 360 21:19 05.12.2019
3139 Clear 4 1029 22 0 3.25 360 20:55 05.12.2019
3140 Clear 4 1029 22 0 3.25 360 20:36 05.12.2019
3141 Clear 4 1029 26 0 3.18 358 20:18 05.12.2019
3142 Clear 4 1029 26 0 3.18 358 19:40 05.12.2019
3143 Clear 4 1029 26 0 3.18 358 19:22 05.12.2019
3144 Clear 4 1029 26 0 3.18 358 18:58 05.12.2019
3145 Clear 4 1029 26 0 3.18 358 18:38 05.12.2019
3146 Clear 4 1029 26 0 3.18 358 18:20 05.12.2019
3147 Clear 4 1029 26 0 3.18 358 18:20 05.12.2019
3148 Clear 4 1029 26 0 3.18 358 17:55 05.12.2019
3149 Clear 4 1029 26 0 3.18 358 17:36 05.12.2019
3150 Clear 4 1029 29 0 3.68 13 17:18 05.12.2019
3151 Clear 4 1029 29 0 3.68 13 16:40 05.12.2019
3152 Clear 4 1029 29 0 3.68 13 16:22 05.12.2019
3153 Clear 4 1029 29 0 3.68 13 15:58 05.12.2019
3154 Clear 4 1029 29 0 3.68 13 15:58 05.12.2019
3155 Clear 4 1029 29 0 3.68 13 15:40 05.12.2019
3156 Clear 4 1029 29 0 3.68 13 15:20 05.12.2019
3157 Clear 4 1029 29 0 3.68 13 14:56 05.12.2019
3158 Clear 4 1029 29 0 3.68 13 14:38 05.12.2019
3159 Clear 5 1026 50 0 2.61 12 14:20 05.12.2019
3160 Clear 5 1026 50 0 2.61 12 13:58 05.12.2019
3161 Clear 5 1026 50 0 2.61 12 13:39 05.12.2019
3162 Clear 5 1026 50 0 2.51 11 13:21 05.12.2019
3163 Clear 5 1026 50 0 2.51 11 12:58 05.12.2019
3164 Clear 5 1026 50 0 2.51 11 12:39 05.12.2019
3165 Clear 5 1026 50 0 2.51 11 12:21 05.12.2019
3166 Clear 5 1026 50 0 2.51 11 11:41 05.12.2019
3167 Clear 12 1024 30 0 2.03 206 11:22 05.12.2019
3168 Clear 12 1024 30 0 2.03 206 10:59 05.12.2019
3169 Clear 12 1024 30 0 2.03 206 10:41 05.12.2019
3170 Clear 12 1024 30 0 2.03 206 10:19 05.12.2019
3171 Clear 12 1024 30 0 2.03 206 10:19 05.12.2019
3172 Clear 12 1024 30 0 2.03 206 09:57 05.12.2019
3173 Clear 12 1024 30 0 2.03 206 09:39 05.12.2019
3174 Clear 12 1024 30 0 2.03 206 09:20 05.12.2019
3175 Clear 12 1024 30 0 2.03 206 09:20 05.12.2019
3176 Clear 12 1024 30 0 2.03 206 08:56 05.12.2019
3177 Clear 12 1024 30 0 2.03 206 08:37 05.12.2019
3178 Clear 12 1026 21 0 1.83 221 08:19 05.12.2019
3179 Clear 12 1026 21 0 1.84 220 08:19 05.12.2019
3180 Clear 12 1026 21 0 1.84 220 08:19 05.12.2019
3181 Clear 12 1026 21 0 1.84 220 07:41 05.12.2019
3182 Clear 12 1026 21 0 1.84 220 07:23 05.12.2019
3183 Clear 12 1026 21 0 1.84 220 06:48 05.12.2019
3184 Clear 12 1026 21 0 1.84 220 06:24 05.12.2019
3185 Clear 12 1026 21 0 1.84 220 05:56 05.12.2019
3186 Clear 12 1026 21 0 1.84 220 05:24 05.12.2019
3187 Clear 7 1028 25 0 2.65 351 04:59 05.12.2019
3188 Clear 7 1028 25 0 2.65 351 03:41 05.12.2019
3189 Clear 7 1028 25 0 2.65 351 02:42 05.12.2019
3190 Clear 4 1027 21 0 3.64 354 02:22 05.12.2019
3191 Clear 4 1027 21 0 3.64 354 01:51 05.12.2019
3192 Clear 4 1027 23 0 3.66 354 01:23 05.12.2019
3193 Clear 4 1027 23 0 3.66 354 00:44 05.12.2019
3194 Clear 4 1027 23 0 3.66 354 00:21 05.12.2019
3195 Clear 4 1027 23 0 3.66 354 00:21 05.12.2019
3196 Clear 4 1027 23 0 3.66 354 23:55 04.12.2019
3197 Clear 4 1027 23 0 3.66 354 23:37 04.12.2019
3198 Clear 4 1027 27 0 3.74 355 23:18 04.12.2019
3199 Clear 4 1027 27 0 3.74 355 22:39 04.12.2019
3200 Clear 4 1027 27 0 3.74 355 22:20 04.12.2019
3201 Clear 4 1027 27 0 3.74 355 21:58 04.12.2019
3202 Clear 4 1027 27 0 3.74 355 21:39 04.12.2019
3203 Clear 4 1027 27 0 3.74 355 21:20 04.12.2019
3204 Clear 4 1027 27 0 3.74 355 20:58 04.12.2019
3205 Clear 4 1027 27 0 3.74 355 20:40 04.12.2019
3206 Clouds 5 1027 32 0 3.42 354 20:21 04.12.2019
3207 Clouds 5 1027 32 0 3.42 354 19:58 04.12.2019
3208 Clouds 5 1027 32 0 3.42 354 19:38 04.12.2019
3209 Clouds 5 1027 32 0 3.42 354 19:20 04.12.2019
3210 Clouds 5 1027 32 0 3.42 354 18:56 04.12.2019
3211 Clouds 5 1027 32 0 3.42 354 18:38 04.12.2019
3212 Clouds 5 1027 32 0 3.42 354 18:20 04.12.2019
3213 Clouds 5 1027 32 0 3.42 354 17:40 04.12.2019
3214 Clouds 5 1027 34 0 2.99 1 17:21 04.12.2019
3215 Clouds 5 1027 34 0 2.99 1 16:59 04.12.2019
3216 Clouds 5 1027 34 0 2.99 1 16:39 04.12.2019
3217 Clouds 5 1027 34 0 2.99 1 16:19 04.12.2019
3218 Clouds 5 1027 34 0 2.99 1 15:55 04.12.2019
3219 Clouds 5 1027 34 0 2.99 1 15:37 04.12.2019
3220 Clouds 5 1027 34 0 2.99 1 15:19 04.12.2019
3221 Clouds 5 1027 34 0 2.99 1 14:44 04.12.2019
3222 Clouds 5 1027 34 0 2.99 1 14:23 04.12.2019
3223 Clouds 5 1024 50 0 2.5 14 13:59 04.12.2019
3224 Clouds 5 1024 50 0 2.5 14 13:38 04.12.2019
3225 Clouds 5 1024 50 0 2.5 14 13:20 04.12.2019
3226 Clear 5 1023 50 0 2.39 13 12:45 04.12.2019
3227 Clear 5 1023 50 0 2.39 13 12:25 04.12.2019
3228 Clear 5 1023 50 0 2.39 13 11:57 04.12.2019
3229 Clear 5 1023 50 0 2.39 13 11:39 04.12.2019
3230 Clear 12 1022 30 0 2.1 202 11:21 04.12.2019
3231 Clear 12 1022 30 0 2.1 202 11:21 04.12.2019
3232 Clear 12 1022 30 0 2.1 202 10:44 04.12.2019
3233 Clear 12 1022 30 0 2.1 202 10:24 04.12.2019
3234 Clear 12 1022 30 0 2.1 202 09:57 04.12.2019
3235 Clear 12 1022 30 0 2.1 202 09:39 04.12.2019
3236 Clear 12 1022 30 0 2.1 202 09:20 04.12.2019
3237 Clear 12 1022 30 0 2.1 202 08:41 04.12.2019
3238 Clear 12 1022 30 0 2.1 202 08:23 04.12.2019
3239 Clear 12 1024 22 0 1.83 213 07:51 04.12.2019
3240 Clear 12 1024 22 0 1.83 213 07:30 04.12.2019
3241 Clear 12 1024 22 0 1.83 213 06:51 04.12.2019
3242 Clear 12 1024 22 0 1.83 213 06:31 04.12.2019
3243 Clear 12 1024 22 0 1.83 213 05:43 04.12.2019
3244 Clear 12 1024 22 0 1.83 213 05:43 04.12.2019
3245 Clear 7 1027 25 0 2.73 349 04:31 04.12.2019
3246 Clear 7 1027 25 0 2.73 349 03:25 04.12.2019
3247 Clear 4 1025 21 0 3.87 357 01:21 04.12.2019
3248 Clear 4 1025 22 0 3.9 358 00:40 04.12.2019
3249 Clear 4 1025 22 0 3.9 358 00:40 04.12.2019
3250 Clear 4 1025 22 0 3.9 358 00:19 04.12.2019
3251 Clear 4 1025 22 0 3.9 358 23:41 03.12.2019
3252 Clear 4 1026 25 0 4.04 357 23:20 03.12.2019
3253 Clear 4 1026 25 0 4.04 357 22:57 03.12.2019
3254 Clear 4 1026 25 0 4.04 357 22:38 03.12.2019
3255 Clear 4 1026 25 0 4.04 357 22:18 03.12.2019
3256 Clear 4 1026 25 0 4.04 357 21:55 03.12.2019
3257 Clear 4 1026 25 0 4.04 357 21:36 03.12.2019
3258 Clear 4 1026 25 0 4.04 357 21:18 03.12.2019
3259 Clear 4 1026 25 0 4.04 357 20:41 03.12.2019
3260 Clear 4 1026 30 0 3.85 3 20:19 03.12.2019
3261 Clear 4 1026 32 0 3.86 2 19:57 03.12.2019
3262 Clear 4 1026 32 0 3.86 2 19:38 03.12.2019
3263 Clear 4 1026 32 0 3.86 2 19:20 03.12.2019
3264 Clear 4 1026 32 0 3.86 2 18:59 03.12.2019
3265 Clear 4 1026 32 0 3.86 2 18:40 03.12.2019
3266 Clear 4 1026 32 0 3.86 2 18:21 03.12.2019
3267 Clear 4 1026 32 0 3.86 2 17:58 03.12.2019
3268 Clear 4 1026 32 0 3.86 2 17:38 03.12.2019
3269 Clear 4 1026 39 0 3.58 355 17:18 03.12.2019
3270 Clear 4 1026 39 0 3.58 355 17:18 03.12.2019
3271 Clear 4 1026 39 0 3.58 355 16:58 03.12.2019
3272 Clear 4 1026 39 0 3.58 355 16:58 03.12.2019
3273 Clear 4 1026 39 0 3.58 355 16:39 03.12.2019
3274 Clear 4 1026 39 0 3.58 355 16:39 03.12.2019
3275 Clear 4 1026 39 0 3.58 355 16:20 03.12.2019
3276 Clear 4 1026 39 0 3.58 355 16:20 03.12.2019
3277 Clear 4 1026 39 0 3.58 355 15:57 03.12.2019
3278 Clear 4 1026 39 0 3.58 355 15:38 03.12.2019
3279 Clear 4 1026 39 0 3.58 355 15:19 03.12.2019
3280 Clear 4 1026 39 0 3.58 355 14:43 03.12.2019
3281 Clear 4 1023 42 0 2.82 9 14:20 03.12.2019
3282 Clear 4 1023 42 0 2.82 9 13:58 03.12.2019
3283 Clear 4 1023 42 0 2.82 9 13:37 03.12.2019
3284 Clear 4 1023 42 0 2.88 12 13:19 03.12.2019
3285 Clear 4 1023 42 0 2.88 12 12:56 03.12.2019
3286 Clear 4 1023 42 0 2.88 12 12:36 03.12.2019
3287 Clear 4 1023 42 0 2.88 12 12:18 03.12.2019
3288 Clear 4 1023 42 0 2.88 12 11:54 03.12.2019
3289 Clear 4 1023 42 0 2.88 12 11:36 03.12.2019
3290 Clear 11 1021 24 0 2.16 200 11:18 03.12.2019
3291 Clear 11 1021 24 0 2.16 200 10:42 03.12.2019
3292 Clear 11 1021 24 0 2.16 200 10:21 03.12.2019
3293 Clear 11 1021 24 0 2.16 200 09:58 03.12.2019
3294 Clear 11 1021 24 0 2.16 200 09:40 03.12.2019
3295 Clear 11 1021 24 0 2.16 200 09:21 03.12.2019
3296 Clear 11 1021 24 0 2.16 200 09:21 03.12.2019
3297 Clear 11 1021 24 0 2.16 200 08:55 03.12.2019
3298 Clear 11 1021 24 0 2.16 200 08:37 03.12.2019
3299 Clear 11 1024 18 0 1.84 224 08:18 03.12.2019
3300 Clear 10 1024 20 0 2 228 07:49 03.12.2019
3301 Clear 10 1024 20 0 2 228 07:24 03.12.2019
3302 Clear 10 1024 20 0 2 228 06:23 03.12.2019
3303 Clear 10 1024 20 0 2 228 05:59 03.12.2019
3304 Clear 5 1028 26 0 2.58 355 04:55 03.12.2019
3305 Clear 5 1028 26 0 2.58 355 03:40 03.12.2019
3306 Clear 5 1028 26 0 2.58 355 03:20 03.12.2019
3307 Clear 5 1028 26 0 2.58 355 02:49 03.12.2019
3308 Clear 5 1028 26 0 2.58 355 02:31 03.12.2019
3309 Clear 2 1028 29 0 3.21 1 01:46 03.12.2019
3310 Clear 2 1028 30 0 3.18 3 01:28 03.12.2019
3311 Clear 2 1028 30 0 3.18 3 00:56 03.12.2019
3312 Clear 2 1028 30 0 3.18 3 00:38 03.12.2019
3313 Clear 2 1028 30 0 3.18 3 00:20 03.12.2019
3314 Clear 2 1028 30 0 3.18 3 23:43 02.12.2019
3315 Clear 2 1028 32 0 2.92 5 23:20 02.12.2019
3316 Clear 2 1028 32 0 2.92 5 22:42 02.12.2019
3317 Clear 2 1028 32 0 2.92 5 22:23 02.12.2019
3318 Clear 2 1028 32 0 2.92 5 21:59 02.12.2019
3319 Clear 2 1028 32 0 2.92 5 21:59 02.12.2019
3320 Clear 2 1028 32 0 2.92 5 21:38 02.12.2019
3321 Clear 2 1028 32 0 2.92 5 21:19 02.12.2019
3322 Clear 2 1028 32 0 2.92 5 20:56 02.12.2019
3323 Clear 2 1028 32 0 2.92 5 20:56 02.12.2019
3324 Clear 2 1028 32 0 2.92 5 20:38 02.12.2019
3325 Clear 2 1028 34 0 2.68 14 20:20 02.12.2019
3326 Clear 2 1028 34 0 2.68 14 19:56 02.12.2019
3327 Clear 2 1028 34 0 2.68 14 19:38 02.12.2019
3328 Clear 2 1028 34 0 2.68 14 19:19 02.12.2019
3329 Clear 2 1028 34 0 2.68 14 18:46 02.12.2019
3330 Clear 2 1028 34 0 2.68 14 18:21 02.12.2019
3331 Clear 2 1028 34 0 2.68 14 17:59 02.12.2019
3332 Clear 2 1028 34 0 2.68 14 17:40 02.12.2019
3333 Clear 2 1028 37 0 3.38 17 17:20 02.12.2019
3334 Clear 2 1028 37 0 3.38 17 16:57 02.12.2019
3335 Clear 2 1028 37 0 3.38 17 16:38 02.12.2019
3336 Clear 2 1028 37 0 3.38 17 16:18 02.12.2019
3337 Clear 2 1028 37 0 3.38 17 15:56 02.12.2019
3338 Clear 2 1028 37 0 3.38 17 15:38 02.12.2019
3339 Clear 2 1028 37 0 3.38 17 15:19 02.12.2019
3340 Clear 2 1028 37 0 3.38 17 14:40 02.12.2019
3341 Clouds 3 1024 54 0 2.29 14 14:20 02.12.2019
3342 Clouds 3 1024 54 0 2.29 14 13:59 02.12.2019
3343 Clouds 3 1024 54 0 2.29 14 13:41 02.12.2019
3344 Clouds 3 1024 53 0 2.26 13 13:20 02.12.2019
3345 Clouds 3 1024 53 0 2.26 13 12:59 02.12.2019
3346 Clouds 3 1024 53 0 2.26 13 12:40 02.12.2019
3347 Clouds 3 1024 53 0 2.26 13 12:20 02.12.2019
3348 Clouds 3 1024 53 0 2.26 13 11:56 02.12.2019
3349 Clouds 3 1024 53 0 2.26 13 11:37 02.12.2019
3350 Clear 9 1021 31 0 2.04 213 11:19 02.12.2019
3351 Clear 9 1021 31 0 2.04 213 11:19 02.12.2019
3352 Clear 9 1021 31 0 2.04 213 10:56 02.12.2019
3353 Clear 9 1021 31 0 2.04 213 10:38 02.12.2019
3354 Clear 9 1021 31 0 2.04 213 10:19 02.12.2019
3355 Clear 9 1021 31 0 2.04 213 09:42 02.12.2019
3356 Clear 9 1021 31 0 2.04 213 09:42 02.12.2019
3357 Clear 9 1021 31 0 2.04 213 09:19 02.12.2019
3358 Clear 9 1021 31 0 2.04 213 08:58 02.12.2019
3359 Clear 9 1021 31 0 2.04 213 08:40 02.12.2019
3360 Clouds 10 1024 26 0 1.61 221 08:21 02.12.2019
3361 Clouds 10 1024 26 0 1.61 221 07:44 02.12.2019
3362 Clouds 10 1024 26 0 1.61 221 07:24 02.12.2019
3363 Clouds 10 1024 26 0 1.61 221 06:58 02.12.2019
3364 Clouds 10 1024 26 0 1.61 221 06:39 02.12.2019
3365 Clouds 10 1024 26 0 1.61 221 05:36 02.12.2019
3366 Clouds 5 1027 33 0 2.15 19 04:51 02.12.2019
3367 Clouds 5 1027 33 0 2.15 19 02:56 02.12.2019
3368 Clouds 5 1027 33 0 2.15 19 02:38 02.12.2019
3369 Clouds 2 1026 34 0 3.18 10 01:30 02.12.2019
3370 Clouds 2 1026 34 0 3.07 14 00:59 02.12.2019
3371 Clouds 2 1026 34 0 3.07 14 00:30 02.12.2019
3372 Clouds 2 1026 34 0 3.07 14 23:57 01.12.2019
3373 Clouds 2 1026 34 0 3.07 14 23:39 01.12.2019
3374 Clouds 2 1026 35 0 2.99 7 23:20 01.12.2019
3375 Clouds 2 1026 35 0 2.99 7 22:56 01.12.2019
3376 Clouds 2 1026 35 0 2.99 7 22:38 01.12.2019
3377 Clouds 2 1026 35 0 2.99 7 22:18 01.12.2019
3378 Clouds 2 1026 35 0 2.99 7 21:56 01.12.2019
3379 Clouds 2 1026 35 0 2.99 7 21:38 01.12.2019
3380 Clouds 2 1026 35 0 2.99 7 21:19 01.12.2019
3381 Clouds 2 1026 35 0 2.99 7 20:57 01.12.2019
3382 Clouds 2 1026 35 0 2.99 7 20:39 01.12.2019
3383 Clear 2 1025 36 0 3.12 11 20:20 01.12.2019
3384 Clear 2 1025 36 0 3.12 11 19:55 01.12.2019
3385 Clear 2 1025 36 0 3.12 11 19:37 01.12.2019
3386 Clear 2 1025 36 0 3.12 11 19:19 01.12.2019
3387 Clear 2 1025 36 0 3.12 11 18:55 01.12.2019
3388 Clear 2 1025 36 0 3.12 11 18:37 01.12.2019
3389 Clear 2 1025 36 0 3.12 11 18:18 01.12.2019
3390 Clear 2 1025 36 0 3.12 11 17:56 01.12.2019
3391 Clear 2 1025 36 0 3.12 11 17:38 01.12.2019
3392 Clear 2 1025 37 0 3.07 13 17:19 01.12.2019
3393 Clear 2 1025 37 0 3.07 13 16:44 01.12.2019
3394 Clear 2 1025 37 0 3.07 13 16:24 01.12.2019
3395 Clear 2 1025 37 0 3.07 13 15:54 01.12.2019
3396 Clear 2 1025 37 0 3.07 13 15:34 01.12.2019
3397 Clear 2 1025 37 0 3.07 13 14:59 01.12.2019
3398 Clear 2 1025 37 0 3.07 13 14:38 01.12.2019
3399 Clear 3 1022 51 0 1.94 5 14:19 01.12.2019
3400 Clear 3 1022 51 0 1.94 5 13:40 01.12.2019
3401 Clear 3 1022 51 0 1.98 7 13:21 01.12.2019
3402 Clear 3 1022 51 0 1.98 7 12:47 01.12.2019
3403 Clear 3 1022 51 0 1.98 7 12:20 01.12.2019
3404 Clear 3 1022 51 0 1.98 7 11:44 01.12.2019
3405 Clear 3 1022 51 0 1.98 7 11:24 01.12.2019
3406 Clear 10 1020 29 0 2.18 219 10:55 01.12.2019
3407 Clear 10 1020 29 0 2.18 219 10:55 01.12.2019
3408 Clear 10 1020 29 0 2.18 219 10:37 01.12.2019
3409 Clear 10 1020 29 0 2.18 219 10:19 01.12.2019
3410 Clear 10 1020 29 0 2.18 219 09:41 01.12.2019
3411 Clear 10 1020 29 0 2.18 219 09:22 01.12.2019
3412 Clear 10 1020 29 0 2.18 219 08:55 01.12.2019
3413 Clear 10 1020 29 0 2.18 219 08:36 01.12.2019
3414 Clear 10 1023 23 0 1.53 209 08:18 01.12.2019
3415 Clear 10 1023 23 0 1.53 209 07:43 01.12.2019
3416 Clear 10 1023 23 0 1.53 209 07:23 01.12.2019
3417 Clear 10 1023 23 0 1.53 209 06:51 01.12.2019
3418 Clear 10 1023 23 0 1.53 209 05:58 01.12.2019
3419 Clear 5 1027 29 0 2.6 21 04:55 01.12.2019
3420 Clear 5 1027 29 0 2.6 21 04:28 01.12.2019
3421 Clear 5 1027 29 0 2.6 21 02:45 01.12.2019
3422 Clear 5 1027 29 0 2.6 21 02:27 01.12.2019
3423 Clear 2 1026 26 0 3.37 11 01:54 01.12.2019
3424 Clear 2 1026 26 0 3.37 11 01:30 01.12.2019
3425 Clear 2 1026 27 0 3.53 13 00:47 01.12.2019
3426 Clear 2 1026 27 0 3.53 13 00:26 01.12.2019
3427 Clear 2 1026 27 0 3.53 13 23:56 30.11.2019
3428 Clear 2 1026 27 0 3.53 13 23:37 30.11.2019
3429 Clear 2 1026 29 0 3.19 9 23:18 30.11.2019
3430 Clear 2 1026 29 0 3.19 9 22:41 30.11.2019
3431 Clear 2 1026 29 0 3.19 9 22:20 30.11.2019
3432 Clear 2 1026 29 0 3.19 9 21:48 30.11.2019
3433 Clear 2 1026 29 0 3.19 9 21:28 30.11.2019
3434 Clear 2 1026 29 0 3.19 9 20:58 30.11.2019
3435 Clear 2 1026 29 0 3.19 9 20:40 30.11.2019
3436 Clear 2 1026 29 0 3.22 10 20:20 30.11.2019
3437 Clear 2 1026 29 0 3.22 10 19:57 30.11.2019
3438 Clear 2 1026 29 0 3.22 10 19:39 30.11.2019
3439 Clear 2 1026 29 0 3.22 10 19:21 30.11.2019
3440 Clear 2 1026 29 0 3.22 10 18:59 30.11.2019
3441 Clear 2 1026 29 0 3.22 10 18:39 30.11.2019
3442 Clear 2 1026 29 0 3.22 10 18:39 30.11.2019
3443 Clear 2 1026 29 0 3.22 10 18:21 30.11.2019
3444 Clear 2 1026 29 0 3.22 10 17:59 30.11.2019
3445 Clear 2 1026 29 0 3.22 10 17:41 30.11.2019
3446 Clear 2 1026 34 0 3.97 14 17:22 30.11.2019
3447 Clear 2 1026 34 0 3.97 14 16:59 30.11.2019
3448 Clear 2 1026 34 0 3.97 14 16:40 30.11.2019
3449 Clear 2 1026 34 0 3.97 14 16:21 30.11.2019
3450 Clear 2 1026 34 0 3.97 14 15:54 30.11.2019
3451 Clear 2 1026 34 0 3.97 14 15:36 30.11.2019
3452 Clear 2 1026 34 0 3.97 14 15:18 30.11.2019
3453 Clear 2 1026 34 0 3.97 14 14:54 30.11.2019
3454 Clear 2 1026 34 0 3.97 14 14:36 30.11.2019
3455 Clear 3 1023 54 0 2.48 10 14:18 30.11.2019
3456 Clear 3 1023 54 0 2.48 10 13:42 30.11.2019
3457 Clear 3 1023 55 0 2.4 8 13:24 30.11.2019
3458 Clear 3 1023 55 0 2.4 8 12:57 30.11.2019
3459 Clear 3 1023 55 0 2.4 8 12:39 30.11.2019
3460 Clear 3 1023 55 0 2.4 8 12:18 30.11.2019
3461 Clear 3 1023 55 0 2.4 8 11:41 30.11.2019
3462 Clear 9 1021 32 0 2.17 215 11:19 30.11.2019
3463 Clear 9 1021 32 0 2.17 215 10:55 30.11.2019
3464 Clear 9 1021 32 0 2.17 215 10:37 30.11.2019
3465 Clear 9 1021 32 0 2.17 215 10:18 30.11.2019
3466 Clear 9 1021 32 0 2.17 215 09:43 30.11.2019
3467 Clear 9 1021 32 0 2.17 215 09:21 30.11.2019
3468 Clear 9 1021 32 0 2.17 215 08:43 30.11.2019
3469 Clear 9 1024 26 0 1.16 215 08:20 30.11.2019
3470 Clear 9 1024 26 0 1.16 215 07:54 30.11.2019
3471 Clear 9 1024 26 0 1.16 215 07:36 30.11.2019
3472 Clear 9 1024 26 0 1.16 215 06:55 30.11.2019
3473 Clear 9 1024 26 0 1.16 215 06:29 30.11.2019
3474 Clear 9 1024 26 0 1.16 215 05:40 30.11.2019
3475 Clear 4 1028 35 0 2.2 15 03:44 30.11.2019
3476 Clear 4 1028 35 0 2.2 15 02:39 30.11.2019
3477 Clear 1 1027 33 0 3.75 16 02:20 30.11.2019
3478 Clear 1 1027 33 0 3.5 16 01:25 30.11.2019
3479 Clear 1 1027 33 0 3.5 16 00:49 30.11.2019
3480 Clear 1 1027 33 0 3.5 16 00:30 30.11.2019
3481 Clear 1 1027 33 0 3.5 16 23:59 29.11.2019
3482 Clear 1 1027 33 0 3.5 16 23:40 29.11.2019
3483 Clear 1 1028 43 0 3.69 15 23:21 29.11.2019
3484 Clear 1 1028 43 0 3.69 15 22:44 29.11.2019
3485 Clear 1 1028 43 0 3.69 15 22:25 29.11.2019
3486 Clear 1 1028 43 0 3.69 15 22:25 29.11.2019
3487 Clear 1 1028 43 0 3.69 15 21:44 29.11.2019
3488 Clear 1 1028 43 0 3.69 15 21:24 29.11.2019
3489 Clear 1 1028 43 0 3.69 15 20:58 29.11.2019
3490 Clear 1 1028 43 0 3.69 15 20:38 29.11.2019
3491 Clear 1 1027 55 0 3.49 13 20:19 29.11.2019
3492 Clear 2 1027 56 0 3.44 12 19:57 29.11.2019
3493 Clear 2 1027 56 0 3.44 12 19:39 29.11.2019
3494 Clear 2 1027 56 0 3.44 12 19:19 29.11.2019
3495 Clear 2 1027 56 0 3.44 12 18:57 29.11.2019
3496 Clear 2 1027 56 0 3.44 12 18:38 29.11.2019
3497 Clear 2 1027 56 0 3.44 12 18:19 29.11.2019
3498 Clear 2 1027 56 0 3.44 12 17:43 29.11.2019
3499 Clear 2 1027 56 0 3.44 12 17:24 29.11.2019
3500 Clear 2 1025 61 0 4.05 13 16:57 29.11.2019
3501 Clear 2 1025 61 0 4.05 13 16:39 29.11.2019
3502 Clear 2 1025 61 0 4.05 13 16:19 29.11.2019
3503 Clear 2 1025 61 0 4.05 13 15:41 29.11.2019
3504 Clear 2 1025 61 0 4.05 13 15:23 29.11.2019
3505 Clear 2 1025 61 0 4.05 13 14:56 29.11.2019
3506 Clear 2 1025 61 0 4.05 13 14:38 29.11.2019
3507 Snow 3 1022 75 0 1.64 352 14:19 29.11.2019
3508 Snow 3 1022 75 0 1.64 352 13:41 29.11.2019
3509 Snow 3 1021 76 0 1.69 355 13:21 29.11.2019
3510 Snow 3 1021 76 0 1.69 355 13:21 29.11.2019
3511 Snow 3 1021 76 0 1.69 355 12:57 29.11.2019
3512 Snow 3 1021 76 0 1.69 355 12:39 29.11.2019
3513 Snow 3 1021 76 0 1.69 355 12:21 29.11.2019
3514 Snow 3 1021 76 0 1.69 355 11:55 29.11.2019
3515 Snow 3 1021 76 0 1.69 355 11:36 29.11.2019
3516 Snow 8 1020 50 0 2.4 225 11:18 29.11.2019
3517 Snow 8 1020 50 0 2.4 225 10:55 29.11.2019
3518 Snow 8 1020 50 0 2.4 225 10:37 29.11.2019
3519 Snow 8 1020 50 0 2.4 225 10:18 29.11.2019
3520 Snow 8 1020 50 0 2.4 225 09:55 29.11.2019
3521 Snow 8 1020 50 0 2.4 225 09:55 29.11.2019
3522 Snow 8 1020 50 0 2.4 225 09:36 29.11.2019
3523 Snow 8 1020 50 0 2.4 225 09:18 29.11.2019
3524 Snow 8 1020 50 0 2.4 225 08:39 29.11.2019
3525 Clouds 9 1023 46 0 1.73 205 08:21 29.11.2019
3526 Clouds 9 1023 46 0 1.73 205 07:58 29.11.2019
3527 Clouds 9 1023 46 0 1.73 205 07:39 29.11.2019
3528 Clouds 9 1023 46 0 1.73 205 07:21 29.11.2019
3529 Clouds 9 1023 46 0 1.73 205 06:43 29.11.2019
3530 Clouds 9 1023 46 0 1.73 205 05:48 29.11.2019
3531 Clouds 9 1023 46 0 1.73 205 05:25 29.11.2019
3532 Clouds 5 1026 59 0 1.9 8 04:32 29.11.2019
3533 Clouds 5 1026 59 0 1.9 8 03:22 29.11.2019
3534 Clouds 5 1026 59 0 1.9 8 02:30 29.11.2019
3535 Clouds 2 1025 55 0 3.1 360 01:53 29.11.2019
3536 Clouds 2 1023 67 0 3.35 6 01:26 29.11.2019
3537 Clouds 2 1023 67 0 3.35 6 00:44 29.11.2019
3538 Clouds 2 1023 67 0 3.35 6 00:21 29.11.2019
3539 Clouds 2 1023 67 0 3.35 6 23:56 28.11.2019
3540 Clouds 2 1023 67 0 3.35 6 23:38 28.11.2019
3541 Clouds 3 1023 67 0 3.15 14 23:19 28.11.2019
3542 Clouds 3 1023 67 0 3.15 14 22:38 28.11.2019
3543 Clouds 3 1023 67 0 3.15 14 22:20 28.11.2019
3544 Clouds 3 1023 67 0 3.15 14 21:59 28.11.2019
3545 Clouds 3 1023 67 0 3.15 14 21:40 28.11.2019
3546 Clouds 3 1023 67 0 3.15 14 21:20 28.11.2019
3547 Clouds 3 1023 67 0 3.15 14 20:57 28.11.2019
3548 Clouds 3 1023 67 0 3.15 14 20:38 28.11.2019
3549 Snow 3 1024 77 0 2.07 10 20:18 28.11.2019
3550 Snow 3 1024 77 0 2.07 10 19:56 28.11.2019
3551 Snow 3 1024 77 0 2.07 10 19:36 28.11.2019
3552 Snow 3 1024 77 0 2.07 10 19:18 28.11.2019
3553 Snow 3 1024 77 0 2.07 10 18:56 28.11.2019
3554 Snow 3 1024 77 0 2.07 10 18:38 28.11.2019
3555 Snow 3 1024 77 0 2.07 10 18:18 28.11.2019
3556 Snow 3 1024 77 0 2.07 10 17:42 28.11.2019
3557 Snow 3 1024 77 0 2.07 10 17:24 28.11.2019
3558 Snow 3 1024 77 0 2.07 10 17:23 28.11.2019
3559 Snow 2 1024 76 0 2.91 16 16:58 28.11.2019
3560 Snow 2 1024 76 0 2.91 16 16:38 28.11.2019
3561 Snow 2 1024 76 0 2.91 16 16:19 28.11.2019
3562 Snow 2 1024 76 0 2.91 16 15:55 28.11.2019
3563 Snow 2 1024 76 0 2.91 16 15:37 28.11.2019
3564 Snow 2 1024 76 0 2.91 16 15:19 28.11.2019
3565 Snow 2 1024 76 0 2.91 16 14:41 28.11.2019
3566 Snow 4 1021 77 0 1.78 356 14:22 28.11.2019
3567 Snow 4 1021 77 0 1.78 356 13:59 28.11.2019
3568 Snow 4 1021 77 0 1.78 356 13:59 28.11.2019
3569 Snow 4 1021 77 0 1.78 356 13:41 28.11.2019
3570 Snow 4 1021 85 0 0.88 308 13:22 28.11.2019
3571 Snow 4 1021 85 0 0.88 308 13:22 28.11.2019
3572 Snow 4 1021 85 0 0.88 308 12:49 28.11.2019
3573 Snow 4 1021 85 0 0.88 308 12:29 28.11.2019
3574 Snow 4 1021 85 0 0.88 308 11:59 28.11.2019
3575 Snow 4 1021 85 0 0.88 308 11:59 28.11.2019
3576 Snow 4 1021 85 0 0.88 308 11:41 28.11.2019
3577 Snow 8 1019 61 0 2.05 224 11:21 28.11.2019
3578 Snow 8 1019 61 0 2.05 224 10:59 28.11.2019
3579 Snow 8 1019 61 0 2.05 224 10:40 28.11.2019
3580 Snow 8 1019 61 0 2.05 224 10:40 28.11.2019
3581 Snow 8 1019 61 0 2.05 224 10:20 28.11.2019
3582 Snow 8 1019 61 0 2.05 224 09:41 28.11.2019
3583 Snow 8 1019 61 0 2.05 224 09:23 28.11.2019
3584 Snow 8 1019 61 0 2.05 224 08:59 28.11.2019
3585 Snow 8 1019 61 0 2.05 224 08:59 28.11.2019
3586 Snow 8 1019 61 0 2.05 224 08:59 28.11.2019
3587 Snow 8 1019 61 0 2.05 224 08:59 28.11.2019
3588 Snow 8 1019 61 0 2.05 224 08:40 28.11.2019
3589 Snow 8 1021 70 0 1.74 226 08:21 28.11.2019
3590 Snow 8 1021 70 0 1.74 226 07:42 28.11.2019
3591 Snow 8 1021 70 0 1.74 226 07:24 28.11.2019
3592 Snow 8 1021 70 0 1.74 226 06:52 28.11.2019
3593 Snow 8 1021 70 0 1.74 226 06:52 28.11.2019
3594 Snow 8 1021 70 0 1.74 226 06:34 28.11.2019
3595 Snow 8 1021 70 0 1.74 226 05:51 28.11.2019
3596 Snow 4 1022 81 0 2.16 22 05:18 28.11.2019
3597 Snow 4 1022 81 0 2.16 22 05:18 28.11.2019
3598 Snow 4 1022 81 0 2.16 22 05:18 28.11.2019
3599 Snow 4 1022 81 0 2.16 22 02:51 28.11.2019
3600 Snow 2 1019 91 0 2.5 2 01:57 28.11.2019
3601 Snow 2 1019 93 0 1.77 16 00:49 28.11.2019
3602 Snow 2 1019 93 0 1.77 16 00:25 28.11.2019
3603 Snow 2 1019 93 0 1.77 16 23:59 27.11.2019
3604 Snow 2 1019 93 0 1.77 16 23:38 27.11.2019
3605 Snow 2 1018 98 0 1.36 157 23:19 27.11.2019
3606 Snow 2 1018 98 0 1.36 157 22:54 27.11.2019
3607 Snow 2 1018 98 0 1.36 157 22:36 27.11.2019
3608 Snow 2 1018 98 0 1.36 157 22:18 27.11.2019
3609 Snow 2 1018 98 0 1.36 157 21:55 27.11.2019
3610 Snow 2 1018 98 0 1.36 157 21:36 27.11.2019
3611 Snow 2 1018 98 0 1.36 157 21:18 27.11.2019
3612 Snow 2 1018 98 0 1.36 157 21:18 27.11.2019
3613 Snow 2 1018 98 0 1.36 157 20:55 27.11.2019
3614 Snow 2 1018 98 0 1.36 157 20:36 27.11.2019
3615 Snow 3 1019 91 0 1.16 324 20:18 27.11.2019
3616 Snow 3 1019 91 0 1.16 324 19:54 27.11.2019
3617 Snow 3 1019 91 0 1.16 324 19:36 27.11.2019
3618 Snow 3 1019 91 0 1.16 324 19:18 27.11.2019
3619 Snow 3 1019 91 0 1.16 324 18:38 27.11.2019
3620 Snow 3 1019 91 0 1.16 324 18:38 27.11.2019
3621 Snow 3 1019 91 0 1.16 324 18:19 27.11.2019
3622 Snow 3 1019 91 0 1.16 324 17:59 27.11.2019
3623 Snow 3 1019 91 0 1.16 324 17:41 27.11.2019
3624 Snow 3 1019 92 0 2.21 341 17:23 27.11.2019
3625 Snow 3 1019 92 0 2.21 341 16:58 27.11.2019
3626 Snow 3 1019 92 0 2.21 341 16:58 27.11.2019
3627 Snow 3 1019 92 0 2.21 341 16:39 27.11.2019
3628 Snow 3 1019 92 0 2.21 341 16:21 27.11.2019
3629 Snow 3 1019 92 0 2.21 341 15:58 27.11.2019
3630 Snow 3 1019 92 0 2.21 341 15:58 27.11.2019
3631 Snow 3 1019 92 0 2.21 341 15:40 27.11.2019
3632 Snow 3 1019 92 0 2.21 341 15:21 27.11.2019
3633 Snow 3 1019 92 0 2.21 341 14:58 27.11.2019
3634 -273 0 0 0 0 0 14:39 27.11.2019
3635 Snow 3 1019 92 0 2.21 341 14:39 27.11.2019
3636 Snow 3 1018 89 0 1.63 351 14:21 27.11.2019
3637 Snow 3 1018 89 0 1.63 351 13:58 27.11.2019
3638 Snow 3 1018 89 0 1.63 351 13:58 27.11.2019
3639 Snow 3 1018 89 0 1.63 351 13:39 27.11.2019
3640 Snow 3 1018 88 0 1.03 349 13:19 27.11.2019
3641 Snow 3 1018 88 0 1.03 349 13:19 27.11.2019
3642 Snow 3 1018 88 0 1.03 349 12:57 27.11.2019
3643 Snow 3 1018 88 0 1.03 349 12:39 27.11.2019
3644 Snow 3 1018 88 0 1.03 349 12:19 27.11.2019
3645 Snow 3 1018 88 0 1.03 349 11:38 27.11.2019
3646 Snow 3 1018 88 0 1.03 349 11:38 27.11.2019
3647 Snow 3 1017 93 0 1.36 337 11:19 27.11.2019
3648 Snow 3 1017 93 0 1.36 337 10:59 27.11.2019
3649 Snow 3 1017 93 0 1.36 337 10:41 27.11.2019
3650 Snow 3 1017 93 0 1.36 337 10:22 27.11.2019
3651 Snow 3 1017 93 0 1.36 337 10:22 27.11.2019
3652 Snow 3 1017 93 0 1.36 337 09:45 27.11.2019
3653 Snow 3 1017 93 0 1.36 337 09:26 27.11.2019
3654 Snow 3 1017 93 0 1.36 337 08:58 27.11.2019
3655 Snow 3 1017 93 0 1.36 337 08:39 27.11.2019
3656 Snow 4 1020 90 0 1.04 356 08:21 27.11.2019
3657 Snow 3 1020 93 0 0.13 282 07:46 27.11.2019
3658 Snow 3 1020 93 0 0.13 282 07:28 27.11.2019
3659 Snow 3 1020 93 0 0.13 282 06:48 27.11.2019
3660 Snow 3 1020 93 0 0.13 282 06:29 27.11.2019
3661 Snow 3 1020 93 0 0.13 282 05:43 27.11.2019
3662 Snow 2 1022 91 0 1.58 21 05:19 27.11.2019
3663 Snow 2 1022 91 0 1.58 21 04:43 27.11.2019
3664 Snow 2 1022 91 0 1.58 21 03:55 27.11.2019
3665 Snow 2 1022 91 0 1.58 21 03:24 27.11.2019
3666 Snow 2 1022 91 0 1.58 21 02:55 27.11.2019
3667 Clouds 3 1020 64 0 2.32 52 01:41 27.11.2019
3668 Snow 3 1020 74 0 1.25 93 00:46 27.11.2019
3669 Snow 3 1020 74 0 1.25 93 00:26 27.11.2019
3670 Snow 3 1020 74 0 1.25 93 23:50 26.11.2019
3671 Snow 3 1020 74 0 1.25 93 23:28 26.11.2019
3672 Clouds 5 1022 53 0 2.12 21 22:59 26.11.2019
3673 Clouds 5 1022 53 0 2.12 21 22:39 26.11.2019
3674 Clouds 5 1022 53 0 2.12 21 22:19 26.11.2019
3675 Clouds 5 1022 53 0 2.12 21 21:58 26.11.2019
3676 Clouds 5 1022 53 0 2.12 21 21:38 26.11.2019
3677 Clouds 5 1022 53 0 2.12 21 21:19 26.11.2019
3678 Clouds 5 1022 53 0 2.12 21 20:55 26.11.2019
3679 Clouds 5 1022 53 0 2.12 21 20:37 26.11.2019
3680 Clouds 5 1022 49 0 2.86 28 20:18 26.11.2019
3681 Clouds 5 1022 55 0 2.31 31 19:55 26.11.2019
3682 Clouds 5 1022 55 0 2.31 31 19:55 26.11.2019
3683 Clouds 5 1022 55 0 2.31 31 19:37 26.11.2019
3684 Clouds 5 1022 55 0 2.31 31 19:18 26.11.2019
3685 Clouds 5 1022 55 0 2.31 31 18:56 26.11.2019
3686 Clouds 5 1022 55 0 2.31 31 18:38 26.11.2019
3687 Clouds 5 1022 55 0 2.31 31 18:20 26.11.2019
3688 Clouds 5 1022 55 0 2.31 31 17:55 26.11.2019
3689 Clouds 5 1022 55 0 2.31 31 17:37 26.11.2019
3690 Clouds 4 1023 60 0 3.21 24 17:18 26.11.2019
3691 Clouds 4 1023 60 0 3.21 24 16:55 26.11.2019
3692 Clouds 4 1023 60 0 3.21 24 16:37 26.11.2019
3693 Clouds 4 1023 60 0 3.21 24 16:18 26.11.2019
3694 Clouds 4 1023 60 0 3.21 24 15:57 26.11.2019
3695 Clouds 4 1023 60 0 3.21 24 15:37 26.11.2019
3696 Clouds 4 1023 60 0 3.21 24 15:18 26.11.2019
3697 Clouds 4 1023 60 0 3.21 24 14:45 26.11.2019
3698 Clouds 4 1023 60 0 3.21 24 14:24 26.11.2019
3699 Snow 5 1021 61 0 1.38 301 13:44 26.11.2019
3700 Clouds 5 1021 63 0 1.38 324 13:24 26.11.2019
3701 Clouds 5 1021 63 0 1.38 324 12:58 26.11.2019
3702 Clouds 5 1021 63 0 1.38 324 12:37 26.11.2019
3703 Clouds 5 1021 63 0 1.38 324 12:19 26.11.2019
3704 Clouds 5 1021 63 0 1.38 324 11:56 26.11.2019
3705 Clouds 5 1021 63 0 1.38 324 11:37 26.11.2019
3706 Clouds 11 1020 35 0 2.24 221 11:19 26.11.2019
3707 Clouds 11 1020 35 0 2.24 221 10:56 26.11.2019
3708 Clouds 11 1020 35 0 2.24 221 10:38 26.11.2019
3709 Clouds 11 1020 35 0 2.24 221 10:19 26.11.2019
3710 Clouds 11 1020 35 0 2.24 221 09:43 26.11.2019
3711 Clouds 11 1020 35 0 2.24 221 09:24 26.11.2019
3712 Clouds 11 1020 35 0 2.24 221 08:56 26.11.2019
3713 Clouds 11 1020 35 0 2.24 221 08:38 26.11.2019
3714 Clouds 10 1024 30 0 2.4 165 08:18 26.11.2019
3715 Clouds 10 1024 30 0 2.4 165 07:43 26.11.2019
3716 Clouds 10 1024 30 0 2.4 165 07:24 26.11.2019
3717 Clouds 10 1024 30 0 2.4 165 06:51 26.11.2019
3718 Clouds 10 1024 30 0 2.4 165 05:59 26.11.2019
3719 Clouds 10 1024 30 0 2.4 165 05:32 26.11.2019
3720 Clouds 6 1028 45 0 2.17 23 03:22 26.11.2019
3721 Clouds 6 1028 45 0 2.17 23 03:22 26.11.2019
3722 Clouds 3 1026 56 0 2.78 4 01:42 26.11.2019
3723 Clouds 3 1026 51 0 2.83 8 01:23 26.11.2019
3724 Clouds 3 1026 51 0 2.83 8 00:47 26.11.2019
3725 Clouds 3 1026 51 0 2.83 8 00:20 26.11.2019
3726 Clouds 3 1026 51 0 2.83 8 23:39 25.11.2019
3727 Clear 3 1026 55 0 2.61 4 23:19 25.11.2019
3728 Clear 3 1026 55 0 2.61 4 22:55 25.11.2019
3729 Clear 3 1026 55 0 2.61 4 22:37 25.11.2019
3730 Clear 3 1026 55 0 2.61 4 22:18 25.11.2019
3731 Clear 3 1026 55 0 2.61 4 22:18 25.11.2019
3732 Clear 3 1026 55 0 2.61 4 21:55 25.11.2019
3733 Clear 3 1026 55 0 2.61 4 21:36 25.11.2019
3734 Clear 3 1026 55 0 2.61 4 21:18 25.11.2019
3735 Clear 3 1026 55 0 2.61 4 21:18 25.11.2019
3736 Clear 3 1026 55 0 2.61 4 20:54 25.11.2019
3737 Clear 3 1026 55 0 2.61 4 20:36 25.11.2019
3738 Clear 3 1026 55 0 2.61 4 20:36 25.11.2019
3739 Clouds 3 1025 56 0 2.34 4 20:18 25.11.2019
3740 Clouds 3 1025 56 0 2.34 4 20:18 25.11.2019
3741 Clouds 3 1025 56 0 2.34 4 19:54 25.11.2019
3742 Clouds 3 1025 56 0 2.34 4 19:36 25.11.2019
3743 Clouds 3 1025 56 0 2.34 4 19:18 25.11.2019
3744 Clouds 3 1025 56 0 2.34 4 18:54 25.11.2019
3745 Clouds 3 1025 56 0 2.34 4 18:36 25.11.2019
3746 Clouds 3 1025 56 0 2.34 4 18:18 25.11.2019
3747 Clouds 3 1025 56 0 2.34 4 17:55 25.11.2019
3748 Clouds 3 1025 56 0 2.34 4 17:36 25.11.2019
3749 Clouds 4 1024 59 0 1.87 20 17:18 25.11.2019
3750 Clouds 4 1024 59 0 1.87 20 16:42 25.11.2019
3751 Clouds 4 1024 59 0 1.87 20 16:23 25.11.2019
3752 Clouds 4 1024 59 0 1.87 20 15:58 25.11.2019
3753 Clouds 4 1024 59 0 1.87 20 15:58 25.11.2019
3754 Clouds 4 1024 59 0 1.87 20 15:39 25.11.2019
3755 Clouds 4 1024 59 0 1.87 20 15:20 25.11.2019
3756 Clouds 4 1024 59 0 1.87 20 14:56 25.11.2019
3757 Clouds 4 1024 59 0 1.87 20 14:37 25.11.2019
3758 Clouds 5 1020 70 0 0.76 302 14:19 25.11.2019
3759 Clouds 5 1020 70 0 0.76 302 13:40 25.11.2019
3760 Clouds 5 1020 72 0 0.69 325 13:21 25.11.2019
3761 Clouds 5 1020 72 0 0.69 325 12:59 25.11.2019
3762 Clouds 5 1020 72 0 0.69 325 12:40 25.11.2019
3763 Clouds 5 1020 72 0 0.69 325 12:20 25.11.2019
3764 Clouds 5 1020 72 0 0.69 325 11:57 25.11.2019
3765 Clouds 5 1020 72 0 0.69 325 11:38 25.11.2019
3766 Clouds 10 1019 38 0 2.67 220 11:19 25.11.2019
3767 Clouds 10 1019 38 0 2.67 220 10:44 25.11.2019
3768 Clouds 10 1019 38 0 2.67 220 10:26 25.11.2019
3769 Clouds 10 1019 38 0 2.67 220 09:58 25.11.2019
3770 Clouds 10 1019 38 0 2.67 220 09:39 25.11.2019
3771 Clouds 10 1019 38 0 2.67 220 09:21 25.11.2019
3772 Clouds 10 1019 38 0 2.67 220 08:41 25.11.2019
3773 Clouds 11 1022 28 0 2.08 209 08:21 25.11.2019
3774 Clouds 11 1022 28 0 2.13 209 07:43 25.11.2019
3775 Clouds 11 1022 28 0 2.13 209 07:24 25.11.2019
3776 Clouds 11 1022 28 0 2.13 209 07:24 25.11.2019
3777 Clouds 11 1022 28 0 2.13 209 06:50 25.11.2019
3778 Clouds 11 1022 28 0 2.13 209 06:22 25.11.2019
3779 Clouds 11 1022 28 0 2.13 209 06:22 25.11.2019
3780 Clouds 11 1022 28 0 2.13 209 05:40 25.11.2019
3781 Clouds 7 1025 35 0 1.45 354 04:52 25.11.2019
3782 Clouds 7 1025 35 0 1.45 354 03:26 25.11.2019
3783 Clouds 7 1025 35 0 1.45 354 02:31 25.11.2019
3784 Clear 3 1024 39 0 3.08 10 01:42 25.11.2019
3785 Clouds 3 1024 44 0 2.85 8 01:23 25.11.2019
3786 Clouds 3 1024 44 0 2.85 8 00:37 25.11.2019
3787 Clouds 3 1024 44 0 2.85 8 00:18 25.11.2019
3788 Clouds 3 1024 44 0 2.85 8 23:43 24.11.2019
3789 Clear 4 1025 41 0 2.78 5 23:20 24.11.2019
3790 Clear 4 1025 41 0 2.78 5 22:56 24.11.2019
3791 Clear 4 1025 41 0 2.78 5 22:56 24.11.2019
3792 Clear 4 1025 41 0 2.78 5 22:37 24.11.2019
3793 Clear 4 1025 41 0 2.78 5 22:19 24.11.2019
3794 Clear 4 1025 41 0 2.78 5 21:56 24.11.2019
3795 Clear 4 1025 41 0 2.78 5 21:36 24.11.2019
3796 Clear 4 1025 41 0 2.78 5 21:18 24.11.2019
3797 Clear 4 1025 41 0 2.78 5 20:55 24.11.2019
3798 Clear 4 1025 41 0 2.78 5 20:37 24.11.2019
3799 Clear 4 1025 43 0 2.8 8 20:18 24.11.2019
3800 Clear 4 1025 42 0 2.9 10 19:54 24.11.2019
3801 Clear 4 1025 42 0 2.9 10 19:36 24.11.2019
3802 Clear 4 1025 42 0 2.9 10 19:18 24.11.2019
3803 Clear 4 1025 42 0 2.9 10 18:54 24.11.2019
3804 Clear 4 1025 42 0 2.9 10 18:36 24.11.2019
3805 Clear 4 1025 42 0 2.9 10 18:18 24.11.2019
3806 Clear 4 1025 42 0 2.9 10 17:55 24.11.2019
3807 Clear 4 1025 42 0 2.9 10 17:36 24.11.2019
3808 Clear 4 1025 42 0 2.9 10 17:36 24.11.2019
3809 Clear 4 1025 44 0 3.07 16 17:18 24.11.2019
3810 Clear 4 1025 44 0 3.07 16 16:54 24.11.2019
3811 Clear 4 1025 44 0 3.07 16 16:36 24.11.2019
3812 Clear 4 1025 44 0 3.07 16 16:18 24.11.2019
3813 Clear 4 1025 44 0 3.07 16 15:42 24.11.2019
3814 Clear 4 1025 44 0 3.07 16 15:24 24.11.2019
3815 Clear 4 1025 44 0 3.07 16 14:56 24.11.2019
3816 Clear 4 1025 44 0 3.07 16 14:38 24.11.2019
3817 Clouds 5 1020 67 0 1.31 345 14:18 24.11.2019
3818 Clouds 5 1020 67 0 1.31 345 13:39 24.11.2019
3819 Clouds 5 1020 68 0 1.25 357 13:21 24.11.2019
3820 Clouds 5 1020 68 0 1.25 357 12:58 24.11.2019
3821 Clouds 5 1020 68 0 1.25 357 12:39 24.11.2019
3822 Clouds 5 1020 68 0 1.25 357 12:18 24.11.2019
3823 Clouds 5 1020 68 0 1.25 357 11:55 24.11.2019
3824 Clouds 5 1020 68 0 1.25 357 11:36 24.11.2019
3825 Clouds 11 1019 35 0 2.9 218 11:18 24.11.2019
3826 Clouds 11 1019 35 0 2.9 218 10:46 24.11.2019
3827 Clouds 11 1019 35 0 2.9 218 10:28 24.11.2019
3828 Clouds 11 1019 35 0 2.9 218 09:55 24.11.2019
3829 Clouds 11 1019 35 0 2.9 218 09:36 24.11.2019
3830 Clouds 11 1019 35 0 2.9 218 09:18 24.11.2019
3831 Clouds 11 1019 35 0 2.9 218 08:43 24.11.2019
3832 Clouds 11 1021 24 0 2.22 212 08:21 24.11.2019
3833 Clouds 11 1021 24 0 2.12 216 07:57 24.11.2019
3834 Clouds 11 1021 24 0 2.12 216 07:37 24.11.2019
3835 Clouds 11 1021 24 0 2.12 216 07:18 24.11.2019
3836 Clouds 11 1021 24 0 2.12 216 06:19 24.11.2019
3837 Clouds 11 1021 24 0 2.12 216 06:19 24.11.2019
3838 Clouds 11 1021 24 0 2.12 216 06:19 24.11.2019
3839 Clouds 7 1025 35 0 1.99 8 04:48 24.11.2019
3840 Clouds 7 1025 35 0 1.99 8 03:33 24.11.2019
3841 Clouds 7 1025 35 0 1.99 8 03:33 24.11.2019
3842 Clouds 3 1024 37 0 2.74 6 01:59 24.11.2019
3843 Clouds 3 1024 37 0 2.74 6 01:40 24.11.2019
3844 Clouds 3 1024 37 0 3 10 01:21 24.11.2019
3845 Clouds 3 1024 37 0 3 10 00:47 24.11.2019
3846 Clouds 3 1024 37 0 3 10 00:23 24.11.2019
3847 Clouds 3 1024 37 0 3 10 00:23 24.11.2019
3848 Clouds 3 1024 37 0 3 10 23:45 23.11.2019
3849 Clouds 3 1025 45 0 3.1 3 23:22 23.11.2019
3850 Clouds 3 1025 45 0 3.1 3 22:59 23.11.2019
3851 Clouds 3 1025 45 0 3.1 3 22:59 23.11.2019
3852 Clouds 3 1025 45 0 3.1 3 22:40 23.11.2019
3853 Clouds 3 1025 45 0 3.1 3 22:22 23.11.2019
3854 Clouds 3 1025 45 0 3.1 3 21:59 23.11.2019
3855 Clouds 3 1025 45 0 3.1 3 21:40 23.11.2019
3856 Clouds 3 1025 45 0 3.1 3 21:22 23.11.2019
3857 Clouds 3 1025 45 0 3.1 3 20:57 23.11.2019
3858 Clouds 3 1025 45 0 3.1 3 20:36 23.11.2019
3859 Clear 4 1026 50 0 3.06 5 20:18 23.11.2019
3860 Clear 4 1026 47 0 3.11 6 19:54 23.11.2019
3861 Clear 4 1026 47 0 3.11 6 19:36 23.11.2019
3862 Clear 4 1026 47 0 3.11 6 19:18 23.11.2019
3863 Clear 4 1026 47 0 3.11 6 18:40 23.11.2019
3864 Clear 4 1026 47 0 3.11 6 18:40 23.11.2019
3865 Clear 4 1026 47 0 3.11 6 18:20 23.11.2019
3866 Clear 4 1026 47 0 3.11 6 17:55 23.11.2019
3867 Clear 4 1026 47 0 3.11 6 17:37 23.11.2019
3868 Clear 4 1025 59 0 4.18 16 17:19 23.11.2019
3869 -273 0 0 0 0 0 16:55 23.11.2019
3870 Clear 4 1025 59 0 4.18 16 16:37 23.11.2019
3871 Clear 4 1025 59 0 4.18 16 16:18 23.11.2019
3872 Clear 4 1025 59 0 4.18 16 15:56 23.11.2019
3873 Clear 4 1025 59 0 4.18 16 15:37 23.11.2019
3874 Clear 4 1025 59 0 4.18 16 15:18 23.11.2019
3875 Clear 4 1025 59 0 4.18 16 14:42 23.11.2019
3876 Rain 6 1021 74 0 2.58 359 14:21 23.11.2019
3877 Rain 6 1021 74 0 2.58 359 13:59 23.11.2019
3878 Rain 6 1021 74 0 2.58 359 13:40 23.11.2019
3879 Rain 6 1021 76 0 1.23 355 13:19 23.11.2019
3880 Rain 6 1021 76 0 1.23 355 12:44 23.11.2019
3881 Rain 6 1021 76 0 1.23 355 12:24 23.11.2019
3882 Rain 6 1021 76 0 1.23 355 11:56 23.11.2019
3883 Rain 6 1021 76 0 1.23 355 11:38 23.11.2019
3884 Rain 11 1019 54 0 1.99 230 11:18 23.11.2019
3885 Rain 11 1019 54 0 1.99 230 11:18 23.11.2019
3886 Rain 11 1019 54 0 1.99 230 10:43 23.11.2019
3887 Rain 11 1019 54 0 1.99 230 10:20 23.11.2019
3888 Rain 11 1019 54 0 1.99 230 09:41 23.11.2019
3889 Rain 11 1019 54 0 1.99 230 09:19 23.11.2019
3890 Rain 11 1019 54 0 1.99 230 08:41 23.11.2019
3891 Rain 11 1021 62 0 2 236 08:19 23.11.2019
3892 Rain 11 1021 62 0 2 236 07:52 23.11.2019
3893 Rain 11 1021 62 0 2 236 07:34 23.11.2019
3894 Rain 11 1021 62 0 2 236 06:43 23.11.2019
3895 Rain 11 1021 62 0 2 236 06:19 23.11.2019
3896 Rain 11 1021 62 0 2 236 05:46 23.11.2019
3897 Rain 11 1021 62 0 2 236 05:27 23.11.2019
3898 Rain 7 1022 82 0 1.81 31 04:44 23.11.2019
3899 Rain 7 1022 82 0 1.81 31 04:26 23.11.2019
3900 Rain 7 1022 82 0 1.81 31 02:39 23.11.2019
3901 Rain 5 1020 90 0 2.99 51 01:42 23.11.2019
3902 Rain 5 1020 91 0 3.42 45 00:57 23.11.2019
3903 Rain 5 1020 91 0 3.42 45 00:39 23.11.2019
3904 Rain 5 1020 91 0 3.42 45 00:18 23.11.2019
3905 Rain 5 1020 91 0 3.42 45 00:18 23.11.2019
3906 Rain 5 1020 91 0 3.42 45 23:39 22.11.2019
3907 Rain 5 1020 88 0 2.94 13 23:20 22.11.2019
3908 Rain 5 1020 88 0 2.94 13 22:57 22.11.2019
3909 Rain 5 1020 88 0 2.94 13 22:38 22.11.2019
3910 Rain 5 1020 88 0 2.94 13 22:20 22.11.2019
3911 Rain 5 1020 88 0 2.94 13 21:58 22.11.2019
3912 Rain 5 1020 88 0 2.94 13 21:39 22.11.2019
3913 Rain 5 1020 88 0 2.94 13 21:19 22.11.2019
3914 Rain 5 1020 88 0 2.94 13 20:43 22.11.2019
3915 Rain 5 1021 83 0 3.97 11 20:22 22.11.2019
3916 Rain 5 1021 83 0 3.97 11 19:56 22.11.2019
3917 Rain 5 1021 83 0 3.97 11 19:37 22.11.2019
3918 Rain 5 1021 83 0 3.97 11 19:19 22.11.2019
3919 Rain 5 1021 83 0 3.97 11 18:39 22.11.2019
3920 Rain 5 1021 83 0 3.97 11 18:21 22.11.2019
3921 Rain 5 1021 83 0 3.97 11 17:58 22.11.2019
3922 Rain 5 1021 83 0 3.97 11 17:40 22.11.2019
3923 Rain 7 1021 75 0 4.33 13 17:21 22.11.2019
3924 Rain 7 1021 75 0 4.33 13 16:42 22.11.2019
3925 Rain 7 1021 75 0 4.33 13 16:24 22.11.2019
3926 Rain 7 1021 75 0 4.33 13 15:45 22.11.2019
3927 Rain 7 1021 75 0 4.33 13 15:24 22.11.2019
3928 Rain 7 1021 75 0 4.33 13 14:56 22.11.2019
3929 Rain 7 1021 75 0 4.33 13 14:38 22.11.2019
3930 Rain 6 1019 89 0 2.09 32 14:19 22.11.2019
3931 Rain 6 1019 89 0 2.09 32 13:58 22.11.2019
3932 Rain 6 1019 89 0 2.09 32 13:37 22.11.2019
3933 Rain 6 1019 90 0 1.16 27 13:18 22.11.2019
3934 Rain 6 1019 90 0 1.16 27 12:57 22.11.2019
3935 Rain 6 1019 90 0 1.16 27 12:39 22.11.2019
3936 Rain 6 1019 90 0 1.16 27 12:18 22.11.2019
3937 Rain 6 1019 90 0 1.16 27 11:55 22.11.2019
3938 Rain 6 1019 90 0 1.16 27 11:36 22.11.2019
3939 Rain 9 1019 66 0 2.38 11 11:18 22.11.2019
3940 Rain 9 1019 66 0 2.38 11 10:40 22.11.2019
3941 Rain 9 1019 66 0 2.38 11 10:22 22.11.2019
3942 Rain 9 1019 66 0 2.38 11 09:58 22.11.2019
3943 Rain 9 1019 66 0 2.38 11 09:39 22.11.2019
3944 Rain 9 1019 66 0 2.38 11 09:21 22.11.2019
3945 Rain 9 1019 66 0 2.38 11 09:21 22.11.2019
3946 Rain 9 1019 66 0 2.38 11 08:47 22.11.2019
3947 Rain 9 1019 66 0 2.38 11 08:28 22.11.2019
3948 Clouds 12 1022 46 0 1.73 13 07:58 22.11.2019
3949 Clouds 12 1022 46 0 1.73 13 07:40 22.11.2019
3950 Clouds 12 1022 46 0 1.73 13 07:19 22.11.2019
3951 Clouds 12 1022 46 0 1.73 13 06:41 22.11.2019
3952 Clouds 12 1022 46 0 1.73 13 05:57 22.11.2019
3953 Clouds 9 1023 57 0 3.11 31 04:55 22.11.2019
3954 Clouds 9 1023 57 0 3.11 31 02:59 22.11.2019
3955 Clouds 9 1023 57 0 3.11 31 02:37 22.11.2019
3956 Clouds 6 1021 63 0 3.83 26 02:18 22.11.2019
3957 Clouds 6 1021 63 0 3.83 26 01:42 22.11.2019
3958 Clouds 7 1022 61 0 3.77 25 01:18 22.11.2019
3959 Clouds 7 1022 61 0 3.77 25 00:26 22.11.2019
3960 Clouds 7 1022 61 0 3.77 25 23:59 21.11.2019
3961 Clouds 7 1022 61 0 3.77 25 23:41 21.11.2019
3962 Rain 7 1022 58 0 3.77 19 23:23 21.11.2019
3963 Rain 7 1022 58 0 3.77 19 22:56 21.11.2019
3964 Rain 7 1022 58 0 3.77 19 22:37 21.11.2019
3965 Rain 7 1022 58 0 3.77 19 22:19 21.11.2019
3966 Rain 7 1022 58 0 3.77 19 21:54 21.11.2019
3967 Rain 7 1022 58 0 3.77 19 21:36 21.11.2019
3968 Rain 7 1022 58 0 3.77 19 21:18 21.11.2019
3969 Rain 7 1022 58 0 3.77 19 20:57 21.11.2019
3970 Rain 7 1022 58 0 3.77 19 20:37 21.11.2019
3971 Clouds 9 1023 44 0 3.52 16 20:18 21.11.2019
3972 Clouds 9 1023 44 0 3.52 16 19:56 21.11.2019
3973 Clouds 9 1023 44 0 3.52 16 19:37 21.11.2019
3974 Clouds 9 1023 44 0 3.52 16 19:19 21.11.2019
3975 Clouds 9 1023 44 0 3.52 16 18:42 21.11.2019
3976 Clouds 9 1023 44 0 3.52 16 18:21 21.11.2019
3977 Clouds 9 1023 44 0 3.52 16 17:58 21.11.2019
3978 Clouds 9 1023 44 0 3.52 16 17:39 21.11.2019
3979 Clouds 8 1023 48 0 2.98 7 17:21 21.11.2019
3980 Clouds 8 1023 48 0 2.98 7 16:58 21.11.2019
3981 Clouds 8 1023 48 0 2.98 7 16:40 21.11.2019
3982 Clouds 8 1023 48 0 2.98 7 16:20 21.11.2019
3983 Clouds 8 1023 48 0 2.98 7 15:55 21.11.2019
3984 Clouds 8 1023 48 0 2.98 7 15:37 21.11.2019
3985 Clouds 8 1023 48 0 2.98 7 15:18 21.11.2019
3986 Clouds 8 1023 48 0 2.98 7 14:39 21.11.2019
3987 Snow 8 1022 49 0 4.01 17 14:20 21.11.2019
3988 Snow 8 1022 49 0 4.01 17 13:59 21.11.2019
3989 Snow 8 1022 49 0 4.01 17 13:38 21.11.2019
3990 Rain 8 1021 49 0 4.14 16 13:19 21.11.2019
3991 Rain 8 1021 49 0 4.14 16 13:19 21.11.2019
3992 Rain 8 1021 49 0 4.14 16 12:43 21.11.2019
3993 Rain 8 1021 49 0 4.14 16 12:25 21.11.2019
3994 Rain 8 1021 49 0 4.14 16 11:59 21.11.2019
3995 Rain 8 1021 49 0 4.14 16 11:40 21.11.2019
3996 Clouds 12 1020 38 0 1.06 208 11:21 21.11.2019
3997 Clouds 12 1020 38 0 1.06 208 11:21 21.11.2019
3998 Clouds 12 1020 38 0 1.06 208 10:57 21.11.2019
3999 Clouds 12 1020 38 0 1.06 208 10:39 21.11.2019
4000 Clouds 12 1020 38 0 1.06 208 10:20 21.11.2019
4001 Clouds 12 1020 38 0 1.06 208 09:43 21.11.2019
4002 Clouds 12 1020 38 0 1.06 208 09:23 21.11.2019
4003 Clouds 12 1020 38 0 1.06 208 08:59 21.11.2019
4004 Clouds 12 1020 38 0 1.06 208 08:40 21.11.2019
4005 Clouds 12 1023 33 0 1.98 207 08:18 21.11.2019
4006 Clouds 12 1023 32 0 1.92 210 07:40 21.11.2019
4007 Clouds 12 1023 32 0 1.92 210 07:18 21.11.2019
4008 Clouds 12 1023 32 0 1.92 210 06:51 21.11.2019
4009 Clouds 12 1023 32 0 1.92 210 06:33 21.11.2019
4010 Clouds 12 1023 32 0 1.92 210 05:31 21.11.2019
4011 Clouds 10 1023 32 0 1.2 344 03:32 21.11.2019
4012 Clouds 10 1023 32 0 1.2 344 02:40 21.11.2019
4013 Clouds 7 1022 32 0 2.41 2 01:53 21.11.2019
4014 Clouds 7 1022 32 0 2.41 2 01:26 21.11.2019
4015 Clouds 7 1022 33 0 2.1 3 00:54 21.11.2019
4016 Clouds 7 1022 33 0 2.1 3 00:54 21.11.2019
4017 Clouds 7 1022 33 0 2.1 3 00:21 21.11.2019
4018 Clouds 7 1022 33 0 2.1 3 23:55 20.11.2019
4019 Clouds 7 1022 33 0 2.1 3 23:37 20.11.2019
4020 Clouds 7 1022 37 0 2.08 14 23:19 20.11.2019
4021 Clouds 7 1022 37 0 2.08 14 22:55 20.11.2019
4022 Clouds 7 1022 37 0 2.08 14 22:36 20.11.2019
4023 Clouds 7 1022 37 0 2.08 14 22:18 20.11.2019
4024 Clouds 7 1022 37 0 2.08 14 22:18 20.11.2019
4025 Clouds 7 1022 37 0 2.08 14 21:54 20.11.2019
4026 Clouds 7 1022 37 0 2.08 14 21:36 20.11.2019
4027 Clouds 7 1022 37 0 2.08 14 21:18 20.11.2019
4028 Clouds 7 1022 37 0 2.08 14 20:54 20.11.2019
4029 Clouds 7 1022 37 0 2.08 14 20:36 20.11.2019
4030 Clouds 7 1022 38 0 1.66 352 20:18 20.11.2019
4031 Clouds 7 1022 36 0 2.06 349 19:54 20.11.2019
4032 Clouds 7 1022 36 0 2.06 349 19:36 20.11.2019
4033 Clouds 7 1022 36 0 2.06 349 19:18 20.11.2019
4034 Clouds 7 1022 36 0 2.06 349 18:41 20.11.2019
4035 Clouds 7 1022 36 0 2.06 349 18:23 20.11.2019
4036 Clouds 7 1022 36 0 2.06 349 17:59 20.11.2019
4037 Clouds 7 1022 36 0 2.06 349 17:59 20.11.2019
4038 Clouds 7 1022 36 0 2.06 349 17:40 20.11.2019
4039 Clouds 7 1022 36 0 2.06 349 17:39 20.11.2019
4040 Clouds 7 1022 38 0 1.7 16 17:21 20.11.2019
4041 Clouds 7 1022 38 0 1.7 16 17:21 20.11.2019
4042 Clouds 7 1022 38 0 1.7 16 16:59 20.11.2019
4043 Clouds 7 1022 38 0 1.7 16 16:41 20.11.2019
4044 Clouds 7 1022 38 0 1.7 16 16:20 20.11.2019
4045 Clouds 7 1022 38 0 1.7 16 15:57 20.11.2019
4046 Clouds 7 1022 38 0 1.7 16 15:38 20.11.2019
4047 Clouds 7 1022 38 0 1.7 16 15:19 20.11.2019
4048 Clouds 7 1022 38 0 1.7 16 14:56 20.11.2019
4049 Clouds 7 1022 38 0 1.7 16 14:37 20.11.2019
4050 Clouds 7 1019 47 0 1.02 35 14:18 20.11.2019
4051 Clouds 7 1019 47 0 1.02 35 13:55 20.11.2019
4052 Clouds 7 1019 47 0 1.02 35 13:55 20.11.2019
4053 Clouds 7 1019 47 0 1.02 35 13:36 20.11.2019
4054 Clouds 8 1019 43 0 1.28 26 13:18 20.11.2019
4055 Clouds 8 1019 43 0 1.28 26 12:40 20.11.2019
4056 Clouds 8 1019 43 0 1.28 26 12:22 20.11.2019
4057 Clouds 8 1019 43 0 1.28 26 11:55 20.11.2019
4058 Clouds 8 1019 43 0 1.28 26 11:37 20.11.2019
4059 Clouds 12 1017 28 0 1.89 211 11:18 20.11.2019
4060 Clouds 12 1017 28 0 1.89 211 10:54 20.11.2019
4061 Clouds 12 1017 28 0 1.89 211 10:36 20.11.2019
4062 Clouds 12 1017 28 0 1.89 211 10:18 20.11.2019
4063 Clouds 12 1017 28 0 1.89 211 09:42 20.11.2019
4064 Clouds 12 1017 28 0 1.89 211 09:20 20.11.2019
4065 Clouds 12 1017 28 0 1.89 211 08:47 20.11.2019
4066 Clouds 12 1017 27 0 2.02 201 08:28 20.11.2019
4067 Clouds 13 1020 19 0 1.96 212 07:57 20.11.2019
4068 Clouds 13 1020 19 0 1.96 212 07:37 20.11.2019
4069 Clouds 13 1020 19 0 1.96 212 07:18 20.11.2019
4070 Clouds 13 1020 19 0 1.96 212 06:45 20.11.2019
4071 Clouds 13 1020 19 0 1.96 212 06:19 20.11.2019
4072 Clouds 9 1022 22 0 1.97 345 04:50 20.11.2019
4073 Clouds 9 1022 22 0 1.97 345 04:50 20.11.2019
4074 Clouds 9 1022 22 0 1.97 345 02:47 20.11.2019
4075 Clouds 6 1021 17 0 3.01 1 01:39 20.11.2019
4076 Clouds 6 1021 17 0 3.04 3 00:59 20.11.2019
4077 Clouds 6 1021 17 0 3.04 3 00:35 20.11.2019
4078 Clouds 6 1021 17 0 3.04 3 23:43 19.11.2019
4079 Clouds 6 1021 17 0 3.04 3 23:24 19.11.2019
4080 Clouds 6 1021 20 0 3.13 4 22:57 19.11.2019
4081 Clouds 6 1021 20 0 3.13 4 22:38 19.11.2019
4082 Clouds 6 1021 20 0 3.13 4 22:19 19.11.2019
4083 Clouds 6 1021 20 0 3.13 4 21:55 19.11.2019
4084 Clouds 6 1021 20 0 3.13 4 21:37 19.11.2019
4085 Clouds 6 1021 20 0 3.13 4 21:19 19.11.2019
4086 Clouds 6 1021 20 0 3.13 4 20:55 19.11.2019
4087 Clouds 6 1021 20 0 3.13 4 20:36 19.11.2019
4088 Clouds 6 1021 20 0 3.13 4 20:36 19.11.2019
4089 Clouds 6 1021 20 0 3.13 4 20:36 19.11.2019
4090 Clouds 6 1021 20 0 3.13 4 20:36 19.11.2019
4091 Clouds 6 1021 20 0 3.13 4 20:36 19.11.2019
4092 Clouds 6 1021 23 0 3.4 10 20:18 19.11.2019
4093 Clouds 6 1021 23 0 3.4 10 19:55 19.11.2019
4094 Clouds 6 1021 23 0 3.4 10 19:36 19.11.2019
4095 Clouds 6 1021 23 0 3.4 10 19:18 19.11.2019
4096 Clouds 6 1021 23 0 3.4 10 18:41 19.11.2019
4097 Clouds 6 1021 23 0 3.4 10 18:41 19.11.2019
4098 Clouds 6 1021 23 0 3.4 10 18:41 19.11.2019
4099 Clouds 6 1021 23 0 3.4 10 18:21 19.11.2019
4100 Clouds 6 1021 23 0 3.4 10 17:59 19.11.2019
4101 Clouds 6 1021 23 0 3.4 10 17:41 19.11.2019
4102 Clouds 6 1021 31 0 3.08 11 17:21 19.11.2019
4103 Clouds 6 1021 31 0 3.08 11 16:59 19.11.2019
4104 Clouds 6 1021 31 0 3.08 11 16:41 19.11.2019
4105 Clouds 6 1021 31 0 3.08 11 16:21 19.11.2019
4106 Clouds 6 1021 31 0 3.08 11 16:21 19.11.2019
4107 Clouds 6 1021 31 0 3.08 11 15:47 19.11.2019
4108 Clouds 6 1021 31 0 3.08 11 15:27 19.11.2019
4109 Clouds 6 1021 31 0 3.08 11 14:59 19.11.2019
4110 Clouds 6 1021 31 0 3.08 11 14:59 19.11.2019
4111 Clouds 6 1021 31 0 3.08 11 14:59 19.11.2019
4112 Clouds 6 1021 31 0 3.08 11 14:40 19.11.2019
4113 Clouds 7 1019 43 0 2.31 13 14:21 19.11.2019
4114 Clouds 7 1019 43 0 2.31 13 13:59 19.11.2019
4115 Clouds 7 1019 43 0 2.31 13 13:39 19.11.2019
4116 -273 0 0 0 0 0 13:39 19.11.2019
4117 Clouds 7 1019 43 0 2.31 13 13:18 19.11.2019
4118 Clouds 7 1018 43 0 2.69 12 12:40 19.11.2019
4119 Clouds 7 1018 43 0 2.69 12 12:21 19.11.2019
4120 Clouds 7 1018 43 0 2.69 12 11:57 19.11.2019
4121 Clouds 7 1018 43 0 2.69 12 11:38 19.11.2019
4122 Clouds 13 1017 25 0 2.46 210 11:19 19.11.2019
4123 Clouds 13 1017 25 0 2.46 210 11:19 19.11.2019
4124 Clouds 13 1017 25 0 2.46 210 10:47 19.11.2019
4125 Clouds 13 1017 25 0 2.46 210 10:22 19.11.2019
4126 Clouds 13 1017 25 0 2.46 210 09:57 19.11.2019
4127 Clouds 13 1017 25 0 2.46 210 09:39 19.11.2019
4128 Clouds 13 1017 25 0 2.46 210 09:18 19.11.2019
4129 Clouds 13 1017 25 0 2.46 210 08:41 19.11.2019
4130 Clouds 13 1017 25 0 2.46 210 08:41 19.11.2019
4131 Clouds 14 1020 17 0 1.87 212 08:22 19.11.2019
4132 Clear 14 1020 18 0 2.05 215 07:57 19.11.2019
4133 Clear 14 1020 18 0 2.05 215 07:38 19.11.2019
4134 Clear 14 1020 18 0 2.05 215 07:20 19.11.2019
4135 Clear 14 1020 18 0 2.05 215 06:49 19.11.2019
4136 Clear 14 1020 18 0 2.05 215 06:29 19.11.2019
4137 Clear 14 1020 18 0 2.05 215 05:28 19.11.2019
4138 Clear 9 1023 23 0 2.01 347 03:50 19.11.2019
4139 Clear 9 1023 23 0 2.01 347 03:31 19.11.2019
4140 Clear 9 1023 23 0 2.01 347 02:55 19.11.2019
4141 Clear 5 1021 19 0 3.38 2 01:59 19.11.2019
4142 Clear 5 1021 19 0 3.38 2 01:27 19.11.2019
4143 Clouds 5 1021 18 0 3.36 1 00:21 19.11.2019
4144 Clouds 5 1021 18 0 3.36 1 23:57 18.11.2019
4145 Clouds 5 1021 18 0 3.36 1 23:37 18.11.2019
4146 Clouds 5 1022 26 0 3.37 1 23:18 18.11.2019
4147 Clouds 5 1022 26 0 3.37 1 22:42 18.11.2019
4148 Clouds 5 1022 26 0 3.37 1 22:23 18.11.2019
4149 Clouds 5 1022 26 0 3.37 1 21:55 18.11.2019
4150 Clouds 5 1022 26 0 3.37 1 21:37 18.11.2019
4151 Clouds 5 1022 26 0 3.37 1 21:19 18.11.2019
4152 Clouds 5 1022 26 0 3.37 1 20:56 18.11.2019
4153 Clouds 5 1022 26 0 3.37 1 20:38 18.11.2019
4154 Clouds 6 1022 28 0 2.94 4 20:18 18.11.2019
4155 Clouds 6 1022 28 0 2.94 4 19:55 18.11.2019
4156 Clouds 6 1022 28 0 2.94 4 19:36 18.11.2019
4157 Clouds 6 1022 28 0 2.94 4 19:18 18.11.2019
4158 Clouds 6 1022 28 0 2.94 4 18:54 18.11.2019
4159 Clouds 6 1022 28 0 2.94 4 18:36 18.11.2019
4160 Clouds 6 1022 28 0 2.94 4 18:18 18.11.2019
4161 Clouds 6 1022 28 0 2.94 4 17:39 18.11.2019
4162 Clear 6 1022 30 0 3.28 3 17:19 18.11.2019
4163 Clear 6 1022 30 0 3.28 3 16:55 18.11.2019
4164 Clear 6 1022 30 0 3.28 3 16:36 18.11.2019
4165 Clear 6 1022 30 0 3.28 3 16:18 18.11.2019
4166 Clear 6 1022 30 0 3.28 3 15:55 18.11.2019
4167 Clear 6 1022 30 0 3.28 3 15:36 18.11.2019
4168 Clear 6 1022 30 0 3.28 3 15:18 18.11.2019
4169 Clear 6 1022 30 0 3.28 3 14:41 18.11.2019
4170 Clear 7 1019 49 0 2.32 19 14:23 18.11.2019
4171 Clear 7 1019 49 0 2.32 19 13:48 18.11.2019
4172 Clear 7 1019 49 0 2.32 19 13:48 18.11.2019
4173 Clear 7 1019 47 0 2.28 18 13:28 18.11.2019
4174 Clear 7 1019 47 0 2.28 18 12:58 18.11.2019
4175 Clear 7 1019 47 0 2.28 18 12:38 18.11.2019
4176 Clear 7 1019 47 0 2.28 18 12:19 18.11.2019
4177 Clear 7 1019 47 0 2.28 18 11:44 18.11.2019
4178 Clear 7 1019 47 0 2.28 18 11:25 18.11.2019
4179 Clear 14 1018 25 0 2.4 209 10:56 18.11.2019
4180 Clear 14 1018 25 0 2.4 209 10:56 18.11.2019
4181 Clear 14 1018 25 0 2.4 209 10:38 18.11.2019
4182 Clear 14 1018 25 0 2.4 209 10:18 18.11.2019
4183 Clear 14 1018 25 0 2.4 209 09:55 18.11.2019
4184 Clear 14 1018 25 0 2.4 209 09:36 18.11.2019
4185 Clear 14 1018 25 0 2.4 209 09:18 18.11.2019
4186 Clear 14 1018 25 0 2.4 209 08:43 18.11.2019
4187 Clear 15 1020 17 0 1.96 229 08:20 18.11.2019
4188 Clear 15 1020 17 0 1.92 224 07:48 18.11.2019
4189 Clear 15 1020 17 0 1.92 224 07:48 18.11.2019
4190 Clear 15 1020 17 0 1.92 224 07:48 18.11.2019
4191 Clear 15 1020 17 0 1.92 224 07:29 18.11.2019
4192 Clear 15 1020 17 0 1.92 224 06:56 18.11.2019
4193 Clear 15 1020 17 0 1.92 224 06:33 18.11.2019
4194 Clear 15 1020 17 0 1.92 224 05:52 18.11.2019
4195 Clear 10 1024 24 0 1.99 1 04:58 18.11.2019
4196 Clear 10 1024 24 0 1.99 1 02:59 18.11.2019
4197 Clear 5 1022 15 0 3.91 1 01:31 18.11.2019
4198 Clear 5 1022 16 0 3.76 1 00:35 18.11.2019
4199 Clear 5 1022 16 0 3.76 1 23:45 17.11.2019
4200 Clear 5 1022 16 0 3.76 1 23:25 17.11.2019
4201 Clear 6 1023 20 0 3.66 358 22:59 17.11.2019
4202 Clear 6 1023 20 0 3.66 358 22:41 17.11.2019
4203 Clear 6 1023 20 0 3.66 358 22:23 17.11.2019
4204 Clear 6 1023 20 0 3.66 358 21:59 17.11.2019
4205 Clear 6 1023 20 0 3.66 358 21:41 17.11.2019
4206 Clear 6 1023 20 0 3.66 358 21:19 17.11.2019
4207 Clear 6 1023 20 0 3.66 358 21:19 17.11.2019
4208 Clear 6 1023 20 0 3.66 358 20:57 17.11.2019
4209 Clear 6 1023 20 0 3.66 358 20:38 17.11.2019
4210 Clear 6 1023 25 0 3.22 4 20:19 17.11.2019
4211 Clear 6 1023 25 0 3.22 4 19:56 17.11.2019
4212 Clear 6 1023 25 0 3.22 4 19:38 17.11.2019
4213 Clear 6 1023 25 0 3.22 4 19:20 17.11.2019
4214 Clear 6 1023 25 0 3.22 4 18:56 17.11.2019
4215 Clear 6 1023 25 0 3.22 4 18:38 17.11.2019
4216 Clear 6 1023 25 0 3.22 4 18:19 17.11.2019
4217 Clear 6 1023 25 0 3.22 4 17:57 17.11.2019
4218 Clear 6 1023 25 0 3.22 4 17:39 17.11.2019
4219 Clear 7 1023 33 0 3.61 13 17:20 17.11.2019
4220 Clear 7 1023 33 0 3.61 13 16:58 17.11.2019
4221 Clear 7 1023 33 0 3.61 13 16:40 17.11.2019
4222 Clear 7 1023 33 0 3.61 13 16:21 17.11.2019
4223 Clear 7 1023 33 0 3.61 13 15:55 17.11.2019
4224 Clear 7 1023 33 0 3.61 13 15:37 17.11.2019
4225 Clear 7 1023 33 0 3.61 13 15:18 17.11.2019
4226 Clear 7 1023 33 0 3.61 13 14:56 17.11.2019
4227 Clear 7 1023 33 0 3.61 13 14:37 17.11.2019
4228 Clear 8 1021 57 0 1.97 13 14:19 17.11.2019
4229 Clear 8 1021 57 0 1.97 13 13:55 17.11.2019
4230 Clear 8 1021 57 0 1.97 13 13:37 17.11.2019
4231 Clear 8 1021 57 0 1.97 13 13:18 17.11.2019
4232 Clear 8 1021 57 0 2.16 13 13:18 17.11.2019
4233 Clear 8 1021 57 0 2.16 13 12:44 17.11.2019
4234 Clear 8 1021 57 0 2.16 13 12:22 17.11.2019
4235 Clear 8 1021 57 0 2.16 13 11:57 17.11.2019
4236 Clear 8 1021 57 0 2.16 13 11:39 17.11.2019
4237 Clear 15 1020 31 0 2.16 219 11:20 17.11.2019
4238 Clear 15 1020 31 0 2.16 219 10:44 17.11.2019
4239 Clear 15 1020 31 0 2.16 219 10:23 17.11.2019
4240 Clear 15 1020 31 0 2.16 219 09:58 17.11.2019
4241 Clear 15 1020 31 0 2.16 219 09:39 17.11.2019
4242 Clear 15 1020 31 0 2.16 219 09:21 17.11.2019
4243 Clear 15 1020 31 0 2.16 219 08:40 17.11.2019
4244 Clouds 15 1023 25 0 0.9 213 08:22 17.11.2019
4245 Clouds 15 1023 25 0 0.9 213 07:55 17.11.2019
4246 Clouds 15 1023 25 0 0.9 213 07:37 17.11.2019
4247 Clouds 15 1023 25 0 0.9 213 07:18 17.11.2019
4248 Clouds 15 1023 25 0 0.9 213 06:44 17.11.2019
4249 Clouds 15 1023 25 0 0.9 213 06:25 17.11.2019
4250 Clouds 10 1026 39 0 2.22 19 04:38 17.11.2019
4251 Clouds 10 1026 39 0 2.22 19 04:38 17.11.2019
4252 Clouds 10 1026 39 0 2.22 19 03:51 17.11.2019
4253 Clouds 10 1026 39 0 2.22 19 03:32 17.11.2019
4254 Clouds 10 1026 39 0 2.22 19 02:31 17.11.2019
4255 Clouds 6 1025 42 0 3.66 8 01:43 17.11.2019
4256 Clouds 7 1025 41 0 3.46 9 00:55 17.11.2019
4257 Clouds 7 1025 41 0 3.46 9 00:23 17.11.2019
4258 Clouds 7 1025 41 0 3.46 9 23:52 16.11.2019
4259 Clouds 7 1025 44 0 4.34 14 23:20 16.11.2019
4260 Clouds 7 1025 44 0 4.34 14 22:59 16.11.2019
4261 Clouds 7 1025 44 0 4.34 14 22:41 16.11.2019
4262 Clouds 7 1025 44 0 4.34 14 22:20 16.11.2019
4263 Clouds 7 1025 44 0 4.34 14 22:20 16.11.2019
4264 Clouds 7 1025 44 0 4.34 14 21:57 16.11.2019
4265 Clouds 7 1025 44 0 4.34 14 21:38 16.11.2019
4266 Clouds 7 1025 44 0 4.34 14 21:20 16.11.2019
4267 Clouds 7 1025 44 0 4.34 14 20:56 16.11.2019
4268 Clouds 7 1025 44 0 4.34 14 20:38 16.11.2019
4269 Clouds 7 1025 53 0 4 13 20:18 16.11.2019
4270 Clouds 7 1025 53 0 4 13 19:41 16.11.2019
4271 Clouds 7 1025 53 0 4 13 19:22 16.11.2019
4272 Clouds 7 1025 53 0 4 13 18:56 16.11.2019
4273 Clouds 7 1025 53 0 4 13 18:38 16.11.2019
4274 Clouds 7 1025 53 0 4 13 18:20 16.11.2019
4275 Clouds 7 1025 53 0 4 13 17:39 16.11.2019
4276 Clouds 7 1024 57 0 4.43 11 17:21 16.11.2019
4277 Clouds 7 1024 57 0 4.43 11 16:59 16.11.2019
4278 Clouds 7 1024 57 0 4.43 11 16:59 16.11.2019
4279 Clouds 7 1024 57 0 4.43 11 16:41 16.11.2019
4280 Clouds 7 1024 57 0 4.43 11 16:22 16.11.2019
4281 Clouds 7 1024 57 0 4.43 11 15:42 16.11.2019
4282 Clouds 7 1024 57 0 4.43 11 15:24 16.11.2019
4283 Clouds 7 1024 57 0 4.43 11 15:24 16.11.2019
4284 Clouds 7 1024 57 0 4.43 11 14:59 16.11.2019
4285 Clouds 7 1024 57 0 4.43 11 14:40 16.11.2019
4286 Rain 8 1021 59 0 4.45 6 14:21 16.11.2019
4287 Rain 8 1021 59 0 4.45 6 13:56 16.11.2019
4288 Rain 8 1021 59 0 4.45 6 13:38 16.11.2019
4289 Rain 7 1021 66 0 3.35 21 13:19 16.11.2019
4290 Rain 7 1021 66 0 3.35 21 12:57 16.11.2019
4291 Rain 7 1021 66 0 3.35 21 12:57 16.11.2019
4292 Rain 7 1021 66 0 3.35 21 12:57 16.11.2019
4293 Rain 7 1021 66 0 3.35 21 12:39 16.11.2019
4294 Rain 7 1021 66 0 3.35 21 12:20 16.11.2019
4295 Rain 7 1021 66 0 3.35 21 11:44 16.11.2019
4296 Rain 7 1021 66 0 3.35 21 11:26 16.11.2019
4297 Rain 8 1019 72 0 3.55 2 10:57 16.11.2019
4298 Rain 8 1019 72 0 3.55 2 10:39 16.11.2019
4299 Rain 8 1019 72 0 3.55 2 10:20 16.11.2019
4300 Rain 8 1019 72 0 3.55 2 09:43 16.11.2019
4301 Rain 8 1019 72 0 3.55 2 09:21 16.11.2019
4302 Rain 8 1019 72 0 3.55 2 08:58 16.11.2019
4303 Rain 8 1019 72 0 3.55 2 08:38 16.11.2019
4304 Rain 13 1022 43 0 0.45 337 08:19 16.11.2019
4305 Rain 13 1022 43 0 0.45 337 07:43 16.11.2019
4306 Rain 13 1022 43 0 0.45 337 07:21 16.11.2019
4307 Rain 13 1022 43 0 0.45 337 06:52 16.11.2019
4308 Rain 13 1022 43 0 0.45 337 06:33 16.11.2019
4309 Rain 13 1022 43 0 0.45 337 05:30 16.11.2019
4310 Rain 7 1022 68 0 4.42 2 03:49 16.11.2019
4311 Rain 7 1022 68 0 4.42 2 03:25 16.11.2019
4312 Rain 7 1022 68 0 4.42 2 03:25 16.11.2019
4313 Rain 8 1021 56 0 3.18 357 01:52 16.11.2019
4314 Rain 7 1021 62 0 3.12 359 01:20 16.11.2019
4315 Rain 7 1021 62 0 3.12 359 00:46 16.11.2019
4316 Rain 7 1021 62 0 3.12 359 00:26 16.11.2019
4317 Rain 7 1021 62 0 3.12 359 23:40 15.11.2019
4318 Rain 7 1021 64 0 3.5 4 23:21 15.11.2019
4319 Rain 7 1021 64 0 3.5 4 22:57 15.11.2019
4320 Rain 7 1021 64 0 3.5 4 22:38 15.11.2019
4321 Rain 7 1021 64 0 3.5 4 22:18 15.11.2019
4322 Rain 7 1021 64 0 3.5 4 21:54 15.11.2019
4323 Rain 7 1021 64 0 3.5 4 21:36 15.11.2019
4324 Rain 7 1021 64 0 3.5 4 21:18 15.11.2019
4325 Rain 7 1021 64 0 3.5 4 20:54 15.11.2019
4326 Rain 7 1021 64 0 3.5 4 20:36 15.11.2019
4327 Rain 7 1023 62 0 2.55 49 20:18 15.11.2019
4328 Rain 7 1022 61 0 3.38 36 19:56 15.11.2019
4329 Rain 7 1022 61 0 3.38 36 19:36 15.11.2019
4330 Rain 7 1022 61 0 3.38 36 19:18 15.11.2019
4331 Rain 7 1022 61 0 3.38 36 18:42 15.11.2019
4332 Rain 7 1022 61 0 3.38 36 18:23 15.11.2019
4333 Rain 7 1022 61 0 3.38 36 17:55 15.11.2019
4334 Rain 7 1022 61 0 3.38 36 17:55 15.11.2019
4335 Rain 7 1022 61 0 3.38 36 17:37 15.11.2019
4336 Clouds 8 1022 53 0 2.92 16 17:19 15.11.2019
4337 Clouds 8 1022 53 0 2.92 16 16:40 15.11.2019
4338 Clouds 8 1022 53 0 2.92 16 16:22 15.11.2019
4339 Clouds 8 1022 53 0 2.92 16 16:00 15.11.2019
4340 Clouds 8 1022 53 0 2.92 16 16:00 15.11.2019
4341 Clouds 8 1022 53 0 2.92 16 16:00 15.11.2019
4342 Clouds 8 1022 53 0 2.92 16 15:37 15.11.2019
4343 Clouds 8 1022 53 0 2.92 16 15:18 15.11.2019
4344 Clouds 8 1022 53 0 2.92 16 14:56 15.11.2019
4345 Clouds 8 1022 53 0 2.92 16 14:37 15.11.2019
4346 Rain 8 1021 59 0 1.71 28 14:18 15.11.2019
4347 Rain 8 1021 59 0 1.71 28 13:55 15.11.2019
4348 Rain 8 1021 59 0 1.71 28 13:55 15.11.2019
4349 Rain 8 1021 59 0 1.71 28 13:36 15.11.2019
4350 Clouds 8 1020 58 0 2.27 24 13:18 15.11.2019
4351 Clouds 8 1020 58 0 2.27 24 12:56 15.11.2019
4352 Clouds 8 1020 58 0 2.27 24 12:37 15.11.2019
4353 Clouds 8 1020 58 0 2.27 24 12:18 15.11.2019
4354 Clouds 8 1020 58 0 2.27 24 12:18 15.11.2019
4355 Clouds 8 1020 58 0 2.27 24 11:40 15.11.2019
4356 Clouds 12 1020 44 0 1.33 49 11:21 15.11.2019
4357 Clouds 12 1020 44 0 1.33 49 11:21 15.11.2019
4358 Clouds 12 1020 44 0 1.33 49 10:59 15.11.2019
4359 Clouds 12 1020 44 0 1.33 49 10:39 15.11.2019
4360 Clouds 12 1020 44 0 1.33 49 10:21 15.11.2019
4361 Clouds 12 1020 44 0 1.33 49 09:42 15.11.2019
4362 Clouds 12 1020 44 0 1.33 49 09:21 15.11.2019
4363 Clouds 12 1020 44 0 1.33 49 08:58 15.11.2019
4364 Clouds 12 1020 44 0 1.33 49 08:40 15.11.2019
4365 Rain 11 1022 46 0 1.85 16 08:21 15.11.2019
4366 Rain 11 1022 45 0 3.11 12 07:45 15.11.2019
4367 Rain 11 1022 45 0 3.11 12 07:26 15.11.2019
4368 Rain 11 1022 45 0 3.11 12 06:36 15.11.2019
4369 Rain 11 1022 45 0 3.11 12 05:57 15.11.2019
4370 Rain 11 1022 45 0 3.11 12 05:38 15.11.2019
4371 Clouds 9 1023 50 0 2.65 49 04:55 15.11.2019
4372 Clouds 9 1023 50 0 2.65 49 03:46 15.11.2019
4373 Clouds 9 1023 50 0 2.65 49 02:44 15.11.2019
4374 Clouds 8 1022 44 0 3.76 9 01:58 15.11.2019
4375 Clouds 8 1022 44 0 3.76 9 01:32 15.11.2019
4376 Clouds 8 1022 48 0 4.09 17 01:32 15.11.2019
4377 Clouds 8 1022 48 0 4.09 17 00:46 15.11.2019
4378 Clouds 8 1022 48 0 4.09 17 00:27 15.11.2019
4379 Clouds 8 1022 48 0 4.09 17 23:49 14.11.2019
4380 Clouds 8 1022 48 0 4.09 17 23:27 14.11.2019
4381 Clouds 8 1023 48 0 4.77 13 22:57 14.11.2019
4382 Clouds 8 1023 48 0 4.77 13 22:39 14.11.2019
4383 Clouds 8 1023 48 0 4.77 13 22:19 14.11.2019
4384 Clouds 8 1023 48 0 4.77 13 21:42 14.11.2019
4385 Clouds 8 1023 48 0 4.77 13 21:23 14.11.2019
4386 Clouds 8 1023 48 0 4.77 13 20:57 14.11.2019
4387 Clouds 8 1023 48 0 4.77 13 20:39 14.11.2019
4388 Clouds 9 1025 39 0 3.68 22 20:21 14.11.2019
4389 Clouds 8 1025 47 0 4.69 19 19:58 14.11.2019
4390 Clouds 8 1025 47 0 4.69 19 19:40 14.11.2019
4391 Clouds 8 1025 47 0 4.69 19 19:18 14.11.2019
4392 Clouds 8 1025 47 0 4.69 19 18:54 14.11.2019
4393 Clouds 8 1025 47 0 4.69 19 18:36 14.11.2019
4394 Clouds 8 1025 47 0 4.69 19 18:18 14.11.2019
4395 Clouds 8 1025 47 0 4.69 19 17:38 14.11.2019
4396 Clouds 8 1025 43 0 3.24 17 17:20 14.11.2019
4397 Clouds 8 1025 43 0 3.24 17 16:58 14.11.2019
4398 Clouds 8 1025 43 0 3.24 17 16:39 14.11.2019
4399 Clouds 8 1025 43 0 3.24 17 16:21 14.11.2019
4400 Clouds 8 1025 43 0 3.24 17 15:59 14.11.2019
4401 Clouds 8 1025 43 0 3.24 17 15:41 14.11.2019
4402 Clouds 8 1025 43 0 3.24 17 15:22 14.11.2019
4403 Clouds 8 1025 43 0 3.24 17 14:58 14.11.2019
4404 Clouds 8 1025 43 0 3.24 17 14:40 14.11.2019
4405 Clouds 8 1025 43 0 3.24 17 14:40 14.11.2019
4406 Clouds 9 1023 59 0 1.3 349 14:22 14.11.2019
4407 Clouds 9 1023 59 0 1.3 349 13:55 14.11.2019
4408 Clouds 9 1023 59 0 1.3 349 13:36 14.11.2019
4409 Clouds 9 1023 59 0 1.3 349 13:18 14.11.2019
4410 Clouds 9 1023 62 0 1.22 8 12:45 14.11.2019
4411 Clouds 9 1023 62 0 1.22 8 12:25 14.11.2019
4412 Clouds 9 1023 62 0 1.22 8 11:58 14.11.2019
4413 Clouds 9 1023 62 0 1.22 8 11:38 14.11.2019
4414 Clouds 13 1021 39 0 1.75 288 11:19 14.11.2019
4415 Clouds 13 1021 39 0 1.75 288 10:57 14.11.2019
4416 Clouds 13 1021 39 0 1.75 288 10:37 14.11.2019
4417 Clouds 13 1021 39 0 1.75 288 10:19 14.11.2019
4418 Clouds 13 1021 39 0 1.75 288 09:55 14.11.2019
4419 Clouds 13 1021 39 0 1.75 288 09:37 14.11.2019
4420 Clouds 13 1021 39 0 1.75 288 09:18 14.11.2019
4421 Clouds 13 1021 39 0 1.75 288 08:46 14.11.2019
4422 Clouds 13 1021 39 0 1.75 288 08:46 14.11.2019
4423 Rain 10 1024 47 0 6.03 14 08:23 14.11.2019
4424 Rain 10 1024 47 0 6.03 14 07:42 14.11.2019
4425 Rain 10 1024 47 0 6.03 14 07:24 14.11.2019
4426 Rain 10 1024 47 0 6.03 14 06:55 14.11.2019
4427 Rain 10 1024 47 0 6.03 14 06:36 14.11.2019
4428 Rain 10 1024 47 0 6.03 14 06:18 14.11.2019
4429 Rain 11 1025 39 0 2.01 21 04:39 14.11.2019
4430 Rain 11 1025 39 0 2.01 21 03:50 14.11.2019
4431 Rain 11 1025 39 0 2.01 21 02:41 14.11.2019
4432 Clouds 9 1023 31 0 2.46 351 01:41 14.11.2019
4433 Clouds 9 1023 32 0 2.34 347 00:58 14.11.2019
4434 Clouds 9 1023 32 0 2.34 347 00:40 14.11.2019
4435 Clouds 9 1023 32 0 2.34 347 00:20 14.11.2019
4436 Clouds 9 1023 32 0 2.34 347 23:39 13.11.2019
4437 Clouds 9 1024 38 0 2.46 358 23:20 13.11.2019
4438 Clouds 9 1024 38 0 2.46 358 22:55 13.11.2019
4439 Clouds 9 1024 38 0 2.46 358 22:37 13.11.2019
4440 Clouds 9 1024 38 0 2.46 358 22:19 13.11.2019
4441 Clouds 9 1024 38 0 2.46 358 21:55 13.11.2019
4442 Clouds 9 1024 38 0 2.46 358 21:37 13.11.2019
4443 Clouds 9 1024 38 0 2.46 358 21:18 13.11.2019
4444 Clouds 9 1024 38 0 2.46 358 20:55 13.11.2019
4445 Clouds 9 1024 38 0 2.46 358 20:37 13.11.2019
4446 Clouds 9 1025 36 0 2.18 357 20:18 13.11.2019
4447 Clouds 9 1025 36 0 2.18 357 19:43 13.11.2019
4448 Clouds 9 1025 36 0 2.18 357 19:20 13.11.2019
4449 Clouds 9 1025 36 0 2.18 357 18:57 13.11.2019
4450 Clouds 9 1025 36 0 2.18 357 18:39 13.11.2019
4451 Clouds 9 1025 36 0 2.18 357 18:21 13.11.2019
4452 Clouds 9 1025 36 0 2.18 357 17:58 13.11.2019
4453 Clouds 9 1025 36 0 2.18 357 17:39 13.11.2019
4454 Clouds 9 1024 37 0 1.81 358 17:21 13.11.2019
4455 Clouds 9 1024 40 0 1.38 344 16:58 13.11.2019
4456 Clouds 9 1024 37 0 1.81 358 16:39 13.11.2019
4457 Clouds 9 1024 40 0 1.38 344 16:39 13.11.2019
4458 Clouds 9 1024 37 0 1.81 358 16:39 13.11.2019
4459 Clouds 9 1024 37 0 1.81 358 16:39 13.11.2019
4460 Clouds 9 1024 37 0 1.81 358 16:21 13.11.2019
4461 Clouds 9 1024 37 0 1.81 358 15:58 13.11.2019
4462 Clouds 9 1024 40 0 1.38 344 15:39 13.11.2019
4463 Clouds 9 1024 40 0 1.38 344 15:20 13.11.2019
4464 Clouds 9 1024 40 0 1.38 344 14:42 13.11.2019
4465 Clouds 9 1022 49 0 1.82 31 14:22 13.11.2019
4466 Clouds 9 1022 49 0 1.82 31 13:58 13.11.2019
4467 Clouds 9 1022 49 0 1.82 31 13:36 13.11.2019
4468 Clouds 9 1022 51 0 2 37 13:18 13.11.2019
4469 Clouds 9 1022 51 0 2 37 12:54 13.11.2019
4470 Clouds 9 1022 51 0 2 37 12:36 13.11.2019
4471 Clouds 9 1022 51 0 2 37 12:36 13.11.2019
4472 Clouds 9 1022 51 0 2 37 12:18 13.11.2019
4473 Clouds 9 1022 51 0 2 37 11:40 13.11.2019
4474 Clouds 13 1020 34 0 1.88 217 11:20 13.11.2019
4475 Clouds 13 1020 34 0 1.88 217 10:58 13.11.2019
4476 Clouds 13 1020 34 0 1.88 217 10:40 13.11.2019
4477 Clouds 13 1020 34 0 1.88 217 10:20 13.11.2019
4478 Clouds 13 1020 34 0 1.88 217 09:55 13.11.2019
4479 Clouds 13 1020 34 0 1.88 217 09:55 13.11.2019
4480 Clouds 13 1020 34 0 1.88 217 09:37 13.11.2019
4481 Clouds 13 1020 34 0 1.88 217 09:19 13.11.2019
4482 Clouds 13 1020 34 0 1.88 217 08:39 13.11.2019
4483 Clouds 14 1023 26 0 2.08 219 08:20 13.11.2019
4484 Clouds 14 1023 26 0 2.08 219 07:42 13.11.2019
4485 Clouds 14 1023 26 0 2.08 219 07:21 13.11.2019
4486 Clouds 14 1023 26 0 2.08 219 06:46 13.11.2019
4487 Clouds 14 1023 26 0 2.08 219 06:19 13.11.2019
4488 Clouds 14 1023 26 0 2.08 219 06:19 13.11.2019
4489 Clouds 14 1023 26 0 2.08 219 06:19 13.11.2019
4490 Clouds 14 1023 26 0 2.08 219 05:54 13.11.2019
4491 Clouds 14 1023 26 0 2.08 219 05:34 13.11.2019
4492 Clouds 11 1024 31 0 1.75 357 04:44 13.11.2019
4493 Clouds 8 1024 28 0 3.36 0 02:19 13.11.2019
4494 Clouds 8 1024 28 0 3.36 0 01:45 13.11.2019
4495 Clouds 8 1023 28 0 3.35 3 00:52 13.11.2019
4496 Clouds 8 1023 28 0 3.35 3 00:34 13.11.2019
4497 Clouds 8 1023 28 0 3.35 3 23:42 12.11.2019
4498 Clouds 8 1023 31 0 3.05 3 23:21 12.11.2019
4499 Clouds 8 1023 31 0 3.05 3 22:56 12.11.2019
4500 Clouds 8 1023 31 0 3.05 3 22:37 12.11.2019
4501 Clouds 8 1023 31 0 3.05 3 22:18 12.11.2019
4502 Clouds 8 1023 31 0 3.05 3 21:44 12.11.2019
4503 Clouds 8 1023 31 0 3.05 3 21:25 12.11.2019
4504 Clouds 8 1023 31 0 3.05 3 20:58 12.11.2019
4505 Clouds 8 1023 31 0 3.05 3 20:38 12.11.2019
4506 Clouds 9 1024 32 0 2.8 5 20:19 12.11.2019
4507 Clouds 9 1024 32 0 2.8 5 19:58 12.11.2019
4508 Clouds 9 1024 32 0 2.8 5 19:39 12.11.2019
4509 Clouds 9 1024 32 0 2.8 5 19:19 12.11.2019
4510 Clouds 9 1024 32 0 2.8 5 18:59 12.11.2019
4511 Clouds 9 1024 32 0 2.8 5 18:40 12.11.2019
4512 Clouds 9 1024 32 0 2.8 5 18:22 12.11.2019
4513 Clouds 9 1024 32 0 2.8 5 17:58 12.11.2019
4514 Clouds 9 1024 32 0 2.8 5 17:39 12.11.2019
4515 Clouds 10 1023 33 0 2.58 11 17:21 12.11.2019
4516 Clouds 10 1023 33 0 2.58 11 16:59 12.11.2019
4517 Clouds 10 1023 33 0 2.58 11 16:39 12.11.2019
4518 Clouds 10 1023 33 0 2.58 11 16:21 12.11.2019
4519 Clouds 10 1023 33 0 2.58 11 15:42 12.11.2019
4520 Clouds 10 1023 33 0 2.58 11 15:42 12.11.2019
4521 Clouds 10 1023 33 0 2.58 11 15:21 12.11.2019
4522 Clouds 10 1023 33 0 2.58 11 14:57 12.11.2019
4523 Clouds 10 1023 33 0 2.58 11 14:38 12.11.2019
4524 Clouds 10 1020 54 0 1.51 14 14:19 12.11.2019
4525 Clouds 10 1020 54 0 1.51 14 13:56 12.11.2019
4526 Clouds 10 1020 54 0 1.51 14 13:37 12.11.2019
4527 Clouds 10 1020 54 0 1.51 14 13:37 12.11.2019
4528 Clouds 10 1020 53 0 1.57 17 13:19 12.11.2019
4529 Clouds 10 1020 53 0 1.57 17 12:43 12.11.2019
4530 Clouds 10 1020 53 0 1.47 18 12:20 12.11.2019
4531 Clouds 10 1020 53 0 1.57 17 12:20 12.11.2019
4532 Clouds 10 1020 53 0 1.47 18 11:59 12.11.2019
4533 Clouds 10 1020 53 0 1.57 17 11:41 12.11.2019
4534 Clouds 15 1018 31 0 1.97 218 11:22 12.11.2019
4535 Clouds 15 1018 31 0 1.97 218 10:57 12.11.2019
4536 Clouds 15 1018 31 0 1.86 215 10:39 12.11.2019
4537 Clouds 15 1018 31 0 1.97 218 10:21 12.11.2019
4538 Clouds 15 1018 31 0 1.97 218 09:56 12.11.2019
4539 Clouds 15 1018 31 0 1.97 218 09:38 12.11.2019
4540 Clouds 15 1018 31 0 1.86 215 09:18 12.11.2019
4541 Clouds 15 1018 31 0 1.97 218 08:42 12.11.2019
4542 Clouds 15 1018 31 0 1.86 215 08:24 12.11.2019
4543 Clouds 16 1020 25 0 1.42 207 07:41 12.11.2019
4544 Clouds 16 1020 25 0 1.42 207 07:23 12.11.2019
4545 Clouds 16 1020 25 0 1.42 207 06:47 12.11.2019
4546 Clouds 16 1020 25 0 1.42 207 06:23 12.11.2019
4547 Clouds 16 1020 25 0 1.42 207 06:23 12.11.2019
4548 Clouds 16 1020 25 0 1.42 207 05:49 12.11.2019
4549 Clouds 11 1022 36 0 2.51 17 04:50 12.11.2019
4550 -273 0 0 0 0 0 03:53 12.11.2019
4551 Clouds 7 1020 35 0 3.61 10 01:49 12.11.2019
4552 Clouds 7 1020 34 0 3.61 12 01:23 12.11.2019
4553 Clouds 7 1020 34 0 3.61 12 00:51 12.11.2019
4554 Clouds 7 1020 34 0 3.61 12 00:32 12.11.2019
4555 Clouds 7 1020 34 0 3.61 12 23:48 11.11.2019
4556 Clouds 7 1020 34 0 3.61 12 23:25 11.11.2019
4557 Clouds 7 1020 40 0 3.44 17 22:58 11.11.2019
4558 Clouds 7 1020 40 0 3.44 17 22:38 11.11.2019
4559 Clouds 7 1020 40 0 3.44 17 22:19 11.11.2019
4560 Clouds 7 1020 40 0 3.44 17 21:58 11.11.2019
4561 Clouds 7 1020 40 0 3.44 17 21:39 11.11.2019
4562 Clouds 7 1020 40 0 3.44 17 21:20 11.11.2019
4563 Clouds 7 1020 40 0 3.44 17 21:20 11.11.2019
4564 Clouds 7 1020 40 0 3.44 17 20:55 11.11.2019
4565 Clouds 7 1020 40 0 3.44 17 20:36 11.11.2019
4566 Clouds 9 1021 36 0 3.9 14 20:18 11.11.2019
4567 Clouds 9 1021 33 0 2.61 13 19:42 11.11.2019
4568 Clouds 9 1021 33 0 2.61 13 19:19 11.11.2019
4569 Clouds 9 1021 33 0 2.61 13 18:57 11.11.2019
4570 Clouds 9 1021 33 0 2.61 13 18:39 11.11.2019
4571 Clouds 9 1021 33 0 2.61 13 18:20 11.11.2019
4572 Clouds 9 1021 33 0 2.61 13 17:44 11.11.2019
4573 Clouds 9 1021 33 0 2.61 13 17:26 11.11.2019
4574 Clouds 8 1021 33 0 5.05 19 16:55 11.11.2019
4575 Clouds 8 1021 33 0 5.05 19 16:37 11.11.2019
4576 Clouds 8 1021 33 0 5.05 19 16:37 11.11.2019
4577 Clouds 8 1021 33 0 5.05 19 16:19 11.11.2019
4578 Clouds 8 1021 33 0 5.05 19 15:41 11.11.2019
4579 Clouds 8 1021 33 0 5.05 19 15:20 11.11.2019
4580 Clouds 8 1021 33 0 5.05 19 14:55 11.11.2019
4581 Clouds 8 1021 33 0 5.05 19 14:37 11.11.2019
4582 Clouds 9 1019 41 0 2.25 31 14:18 11.11.2019
4583 Clouds 9 1019 41 0 2.25 31 14:18 11.11.2019
4584 Clouds 9 1019 41 0 2.25 31 13:40 11.11.2019
4585 Clouds 9 1019 42 0 2.11 33 13:21 11.11.2019
4586 Clouds 9 1019 42 0 2.11 33 12:58 11.11.2019
4587 Clouds 9 1019 42 0 2.11 33 12:40 11.11.2019
4588 Clouds 9 1019 42 0 2.11 33 12:22 11.11.2019
4589 Clouds 9 1019 42 0 2.11 33 11:58 11.11.2019
4590 Clouds 9 1019 42 0 2.11 33 11:40 11.11.2019
4591 Clouds 12 1018 32 0 0.99 198 11:21 11.11.2019
4592 Clouds 12 1018 32 0 0.99 198 11:21 11.11.2019
4593 Clouds 12 1018 32 0 0.99 198 10:43 11.11.2019
4594 Clouds 12 1018 32 0 0.99 198 10:19 11.11.2019
4595 Clouds 12 1018 32 0 0.99 198 09:58 11.11.2019
4596 Clouds 12 1018 32 0 0.99 198 09:39 11.11.2019
4597 Clouds 12 1018 32 0 0.99 198 09:39 11.11.2019
4598 Clouds 12 1018 32 0 0.99 198 09:19 11.11.2019
4599 Clouds 12 1018 32 0 0.99 198 08:41 11.11.2019
4600 Clouds 13 1019 26 0 1.71 209 08:22 11.11.2019
4601 Clouds 13 1019 26 0 1.71 209 08:22 11.11.2019
4602 Clouds 13 1019 26 0 1.71 209 07:57 11.11.2019
4603 Clouds 13 1019 26 0 1.71 209 07:37 11.11.2019
4604 Clouds 13 1019 26 0 1.71 209 07:37 11.11.2019
4605 Clouds 13 1019 26 0 1.71 209 07:19 11.11.2019
4606 Clouds 13 1019 26 0 1.71 209 06:49 11.11.2019
4607 Clouds 13 1019 26 0 1.71 209 06:24 11.11.2019
4608 Clouds 13 1019 26 0 1.71 209 05:51 11.11.2019
4609 Clouds 10 1020 30 0 1.85 3 04:50 11.11.2019
4610 Clouds 10 1020 30 0 1.85 3 03:25 11.11.2019
4611 Clouds 10 1020 30 0 1.85 3 02:30 11.11.2019
4612 Clouds 6 1019 25 0 3.21 358 01:57 11.11.2019
4613 Clouds 6 1019 25 0 3.21 358 01:36 11.11.2019
4614 Clouds 6 1019 25 0 3.29 359 00:53 11.11.2019
4615 Clouds 6 1019 25 0 3.29 359 00:29 11.11.2019
4616 Clouds 6 1019 25 0 3.29 359 23:57 10.11.2019
4617 Clouds 6 1019 25 0 3.29 359 23:37 10.11.2019
4618 Clouds 6 1020 30 0 3.5 7 23:19 10.11.2019
4619 Clouds 6 1020 30 0 3.5 7 22:55 10.11.2019
4620 Clouds 6 1020 30 0 3.5 7 22:36 10.11.2019
4621 Clouds 6 1020 30 0 3.5 7 22:18 10.11.2019
4622 Clouds 6 1020 30 0 3.5 7 21:55 10.11.2019
4623 Clouds 6 1020 30 0 3.5 7 21:36 10.11.2019
4624 Clouds 6 1020 30 0 3.5 7 21:18 10.11.2019
4625 Clouds 6 1020 30 0 3.5 7 20:40 10.11.2019
4626 Clouds 6 1020 30 0 3.06 4 20:22 10.11.2019
4627 Clouds 6 1020 30 0 3.06 4 19:56 10.11.2019
4628 Clouds 6 1020 30 0 3.06 4 19:37 10.11.2019
4629 Clouds 6 1020 30 0 3.06 4 19:18 10.11.2019
4630 Clouds 6 1020 30 0 3.06 4 18:57 10.11.2019
4631 Clouds 6 1020 30 0 3.06 4 18:57 10.11.2019
4632 Clouds 6 1020 30 0 3.06 4 18:38 10.11.2019
4633 Clouds 6 1020 30 0 3.06 4 18:19 10.11.2019
4634 Clouds 6 1020 30 0 3.06 4 17:56 10.11.2019
4635 Clouds 6 1020 30 0 3.06 4 17:38 10.11.2019
4636 Clear 6 1021 39 0 3.41 12 17:19 10.11.2019
4637 Clear 6 1021 39 0 3.41 12 16:57 10.11.2019
4638 Clear 6 1021 39 0 3.41 12 16:38 10.11.2019
4639 Clear 6 1021 39 0 3.41 12 16:19 10.11.2019
4640 Clear 6 1021 39 0 3.41 12 15:55 10.11.2019
4641 Clear 6 1021 39 0 3.41 12 15:36 10.11.2019
4642 Clear 6 1021 39 0 3.41 12 15:18 10.11.2019
4643 Clear 6 1021 39 0 3.41 12 15:18 10.11.2019
4644 Clear 6 1021 39 0 3.41 12 14:41 10.11.2019
4645 Clear 6 1018 60 0 1.26 351 14:22 10.11.2019
4646 Clear 6 1018 60 0 1.26 351 13:58 10.11.2019
4647 Clear 6 1018 60 0 1.26 351 13:40 10.11.2019
4648 Clear 6 1018 59 0 1.34 358 13:20 10.11.2019
4649 Clear 6 1018 59 0 1.34 358 12:43 10.11.2019
4650 Clear 6 1018 59 0 1.34 358 12:20 10.11.2019
4651 Clear 6 1018 59 0 1.34 358 11:57 10.11.2019
4652 Clear 6 1018 59 0 1.34 358 11:38 10.11.2019
4653 Clear 13 1017 33 0 2.69 218 11:20 10.11.2019
4654 Clear 13 1017 33 0 2.69 218 10:59 10.11.2019
4655 Clear 13 1017 33 0 2.69 218 10:40 10.11.2019
4656 Clear 13 1017 33 0 2.69 218 10:20 10.11.2019
4657 Clear 13 1017 33 0 2.69 218 09:42 10.11.2019
4658 Clear 13 1017 33 0 2.69 218 09:23 10.11.2019
4659 Clear 13 1017 33 0 2.69 218 08:41 10.11.2019
4660 Clear 14 1019 22 0 2.47 210 08:21 10.11.2019
4661 Clear 14 1019 22 0 2.47 210 07:58 10.11.2019
4662 Clear 14 1019 22 0 2.47 210 07:40 10.11.2019
4663 Clear 14 1019 22 0 2.47 210 07:21 10.11.2019
4664 Clear 14 1019 22 0 2.47 210 06:26 10.11.2019
4665 Clear 10 1021 28 0 2.08 351 04:46 10.11.2019
4666 Clear 10 1021 28 0 2.08 351 03:22 10.11.2019
4667 Clear 5 1021 25 0 3.65 359 01:45 10.11.2019
4668 Clear 5 1021 24 0 3.69 3 01:19 10.11.2019
4669 Clear 5 1021 24 0 3.69 3 00:40 10.11.2019
4670 Clear 5 1021 24 0 3.69 3 23:48 09.11.2019
4671 Clear 6 1022 27 0 3.72 7 23:21 09.11.2019
4672 Clear 6 1022 27 0 3.72 7 22:59 09.11.2019
4673 Clear 6 1022 27 0 3.72 7 22:41 09.11.2019
4674 Clear 6 1022 27 0 3.72 7 22:20 09.11.2019
4675 Clear 6 1022 27 0 3.72 7 21:56 09.11.2019
4676 Clear 6 1022 27 0 3.72 7 21:37 09.11.2019
4677 Clear 6 1022 27 0 3.72 7 21:19 09.11.2019
4678 Clear 6 1022 27 0 3.72 7 20:41 09.11.2019
4679 Clear 6 1023 34 0 3.49 2 20:22 09.11.2019
4680 Clear 6 1023 34 0 3.49 2 19:58 09.11.2019
4681 Clear 6 1023 34 0 3.49 2 19:39 09.11.2019
4682 Clear 6 1023 34 0 3.49 2 19:21 09.11.2019
4683 Clear 6 1023 34 0 3.49 2 18:54 09.11.2019
4684 Clear 6 1023 34 0 3.49 2 18:36 09.11.2019
4685 Clear 6 1023 34 0 3.49 2 18:18 09.11.2019
4686 Clear 6 1023 34 0 3.49 2 17:41 09.11.2019
4687 Clear 6 1023 38 0 3.07 11 17:22 09.11.2019
4688 Clear 6 1023 38 0 3.07 11 16:43 09.11.2019
4689 Clear 6 1023 38 0 3.07 11 16:22 09.11.2019
4690 Clear 6 1023 38 0 3.07 11 15:59 09.11.2019
4691 Clear 6 1023 38 0 3.07 11 15:41 09.11.2019
4692 Clear 6 1023 38 0 3.07 11 15:23 09.11.2019
4693 Clear 6 1023 38 0 3.07 11 14:45 09.11.2019
4694 Clear 7 1019 69 0 1.24 358 14:22 09.11.2019
4695 Clear 7 1019 69 0 1.24 358 13:58 09.11.2019
4696 Clear 7 1019 69 0 1.24 358 13:39 09.11.2019
4697 Clear 7 1019 69 0 1.15 354 13:21 09.11.2019
4698 Clear 7 1019 69 0 1.15 354 12:56 09.11.2019
4699 Clear 7 1019 69 0 1.15 354 12:56 09.11.2019
4700 Clear 7 1019 69 0 1.15 354 12:38 09.11.2019
4701 Clear 7 1019 69 0 1.15 354 12:20 09.11.2019
4702 Clear 7 1019 69 0 1.15 354 11:48 09.11.2019
4703 Clear 14 1018 34 0 2.31 213 11:21 09.11.2019
4704 Clear 14 1018 34 0 2.31 213 10:57 09.11.2019
4705 Clear 14 1018 34 0 2.31 213 10:38 09.11.2019
4706 Clear 14 1018 34 0 2.31 213 10:18 09.11.2019
4707 Clear 14 1018 34 0 2.31 213 09:44 09.11.2019
4708 Clear 14 1018 34 0 2.31 213 09:21 09.11.2019
4709 Clear 14 1018 34 0 2.31 213 08:56 09.11.2019
4710 Clear 14 1018 34 0 2.31 213 08:37 09.11.2019
4711 Clear 14 1021 27 0 1.39 231 08:18 09.11.2019
4712 Clear 14 1021 27 0 1.39 231 07:42 09.11.2019
4713 Clear 14 1021 27 0 1.39 231 07:22 09.11.2019
4714 Clear 14 1021 27 0 1.39 231 06:47 09.11.2019
4715 Clear 14 1021 27 0 1.39 231 06:28 09.11.2019
4716 Clear 14 1021 27 0 1.39 231 05:42 09.11.2019
4717 Clear 9 1024 44 0 2.05 8 04:48 09.11.2019
4718 Clear 9 1024 44 0 2.05 8 02:57 09.11.2019
4719 Clear 9 1024 44 0 2.05 8 02:39 09.11.2019
4720 Clear 4 1023 50 0 3.06 10 01:43 09.11.2019
4721 Clear 4 1022 54 0 3.02 9 00:49 09.11.2019
4722 Clear 4 1022 54 0 3.02 9 00:29 09.11.2019
4723 Clear 4 1022 54 0 3.02 9 23:43 08.11.2019
4724 Clear 5 1023 61 0 3.26 5 23:23 08.11.2019
4725 Clear 5 1023 61 0 3.26 5 22:59 08.11.2019
4726 Clear 5 1023 61 0 3.26 5 22:41 08.11.2019
4727 Clear 5 1023 61 0 3.26 5 22:21 08.11.2019
4728 Clear 5 1023 61 0 3.26 5 21:55 08.11.2019
4729 Clear 5 1023 61 0 3.26 5 21:37 08.11.2019
4730 Clear 5 1023 61 0 3.26 5 21:18 08.11.2019
4731 Clear 5 1023 61 0 3.26 5 20:41 08.11.2019
4732 Clouds 5 1023 65 0 3.54 5 20:21 08.11.2019
4733 Clouds 5 1023 65 0 3.54 5 19:58 08.11.2019
4734 Clouds 5 1023 65 0 3.54 5 19:38 08.11.2019
4735 Clouds 5 1023 65 0 3.54 5 19:38 08.11.2019
4736 Clouds 5 1023 65 0 3.54 5 19:18 08.11.2019
4737 Clouds 5 1023 65 0 3.54 5 18:55 08.11.2019
4738 Clouds 5 1023 65 0 3.54 5 18:37 08.11.2019
4739 Clouds 5 1023 65 0 3.54 5 18:19 08.11.2019
4740 Clouds 5 1023 65 0 3.54 5 17:55 08.11.2019
4741 Clouds 5 1023 65 0 3.54 5 17:36 08.11.2019
4742 Rain 6 1023 69 0 3.55 14 17:18 08.11.2019
4743 Rain 6 1023 69 0 3.55 14 16:57 08.11.2019
4744 Rain 6 1023 69 0 3.55 14 16:39 08.11.2019
4745 Rain 6 1023 69 0 3.55 14 16:19 08.11.2019
4746 Rain 6 1023 69 0 3.55 14 15:56 08.11.2019
4747 Rain 6 1023 69 0 3.55 14 15:38 08.11.2019
4748 Rain 6 1023 69 0 3.55 14 15:19 08.11.2019
4749 Rain 6 1023 69 0 3.55 14 14:55 08.11.2019
4750 Rain 6 1023 69 0 3.55 14 14:36 08.11.2019
4751 Rain 6 1023 69 0 3.55 14 14:36 08.11.2019
4752 Rain 6 1020 73 0 4.08 357 14:18 08.11.2019
4753 Rain 6 1020 73 0 4.08 357 13:43 08.11.2019
4754 Rain 6 1019 69 0 2.85 3 13:22 08.11.2019
4755 Rain 6 1019 69 0 2.85 3 12:58 08.11.2019
4756 Rain 6 1019 69 0 2.85 3 12:39 08.11.2019
4757 Rain 6 1019 69 0 2.85 3 12:21 08.11.2019
4758 Rain 6 1019 69 0 2.85 3 11:55 08.11.2019
4759 Rain 6 1019 69 0 2.85 3 11:37 08.11.2019
4760 Rain 12 1018 54 0 1.91 250 11:19 08.11.2019
4761 Rain 12 1018 54 0 1.91 250 10:43 08.11.2019
4762 Rain 12 1018 54 0 1.91 250 10:22 08.11.2019
4763 Rain 12 1018 54 0 1.91 250 09:59 08.11.2019
4764 Rain 12 1018 54 0 1.91 250 09:41 08.11.2019
4765 Rain 12 1018 54 0 1.91 250 09:20 08.11.2019
4766 Rain 12 1018 54 0 1.91 250 08:54 08.11.2019
4767 Rain 12 1018 54 0 1.91 250 08:36 08.11.2019
4768 Rain 11 1021 63 0 1.47 261 08:18 08.11.2019
4769 Rain 11 1021 63 0 1.47 261 07:40 08.11.2019
4770 Rain 11 1021 63 0 1.47 261 07:22 08.11.2019
4771 Rain 11 1021 63 0 1.47 261 06:41 08.11.2019
4772 Rain 11 1021 63 0 1.47 261 06:21 08.11.2019
4773 Rain 11 1021 63 0 1.47 261 05:53 08.11.2019
4774 Snow 6 1022 80 0 2.68 4 05:21 08.11.2019
4775 Snow 6 1022 80 0 2.68 4 03:44 08.11.2019
4776 Snow 6 1022 80 0 2.68 4 03:21 08.11.2019
4777 Snow 6 1022 80 0 2.68 4 02:45 08.11.2019
4778 Rain 4 1020 92 0 2.73 346 01:47 08.11.2019
4779 Rain 4 1019 91 0 2.53 8 01:24 08.11.2019
4780 Rain 4 1019 91 0 2.53 8 00:24 08.11.2019
4781 Rain 4 1019 91 0 2.53 8 23:58 07.11.2019
4782 Rain 4 1019 91 0 2.53 8 23:40 07.11.2019
4783 Rain 4 1019 92 0 3 18 23:22 07.11.2019
4784 Rain 4 1019 92 0 3 18 22:42 07.11.2019
4785 Rain 4 1019 92 0 3 18 22:22 07.11.2019
4786 Rain 4 1019 92 0 3 18 22:22 07.11.2019
4787 Rain 4 1019 92 0 3 18 21:56 07.11.2019
4788 Rain 4 1019 92 0 3 18 21:37 07.11.2019
4789 Rain 4 1019 92 0 3 18 21:19 07.11.2019
4790 Rain 4 1019 92 0 3 18 20:58 07.11.2019
4791 Rain 4 1019 92 0 3 18 20:39 07.11.2019
4792 Snow 4 1017 96 0 1.99 249 20:21 07.11.2019
4793 Snow 4 1017 96 0 1.99 249 19:56 07.11.2019
4794 Snow 4 1017 96 0 1.99 249 19:37 07.11.2019
4795 Snow 4 1017 96 0 1.99 249 19:18 07.11.2019
4796 Snow 4 1017 96 0 1.99 249 18:55 07.11.2019
4797 Snow 4 1017 96 0 1.99 249 18:37 07.11.2019
4798 Snow 4 1017 96 0 1.99 249 18:19 07.11.2019
4799 Snow 4 1017 96 0 1.99 249 17:40 07.11.2019
4800 Rain 3 1017 93 0 2.05 58 17:22 07.11.2019
4801 Rain 3 1017 93 0 2.05 58 16:59 07.11.2019
4802 Rain 3 1017 93 0 2.05 58 16:40 07.11.2019
4803 Rain 3 1017 93 0 2.05 58 16:21 07.11.2019
4804 Rain 3 1017 93 0 2.05 58 15:59 07.11.2019
4805 Rain 3 1017 93 0 2.05 58 15:39 07.11.2019
4806 Rain 3 1017 93 0 2.05 58 15:19 07.11.2019
4807 Rain 3 1017 93 0 2.05 58 14:45 07.11.2019
4808 Rain 3 1017 93 0 2.05 58 14:27 07.11.2019
4809 Rain 3 1017 93 0 2.05 58 14:27 07.11.2019
4810 Rain 5 1014 85 0 3.65 6 13:58 07.11.2019
4811 Rain 5 1014 85 0 3.65 6 13:40 07.11.2019
4812 Rain 4 1014 94 0 1.45 71 13:21 07.11.2019
4813 Rain 4 1014 94 0 1.45 71 12:59 07.11.2019
4814 Rain 4 1014 94 0 1.45 71 12:41 07.11.2019
4815 Rain 4 1014 94 0 1.45 71 12:22 07.11.2019
4816 Rain 4 1014 94 0 1.45 71 11:59 07.11.2019
4817 Rain 4 1014 94 0 1.45 71 11:40 07.11.2019
4818 Rain 5 1014 92 0 1.03 335 11:22 07.11.2019
4819 Rain 5 1014 92 0 1.03 335 10:42 07.11.2019
4820 Rain 5 1014 92 0 1.03 335 10:19 07.11.2019
4821 Rain 5 1014 92 0 1.03 335 09:45 07.11.2019
4822 Rain 5 1014 92 0 1.03 335 09:24 07.11.2019
4823 Rain 5 1014 92 0 1.03 335 08:59 07.11.2019
4824 Rain 5 1014 92 0 1.03 335 08:40 07.11.2019
4825 Snow 10 1017 43 0 1.15 124 08:22 07.11.2019
4826 Snow 10 1017 43 0 1.15 124 07:56 07.11.2019
4827 Snow 10 1017 43 0 1.15 124 07:38 07.11.2019
4828 Snow 10 1017 43 0 1.15 124 07:38 07.11.2019
4829 Snow 10 1017 43 0 1.15 124 07:19 07.11.2019
4830 Snow 10 1017 43 0 1.15 124 06:44 07.11.2019
4831 Snow 10 1017 43 0 1.15 124 06:23 07.11.2019
4832 Snow 10 1017 43 0 1.15 124 06:23 07.11.2019
4833 Snow 10 1017 43 0 1.15 124 05:48 07.11.2019
4834 -273 0 0 0 0 0 05:30 07.11.2019
4835 Snow 8 1018 49 0 3.74 7 04:51 07.11.2019
4836 Snow 8 1018 49 0 3.74 7 04:28 07.11.2019
4837 Clouds 7 1016 41 0 2.64 4 01:28 07.11.2019
4838 Clouds 7 1016 43 0 2.61 5 00:30 07.11.2019
4839 Clouds 7 1016 43 0 2.61 5 23:56 06.11.2019
4840 Clouds 7 1016 43 0 2.61 5 23:38 06.11.2019
4841 Clouds 6 1016 45 0 3 8 23:18 06.11.2019
4842 Clouds 6 1016 45 0 3 8 22:39 06.11.2019
4843 Clouds 6 1016 45 0 3 8 22:20 06.11.2019
4844 Clouds 6 1016 45 0 3 8 21:57 06.11.2019
4845 Clouds 6 1016 45 0 3 8 21:57 06.11.2019
4846 Clouds 6 1016 45 0 3 8 21:39 06.11.2019
4847 Clouds 6 1016 45 0 3 8 21:19 06.11.2019
4848 Clouds 6 1016 45 0 3 8 20:57 06.11.2019
4849 Clouds 6 1016 45 0 3 8 20:39 06.11.2019
4850 Clouds 7 1016 43 0 2.5 5 20:20 06.11.2019
4851 Clouds 6 1016 53 0 2.17 14 19:56 06.11.2019
4852 Clouds 6 1016 53 0 2.17 14 19:37 06.11.2019
4853 Clouds 6 1016 53 0 2.17 14 19:19 06.11.2019
4854 Clouds 6 1016 53 0 2.17 14 18:55 06.11.2019
4855 Clouds 6 1016 53 0 2.17 14 18:37 06.11.2019
4856 Clouds 6 1016 53 0 2.17 14 18:18 06.11.2019
4857 Clouds 6 1016 53 0 2.17 14 17:42 06.11.2019
4858 Clouds 6 1016 50 0 2.61 17 17:23 06.11.2019
4859 Clouds 6 1016 50 0 2.61 17 16:57 06.11.2019
4860 Clouds 6 1016 50 0 2.61 17 16:39 06.11.2019
4861 Clouds 6 1016 50 0 2.61 17 16:21 06.11.2019
4862 Clouds 6 1016 50 0 2.61 17 15:58 06.11.2019
4863 Clouds 6 1016 50 0 2.61 17 15:38 06.11.2019
4864 Clouds 6 1016 50 0 2.61 17 15:19 06.11.2019
4865 Clouds 6 1016 50 0 2.61 17 14:59 06.11.2019
4866 Clouds 6 1016 50 0 2.61 17 14:41 06.11.2019
4867 Clouds 7 1014 61 0 0.78 293 14:22 06.11.2019
4868 Clouds 7 1014 61 0 0.78 293 13:59 06.11.2019
4869 Clouds 7 1014 61 0 0.78 293 13:38 06.11.2019
4870 Clouds 6 1013 63 0 0.64 299 13:19 06.11.2019
4871 Clouds 6 1013 63 0 0.64 299 12:55 06.11.2019
4872 Clouds 6 1013 63 0 0.64 299 12:37 06.11.2019
4873 Clouds 6 1013 63 0 0.64 299 12:19 06.11.2019
4874 Clouds 6 1013 63 0 0.64 299 12:19 06.11.2019
4875 Clouds 6 1013 63 0 0.64 299 11:57 06.11.2019
4876 Clouds 6 1013 63 0 0.64 299 11:36 06.11.2019
4877 Clouds 13 1012 40 0 3.12 217 11:18 06.11.2019
4878 Clouds 13 1012 40 0 3.12 217 10:55 06.11.2019
4879 Clouds 13 1012 40 0 3.12 217 10:37 06.11.2019
4880 Clouds 13 1012 40 0 3.12 217 10:19 06.11.2019
4881 Clouds 13 1012 40 0 3.12 217 09:42 06.11.2019
4882 Clouds 13 1012 40 0 3.12 217 09:21 06.11.2019
4883 Clouds 13 1012 40 0 3.12 217 08:56 06.11.2019
4884 Clouds 13 1012 40 0 3.12 217 08:38 06.11.2019
4885 Clear 13 1014 37 0 3.12 207 08:19 06.11.2019
4886 Clear 13 1014 37 0 3.12 207 07:55 06.11.2019
4887 Clear 13 1014 37 0 3.12 207 07:36 06.11.2019
4888 Clear 13 1014 37 0 3.12 207 07:18 06.11.2019
4889 Clear 13 1014 37 0 3.12 207 06:40 06.11.2019
4890 Clear 13 1014 37 0 3.12 207 06:22 06.11.2019
4891 Clear 10 1016 36 0 0.43 330 03:52 06.11.2019
4892 Clear 5 1015 36 0 2.95 3 02:18 06.11.2019
4893 Clear 5 1015 36 0 2.95 3 01:31 06.11.2019
4894 Clear 5 1015 36 0 2.95 360 00:27 06.11.2019
4895 Clear 5 1015 36 0 2.95 360 23:57 05.11.2019
4896 Clear 5 1015 36 0 2.95 360 23:37 05.11.2019
4897 Clear 5 1015 33 0 3.01 7 23:18 05.11.2019
4898 Clear 5 1015 33 0 3.01 7 22:43 05.11.2019
4899 Clear 5 1015 33 0 3.01 7 22:43 05.11.2019
4900 Clear 5 1015 33 0 3.01 7 22:19 05.11.2019
4901 Clear 5 1015 33 0 3.01 7 21:58 05.11.2019
4902 Clear 5 1015 33 0 3.01 7 21:40 05.11.2019
4903 Clear 5 1015 33 0 3.01 7 21:20 05.11.2019
4904 Clear 5 1015 33 0 3.01 7 20:57 05.11.2019
4905 Clear 5 1015 33 0 3.01 7 20:38 05.11.2019
4906 Clear 5 1015 33 0 3.01 7 20:38 05.11.2019
4907 Clear 6 1017 52 0 2.39 9 20:20 05.11.2019
4908 Clear 6 1017 51 0 2.55 14 19:55 05.11.2019
4909 Clear 6 1017 51 0 2.55 14 19:37 05.11.2019
4910 Clear 6 1017 51 0 2.55 14 19:18 05.11.2019
4911 Clear 6 1017 51 0 2.55 14 18:56 05.11.2019
4912 Clear 6 1017 51 0 2.55 14 18:38 05.11.2019
4913 Clear 6 1017 51 0 2.55 14 18:19 05.11.2019
4914 Clear 6 1017 51 0 2.55 14 17:54 05.11.2019
4915 Clear 6 1017 51 0 2.55 14 17:54 05.11.2019
4916 Clear 6 1017 51 0 2.55 14 17:36 05.11.2019
4917 Clear 6 1017 55 0 2.57 2 17:18 05.11.2019
4918 Clear 6 1017 55 0 2.57 2 16:41 05.11.2019
4919 Clear 6 1017 55 0 2.57 2 16:20 05.11.2019
4920 Clear 6 1017 55 0 2.57 2 15:55 05.11.2019
4921 Clear 6 1017 55 0 2.57 2 15:36 05.11.2019
4922 Clear 6 1017 55 0 2.57 2 15:18 05.11.2019
4923 Clear 6 1017 55 0 2.57 2 14:54 05.11.2019
4924 Clear 6 1017 55 0 2.57 2 14:36 05.11.2019
4925 Clear 7 1014 70 0 0.4 338 14:18 05.11.2019
4926 Clear 7 1014 70 0 0.4 338 13:43 05.11.2019
4927 Clear 7 1014 69 0 0.56 329 13:24 05.11.2019
4928 Clear 7 1014 69 0 0.56 329 12:42 05.11.2019
4929 Clear 7 1014 69 0 0.56 329 12:22 05.11.2019
4930 Clear 7 1014 69 0 0.56 329 11:58 05.11.2019
4931 Clear 7 1014 69 0 0.56 329 11:39 05.11.2019
4932 Clear 13 1013 42 0 2.93 211 11:21 05.11.2019
4933 Clear 13 1013 42 0 2.93 211 10:58 05.11.2019
4934 Clear 13 1013 42 0 2.93 211 10:40 05.11.2019
4935 Clear 13 1013 42 0 2.93 211 10:21 05.11.2019
4936 Clear 13 1013 42 0 2.93 211 09:55 05.11.2019
4937 Clear 13 1013 42 0 2.93 211 09:37 05.11.2019
4938 Clear 13 1013 42 0 2.93 211 09:18 05.11.2019
4939 Clear 13 1013 42 0 2.93 211 08:39 05.11.2019
4940 Clear 14 1016 35 0 3.11 204 08:20 05.11.2019
4941 Clear 14 1016 35 0 3.11 204 08:20 05.11.2019
4942 Clear 14 1016 35 0 3.11 204 07:57 05.11.2019
4943 Clear 14 1016 35 0 3.11 204 07:39 05.11.2019
4944 Clear 14 1016 35 0 3.11 204 07:19 05.11.2019
4945 Clear 14 1016 35 0 3.11 204 06:49 05.11.2019
4946 Clear 14 1016 35 0 3.11 204 05:51 05.11.2019
4947 Clear 10 1018 42 0 0.98 332 05:23 05.11.2019
4948 Clear 10 1018 42 0 0.98 332 05:23 05.11.2019
4949 Clear 10 1018 42 0 0.98 332 04:25 05.11.2019
4950 Clear 10 1018 42 0 0.98 332 03:55 05.11.2019
4951 Clear 10 1018 42 0 0.98 332 02:48 05.11.2019
4952 Clear 5 1018 51 0 3.13 4 02:18 05.11.2019
4953 Clear 5 1018 51 0 3.13 4 01:25 05.11.2019
4954 Clear 5 1018 50 0 3.17 7 00:37 05.11.2019
4955 Clear 5 1018 50 0 3.17 7 23:56 04.11.2019
4956 Clear 5 1018 50 0 3.17 7 23:37 04.11.2019
4957 Clear 5 1019 59 0 2.95 351 23:18 04.11.2019
4958 Clear 5 1019 59 0 2.95 351 23:18 04.11.2019
4959 Clear 5 1019 59 0 2.95 351 22:42 04.11.2019
4960 Clear 5 1019 59 0 2.95 351 22:23 04.11.2019
4961 Clear 5 1019 59 0 2.95 351 21:56 04.11.2019
4962 Clear 5 1019 59 0 2.95 351 21:56 04.11.2019
4963 Clear 5 1019 59 0 2.95 351 21:56 04.11.2019
4964 Clear 5 1019 59 0 2.95 351 21:56 04.11.2019
4965 Clear 5 1019 59 0 2.95 351 21:38 04.11.2019
4966 Clear 5 1019 59 0 2.95 351 21:19 04.11.2019
4967 Clear 5 1019 59 0 2.95 351 20:59 04.11.2019
4968 Clear 5 1019 59 0 2.95 351 20:40 04.11.2019
4969 Clear 6 1020 63 0 2.75 355 20:21 04.11.2019
4970 Clear 6 1020 63 0 2.75 355 20:21 04.11.2019
4971 Clear 6 1020 63 0 2.75 355 19:59 04.11.2019
4972 Clear 6 1020 63 0 2.75 355 19:41 04.11.2019
4973 Clear 6 1020 63 0 2.75 355 19:22 04.11.2019
4974 Clear 6 1020 63 0 2.75 355 18:57 04.11.2019
4975 Clear 6 1020 63 0 2.75 355 18:39 04.11.2019
4976 Clear 6 1020 63 0 2.75 355 18:19 04.11.2019
4977 Clear 6 1020 63 0 2.75 355 17:55 04.11.2019
4978 Clear 6 1020 63 0 2.75 355 17:36 04.11.2019
4979 Clear 6 1021 71 0 2.74 12 17:18 04.11.2019
4980 Clear 6 1021 71 0 2.74 12 16:41 04.11.2019
4981 Clear 6 1021 71 0 2.74 12 16:23 04.11.2019
4982 Clear 6 1021 71 0 2.74 12 15:57 04.11.2019
4983 Clear 6 1021 71 0 2.74 12 15:39 04.11.2019
4984 Clear 6 1021 71 0 2.74 12 15:19 04.11.2019
4985 Clear 6 1021 71 0 2.74 12 14:57 04.11.2019
4986 Clear 6 1021 71 0 2.74 12 14:39 04.11.2019
4987 Rain 7 1018 86 0 0.24 359 14:19 04.11.2019
4988 Rain 7 1018 86 0 0.24 359 13:57 04.11.2019
4989 Rain 7 1018 86 0 0.24 359 13:39 04.11.2019
4990 Rain 7 1018 86 0 0.24 359 13:20 04.11.2019
4991 Rain 7 1018 85 0 0.37 308 12:45 04.11.2019
4992 Rain 7 1018 85 0 0.37 308 12:25 04.11.2019
4993 Rain 7 1018 85 0 0.37 308 11:58 04.11.2019
4994 Rain 7 1018 85 0 0.37 308 11:40 04.11.2019
4995 Rain 13 1017 55 0 2.88 229 11:21 04.11.2019
4996 Rain 13 1017 55 0 2.88 229 10:54 04.11.2019
4997 Rain 13 1017 55 0 2.88 229 10:36 04.11.2019
4998 Rain 13 1017 55 0 2.88 229 10:18 04.11.2019
4999 Rain 13 1017 55 0 2.88 229 09:40 04.11.2019
5000 Rain 13 1017 55 0 2.88 229 09:20 04.11.2019
5001 Rain 13 1017 55 0 2.88 229 08:55 04.11.2019
5002 Rain 13 1017 55 0 2.88 229 08:37 04.11.2019
5003 Clear 14 1020 40 0 2.95 208 08:18 04.11.2019
5004 Clear 14 1020 40 0 2.95 208 07:42 04.11.2019
5005 Clear 14 1020 40 0 2.95 208 07:20 04.11.2019
5006 Clear 14 1020 40 0 2.95 208 06:49 04.11.2019
5007 Clear 14 1020 40 0 2.95 208 06:18 04.11.2019
5008 Clear 14 1020 40 0 2.95 208 05:38 04.11.2019
5009 Clear 10 1022 52 0 1.18 4 04:41 04.11.2019
5010 Clear 10 1022 52 0 1.18 4 03:48 04.11.2019
5011 Clear 5 1021 63 0 3.7 8 01:46 04.11.2019
5012 Clear 5 1021 59 0 3.79 7 01:20 04.11.2019
5013 Clear 5 1021 59 0 3.79 7 00:39 04.11.2019
5014 Clear 5 1021 59 0 3.79 7 00:19 04.11.2019
5015 Clear 5 1021 59 0 3.79 7 23:40 03.11.2019
5016 Clear 6 1021 66 0 3.48 9 23:21 03.11.2019
5017 Clear 6 1021 66 0 3.48 9 22:57 03.11.2019
5018 Clear 6 1021 66 0 3.48 9 22:39 03.11.2019
5019 Clear 6 1021 66 0 3.48 9 22:19 03.11.2019
5020 Clear 6 1021 66 0 3.48 9 21:56 03.11.2019
5021 Clear 6 1021 66 0 3.48 9 21:38 03.11.2019
5022 Clear 6 1021 66 0 3.48 9 21:19 03.11.2019
5023 Clear 6 1021 66 0 3.48 9 20:54 03.11.2019
5024 Clear 6 1021 66 0 3.48 9 20:36 03.11.2019
5025 Rain 6 1020 73 0 3.33 12 20:18 03.11.2019
5026 Rain 6 1020 73 0 3.33 12 19:54 03.11.2019
5027 Rain 6 1020 73 0 3.33 12 19:36 03.11.2019
5028 Rain 6 1020 73 0 3.33 12 19:18 03.11.2019
5029 Rain 6 1020 73 0 3.33 12 18:38 03.11.2019
5030 Rain 6 1020 73 0 3.33 12 18:18 03.11.2019
5031 Rain 6 1020 73 0 3.33 12 18:18 03.11.2019
5032 Rain 6 1020 73 0 3.33 12 17:57 03.11.2019
5033 Rain 6 1020 73 0 3.33 12 17:39 03.11.2019
5034 Rain 7 1020 75 0 2.71 357 17:18 03.11.2019
5035 Rain 7 1020 75 0 2.71 357 16:54 03.11.2019
5036 Rain 7 1020 75 0 2.71 357 16:36 03.11.2019
5037 Rain 7 1020 75 0 2.71 357 16:18 03.11.2019
5038 Rain 7 1020 75 0 2.71 357 15:45 03.11.2019
5039 Rain 7 1020 75 0 2.71 357 15:25 03.11.2019
5040 Rain 7 1020 75 0 2.71 357 14:58 03.11.2019
5041 Rain 7 1020 75 0 2.71 357 14:39 03.11.2019
5042 Rain 8 1017 81 0 2.22 336 14:18 03.11.2019
5043 Rain 8 1017 81 0 2.22 336 13:54 03.11.2019
5044 Rain 8 1017 81 0 2.22 336 13:36 03.11.2019
5045 Rain 8 1017 81 0 1.94 335 13:18 03.11.2019
5046 Rain 8 1017 81 0 1.94 335 12:38 03.11.2019
5047 Rain 8 1017 81 0 1.94 335 12:19 03.11.2019
5048 Rain 8 1017 81 0 1.94 335 11:56 03.11.2019
5049 Rain 8 1017 81 0 1.94 335 11:37 03.11.2019
5050 Rain 12 1016 56 0 2.38 236 11:19 03.11.2019
5051 Rain 12 1016 56 0 2.38 236 10:40 03.11.2019
5052 Rain 12 1016 56 0 2.38 236 10:22 03.11.2019
5053 Rain 12 1016 56 0 2.38 236 09:58 03.11.2019
5054 Rain 12 1016 56 0 2.38 236 09:40 03.11.2019
5055 Rain 12 1016 56 0 2.38 236 09:21 03.11.2019
5056 Rain 12 1016 56 0 2.38 236 08:43 03.11.2019
5057 Rain 12 1016 56 0 2.38 236 08:24 03.11.2019
5058 Rain 14 1017 44 0 3.13 224 08:24 03.11.2019
5059 Clouds 15 1020 35 0 2.31 213 07:47 03.11.2019
5060 Clouds 15 1020 35 0 2.31 213 07:28 03.11.2019
5061 Clouds 15 1020 35 0 2.31 213 06:53 03.11.2019
5062 Clouds 15 1020 35 0 2.31 213 06:34 03.11.2019
5063 Clouds 15 1020 35 0 2.31 213 05:40 03.11.2019
5064 Clouds 11 1022 45 0 1.8 356 04:58 03.11.2019
5065 Clouds 11 1022 45 0 1.8 356 04:58 03.11.2019
5066 Clouds 11 1022 45 0 1.8 356 04:38 03.11.2019
5067 Clouds 11 1022 45 0 1.8 356 03:39 03.11.2019
5068 Clouds 11 1022 45 0 1.8 356 02:45 03.11.2019
5069 Clouds 9 1021 53 0 2.9 6 02:20 03.11.2019
5070 Clouds 9 1021 53 0 2.9 6 02:20 03.11.2019
5071 Clouds 9 1021 53 0 2.9 6 01:43 03.11.2019
5072 Clouds 8 1021 53 0 2.71 3 01:21 03.11.2019
5073 Clouds 8 1021 53 0 2.71 3 00:46 03.11.2019
5074 Clouds 8 1021 53 0 2.71 3 00:27 03.11.2019
5075 Clouds 8 1021 53 0 2.71 3 23:58 02.11.2019
5076 Clouds 8 1021 53 0 2.71 3 23:39 02.11.2019
5077 Clouds 9 1021 54 0 2.17 12 23:19 02.11.2019
5078 Clouds 9 1021 54 0 2.17 12 22:56 02.11.2019
5079 Clouds 9 1021 54 0 2.17 12 22:38 02.11.2019
5080 Clouds 9 1021 54 0 2.17 12 22:19 02.11.2019
5081 Clouds 9 1021 54 0 2.17 12 22:19 02.11.2019
5082 Clouds 9 1021 54 0 2.17 12 22:19 02.11.2019
5083 Clouds 9 1021 54 0 2.17 12 21:56 02.11.2019
5084 Clouds 9 1021 54 0 2.17 12 21:38 02.11.2019
5085 Clouds 9 1021 54 0 2.17 12 21:18 02.11.2019
5086 Clouds 9 1021 54 0 2.17 12 21:18 02.11.2019
5087 Clouds 9 1021 54 0 2.17 12 21:18 02.11.2019
5088 Clouds 9 1021 54 0 2.17 12 21:18 02.11.2019
5089 Clouds 9 1021 54 0 2.17 12 20:59 02.11.2019
5090 Clouds 9 1021 54 0 2.17 12 20:40 02.11.2019
5091 Clouds 8 1021 55 0 2.14 9 20:20 02.11.2019
5092 Clouds 8 1021 59 0 2.22 14 19:57 02.11.2019
5093 Clouds 8 1021 59 0 2.22 14 19:36 02.11.2019
5094 Clouds 8 1021 59 0 2.22 14 19:18 02.11.2019
5095 Clouds 8 1021 59 0 2.22 14 18:54 02.11.2019
5096 Clouds 8 1021 59 0 2.22 14 18:36 02.11.2019
5097 Clouds 8 1021 59 0 2.22 14 18:18 02.11.2019
5098 Clouds 8 1021 59 0 2.22 14 17:42 02.11.2019
5099 Clouds 8 1021 59 0 2.22 14 17:24 02.11.2019
5100 Clouds 8 1021 66 0 2.02 21 16:58 02.11.2019
5101 Clouds 8 1021 66 0 2.02 21 16:39 02.11.2019
5102 Clouds 8 1021 66 0 2.02 21 16:20 02.11.2019
5103 Clouds 8 1021 66 0 2.02 21 15:43 02.11.2019
5104 Clouds 8 1021 66 0 2.02 21 15:21 02.11.2019
5105 Clouds 8 1021 66 0 2.02 21 14:57 02.11.2019
5106 Clouds 8 1021 66 0 2.02 21 14:39 02.11.2019
5107 Rain 9 1018 69 0 0.51 263 14:21 02.11.2019
5108 Rain 9 1018 69 0 0.51 263 13:40 02.11.2019
5109 Rain 8 1018 67 0 0.59 284 13:20 02.11.2019
5110 Rain 8 1018 67 0 0.59 284 12:59 02.11.2019
5111 Rain 8 1018 67 0 0.59 284 12:38 02.11.2019
5112 Rain 8 1018 67 0 0.59 284 12:20 02.11.2019
5113 Rain 8 1018 67 0 0.59 284 11:55 02.11.2019
5114 Rain 8 1018 67 0 0.59 284 11:36 02.11.2019
5115 Rain 14 1017 48 0 2.42 224 11:18 02.11.2019
5116 Rain 14 1017 48 0 2.42 224 10:42 02.11.2019
5117 Rain 14 1017 48 0 2.42 224 10:23 02.11.2019
5118 Rain 14 1017 48 0 2.42 224 09:43 02.11.2019
5119 Rain 14 1017 48 0 2.42 224 09:22 02.11.2019
5120 Rain 14 1017 48 0 2.42 224 09:22 02.11.2019
5121 Rain 14 1017 48 0 2.42 224 08:57 02.11.2019
5122 Rain 14 1017 48 0 2.42 224 08:57 02.11.2019
5123 Rain 14 1017 48 0 2.42 224 08:37 02.11.2019
5124 Clouds 15 1019 35 0 2.9 208 08:18 02.11.2019
5125 Clouds 15 1019 35 0 2.9 208 07:44 02.11.2019
5126 Clouds 15 1019 35 0 2.9 208 07:25 02.11.2019
5127 Clouds 15 1019 35 0 2.9 208 06:52 02.11.2019
5128 Clouds 15 1019 35 0 2.9 208 06:25 02.11.2019
5129 Clouds 15 1019 35 0 2.9 208 05:44 02.11.2019
5130 Clouds 12 1021 38 0 0.9 356 04:26 02.11.2019
5131 Clouds 12 1021 38 0 0.9 356 03:59 02.11.2019
5132 Clouds 12 1021 38 0 0.9 356 03:31 02.11.2019
5133 Clouds 12 1021 38 0 0.9 356 02:32 02.11.2019
5134 Clear 8 1020 45 0 3.3 8 01:36 02.11.2019
5135 Clear 8 1020 43 0 3.28 7 01:18 02.11.2019
5136 Clear 8 1020 43 0 3.28 7 00:42 02.11.2019
5137 Clear 8 1020 43 0 3.28 7 00:22 02.11.2019
5138 Clear 8 1020 43 0 3.28 7 23:42 01.11.2019
5139 Clear 8 1019 45 0 3.18 4 23:20 01.11.2019
5140 Clear 8 1019 45 0 3.18 4 22:43 01.11.2019
5141 Clear 8 1019 45 0 3.18 4 22:22 01.11.2019
5142 Clear 8 1019 45 0 3.18 4 22:22 01.11.2019
5143 Clear 8 1019 45 0 3.18 4 21:56 01.11.2019
5144 Clear 8 1019 45 0 3.18 4 21:38 01.11.2019
5145 Clear 8 1019 45 0 3.18 4 21:19 01.11.2019
5146 Clear 8 1019 45 0 3.18 4 20:42 01.11.2019
5147 Clear 8 1019 45 0 3.18 4 20:24 01.11.2019
5148 Clouds 9 1019 52 0 3.17 8 19:59 01.11.2019
5149 Clouds 9 1019 52 0 3.17 8 19:41 01.11.2019
5150 Clouds 9 1019 52 0 3.17 8 19:22 01.11.2019
5151 Clouds 9 1019 52 0 3.17 8 18:57 01.11.2019
5152 Clouds 9 1019 52 0 3.17 8 18:38 01.11.2019
5153 Clouds 9 1019 52 0 3.17 8 18:18 01.11.2019
5154 Clouds 9 1019 52 0 3.17 8 17:41 01.11.2019
5155 Rain 10 1019 69 0 2.34 26 17:23 01.11.2019
5156 Rain 10 1019 69 0 2.34 26 16:58 01.11.2019
5157 Rain 10 1019 69 0 2.34 26 16:36 01.11.2019
5158 Rain 10 1019 69 0 2.34 26 16:36 01.11.2019
5159 Rain 10 1019 69 0 2.34 26 16:18 01.11.2019
5160 Rain 10 1019 69 0 2.34 26 16:18 01.11.2019
5161 Rain 10 1019 69 0 2.34 26 15:40 01.11.2019
5162 Rain 10 1019 69 0 2.34 26 15:22 01.11.2019
5163 Rain 10 1019 69 0 2.34 26 14:56 01.11.2019
5164 Rain 10 1019 69 0 2.34 26 14:38 01.11.2019
5165 Clouds 9 1017 73 0 1.09 250 14:19 01.11.2019
5166 Clouds 9 1017 73 0 1.09 250 13:55 01.11.2019
5167 Clouds 9 1017 73 0 1.09 250 13:36 01.11.2019
5168 Clouds 9 1017 73 0 0.66 251 13:18 01.11.2019
5169 Clouds 9 1017 73 0 0.66 251 12:42 01.11.2019
5170 Clouds 9 1017 73 0 0.66 251 12:24 01.11.2019
5171 Clouds 9 1017 73 0 0.66 251 11:43 01.11.2019
5172 Clouds 9 1017 73 0 0.66 251 11:24 01.11.2019
5173 Clouds 15 1015 47 0 3.09 220 10:57 01.11.2019
5174 Clouds 15 1015 47 0 3.09 220 10:38 01.11.2019
5175 Clouds 15 1015 47 0 3.09 220 10:20 01.11.2019
5176 Clouds 15 1015 47 0 3.09 220 09:45 01.11.2019
5177 Clouds 15 1015 47 0 3.09 220 09:26 01.11.2019
5178 Clouds 15 1015 47 0 3.09 220 08:57 01.11.2019
5179 Clouds 15 1015 47 0 3.09 220 08:39 01.11.2019
5180 Clouds 16 1018 38 0 2.63 202 08:20 01.11.2019
5181 Clear 15 1018 40 0 2.88 206 07:52 01.11.2019
5182 Clear 15 1018 40 0 2.88 206 07:25 01.11.2019
5183 Clear 15 1018 40 0 2.88 206 06:56 01.11.2019
5184 Clear 15 1018 40 0 2.88 206 06:37 01.11.2019
5185 Clear 15 1018 40 0 2.88 206 06:18 01.11.2019
5186 Clear 15 1018 40 0 2.88 206 05:41 01.11.2019
5187 Clear 11 1020 47 0 0.48 335 03:33 01.11.2019
5188 Clear 7 1019 55 0 3.19 359 01:51 01.11.2019
5189 Clear 7 1019 55 0 3.19 359 01:26 01.11.2019
5190 Clear 7 1019 55 0 3.15 350 00:21 01.11.2019
5191 Clear 7 1019 55 0 3.15 350 23:55 31.10.2019
5192 Clear 7 1019 55 0 3.15 350 23:36 31.10.2019
5193 Clear 7 1019 56 0 3.18 360 23:18 31.10.2019
5194 Clear 7 1019 56 0 3.18 360 22:42 31.10.2019
5195 Clear 7 1019 56 0 3.18 360 22:23 31.10.2019
5196 Clear 7 1019 56 0 3.18 360 21:57 31.10.2019
5197 Clear 7 1019 56 0 3.18 360 21:39 31.10.2019
5198 Clear 7 1019 56 0 3.18 360 21:18 31.10.2019
5199 Clear 7 1019 56 0 3.18 360 20:41 31.10.2019
5200 Clear 7 1019 57 0 2.7 0 20:23 31.10.2019
5201 Clear 7 1019 57 0 2.7 0 19:59 31.10.2019
5202 Clear 7 1019 57 0 2.7 0 19:38 31.10.2019
5203 Clear 7 1019 57 0 2.7 0 19:20 31.10.2019
5204 Clear 7 1019 57 0 2.7 0 18:44 31.10.2019
5205 Clear 7 1019 57 0 2.7 0 18:26 31.10.2019
5206 Clear 7 1019 57 0 2.7 0 17:59 31.10.2019
5207 Clear 7 1019 57 0 2.7 0 17:40 31.10.2019
5208 Clear 8 1019 68 0 2.43 17 17:20 31.10.2019
5209 Clear 8 1019 68 0 2.43 17 16:55 31.10.2019
5210 Clear 8 1019 68 0 2.43 17 16:37 31.10.2019
5211 Clear 8 1019 68 0 2.43 17 16:18 31.10.2019
5212 Clear 8 1019 68 0 2.43 17 15:40 31.10.2019
5213 Clear 8 1019 68 0 2.43 17 15:40 31.10.2019
5214 Clear 8 1019 68 0 2.43 17 15:22 31.10.2019
5215 Clear 8 1019 68 0 2.43 17 14:59 31.10.2019
5216 Clear 8 1019 68 0 2.43 17 14:41 31.10.2019
5217 Rain 9 1017 77 0 0.78 280 14:22 31.10.2019
5218 Rain 9 1017 77 0 0.78 280 13:59 31.10.2019
5219 Rain 9 1017 77 0 0.78 280 13:39 31.10.2019
5220 Rain 9 1016 77 0 0.76 278 13:19 31.10.2019
5221 Rain 9 1016 77 0 0.76 278 12:57 31.10.2019
5222 Rain 9 1016 77 0 0.76 278 12:38 31.10.2019
5223 Rain 9 1016 77 0 0.76 278 12:18 31.10.2019
5224 Rain 9 1016 77 0 0.76 278 11:45 31.10.2019
5225 Rain 15 1016 49 0 2.73 217 11:21 31.10.2019
5226 Rain 15 1016 49 0 2.73 217 10:58 31.10.2019
5227 Rain 15 1016 49 0 2.73 217 10:39 31.10.2019
5228 Rain 15 1016 49 0 2.73 217 10:21 31.10.2019
5229 Rain 15 1016 49 0 2.73 217 09:54 31.10.2019
5230 Rain 15 1016 49 0 2.73 217 09:36 31.10.2019
5231 Rain 15 1016 49 0 2.73 217 09:18 31.10.2019
5232 Rain 15 1016 49 0 2.73 217 08:43 31.10.2019
5233 Rain 14 1015 51 0 2.72 213 08:24 31.10.2019
5234 Clear 15 1018 42 0 3.13 205 07:48 31.10.2019
5235 Clear 15 1018 42 0 3.13 205 07:26 31.10.2019
5236 Clear 15 1018 42 0 3.13 205 06:53 31.10.2019
5237 Clear 15 1018 42 0 3.13 205 06:32 31.10.2019
5238 Clear 15 1018 42 0 3.13 205 05:27 31.10.2019
5239 Clear 11 1020 45 0 0.44 0 02:50 31.10.2019
5240 Clear 11 1020 45 0 0.44 0 02:30 31.10.2019
5241 Clear 7 1019 53 0 3.05 1 01:24 31.10.2019
5242 Clear 7 1019 53 0 3.05 1 00:27 31.10.2019
5243 Clear 7 1019 53 0 3.05 1 23:52 30.10.2019
5244 Clear 7 1019 53 0 3.05 1 23:27 30.10.2019
5245 Clear 7 1019 55 0 2.99 3 22:43 30.10.2019
5246 Clear 7 1019 55 0 2.99 3 22:20 30.10.2019
5247 Clear 7 1019 55 0 2.99 3 22:20 30.10.2019
5248 Clear 7 1019 55 0 2.99 3 21:55 30.10.2019
5249 Clear 7 1019 55 0 2.99 3 21:37 30.10.2019
5250 Clear 7 1019 55 0 2.99 3 21:37 30.10.2019
5251 Clear 7 1019 55 0 2.99 3 21:37 30.10.2019
5252 Clear 7 1019 55 0 2.99 3 21:37 30.10.2019
5253 Clear 7 1019 55 0 2.99 3 21:18 30.10.2019
5254 Clear 7 1019 55 0 2.99 3 20:58 30.10.2019
5255 Clouds 7 1018 56 0 2.99 2 20:39 30.10.2019
5256 Clear 7 1019 55 0 2.99 3 20:39 30.10.2019
5257 Clouds 8 1019 59 0 2.78 7 20:21 30.10.2019
5258 Clouds 8 1019 59 0 2.78 7 19:57 30.10.2019
5259 Clouds 8 1019 59 0 2.78 7 19:37 30.10.2019
5260 Clouds 8 1019 59 0 2.78 7 19:19 30.10.2019
5261 Clouds 8 1019 59 0 2.78 7 18:39 30.10.2019
5262 Clouds 8 1019 59 0 2.78 7 18:20 30.10.2019
5263 Clouds 8 1019 59 0 2.78 7 17:58 30.10.2019
5264 Clouds 8 1019 59 0 2.78 7 17:40 30.10.2019
5265 Rain 8 1019 70 0 2.55 21 17:19 30.10.2019
5266 Rain 8 1019 70 0 2.55 21 16:55 30.10.2019
5267 Rain 8 1019 70 0 2.55 21 16:37 30.10.2019
5268 Rain 8 1019 70 0 2.55 21 16:19 30.10.2019
5269 Rain 8 1019 70 0 2.55 21 15:56 30.10.2019
5270 Rain 8 1019 70 0 2.55 21 15:37 30.10.2019
5271 Rain 8 1019 70 0 2.55 21 15:19 30.10.2019
5272 Rain 8 1019 70 0 2.55 21 14:42 30.10.2019
5273 Rain 9 1016 80 0 0.61 245 14:22 30.10.2019
5274 Rain 9 1016 80 0 0.61 245 13:59 30.10.2019
5275 Rain 9 1016 80 0 0.61 245 13:40 30.10.2019
5276 Rain 9 1016 80 0 0.67 246 13:20 30.10.2019
5277 Rain 9 1016 80 0 0.67 246 12:58 30.10.2019
5278 Rain 9 1016 80 0 0.67 246 12:40 30.10.2019
5279 Rain 9 1016 80 0 0.67 246 12:21 30.10.2019
5280 Rain 9 1016 80 0 0.67 246 11:43 30.10.2019
5281 Rain 9 1016 80 0 0.67 246 11:24 30.10.2019
5282 Rain 15 1015 50 0 2.94 214 10:46 30.10.2019
5283 Rain 15 1015 50 0 2.94 214 10:28 30.10.2019
5284 Rain 15 1015 50 0 2.94 214 09:59 30.10.2019
5285 Rain 15 1015 50 0 2.94 214 09:59 30.10.2019
5286 Rain 15 1015 50 0 2.94 214 09:40 30.10.2019
5287 Rain 15 1015 50 0 2.94 214 09:22 30.10.2019
5288 Rain 15 1015 50 0 2.94 214 08:54 30.10.2019
5289 Rain 15 1015 50 0 2.87 213 08:36 30.10.2019
5290 Clear 16 1018 39 0 3.04 205 08:18 30.10.2019
5291 Clear 16 1018 39 0 3.04 205 07:42 30.10.2019
5292 Clear 16 1018 39 0 3.04 205 06:56 30.10.2019
5293 Clear 16 1018 39 0 3.04 205 06:37 30.10.2019
5294 Clear 16 1018 39 0 3.04 205 05:56 30.10.2019
5295 Clear 16 1018 39 0 3.04 205 05:37 30.10.2019
5296 Clear 13 1020 39 0 0.37 344 03:54 30.10.2019
5297 Clear 13 1020 39 0 0.37 344 03:23 30.10.2019
5298 Clear 13 1020 39 0 0.37 344 02:49 30.10.2019
5299 Clouds 8 1020 42 0 3.05 6 01:49 30.10.2019
5300 Clear 8 1020 44 0 2.94 1 00:38 30.10.2019
5301 Clear 8 1020 44 0 2.94 1 00:19 30.10.2019
5302 Clear 8 1020 44 0 2.94 1 23:41 29.10.2019
5303 Clear 8 1020 49 0 2.71 9 23:22 29.10.2019
5304 Clear 8 1020 49 0 2.71 9 22:42 29.10.2019
5305 Clear 8 1020 49 0 2.71 9 22:19 29.10.2019
5306 Clear 8 1020 49 0 2.71 9 21:55 29.10.2019
5307 Clear 8 1020 49 0 2.71 9 21:37 29.10.2019
5308 Clear 8 1020 49 0 2.71 9 21:19 29.10.2019
5309 Clear 8 1020 49 0 2.71 9 20:42 29.10.2019
5310 Clouds 9 1021 53 0 2.42 19 20:23 29.10.2019
5311 Clouds 9 1021 53 0 2.42 19 19:59 29.10.2019
5312 Clouds 9 1021 53 0 2.42 19 19:40 29.10.2019
5313 Clouds 9 1021 53 0 2.42 19 19:22 29.10.2019
5314 Clouds 9 1021 53 0 2.42 19 18:59 29.10.2019
5315 Clouds 9 1021 53 0 2.42 19 18:40 29.10.2019
5316 Clouds 9 1021 53 0 2.42 19 18:21 29.10.2019
5317 Clouds 9 1021 53 0 2.42 19 17:58 29.10.2019
5318 Clouds 9 1021 53 0 2.42 19 17:40 29.10.2019
5319 Clouds 9 1021 62 0 2.28 17 17:21 29.10.2019
5320 Clouds 9 1021 62 0 2.28 17 16:58 29.10.2019
5321 Clouds 9 1021 62 0 2.28 17 16:38 29.10.2019
5322 Clouds 9 1021 62 0 2.28 17 16:18 29.10.2019
5323 Clouds 9 1021 62 0 2.28 17 15:42 29.10.2019
5324 Clouds 9 1021 62 0 2.28 17 15:22 29.10.2019
5325 Clouds 9 1021 62 0 2.28 17 14:59 29.10.2019
5326 Clouds 9 1021 62 0 2.28 17 14:41 29.10.2019
5327 Rain 9 1019 76 0 0.29 292 14:23 29.10.2019
5328 Rain 9 1019 76 0 0.29 292 13:58 29.10.2019
5329 Rain 9 1019 76 0 0.29 292 13:39 29.10.2019
5330 Clear 9 1018 76 0 0.51 269 13:21 29.10.2019
5331 Clear 9 1018 76 0 0.51 269 12:43 29.10.2019
5332 Clear 9 1018 76 0 0.51 269 12:25 29.10.2019
5333 Clear 9 1018 76 0 0.51 269 11:55 29.10.2019
5334 Clear 9 1018 76 0 0.51 269 11:37 29.10.2019
5335 Clear 17 1017 41 0 2.97 212 11:18 29.10.2019
5336 Clear 17 1017 41 0 2.97 212 10:57 29.10.2019
5337 Clear 17 1017 41 0 2.97 212 10:38 29.10.2019
5338 Clear 17 1017 41 0 2.97 212 10:19 29.10.2019
5339 Clear 17 1017 41 0 2.97 212 09:42 29.10.2019
5340 Clear 17 1017 41 0 2.97 212 09:23 29.10.2019
5341 Clear 17 1017 41 0 2.97 212 09:23 29.10.2019
5342 Clear 17 1017 41 0 2.97 212 08:57 29.10.2019
5343 Clear 17 1017 41 0 2.97 212 08:39 29.10.2019
5344 Clouds 17 1020 36 0 3.02 198 08:20 29.10.2019
5345 Clouds 17 1020 36 0 3.02 198 07:48 29.10.2019
5346 Clouds 17 1020 36 0 3.02 198 07:21 29.10.2019
5347 Clouds 17 1020 36 0 3.02 198 06:54 29.10.2019
5348 Clouds 17 1020 36 0 3.02 198 06:33 29.10.2019
5349 Clouds 17 1020 36 0 3.02 198 06:33 29.10.2019
5350 Clouds 17 1020 36 0 3.02 198 05:59 29.10.2019
5351 Clouds 17 1020 36 0 3.02 198 05:39 29.10.2019
5352 Clouds 13 1021 37 0 0.73 283 05:18 29.10.2019
5353 Clouds 13 1021 37 0 0.73 283 03:31 29.10.2019
5354 Clouds 9 1021 37 0 2.64 347 01:57 29.10.2019
5355 Clouds 9 1021 37 0 2.64 347 01:36 29.10.2019
5356 Clouds 9 1021 37 0 2.85 348 00:54 29.10.2019
5357 Clouds 9 1021 37 0 2.85 348 00:26 29.10.2019
5358 Clouds 9 1021 37 0 2.85 348 23:40 28.10.2019
5359 Clouds 9 1021 36 0 3.18 6 23:20 28.10.2019
5360 Clouds 9 1021 36 0 3.18 6 22:57 28.10.2019
5361 Clouds 9 1021 36 0 3.18 6 22:57 28.10.2019
5362 Clouds 9 1021 36 0 3.18 6 22:36 28.10.2019
5363 Clouds 9 1021 36 0 3.18 6 22:18 28.10.2019
5364 Clouds 9 1021 36 0 3.18 6 22:18 28.10.2019
5365 Clouds 9 1021 36 0 3.18 6 21:54 28.10.2019
5366 Clouds 9 1021 36 0 3.18 6 21:36 28.10.2019
5367 Clouds 9 1021 36 0 3.18 6 21:18 28.10.2019
5368 Clouds 9 1021 36 0 3.18 6 20:41 28.10.2019
5369 Clear 9 1021 48 0 2.54 14 20:23 28.10.2019
5370 Clear 9 1021 48 0 2.54 14 19:55 28.10.2019
5371 Clear 9 1021 48 0 2.54 14 19:37 28.10.2019
5372 Clear 9 1021 48 0 2.54 14 19:18 28.10.2019
5373 Clear 9 1021 48 0 2.54 14 18:57 28.10.2019
5374 Clear 9 1021 48 0 2.54 14 18:38 28.10.2019
5375 Clear 9 1021 48 0 2.54 14 18:20 28.10.2019
5376 Clear 9 1021 48 0 2.54 14 17:56 28.10.2019
5377 Clear 9 1021 48 0 2.54 14 17:38 28.10.2019
5378 Clear 9 1021 62 0 1.43 6 17:18 28.10.2019
5379 Clear 9 1021 62 0 1.43 6 16:55 28.10.2019
5380 Clear 9 1021 62 0 1.43 6 16:37 28.10.2019
5381 Clear 9 1021 62 0 1.43 6 16:19 28.10.2019
5382 Clear 9 1021 62 0 1.43 6 15:56 28.10.2019
5383 Clear 9 1021 62 0 1.43 6 15:37 28.10.2019
5384 Clear 9 1021 62 0 1.43 6 15:18 28.10.2019
5385 Clear 9 1021 62 0 1.43 6 14:55 28.10.2019
5386 Clear 9 1021 62 0 1.43 6 14:36 28.10.2019
5387 Clear 10 1018 73 0 0.39 321 14:18 28.10.2019
5388 Clear 10 1018 73 0 0.39 321 13:54 28.10.2019
5389 Clear 10 1018 73 0 0.39 321 13:54 28.10.2019
5390 Clear 10 1018 71 0 0.43 306 13:36 28.10.2019
5391 Clear 10 1018 71 0 0.43 306 13:18 28.10.2019
5392 Clear 10 1018 71 0 0.43 306 12:40 28.10.2019
5393 Clear 10 1018 71 0 0.43 306 12:19 28.10.2019
5394 Clear 10 1018 71 0 0.43 306 11:39 28.10.2019
5395 Clear 17 1017 42 0 2.55 203 11:20 28.10.2019
5396 Clear 17 1017 42 0 2.55 203 11:20 28.10.2019
5397 Clear 17 1017 42 0 2.55 203 10:56 28.10.2019
5398 Clear 17 1017 42 0 2.55 203 10:38 28.10.2019
5399 Clear 17 1017 42 0 2.55 203 10:19 28.10.2019
5400 Clear 17 1017 42 0 2.55 203 09:54 28.10.2019
5401 Clear 17 1017 42 0 2.55 203 09:36 28.10.2019
5402 Clear 17 1017 42 0 2.55 203 09:18 28.10.2019
5403 Clear 17 1017 42 0 2.55 203 08:56 28.10.2019
5404 Clear 17 1017 42 0 2.55 203 08:37 28.10.2019
5405 Clouds 16 1019 36 0 3.02 202 08:18 28.10.2019
5406 Clouds 16 1019 36 0 3.02 202 07:43 28.10.2019
5407 Clouds 16 1019 36 0 3.02 202 07:21 28.10.2019
5408 Clouds 16 1019 36 0 3.02 202 06:56 28.10.2019
5409 Clouds 16 1019 36 0 3.02 202 06:34 28.10.2019
5410 Clouds 13 1021 34 0 0.86 294 04:49 28.10.2019
5411 Clouds 13 1021 34 0 0.86 294 03:44 28.10.2019
5412 Clouds 13 1021 34 0 0.86 294 02:45 28.10.2019
5413 Clear 9 1020 34 0 3.1 357 01:36 28.10.2019
5414 Clear 8 1020 34 0 3.08 359 00:46 28.10.2019
5415 Clear 8 1020 34 0 3.08 359 00:24 28.10.2019
5416 Clear 8 1020 34 0 3.08 359 23:44 27.10.2019
5417 Clear 9 1020 38 0 2.9 360 23:21 27.10.2019
5418 Clear 9 1020 38 0 2.9 360 22:56 27.10.2019
5419 Clear 9 1020 38 0 2.9 360 22:37 27.10.2019
5420 Clear 9 1020 38 0 2.9 360 22:19 27.10.2019
5421 Clear 9 1020 38 0 2.9 360 22:19 27.10.2019
5422 Clear 9 1020 38 0 2.9 360 21:55 27.10.2019
5423 Clear 9 1020 38 0 2.9 360 21:37 27.10.2019
5424 Clear 9 1020 38 0 2.9 360 21:18 27.10.2019
5425 Clear 9 1019 44 0 2.96 355 20:41 27.10.2019
5426 Clear 9 1020 45 0 2.73 2 20:23 27.10.2019
5427 Clear 9 1020 45 0 2.73 2 19:58 27.10.2019
5428 Clear 9 1020 45 0 2.73 2 19:37 27.10.2019
5429 Clear 9 1020 45 0 2.73 2 19:19 27.10.2019
5430 Clear 9 1020 45 0 2.73 2 18:56 27.10.2019
5431 Clear 9 1020 45 0 2.73 2 18:38 27.10.2019
5432 Clear 9 1020 45 0 2.73 2 18:20 27.10.2019
5433 Clear 9 1020 45 0 2.73 2 18:20 27.10.2019
5434 Clear 9 1020 45 0 2.73 2 17:55 27.10.2019
5435 Clear 9 1020 45 0 2.73 2 17:36 27.10.2019
5436 Clear 9 1020 59 0 2.08 7 17:18 27.10.2019
5437 Clear 9 1020 59 0 2.08 7 16:55 27.10.2019
5438 Clear 9 1020 59 0 2.08 7 16:37 27.10.2019
5439 Clear 9 1020 59 0 2.08 7 16:19 27.10.2019
5440 Clear 9 1020 59 0 2.08 7 15:55 27.10.2019
5441 Clear 9 1020 59 0 2.08 7 15:37 27.10.2019
5442 Clear 9 1020 59 0 2.08 7 15:18 27.10.2019
5443 Clear 9 1020 59 0 2.08 7 14:41 27.10.2019
5444 Clouds 9 1017 71 0 0.37 278 14:20 27.10.2019
5445 Clouds 9 1017 71 0 0.37 278 13:56 27.10.2019
5446 Clouds 9 1017 71 0 0.37 278 13:37 27.10.2019
5447 Clouds 9 1017 73 0 0.29 277 13:19 27.10.2019
5448 Clouds 9 1017 73 0 0.29 277 12:43 27.10.2019
5449 Clouds 9 1017 73 0 0.29 277 12:24 27.10.2019
5450 Clouds 9 1017 73 0 0.29 277 11:56 27.10.2019
5451 Clouds 9 1017 73 0 0.29 277 11:38 27.10.2019
5452 Clear 16 1016 42 0 3.01 211 11:19 27.10.2019
5453 Clear 16 1016 42 0 3.01 211 10:42 27.10.2019
5454 Clear 16 1016 42 0 3.01 211 10:23 27.10.2019
5455 Clear 16 1016 42 0 3.01 211 09:45 27.10.2019
5456 Clear 16 1016 42 0 3.01 211 09:20 27.10.2019
5457 Clear 16 1016 42 0 3.01 211 09:20 27.10.2019
5458 Clear 16 1016 42 0 3.01 211 08:59 27.10.2019
5459 Clear 16 1016 42 0 3.01 211 08:41 27.10.2019
5460 Clear 16 1019 31 0 3.29 208 08:21 27.10.2019
5461 Clear 16 1019 31 0 3.29 208 07:50 27.10.2019
5462 Clear 16 1019 31 0 3.29 208 07:29 27.10.2019
5463 Clear 16 1019 31 0 3.29 208 06:59 27.10.2019
5464 Clear 16 1019 31 0 3.29 208 06:40 27.10.2019
5465 Clear 16 1019 31 0 3.29 208 06:21 27.10.2019
5466 Clear 16 1019 31 0 3.29 208 05:38 27.10.2019
5467 Clear 12 1020 33 0 0.81 337 04:49 27.10.2019
5468 Clear 12 1020 33 0 0.81 337 02:52 27.10.2019
5469 Clear 7 1020 37 0 3.39 6 02:19 27.10.2019
5470 Clear 7 1020 37 0 3.39 6 01:24 27.10.2019
5471 Clear 7 1020 37 0 3.39 6 00:51 27.10.2019
5472 Clear 7 1020 37 0 3.39 6 00:29 27.10.2019
5473 Clear 7 1020 46 0 3.37 7 23:57 26.10.2019
5474 Clear 7 1020 46 0 3.37 7 23:39 26.10.2019
5475 Clear 7 1020 46 0 3.37 7 23:21 26.10.2019
5476 Clear 7 1020 46 0 3.37 7 22:56 26.10.2019
5477 Clear 7 1020 46 0 3.37 7 22:38 26.10.2019
5478 Clear 7 1020 46 0 3.37 7 22:19 26.10.2019
5479 Clear 7 1020 46 0 3.37 7 21:44 26.10.2019
5480 Clear 7 1021 53 0 2.99 4 21:22 26.10.2019
5481 Clear 7 1021 53 0 2.99 4 20:59 26.10.2019
5482 Clear 7 1021 53 0 2.99 4 20:39 26.10.2019
5483 Clear 7 1021 53 0 2.99 4 20:19 26.10.2019
5484 Clear 7 1021 53 0 2.99 4 19:42 26.10.2019
5485 Clear 7 1021 53 0 2.99 4 19:42 26.10.2019
5486 Clear 7 1021 53 0 2.99 4 19:21 26.10.2019
5487 Clear 7 1021 53 0 2.99 4 18:57 26.10.2019
5488 Clear 7 1021 53 0 2.99 4 18:39 26.10.2019
5489 Clear 7 1021 66 0 2.34 9 18:20 26.10.2019
5490 Clear 7 1021 66 0 2.34 9 17:57 26.10.2019
5491 Clear 7 1021 66 0 2.34 9 17:38 26.10.2019
5492 Clear 7 1021 66 0 2.34 9 17:20 26.10.2019
5493 Clear 7 1021 66 0 2.34 9 16:45 26.10.2019
5494 Clear 7 1021 66 0 2.34 9 16:25 26.10.2019
5495 Clear 7 1021 66 0 2.34 9 15:59 26.10.2019
5496 Clear 7 1021 66 0 2.34 9 15:39 26.10.2019
5497 Rain 8 1018 81 0 0.24 237 15:18 26.10.2019
5498 Rain 8 1018 81 0 0.24 237 14:39 26.10.2019
5499 Rain 9 1018 78 0 0.51 222 14:19 26.10.2019
5500 Rain 9 1018 78 0 0.51 222 13:56 26.10.2019
5501 Rain 9 1018 78 0 0.51 222 13:37 26.10.2019
5502 Rain 9 1018 78 0 0.51 222 13:18 26.10.2019
5503 Rain 9 1018 78 0 0.51 222 12:43 26.10.2019
5504 Rain 14 1017 53 0 2.77 215 12:21 26.10.2019
5505 Rain 14 1017 53 0 2.77 215 11:48 26.10.2019
5506 Rain 14 1017 53 0 2.77 215 11:25 26.10.2019
5507 Rain 14 1017 53 0 2.77 215 10:47 26.10.2019
5508 Rain 14 1017 53 0 2.77 215 10:27 26.10.2019
5509 Rain 14 1017 53 0 2.77 215 09:50 26.10.2019
5510 Rain 13 1017 52 0 2.85 216 09:30 26.10.2019
5511 Clear 14 1020 42 0 3.25 206 08:57 26.10.2019
5512 Clear 14 1020 42 0 3.25 206 08:39 26.10.2019
5513 Clear 14 1020 42 0 3.25 206 08:21 26.10.2019
5514 Clear 14 1020 42 0 3.25 206 07:43 26.10.2019
5515 Clear 14 1020 42 0 3.25 206 07:23 26.10.2019
5516 Clear 14 1020 42 0 3.25 206 06:41 26.10.2019
5517 Clear 11 1021 44 0 0.71 11 05:59 26.10.2019
5518 Clear 11 1021 44 0 0.71 11 05:19 26.10.2019
5519 Clear 11 1021 44 0 0.71 11 03:56 26.10.2019
5520 Clear 6 1020 58 0 2.89 360 02:35 26.10.2019
5521 Clear 6 1020 58 0 2.89 360 01:47 26.10.2019
5522 Clear 6 1020 58 0 2.89 360 00:56 26.10.2019
5523 Clear 6 1020 54 0 2.87 6 23:57 25.10.2019
5524 Clear 6 1020 54 0 2.87 6 23:38 25.10.2019
5525 Clear 6 1020 54 0 2.87 6 23:19 25.10.2019
5526 Clear 6 1020 54 0 2.87 6 22:40 25.10.2019
5527 Clear 6 1020 54 0 2.87 6 22:21 25.10.2019
5528 Clear 6 1020 54 0 2.87 6 21:57 25.10.2019
5529 Clear 6 1020 55 0 2.86 9 21:38 25.10.2019
5530 Clear 6 1020 63 0 2.67 3 21:19 25.10.2019
5531 Clear 6 1020 63 0 2.67 3 20:44 25.10.2019
5532 Clear 6 1020 63 0 2.67 3 20:20 25.10.2019
5533 Clear 6 1020 63 0 2.67 3 19:56 25.10.2019
5534 Clear 6 1020 63 0 2.67 3 19:38 25.10.2019
5535 Clear 6 1020 63 0 2.67 3 19:19 25.10.2019
5536 Clear 6 1020 63 0 2.67 3 18:43 25.10.2019
5537 Rain 7 1019 70 0 2.15 19 18:20 25.10.2019
5538 Rain 7 1019 70 0 2.15 19 17:41 25.10.2019
5539 Rain 7 1019 70 0 2.15 19 17:20 25.10.2019
5540 Rain 7 1019 70 0 2.15 19 16:47 25.10.2019
5541 Rain 7 1019 70 0 2.15 19 16:24 25.10.2019
5542 Rain 7 1019 70 0 2.15 19 15:58 25.10.2019
5543 Rain 7 1019 70 0 2.15 19 15:40 25.10.2019
5544 Rain 8 1016 76 0 0.62 218 15:21 25.10.2019
5545 Rain 8 1016 76 0 0.62 218 14:57 25.10.2019
5546 Rain 8 1016 76 0 0.62 218 14:38 25.10.2019
5547 Rain 8 1016 79 0 0.58 223 14:20 25.10.2019
5548 Rain 8 1016 79 0 0.58 223 13:41 25.10.2019
5549 Rain 8 1016 79 0 0.58 223 13:22 25.10.2019
5550 Rain 8 1016 79 0 0.58 223 12:55 25.10.2019
5551 Rain 8 1016 79 0 0.58 223 12:37 25.10.2019
5552 Rain 13 1016 52 0 2.94 218 12:18 25.10.2019
5553 Rain 13 1016 52 0 2.94 218 11:40 25.10.2019
5554 Rain 13 1016 52 0 2.94 218 11:22 25.10.2019
5555 Rain 13 1016 52 0 2.94 218 10:57 25.10.2019
5556 Rain 13 1016 52 0 2.94 218 10:36 25.10.2019
5557 Rain 13 1016 52 0 2.94 218 10:36 25.10.2019
5558 Rain 13 1016 52 0 2.94 218 10:18 25.10.2019
5559 Rain 13 1016 52 0 2.94 218 09:41 25.10.2019
5560 Clear 14 1019 40 0 3.25 209 09:21 25.10.2019
5561 Clear 14 1019 40 0 3.25 209 08:57 25.10.2019
5562 Clear 14 1019 40 0 3.25 209 08:39 25.10.2019
5563 Clear 14 1019 40 0 3.25 209 08:39 25.10.2019
5564 Clear 14 1019 40 0 3.25 209 08:20 25.10.2019
5565 Clear 14 1019 40 0 3.25 209 07:45 25.10.2019
5566 Clear 14 1019 40 0 3.25 209 07:26 25.10.2019
5567 Clear 14 1019 40 0 3.25 209 06:37 25.10.2019
5568 Clear 11 1020 40 0 0.29 268 05:49 25.10.2019
5569 Clear 11 1020 40 0 0.29 268 05:28 25.10.2019
5570 Clear 11 1020 40 0 0.29 268 04:36 25.10.2019
5571 Clear 6 1020 47 0 3.04 1 02:42 25.10.2019
5572 Clear 6 1020 47 0 3.05 2 01:52 25.10.2019
5573 Clear 6 1020 47 0 3.05 2 00:36 25.10.2019
5574 Clear 7 1019 47 0 3.06 6 23:55 24.10.2019
5575 Clear 7 1019 47 0 3.06 6 23:36 24.10.2019
5576 Clear 7 1019 47 0 3.06 6 23:18 24.10.2019
5577 Clear 7 1019 47 0 3.06 6 22:39 24.10.2019
5578 Clear 7 1019 47 0 3.06 6 22:19 24.10.2019
5579 Clear 7 1019 47 0 3.06 6 21:58 24.10.2019
5580 Clear 7 1019 48 0 3.04 7 21:40 24.10.2019
5581 Clear 7 1019 49 0 2.93 7 21:20 24.10.2019
5582 Clear 7 1019 49 0 2.93 7 20:59 24.10.2019
5583 Clear 7 1019 49 0 2.93 7 20:39 24.10.2019
5584 Clear 7 1019 49 0 2.93 7 20:21 24.10.2019
5585 Clear 7 1019 49 0 2.93 7 19:58 24.10.2019
5586 Clear 7 1019 49 0 2.93 7 19:40 24.10.2019
5587 Clear 7 1019 49 0 2.93 7 19:22 24.10.2019
5588 Clear 7 1019 49 0 2.93 7 18:57 24.10.2019
5589 Clear 7 1019 49 0 2.93 7 18:38 24.10.2019
5590 Clear 7 1019 61 0 2.65 15 18:19 24.10.2019
5591 Clear 7 1019 61 0 2.65 15 17:42 24.10.2019
5592 Clear 7 1019 61 0 2.65 15 17:21 24.10.2019
5593 Clear 7 1019 61 0 2.65 15 16:58 24.10.2019
5594 Clear 7 1019 61 0 2.65 15 16:40 24.10.2019
5595 Clear 7 1019 61 0 2.65 15 16:22 24.10.2019
5596 Clear 7 1019 61 0 2.65 15 15:59 24.10.2019
5597 Clear 7 1019 61 0 2.65 15 15:40 24.10.2019
5598 Clear 8 1016 68 0 0.8 235 15:22 24.10.2019
5599 Clear 8 1016 68 0 0.8 235 14:59 24.10.2019
5600 Clear 9 1015 66 0 0.85 240 14:40 24.10.2019
5601 Clear 9 1015 66 0 0.85 240 14:20 24.10.2019
5602 Clear 9 1015 66 0 0.85 240 13:42 24.10.2019
5603 Clear 9 1015 66 0 0.85 240 13:20 24.10.2019
5604 Clear 9 1015 66 0 0.85 240 12:58 24.10.2019
5605 Clear 9 1015 66 0 0.85 240 12:40 24.10.2019
5606 Clear 15 1015 34 0 3.2 216 12:20 24.10.2019
5607 Clear 15 1015 34 0 3.2 216 11:57 24.10.2019
5608 Clear 15 1015 34 0 3.2 216 11:39 24.10.2019
5609 Clear 15 1015 34 0 3.2 216 11:20 24.10.2019
5610 Clear 15 1015 34 0 3.2 216 10:59 24.10.2019
5611 Clear 15 1015 34 0 3.2 216 10:41 24.10.2019
5612 Clear 15 1015 34 0 3.2 216 10:22 24.10.2019
5613 Clear 15 1015 34 0 3.2 216 09:39 24.10.2019
5614 Clear 15 1015 34 0 3.2 216 09:39 24.10.2019
5615 Clear 15 1018 29 0 3.08 207 09:19 24.10.2019
5616 Clear 15 1018 29 0 3.08 207 08:55 24.10.2019
5617 Clear 15 1018 29 0 3.08 207 08:37 24.10.2019
5618 Clear 15 1018 29 0 3.08 207 08:18 24.10.2019
5619 Clear 15 1018 29 0 3.08 207 07:46 24.10.2019
5620 Clear 15 1018 29 0 3.08 207 07:23 24.10.2019
5621 Clear 15 1018 29 0 3.08 207 06:48 24.10.2019
5622 Clear 15 1018 29 0 3.08 207 06:26 24.10.2019
5623 Clear 12 1020 32 0 0.63 307 05:52 24.10.2019
5624 Clear 12 1020 32 0 0.63 307 05:29 24.10.2019
5625 Clear 12 1020 32 0 0.63 307 03:39 24.10.2019
5626 Clear 6 1019 32 0 3.58 3 03:19 24.10.2019
5627 Clear 7 1019 35 0 3.52 5 02:29 24.10.2019
5628 Clear 7 1019 35 0 3.52 5 01:57 24.10.2019
5629 Clear 7 1019 35 0 3.52 5 01:30 24.10.2019
5630 Clear 7 1019 35 0 3.52 5 00:51 24.10.2019
5631 Clear 7 1019 33 0 3.19 1 00:23 24.10.2019
5632 Clear 7 1019 33 0 3.19 1 23:44 23.10.2019
5633 Clear 7 1019 33 0 3.19 1 23:24 23.10.2019
5634 Clear 7 1019 33 0 3.19 1 22:58 23.10.2019
5635 Clear 7 1019 33 0 3.19 1 22:39 23.10.2019
5636 Clear 7 1019 33 0 3.19 1 22:19 23.10.2019
5637 Clear 7 1019 33 0 3.19 1 21:58 23.10.2019
5638 Clear 7 1019 33 0 3.19 1 21:40 23.10.2019
5639 Clear 8 1018 40 0 3.15 6 21:21 23.10.2019
5640 Clear 8 1018 40 0 3.15 6 20:59 23.10.2019
5641 Clear 8 1018 40 0 3.15 6 20:39 23.10.2019
5642 Clear 8 1018 40 0 3.15 6 20:21 23.10.2019
5643 Clear 8 1018 40 0 3.15 6 20:21 23.10.2019
5644 Clear 8 1018 40 0 3.15 6 19:58 23.10.2019
5645 Clear 8 1018 40 0 3.15 6 19:40 23.10.2019
5646 Clear 8 1018 40 0 3.15 6 19:19 23.10.2019
5647 Clear 8 1018 40 0 3.15 6 18:57 23.10.2019
5648 Clear 8 1018 40 0 3.15 6 18:38 23.10.2019
5649 Clear 8 1017 51 0 2.84 15 18:19 23.10.2019
5650 Clear 8 1017 51 0 2.84 15 17:45 23.10.2019
5651 Clear 8 1017 51 0 2.84 15 17:21 23.10.2019
5652 Clear 8 1017 51 0 2.84 15 16:58 23.10.2019
5653 Clear 8 1017 51 0 2.84 15 16:40 23.10.2019
5654 Clear 8 1017 51 0 2.84 15 16:20 23.10.2019
5655 Clear 8 1017 51 0 2.84 15 16:20 23.10.2019
5656 Clear 8 1017 51 0 2.84 15 15:54 23.10.2019
5657 Clear 8 1017 51 0 2.84 15 15:36 23.10.2019
5658 Clouds 9 1014 61 0 0.47 277 15:18 23.10.2019
5659 Clouds 9 1014 61 0 0.47 277 14:54 23.10.2019
5660 Clouds 9 1014 62 0 0.51 282 14:36 23.10.2019
5661 Clouds 9 1014 62 0 0.51 282 14:18 23.10.2019
5662 Clouds 9 1014 62 0 0.51 282 13:42 23.10.2019
5663 Clouds 9 1014 62 0 0.51 282 13:23 23.10.2019
5664 Clouds 9 1014 62 0 0.51 282 12:57 23.10.2019
5665 Clouds 9 1014 62 0 0.51 282 12:38 23.10.2019
5666 Clouds 15 1013 32 0 3.11 211 12:18 23.10.2019
5667 Clouds 15 1013 32 0 3.11 211 11:57 23.10.2019
5668 Clouds 15 1013 32 0 3.11 211 11:39 23.10.2019
5669 Clouds 15 1013 32 0 3.11 211 11:20 23.10.2019
5670 Clouds 15 1013 32 0 3.11 211 10:46 23.10.2019
5671 Clouds 15 1013 32 0 3.11 211 10:26 23.10.2019
5672 Clouds 15 1013 32 0 3.11 211 10:26 23.10.2019
5673 Clouds 15 1013 32 0 3.11 211 09:58 23.10.2019
5674 Clouds 15 1013 32 0 3.19 211 09:39 23.10.2019
5675 Clouds 15 1016 29 0 2.98 205 09:20 23.10.2019
5676 Clouds 15 1016 29 0 2.98 205 08:43 23.10.2019
5677 Clouds 15 1016 29 0 2.98 205 08:25 23.10.2019
5678 Clouds 15 1016 29 0 2.98 205 07:47 23.10.2019
5679 Clouds 15 1016 29 0 2.98 205 07:26 23.10.2019
5680 Clouds 15 1016 29 0 2.98 205 06:48 23.10.2019
5681 Clouds 12 1018 31 0 0.57 20 06:23 23.10.2019
5682 Clouds 12 1018 31 0 0.57 20 05:55 23.10.2019
5683 Clouds 12 1018 31 0 0.57 20 05:18 23.10.2019
5684 Clouds 12 1018 31 0 0.57 20 03:37 23.10.2019
5685 Clouds 7 1017 29 0 3 5 02:42 23.10.2019
5686 Clouds 7 1017 29 0 3 5 01:34 23.10.2019
5687 Clouds 7 1017 29 0 3 5 00:59 23.10.2019
5688 Clouds 7 1017 29 0 3 5 00:33 23.10.2019
5689 Clouds 8 1017 35 0 2.99 8 23:43 22.10.2019
5690 Clouds 8 1017 35 0 2.99 8 23:19 22.10.2019
5691 Clouds 8 1017 35 0 2.99 8 22:59 22.10.2019
5692 Clouds 8 1017 35 0 2.99 8 22:59 22.10.2019
5693 Clouds 8 1017 35 0 2.99 8 22:40 22.10.2019
5694 Clouds 8 1017 35 0 2.99 8 22:21 22.10.2019
5695 Clouds 8 1017 35 0 2.99 8 21:57 22.10.2019
5696 Clouds 8 1017 36 0 2.9 10 21:38 22.10.2019
5697 Clear 8 1017 48 0 2.84 7 21:19 22.10.2019
5698 Clear 8 1017 48 0 2.84 7 20:58 22.10.2019
5699 Clear 8 1017 48 0 2.84 7 20:58 22.10.2019
5700 Clear 8 1017 48 0 2.84 7 20:40 22.10.2019
5701 Clear 8 1017 48 0 2.84 7 20:21 22.10.2019
5702 Clear 8 1017 48 0 2.84 7 19:55 22.10.2019
5703 Clear 8 1017 48 0 2.84 7 19:37 22.10.2019
5704 Clear 8 1017 48 0 2.84 7 19:19 22.10.2019
5705 Clear 8 1017 48 0 2.84 7 18:54 22.10.2019
5706 Clear 8 1017 48 0 2.84 7 18:36 22.10.2019
5707 Clear 8 1017 56 0 2.74 13 18:18 22.10.2019
5708 Clear 8 1017 56 0 2.74 13 17:39 22.10.2019
5709 Clear 8 1017 56 0 2.74 13 17:20 22.10.2019
5710 Clear 8 1017 56 0 2.74 13 16:59 22.10.2019
5711 Clear 8 1017 56 0 2.74 13 16:39 22.10.2019
5712 Clear 8 1017 56 0 2.74 13 16:20 22.10.2019
5713 Clear 8 1017 56 0 2.74 13 16:20 22.10.2019
5714 Clear 8 1017 56 0 2.74 13 15:58 22.10.2019
5715 Clear 8 1017 56 0 2.74 13 15:40 22.10.2019
5716 Clear 9 1014 67 0 0.19 239 15:19 22.10.2019
5717 Clear 9 1014 67 0 0.19 239 14:46 22.10.2019
5718 Clear 9 1014 67 0 0.19 239 14:46 22.10.2019
5719 Clear 9 1014 67 0 0.43 244 14:22 22.10.2019
5720 Clear 9 1014 67 0 0.43 244 14:22 22.10.2019
5721 Clear 9 1014 67 0 0.43 244 13:55 22.10.2019
5722 Clear 9 1014 67 0 0.43 244 13:37 22.10.2019
5723 Clear 9 1014 67 0 0.43 244 13:18 22.10.2019
5724 Clear 9 1014 67 0 0.43 244 12:41 22.10.2019
5725 Clear 16 1013 35 0 3.09 214 12:22 22.10.2019
5726 Clear 16 1013 35 0 3.09 214 11:59 22.10.2019
5727 Clear 16 1013 35 0 3.09 214 11:40 22.10.2019
5728 Clear 16 1013 35 0 3.09 214 11:22 22.10.2019
5729 Clear 16 1013 35 0 3.09 214 10:58 22.10.2019
5730 Clear 16 1013 35 0 3.09 214 10:37 22.10.2019
5731 Clear 16 1013 35 0 3.09 214 10:19 22.10.2019
5732 Clear 16 1013 35 0 3.09 214 09:56 22.10.2019
5733 Clear 16 1013 37 0 2.91 213 09:37 22.10.2019
5734 Clear 16 1013 37 0 2.91 213 09:37 22.10.2019
5735 Clear 16 1016 28 0 2.77 205 09:19 22.10.2019
5736 Clear 16 1016 28 0 2.77 205 08:43 22.10.2019
5737 Clear 16 1016 28 0 2.77 205 08:22 22.10.2019
5738 Clear 16 1016 28 0 2.77 205 07:55 22.10.2019
5739 Clear 16 1016 28 0 2.77 205 07:37 22.10.2019
5740 Clear 16 1016 28 0 2.77 205 07:18 22.10.2019
5741 Clear 16 1016 28 0 2.77 205 06:36 22.10.2019
5742 Clear 13 1018 33 0 0.55 313 06:18 22.10.2019
5743 Clear 13 1018 33 0 0.55 313 05:27 22.10.2019
5744 Clear 13 1018 33 0 0.55 313 03:53 22.10.2019
5745 Clear 7 1018 39 0 3.3 2 02:29 22.10.2019
5746 Clear 7 1018 39 0 3.3 2 01:36 22.10.2019
5747 Clear 7 1018 39 0 3.3 2 01:18 22.10.2019
5748 Clear 7 1018 39 0 3.3 2 00:41 22.10.2019
5749 Clear 7 1018 43 0 3.27 4 00:22 22.10.2019
5750 Clear 7 1018 43 0 3.27 4 23:58 21.10.2019
5751 Clear 7 1018 43 0 3.27 4 23:37 21.10.2019
5752 Clear 7 1018 43 0 3.27 4 23:19 21.10.2019
5753 Clear 7 1018 43 0 3.27 4 23:19 21.10.2019
5754 Clear 7 1018 43 0 3.27 4 22:57 21.10.2019
5755 Clear 7 1018 43 0 3.27 4 22:38 21.10.2019
5756 Clear 7 1018 43 0 3.27 4 22:19 21.10.2019
5757 Clear 7 1018 43 0 3.27 4 21:56 21.10.2019
5758 Clear 7 1018 45 0 3.13 1 21:37 21.10.2019
5759 Clear 7 1018 46 0 2.89 1 21:19 21.10.2019
5760 Clear 7 1018 46 0 2.89 1 20:56 21.10.2019
5761 Clear 7 1018 46 0 2.89 1 20:37 21.10.2019
5762 Clear 7 1018 46 0 2.89 1 20:19 21.10.2019
5763 Clear 7 1018 46 0 2.89 1 19:54 21.10.2019
5764 Clear 7 1018 46 0 2.89 1 19:54 21.10.2019
5765 Clear 7 1018 46 0 2.89 1 19:36 21.10.2019
5766 Clear 7 1018 46 0 2.89 1 19:18 21.10.2019
5767 Clear 7 1018 46 0 2.89 1 18:54 21.10.2019
5768 Clear 7 1018 46 0 2.89 1 18:54 21.10.2019
5769 Clear 7 1018 46 0 2.89 1 18:54 21.10.2019
5770 Clear 7 1018 46 0 2.89 1 18:36 21.10.2019
5771 Clear 8 1019 56 0 2.77 12 18:18 21.10.2019
5772 Clear 8 1019 56 0 2.77 12 17:38 21.10.2019
5773 Clear 8 1019 56 0 2.77 12 17:19 21.10.2019
5774 Clear 8 1019 56 0 2.77 12 16:58 21.10.2019
5775 Clear 8 1019 56 0 2.77 12 16:40 21.10.2019
5776 Clear 8 1019 56 0 2.77 12 16:21 21.10.2019
5777 Clear 8 1019 56 0 2.77 12 15:49 21.10.2019
5778 Clear 8 1019 56 0 2.77 12 15:27 21.10.2019
5779 Rain 9 1017 72 0 0.61 260 15:00 21.10.2019
5780 Rain 9 1017 72 0 0.61 260 15:00 21.10.2019
5781 Clear 9 1016 71 0 0.48 260 14:40 21.10.2019
5782 Clear 9 1016 71 0 0.48 260 14:40 21.10.2019
5783 Clear 9 1016 71 0 0.48 260 14:21 21.10.2019
5784 Clear 9 1016 71 0 0.48 260 14:21 21.10.2019
5785 Clear 9 1016 71 0 0.48 260 13:58 21.10.2019
5786 Clear 9 1016 71 0 0.48 260 13:40 21.10.2019
5787 Clear 9 1016 71 0 0.48 260 13:20 21.10.2019
5788 Clear 9 1016 71 0 0.48 260 12:57 21.10.2019
5789 Clear 9 1016 71 0 0.48 260 12:39 21.10.2019
5790 Clear 9 1016 71 0 0.48 260 12:39 21.10.2019
5791 Clear 1 1017 28 0 3.69 228.26 12:19 21.10.2019
5792 Clear 1 1017 28 0 3.69 228.26 11:40 21.10.2019
5793 Clear 1 1017 28 0 3.69 228.26 11:22 21.10.2019
5794 Clear 1 1017 28 0 3.69 228.26 10:58 21.10.2019
5795 Clear 1 1017 28 0 3.69 228.26 10:40 21.10.2019
5796 Clear 1 1017 28 0 3.69 228.26 10:19 21.10.2019
5797 Clear 1 1017 28 0 3.69 228.26 09:57 21.10.2019
5798 Clear 1 1017 28 0 3.69 228.26 09:37 21.10.2019
5799 Clouds 0 1020 19 0 2.21 210.514 09:19 21.10.2019
5800 Clouds -2 1021 15 0 1.83 204.939 08:40 21.10.2019
5801 Clouds -2 1021 15 0 1.83 204.939 08:22 21.10.2019
5802 Clouds -2 1021 15 0 1.83 204.939 07:45 21.10.2019
5803 Clouds -2 1021 15 0 1.83 204.939 07:23 21.10.2019
5804 Clouds -2 1021 15 0 1.83 204.939 06:59 21.10.2019
5805 Clouds -2 1021 15 0 1.83 204.939 06:41 21.10.2019
5806 Clouds -5 1023 31 0 1.2 68.873 06:18 21.10.2019
5807 Clouds -5 1023 31 0 1.2 68.873 05:21 21.10.2019
5808 Clouds -5 1023 31 0 1.2 68.873 03:40 21.10.2019
5809 Clouds -7 1022 51 0 1.98 52.43 02:39 21.10.2019
5810 Clouds -7 1022 51 0 1.98 52.43 02:19 21.10.2019
5811 Clouds -7 1022 51 0 1.98 52.43 01:44 21.10.2019
5812 Clouds -7 1022 51 0 2.07 50.148 00:52 21.10.2019
5813 Clouds -7 1022 51 0 2.07 50.148 00:28 21.10.2019
5814 Clouds -7 1022 51 0 2.07 50.148 00:28 21.10.2019
5815 Clouds -6 1022 63 0 1.7 66.739 23:58 20.10.2019
5816 Clouds -6 1022 63 0 1.7 66.739 23:39 20.10.2019
5817 Clouds -6 1022 63 0 1.7 66.739 23:21 20.10.2019
5818 Clouds -6 1022 63 0 1.7 66.739 22:42 20.10.2019
5819 Clouds -6 1022 63 0 1.7 66.739 22:24 20.10.2019
5820 Clouds -6 1022 63 0 1.7 66.739 22:24 20.10.2019
5821 Clouds -6 1022 63 0 1.7 66.739 22:24 20.10.2019
5822 Clouds -6 1022 63 0 1.7 66.739 21:59 20.10.2019
5823 Clouds -6 1022 63 0 1.7 66.739 21:40 20.10.2019
5824 Clouds -6 1022 63 0 1.7 66.739 21:40 20.10.2019
5825 Clouds -6 1022 79 0 1.25 109.971 21:22 20.10.2019
5826 Clouds -5 1022 76 0 1.48 109.393 20:57 20.10.2019
5827 Clouds -5 1022 76 0 1.48 109.393 20:38 20.10.2019
5828 Clouds -5 1022 76 0 1.48 109.393 20:18 20.10.2019
5829 Clouds -5 1022 76 0 1.48 109.393 19:55 20.10.2019
5830 Clouds -5 1022 76 0 1.48 109.393 19:55 20.10.2019
5831 Clouds -5 1022 76 0 1.48 109.393 19:37 20.10.2019
5832 Clouds -5 1022 76 0 1.48 109.393 19:19 20.10.2019
5833 Clouds -5 1022 76 0 1.48 109.393 18:40 20.10.2019
5834 Clouds -4 1022 83 0 1.43 123.579 18:22 20.10.2019
5835 Clouds -4 1022 83 0 1.43 123.579 17:58 20.10.2019
5836 Clouds -4 1022 83 0 1.43 123.579 17:39 20.10.2019
5837 Clouds -4 1022 83 0 1.43 123.579 17:21 20.10.2019
5838 Clouds -4 1022 83 0 1.43 123.579 16:55 20.10.2019
5839 Clouds -4 1022 83 0 1.43 123.579 16:36 20.10.2019
5840 Clouds -4 1022 83 0 1.43 123.579 16:18 20.10.2019
5841 Clouds -4 1022 83 0 1.43 123.579 15:41 20.10.2019
5842 Clouds -3 1020 80 0 2.56 176.682 15:23 20.10.2019
5843 Clouds -3 1020 80 0 2.56 176.682 14:59 20.10.2019
5844 Clouds -3 1020 80 0 2.56 176.682 14:38 20.10.2019
5845 Clouds -3 1020 80 0 2.56 176.682 14:20 20.10.2019
5846 Clouds -3 1020 80 0 2.56 176.682 13:56 20.10.2019
5847 Clouds -3 1020 80 0 2.56 176.682 13:37 20.10.2019
5848 Clouds -3 1020 77 0 2.25 171.938 13:19 20.10.2019
5849 Clouds -3 1020 77 0 2.25 171.938 12:57 20.10.2019
5850 Clouds -3 1020 77 0 2.25 171.938 12:39 20.10.2019
5851 Clouds -3 1020 77 0 2.25 171.938 12:39 20.10.2019
5852 Clouds 1 1019 36 0 3.41 214.264 12:21 20.10.2019
5853 Clouds 1 1019 36 0 3.41 214.264 11:59 20.10.2019
5854 Clouds 1 1019 36 0 3.41 214.264 11:40 20.10.2019
5855 Clouds 1 1019 36 0 3.41 214.264 11:40 20.10.2019
5856 Clouds 1 1019 36 0 3.41 214.264 11:22 20.10.2019
5857 Clouds 1 1019 36 0 3.41 214.264 10:57 20.10.2019
5858 Clouds 1 1019 36 0 3.41 214.264 10:38 20.10.2019
5859 Clouds 1 1019 36 0 3.41 214.264 10:20 20.10.2019
5860 Clouds 1 1019 36 0 3.41 214.264 09:44 20.10.2019
5861 Clear 0 1023 25 0 2.19 191.773 09:23 20.10.2019
5862 Clear 0 1023 24 0 2.1 187.044 08:59 20.10.2019
5863 Clear 0 1023 24 0 2.1 187.044 08:39 20.10.2019
5864 Clear 0 1023 24 0 2.1 187.044 08:20 20.10.2019
5865 Clear 0 1023 24 0 2.1 187.044 07:47 20.10.2019
5866 Clear 0 1023 24 0 2.1 187.044 07:24 20.10.2019
5867 Clear 0 1023 24 0 2.1 187.044 07:24 20.10.2019
5868 Clear 0 1023 24 0 2.1 187.044 07:24 20.10.2019
5869 Clear 0 1023 24 0 2.1 187.044 06:26 20.10.2019
5870 Clear -4 1025 50 0 1.74 64.892 04:28 20.10.2019
5871 Clear -4 1025 50 0 1.74 64.892 03:49 20.10.2019
5872 Clear -6 1025 69 0 1.79 49.989 03:22 20.10.2019
5873 Clear -6 1025 69 0 1.79 49.989 02:46 20.10.2019
5874 Clear -6 1025 69 0 1.79 49.989 02:18 20.10.2019
5875 Clear -6 1025 69 0 1.79 49.989 01:45 20.10.2019
5876 Clear -6 1025 66 0 1.93 47.736 01:19 20.10.2019
5877 Clear -6 1025 66 0 1.93 47.736 00:47 20.10.2019
5878 Clear -6 1024 67 0 1.43 55.731 00:20 20.10.2019
5879 Clear -6 1024 67 0 1.43 55.731 23:44 19.10.2019
5880 Clear -6 1024 67 0 1.43 55.731 23:24 19.10.2019
5881 Clear -6 1024 67 0 1.43 55.731 22:59 19.10.2019
5882 Clear -6 1024 67 0 1.43 55.731 22:40 19.10.2019
5883 Clear -6 1024 67 0 1.43 55.731 22:20 19.10.2019
5884 Clear -6 1024 67 0 1.43 55.731 21:54 19.10.2019
5885 Clear -6 1024 67 0 1.43 55.731 21:36 19.10.2019
5886 Clear -5 1025 72 0 1.24 100.247 21:18 19.10.2019
5887 Clear -5 1024 71 0 1.21 113.366 20:41 19.10.2019
5888 Clear -5 1024 71 0 1.21 113.366 20:20 19.10.2019
5889 Clear -5 1024 71 0 1.21 113.366 19:42 19.10.2019
5890 Clear -5 1024 71 0 1.21 113.366 19:24 19.10.2019
5891 Clear -5 1024 71 0 1.21 113.366 18:55 19.10.2019
5892 Clear -5 1024 71 0 1.21 113.366 18:37 19.10.2019
5893 Clear -5 1023 80 0 1.54 177.988 18:18 19.10.2019
5894 Clear -5 1023 80 0 1.54 177.988 17:41 19.10.2019
5895 Clear -5 1023 80 0 1.54 177.988 17:21 19.10.2019
5896 Clear -5 1023 80 0 1.54 177.988 17:21 19.10.2019
5897 Clear -5 1023 80 0 1.54 177.988 16:56 19.10.2019
5898 Clear -5 1023 80 0 1.54 177.988 16:37 19.10.2019
5899 Clear -5 1023 80 0 1.54 177.988 16:18 19.10.2019
5900 Clear -5 1023 80 0 1.54 177.988 15:41 19.10.2019
5901 Clouds -3 1021 71 0 3.04 207.772 15:23 19.10.2019
5902 Clouds -3 1021 71 0 3.04 207.772 14:39 19.10.2019
5903 Clouds -3 1021 71 0 3.04 207.772 14:20 19.10.2019
5904 Clouds -3 1021 71 0 3.04 207.772 13:58 19.10.2019
5905 Clouds -3 1021 71 0 3.04 207.772 13:39 19.10.2019
5906 Clouds -3 1020 71 0 2.83 208.491 13:19 19.10.2019
5907 Clouds -3 1020 71 0 2.83 208.491 12:57 19.10.2019
5908 Clouds -3 1020 71 0 2.83 208.491 12:37 19.10.2019
5909 Clouds 0 1021 49 0 3.78 182.969 12:19 19.10.2019
5910 Clouds 0 1021 49 0 3.78 182.969 11:41 19.10.2019
5911 Clouds 0 1021 49 0 3.78 182.969 11:23 19.10.2019
5912 Clouds 0 1021 49 0 3.78 182.969 10:56 19.10.2019
5913 Clouds 0 1021 49 0 3.78 182.969 10:38 19.10.2019
5914 Clouds 0 1021 49 0 3.78 182.969 10:20 19.10.2019
5915 Clouds 0 1021 49 0 3.78 182.969 09:44 19.10.2019
5916 Clouds 0 1021 49 0 3.78 182.969 09:26 19.10.2019
5917 Clouds -1 1024 63 0 3.09 169.592 09:00 19.10.2019
5918 Clouds -1 1024 63 0 3.09 169.592 08:59 19.10.2019
5919 Clouds -1 1024 63 0 3.09 169.592 08:40 19.10.2019
5920 Clouds -1 1024 63 0 3.09 169.592 08:21 19.10.2019
5921 Clouds -1 1024 63 0 3.09 169.592 07:45 19.10.2019
5922 Clouds -1 1024 63 0 3.09 169.592 07:25 19.10.2019
5923 Clouds -1 1024 63 0 3.09 169.592 07:25 19.10.2019
5924 Clouds -1 1024 63 0 3.09 169.592 06:48 19.10.2019
5925 Clouds -1 1024 63 0 3.09 169.592 06:48 19.10.2019
5926 Clouds -1 1024 63 0 3.09 169.592 06:28 19.10.2019
5927 Clouds -1 1024 63 0 3.09 169.592 06:28 19.10.2019
5928 Clear -3 1025 56 0 0.97 105.865 05:34 19.10.2019
5929 Clear -3 1025 56 0 0.97 105.865 04:26 19.10.2019
5930 Clear -5 1024 62 0 1.17 83.568 02:49 19.10.2019
5931 Clear -5 1024 62 0 1.17 83.568 01:54 19.10.2019
5932 Clear -5 1024 62 0 1.17 83.568 01:36 19.10.2019
5933 Clear -5 1024 59 0 1.47 65.331 00:49 19.10.2019
5934 Clear -5 1024 59 0 1.47 65.331 00:28 19.10.2019
5935 Clear -5 1024 62 0 1.31 79.906 23:56 18.10.2019
5936 Clear -5 1024 62 0 1.31 79.906 23:37 18.10.2019
5937 Clear -5 1024 62 0 1.31 79.906 23:19 18.10.2019
5938 Clear -5 1024 62 0 1.31 79.906 22:43 18.10.2019
5939 Clear -5 1024 62 0 1.31 79.906 22:21 18.10.2019
5940 Clear -5 1024 62 0 1.31 79.906 21:59 18.10.2019
5941 Clear -5 1024 62 0 1.31 79.906 21:39 18.10.2019
5942 Clear -5 1023 75 0 1.09 122.411 21:21 18.10.2019
5943 Clear -5 1023 75 0 1.09 122.411 20:59 18.10.2019
5944 Clear -5 1023 75 0 1.09 122.411 20:41 18.10.2019
5945 Clear -5 1023 75 0 1.09 122.411 20:22 18.10.2019
5946 Clear -5 1023 75 0 1.09 122.411 19:58 18.10.2019
5947 Clear -5 1023 75 0 1.09 122.411 19:40 18.10.2019
5948 Clear -5 1023 75 0 1.09 122.411 19:40 18.10.2019
5949 Clear -5 1023 75 0 1.09 122.411 19:21 18.10.2019
5950 Clear -5 1023 75 0 1.09 122.411 18:58 18.10.2019
5951 Clear -5 1023 75 0 1.09 122.411 18:40 18.10.2019
5952 Clear -4 1023 89 0 1.34 162.294 18:21 18.10.2019
5953 Clear -4 1023 89 0 1.34 162.294 17:55 18.10.2019
5954 Clear -4 1023 89 0 1.34 162.294 17:36 18.10.2019
5955 Clear -4 1023 89 0 1.34 162.294 17:18 18.10.2019
5956 Clear -4 1023 89 0 1.34 162.294 16:38 18.10.2019
5957 Clear -4 1023 89 0 1.34 162.294 16:20 18.10.2019
5958 Clear -4 1023 89 0 1.34 162.294 15:55 18.10.2019
5959 Clear -4 1023 89 0 1.34 162.294 15:37 18.10.2019
5960 Clouds -2 1020 62 0 2.72 208.713 15:18 18.10.2019
5961 Clouds -2 1020 62 0 2.72 208.713 14:56 18.10.2019
5962 Clouds -2 1020 62 0 2.72 208.713 14:38 18.10.2019
5963 Clouds -2 1020 62 0 2.72 208.713 14:18 18.10.2019
5964 Clouds -2 1020 62 0 2.72 208.713 13:45 18.10.2019
5965 Clouds -2 1020 62 0 2.72 208.713 13:45 18.10.2019
5966 Clouds -2 1020 68 0 2.77 222.762 13:26 18.10.2019
5967 Clouds -2 1020 68 0 2.77 222.762 12:59 18.10.2019
5968 Clouds -2 1020 68 0 2.77 222.762 12:40 18.10.2019
5969 Clouds 1 1019 38 0 3.73 192.632 12:22 18.10.2019
5970 Clouds 1 1019 38 0 3.73 192.632 11:59 18.10.2019
5971 Clouds 1 1019 38 0 3.73 192.632 11:41 18.10.2019
5972 Clouds 1 1019 38 0 3.73 192.632 11:20 18.10.2019
5973 Clouds 1 1019 38 0 3.73 192.632 10:57 18.10.2019
5974 Clouds 1 1019 38 0 3.73 192.632 10:38 18.10.2019
5975 Clouds 1 1019 38 0 3.73 192.632 10:19 18.10.2019
5976 Clouds 1 1019 38 0 3.73 192.632 09:57 18.10.2019
5977 Clouds 1 1019 38 0 3.73 192.632 09:39 18.10.2019
5978 Clouds 1 1022 36 0 2.71 191.322 09:18 18.10.2019
5979 Clouds 1 1022 36 0 2.71 191.322 08:42 18.10.2019
5980 Clouds 1 1022 36 0 2.71 191.322 08:24 18.10.2019
5981 Clouds 1 1022 36 0 2.71 191.322 07:51 18.10.2019
5982 Clouds 1 1022 36 0 2.71 191.322 07:30 18.10.2019
5983 Clouds 1 1022 36 0 2.71 191.322 06:48 18.10.2019
5984 Clouds 1 1022 36 0 2.71 191.322 06:30 18.10.2019
5985 Clouds -3 1023 67 0 0.66 111.85 05:59 18.10.2019
5986 Clouds -3 1023 67 0 0.66 111.85 05:24 18.10.2019
5987 Clouds -3 1023 67 0 0.66 111.85 04:56 18.10.2019
5988 Clouds -3 1023 67 0 0.66 111.85 03:34 18.10.2019
5989 Clouds -4 1022 85 0 1.81 39.838 02:50 18.10.2019
5990 Clouds -4 1022 85 0 1.81 39.838 02:32 18.10.2019
5991 Clouds -4 1022 85 0 1.81 39.838 01:39 18.10.2019
5992 Clouds -4 1022 88 0 1.77 37.013 00:56 18.10.2019
5993 Clouds -4 1022 88 0 1.77 37.013 00:38 18.10.2019
5994 Clouds -4 1022 91 0 0.61 87.346 00:18 18.10.2019
5995 Clouds -4 1022 91 0 0.61 87.346 23:38 17.10.2019
5996 Clouds -4 1022 91 0 0.61 87.346 23:20 17.10.2019
5997 Clouds -4 1022 91 0 0.61 87.346 22:56 17.10.2019
5998 Clouds -4 1022 91 0 0.61 87.346 22:56 17.10.2019
5999 Clouds -4 1022 91 0 0.61 87.346 22:56 17.10.2019
6000 Clouds -4 1022 91 0 0.61 87.346 22:38 17.10.2019
6001 Clouds -4 1022 91 0 0.61 87.346 22:19 17.10.2019
6002 Clouds -4 1022 91 0 0.61 87.346 21:57 17.10.2019
6003 Clouds -4 1022 91 0 0.61 87.346 21:39 17.10.2019
6004 Clear -3 1022 85 0 0.85 115.417 21:20 17.10.2019
6005 Clear -3 1022 87 0 1.1 103.973 20:57 17.10.2019
6006 Clear -3 1022 87 0 1.1 103.973 20:39 17.10.2019
6007 Clear -3 1022 87 0 1.1 103.973 20:19 17.10.2019
6008 Clear -3 1022 87 0 1.1 103.973 20:19 17.10.2019
6009 Clear -3 1022 87 0 1.1 103.973 19:57 17.10.2019
6010 Clear -3 1022 87 0 1.1 103.973 19:39 17.10.2019
6011 Clear -3 1022 87 0 1.1 103.973 19:19 17.10.2019
6012 Clear -3 1022 87 0 1.1 103.973 19:19 17.10.2019
6013 Clear -3 1022 87 0 1.1 103.973 18:43 17.10.2019
6014 Clear -3 1021 89 0 1.09 149.468 18:21 17.10.2019
6015 Clear -3 1021 89 0 1.09 149.468 18:00 17.10.2019
6016 Rain 9 1020 75 0 2.56 19 17:41 17.10.2019
6017 Rain 9 1020 75 0 2.56 19 17:23 17.10.2019
6018 Rain 9 1020 75 0 2.56 19 16:56 17.10.2019
6019 Rain 9 1020 75 0 2.56 19 16:37 17.10.2019
6020 Rain 9 1020 75 0 2.56 19 16:18 17.10.2019
6021 Rain 9 1020 75 0 2.56 19 15:55 17.10.2019
6022 Rain 9 1020 75 0 2.56 19 15:37 17.10.2019
6023 Rain 10 1018 88 0 1.151 263 15:19 17.10.2019
6024 Rain 10 1018 88 0 1.292 268 14:42 17.10.2019
6025 Rain 10 1018 88 0 1.292 268 14:24 17.10.2019
6026 Rain 10 1018 88 0 1.292 268 13:56 17.10.2019
6027 Rain 10 1018 88 0 1.292 268 13:38 17.10.2019
6028 Rain 10 1018 88 0 1.292 268 13:19 17.10.2019
6029 Rain 10 1018 88 0 1.292 268 12:41 17.10.2019
6030 Rain 10 1018 88 0 1.292 268 12:41 17.10.2019
6031 Rain 15 1017 61 0 2.843 222 12:21 17.10.2019
6032 Rain 15 1017 61 0 2.843 222 11:59 17.10.2019
6033 Rain 15 1017 61 0 2.843 222 11:59 17.10.2019
6034 Rain 15 1017 61 0 2.843 222 11:41 17.10.2019
6035 Rain 15 1017 61 0 2.843 222 11:41 17.10.2019
6036 Rain 15 1017 61 0 2.843 222 11:19 17.10.2019
6037 Rain 15 1017 61 0 2.843 222 10:56 17.10.2019
6038 Rain 15 1017 61 0 2.843 222 10:38 17.10.2019
6039 Rain 15 1017 61 0 2.843 222 10:18 17.10.2019
6040 Rain 15 1017 61 0 2.843 222 09:54 17.10.2019
6041 Rain 15 1017 60 0 2.861 226 09:36 17.10.2019
6042 Clear 16 1020 54 0 2.985 201 09:18 17.10.2019
6043 Clear 16 1020 54 0 2.985 201 08:46 17.10.2019
6044 Clear 16 1020 54 0 2.985 201 08:26 17.10.2019
6045 Clear 16 1020 54 0 2.985 201 07:56 17.10.2019
6046 Clear 16 1020 54 0 2.985 201 07:38 17.10.2019
6047 Clear 16 1020 54 0 2.985 201 07:19 17.10.2019
6048 Clear 16 1020 54 0 2.985 201 06:40 17.10.2019
6049 Clear 13 1022 58 0 0.914 166 06:21 17.10.2019
6050 Clear 13 1022 58 0 0.914 166 06:21 17.10.2019
6051 Clear 13 1022 58 0 0.914 166 05:58 17.10.2019
6052 Clear 13 1022 58 0 0.914 166 05:32 17.10.2019
6053 Clear 13 1022 58 0 0.914 166 04:57 17.10.2019
6054 Clear 13 1022 58 0 0.914 166 03:55 17.10.2019
6055 Clear 8 1020 65 0 2.388 16 02:53 17.10.2019
6056 Clear 8 1020 64 0 2.37 13 01:55 17.10.2019
6057 Clear 8 1020 64 0 2.37 13 00:41 17.10.2019
6058 Clear 9 1020 64 0 2.33 13 00:20 17.10.2019
6059 Clear 9 1020 64 0 2.33 13 00:20 17.10.2019
6060 Clear 9 1020 64 0 2.33 13 23:42 16.10.2019
6061 Clear 9 1020 64 0 2.33 13 23:21 16.10.2019
6062 Clear 9 1020 64 0 2.33 13 22:56 16.10.2019
6063 Clear 9 1020 64 0 2.33 13 22:38 16.10.2019
6064 Clear 9 1020 64 0 2.33 13 22:38 16.10.2019
6065 Clear 9 1020 64 0 2.33 13 22:19 16.10.2019
6066 Clear 9 1020 64 0 2.33 13 21:58 16.10.2019
6067 Clear 9 1020 64 0 2.393 14 21:38 16.10.2019
6068 Clear 9 1020 64 0 2.393 14 21:38 16.10.2019
6069 Clear 9 1021 68 0 2.198 21 21:20 16.10.2019
6070 Clear 9 1021 68 0 2.198 21 20:58 16.10.2019
6071 Clear 9 1021 68 0 2.198 21 20:58 16.10.2019
6072 Clear 9 1021 68 0 2.198 21 20:40 16.10.2019
6073 Clear 9 1021 68 0 2.198 21 20:21 16.10.2019
6074 Clear 9 1021 68 0 2.198 21 19:59 16.10.2019
6075 Clear 9 1021 68 0 2.198 21 19:40 16.10.2019
6076 Clear 9 1021 68 0 2.198 21 19:21 16.10.2019
6077 Clear 9 1021 68 0 2.198 21 18:56 16.10.2019
6078 Clear 9 1021 68 0 2.198 21 18:56 16.10.2019
6079 Clear 9 1021 68 0 2.198 21 18:37 16.10.2019
6080 Rain 9 1020 82 0 1.55 32 18:18 16.10.2019
6081 Rain 9 1020 82 0 1.55 32 18:18 16.10.2019
6082 Rain 9 1020 82 0 1.55 32 17:55 16.10.2019
6083 Rain 9 1020 82 0 1.55 32 17:36 16.10.2019
6084 Rain 9 1020 82 0 1.55 32 17:18 16.10.2019
6085 Rain 9 1020 82 0 1.55 32 16:43 16.10.2019
6086 Rain 9 1020 82 0 1.55 32 16:23 16.10.2019
6087 Rain 9 1020 82 0 1.55 32 15:59 16.10.2019
6088 Rain 9 1020 82 0 1.55 32 15:39 16.10.2019
6089 Rain 9 1020 82 0 1.55 32 15:39 16.10.2019
6090 Rain 12 1019 82 0 1.099 232 15:19 16.10.2019
6091 Rain 12 1019 82 0 1.099 232 14:58 16.10.2019
6092 Rain 12 1019 82 0 1.099 232 14:58 16.10.2019
6093 Rain 12 1019 82 0 1.099 232 14:39 16.10.2019
6094 Rain 12 1018 84 0 1.072 220 14:21 16.10.2019
6095 Rain 12 1018 84 0 1.072 220 13:57 16.10.2019
6096 Rain 12 1018 84 0 1.072 220 13:39 16.10.2019
6097 Rain 12 1018 84 0 1.072 220 13:21 16.10.2019
6098 Rain 12 1018 84 0 1.072 220 12:43 16.10.2019
6099 Rain 16 1017 58 0 2.687 213 12:20 16.10.2019
6100 Rain 16 1017 58 0 2.687 213 11:55 16.10.2019
6101 Rain 16 1017 58 0 2.687 213 11:37 16.10.2019
6102 Rain 16 1017 58 0 2.687 213 11:18 16.10.2019
6103 Rain 16 1017 58 0 2.687 213 10:36 16.10.2019
6104 Rain 16 1017 58 0 2.687 213 10:18 16.10.2019
6105 Clouds 16 1017 57 0 2.86 212 09:41 16.10.2019
6106 Clear 16 1020 51 0 3.014 205 09:22 16.10.2019
6107 Clear 16 1020 51 0 3.014 205 08:58 16.10.2019
6108 Clear 16 1020 51 0 3.014 205 08:40 16.10.2019
6109 Clear 16 1020 51 0 3.014 205 08:20 16.10.2019
6110 Clear 16 1020 51 0 3.014 205 07:43 16.10.2019
6111 Clear 16 1020 51 0 3.014 205 07:24 16.10.2019
6112 Clear 16 1020 51 0 3.014 205 06:56 16.10.2019
6113 Clear 16 1020 51 0 3.014 205 06:35 16.10.2019
6114 Clear 13 1021 50 0 1.058 208 05:23 16.10.2019
6115 Clear 8 1021 55 0 2.488 12 02:57 16.10.2019
6116 Clear 8 1021 55 0 2.488 12 02:37 16.10.2019
6117 Clear 8 1021 54 0 2.597 12 01:18 16.10.2019
6118 Clear 8 1021 54 0 2.597 12 00:46 16.10.2019
6119 Clear 8 1021 54 0 2.597 12 00:25 16.10.2019
6120 Clear 8 1020 57 0 2.421 13 23:39 15.10.2019
6121 Clear 8 1020 57 0 2.421 13 23:21 15.10.2019
6122 Clear 8 1020 57 0 2.421 13 22:56 15.10.2019
6123 Clear 8 1020 57 0 2.421 13 22:38 15.10.2019
6124 Clear 8 1020 57 0 2.421 13 22:19 15.10.2019
6125 Clear 8 1020 57 0 2.421 13 21:56 15.10.2019
6126 Clear 9 1020 54 0 2.557 15 21:38 15.10.2019
6127 Clear 9 1021 59 0 2.345 13 21:19 15.10.2019
6128 Clear 9 1021 59 0 2.345 13 20:57 15.10.2019
6129 Clear 9 1021 59 0 2.345 13 20:39 15.10.2019
6130 Clear 9 1021 59 0 2.345 13 20:20 15.10.2019
6131 Clear 9 1021 59 0 2.345 13 19:57 15.10.2019
6132 Clear 9 1021 59 0 2.345 13 19:39 15.10.2019
6133 Clear 9 1021 59 0 2.345 13 19:19 15.10.2019
6134 Clear 9 1021 59 0 2.345 13 18:47 15.10.2019
6135 Clear 9 1021 59 0 2.345 13 18:28 15.10.2019
6136 Clear 9 1021 75 0 2.393 15 17:58 15.10.2019
6137 Clear 9 1021 75 0 2.393 15 17:39 15.10.2019
6138 Clear 9 1021 75 0 2.393 15 17:20 15.10.2019
6139 Clear 9 1021 75 0 2.393 15 16:55 15.10.2019
6140 Clear 9 1021 75 0 2.393 15 16:37 15.10.2019
6141 Clear 9 1021 75 0 2.393 15 16:19 15.10.2019
6142 Clear 9 1021 75 0 2.393 15 15:42 15.10.2019
6143 Rain 12 1019 82 0 1.121 219 15:20 15.10.2019
6144 Rain 12 1019 82 0 1.121 219 14:58 15.10.2019
6145 Rain 12 1019 81 0 1.045 223 14:38 15.10.2019
6146 Rain 12 1019 81 0 1.045 223 14:38 15.10.2019
6147 Rain 12 1019 81 0 1.045 223 14:38 15.10.2019
6148 Rain 12 1019 81 0 1.045 223 14:20 15.10.2019
6149 Rain 12 1019 81 0 1.045 223 13:56 15.10.2019
6150 Rain 12 1019 81 0 1.045 223 13:37 15.10.2019
6151 Rain 12 1019 81 0 1.045 223 13:19 15.10.2019
6152 Rain 12 1019 81 0 1.045 223 12:43 15.10.2019
6153 Rain 16 1018 59 0 2.636 219 12:21 15.10.2019
6154 Rain 16 1018 59 0 2.636 219 11:57 15.10.2019
6155 Rain 16 1018 59 0 2.636 219 11:38 15.10.2019
6156 Rain 16 1018 59 0 2.636 219 11:19 15.10.2019
6157 Rain 16 1018 59 0 2.636 219 10:45 15.10.2019
6158 Clouds 4 1019 50 0 3.07 216.015 10:22 15.10.2019
6159 Clouds 4 1019 50 0 3.07 216.015 09:58 15.10.2019
6160 Clouds 4 1019 50 0 3.07 216.015 09:38 15.10.2019
6161 Clear 4 1021 37 0 2.32 223.989 09:20 15.10.2019
6162 Clear 4 1021 34 0 1.88 225.517 08:55 15.10.2019
6163 Clear 4 1021 34 0 1.88 225.517 08:36 15.10.2019
6164 Clear 4 1021 34 0 1.88 225.517 08:36 15.10.2019
6165 Clear 4 1021 34 0 1.88 225.517 08:18 15.10.2019
6166 Clear 4 1021 34 0 1.88 225.517 07:41 15.10.2019
6167 Clear 4 1021 34 0 1.88 225.517 07:21 15.10.2019
6168 Clear 4 1021 34 0 1.88 225.517 06:47 15.10.2019
6169 Clear 4 1021 34 0 1.88 225.517 06:29 15.10.2019
6170 Clear 0 1022 54 0 1.24 51.557 05:48 15.10.2019
6171 Clear 0 1022 54 0 1.24 51.557 05:29 15.10.2019
6172 Clear 0 1022 54 0 1.24 51.557 04:39 15.10.2019
6173 Clear 0 1022 54 0 1.24 51.557 03:57 15.10.2019
6174 Clear 0 1022 54 0 1.24 51.557 03:27 15.10.2019
6175 Clear -3 1021 73 0 1.5 21.488 01:51 15.10.2019
6176 Clear -3 1021 73 0 1.5 21.306 01:23 15.10.2019
6177 Clear -3 1021 73 0 1.5 21.306 00:52 15.10.2019
6178 Clear -3 1021 76 0 1.31 14.884 00:22 15.10.2019
6179 Clear -3 1021 76 0 1.31 14.884 23:46 14.10.2019
6180 Clear -3 1021 76 0 1.31 14.884 23:21 14.10.2019
6181 Clear -3 1021 76 0 1.31 14.884 22:59 14.10.2019
6182 Clear -3 1021 76 0 1.31 14.884 22:39 14.10.2019
6183 Clear -3 1021 76 0 1.31 14.884 22:19 14.10.2019
6184 Clear -3 1021 76 0 1.31 14.884 22:19 14.10.2019
6185 Clear -3 1021 76 0 1.31 14.884 22:19 14.10.2019
6186 Clear -3 1021 76 0 1.31 14.884 21:56 14.10.2019
6187 Clear -3 1021 76 0 1.31 14.884 21:38 14.10.2019
6188 Clear -2 1022 78 0 0.99 2.439 21:20 14.10.2019
6189 Clear -2 1021 84 0 0.72 0.874 20:55 14.10.2019
6190 Clear -2 1021 84 0 0.72 0.874 20:37 14.10.2019
6191 Clear -2 1021 84 0 0.72 0.874 20:18 14.10.2019
6192 Clouds 9 1020 72 0 1.853 20 19:42 14.10.2019
6193 Clouds 9 1020 72 0 1.853 20 19:24 14.10.2019
6194 Clear -2 1021 84 0 0.72 0.874 18:59 14.10.2019
6195 Clear -2 1021 84 0 0.72 0.874 18:39 14.10.2019
6196 Clear -1 1021 90 0 0.33 357.751 18:20 14.10.2019
6197 Clear -1 1021 90 0 0.33 357.751 18:20 14.10.2019
6198 Clear -1 1021 90 0 0.33 357.751 18:20 14.10.2019
6199 Clear -1 1021 90 0 0.33 357.751 17:58 14.10.2019
6200 Clear -1 1021 90 0 0.33 357.751 17:39 14.10.2019
6201 Clear -1 1021 90 0 0.33 357.751 17:21 14.10.2019
6202 Clear -1 1021 90 0 0.33 357.751 16:44 14.10.2019
6203 Clear -1 1021 90 0 0.33 357.751 16:22 14.10.2019
6204 Clear -1 1021 90 0 0.33 357.751 15:57 14.10.2019
6205 Clear -1 1021 90 0 0.33 357.751 15:38 14.10.2019
6206 Clouds 1 1018 77 0 2.11 216.864 15:20 14.10.2019
6207 Clouds 1 1018 77 0 2.11 216.864 14:43 14.10.2019
6208 Clouds 1 1018 77 0 2.11 216.864 14:24 14.10.2019
6209 Clouds 1 1018 77 0 2.11 216.864 13:56 14.10.2019
6210 Clouds 1 1018 77 0 2.11 216.864 13:37 14.10.2019
6211 Clouds 1 1018 75 0 1.9 223.211 13:18 14.10.2019
6212 Clouds 1 1018 75 0 1.9 223.211 12:40 14.10.2019
6213 Clear 6 1017 37 0 2.88 228.788 12:19 14.10.2019
6214 Clear 6 1017 37 0 2.88 228.788 11:46 14.10.2019
6215 Clear 6 1017 37 0 2.88 228.788 11:27 14.10.2019
6216 Clear 6 1017 37 0 2.88 228.788 10:58 14.10.2019
6217 Clear 6 1017 37 0 2.88 228.788 10:39 14.10.2019
6218 Clear 6 1017 37 0 2.88 228.788 10:20 14.10.2019
6219 Clear 6 1017 37 0 2.88 228.788 09:56 14.10.2019
6220 Clear 6 1017 37 0 2.88 228.788 09:55 14.10.2019
6221 Clear 6 1017 37 0 2.88 228.788 09:36 14.10.2019
6222 Clear 5 1019 24 0 1.4 214.942 09:18 14.10.2019
6223 Clear 5 1019 24 0 1.4 214.942 08:43 14.10.2019
6224 Clear 5 1019 24 0 1.4 214.942 08:22 14.10.2019
6225 Clear 5 1019 24 0 1.4 214.942 07:42 14.10.2019
6226 Clear 5 1019 24 0 1.4 214.942 07:19 14.10.2019
6227 Clear 5 1019 24 0 1.4 214.942 06:48 14.10.2019
6228 Clear 1 1021 29 0 1.49 50.573 06:20 14.10.2019
6229 Clear 1 1021 29 0 1.49 50.573 05:49 14.10.2019
6230 Clear 1 1021 29 0 1.49 50.573 04:43 14.10.2019
6231 Clear 1 1021 29 0 1.49 50.573 03:27 14.10.2019
6232 Clear -3 1021 41 0 1.67 35.298 02:42 14.10.2019
6233 Clear -3 1021 40 0 1.61 29.28 01:23 14.10.2019
6234 Clear -3 1021 40 0 1.61 29.28 00:58 14.10.2019
6235 Clear -2 1021 43 0 1.7 27.818 00:20 14.10.2019
6236 Clear -2 1021 43 0 1.7 27.818 23:45 13.10.2019
6237 Clear -2 1021 43 0 1.7 27.818 23:20 13.10.2019
6238 Clear -2 1021 43 0 1.7 27.818 22:58 13.10.2019
6239 Clear -2 1021 43 0 1.7 27.818 22:58 13.10.2019
6240 Clear -2 1021 43 0 1.7 27.818 22:40 13.10.2019
6241 Clear -2 1021 43 0 1.7 27.818 22:40 13.10.2019
6242 Clear -2 1021 43 0 1.7 27.818 22:21 13.10.2019
6243 Clear -2 1021 43 0 1.7 27.818 21:58 13.10.2019
6244 Clear -2 1021 43 0 1.7 27.818 21:37 13.10.2019
6245 Clear -2 1021 53 0 1.27 21.241 21:19 13.10.2019
6246 Clear -2 1021 53 0 1.27 21.241 20:57 13.10.2019
6247 Clear -2 1021 56 0 1.22 19.21 20:39 13.10.2019
6248 Clear -2 1021 56 0 1.22 19.21 20:21 13.10.2019
6249 Clear -2 1021 56 0 1.22 19.21 19:58 13.10.2019
6250 Clear -2 1021 56 0 1.22 19.21 19:39 13.10.2019
6251 Clear -2 1021 56 0 1.22 19.21 19:39 13.10.2019
6252 Clear -2 1021 56 0 1.22 19.21 19:21 13.10.2019
6253 Clear -2 1021 56 0 1.22 19.21 18:57 13.10.2019
6254 Clear -2 1021 56 0 1.22 19.21 18:37 13.10.2019
6255 Clear -1 1021 75 0 1.88 11.879 18:19 13.10.2019
6256 Clear -1 1021 75 0 1.88 11.879 18:19 13.10.2019
6257 Clear -1 1021 75 0 1.88 11.879 17:57 13.10.2019
6258 Clear -1 1021 75 0 1.88 11.879 17:39 13.10.2019
6259 Clear -1 1021 75 0 1.88 11.879 17:21 13.10.2019
6260 Clear -1 1021 75 0 1.88 11.879 16:43 13.10.2019
6261 Clear -1 1021 75 0 1.88 11.879 16:19 13.10.2019
6262 Clear -1 1021 75 0 1.88 11.879 15:57 13.10.2019
6263 Clear -1 1021 75 0 1.88 11.879 15:57 13.10.2019
6264 Clear -1 1021 75 0 1.88 11.879 15:57 13.10.2019
6265 Clear -1 1021 75 0 1.88 11.879 15:38 13.10.2019
6266 Clouds 2 1018 69 0 1.84 234.234 15:19 13.10.2019
6267 Clouds 2 1018 69 0 1.84 234.234 14:57 13.10.2019
6268 Clouds 2 1018 69 0 1.84 234.234 14:38 13.10.2019
6269 Clouds 2 1018 69 0 1.84 234.234 14:19 13.10.2019
6270 Clouds 2 1018 69 0 1.84 234.234 13:42 13.10.2019
6271 Clouds 2 1018 69 0 1.84 234.234 13:42 13.10.2019
6272 Clouds 2 1018 70 0 1.76 232.142 13:23 13.10.2019
6273 Clouds 2 1018 70 0 1.76 232.142 12:59 13.10.2019
6274 Clouds 2 1018 70 0 1.76 232.142 12:39 13.10.2019
6275 Clouds 5 1017 41 0 2.64 230.006 12:21 13.10.2019
6276 Clouds 5 1017 41 0 2.64 230.006 11:59 13.10.2019
6277 Clouds 5 1017 41 0 2.64 230.006 11:39 13.10.2019
6278 Clouds 5 1017 41 0 2.64 230.006 11:21 13.10.2019
6279 Clouds 5 1017 41 0 2.64 230.006 10:59 13.10.2019
6280 Clouds 5 1017 41 0 2.64 230.006 10:39 13.10.2019
6281 Clouds 5 1017 41 0 2.64 230.006 10:39 13.10.2019
6282 Clouds 5 1017 41 0 2.64 230.006 10:20 13.10.2019
6283 Clouds 5 1017 41 0 2.64 230.006 09:39 13.10.2019
6284 Clear 4 1019 31 0 2.06 220.444 09:21 13.10.2019
6285 Clear 4 1019 26 0 1.74 220.205 08:51 13.10.2019
6286 Clear 4 1019 26 0 1.74 220.205 08:27 13.10.2019
6287 Clear 4 1019 26 0 1.74 220.205 07:55 13.10.2019
6288 Clear 4 1019 26 0 1.74 220.205 07:35 13.10.2019
6289 Clear 4 1019 26 0 1.74 220.205 06:54 13.10.2019
6290 Clear 4 1019 26 0 1.74 220.205 06:54 13.10.2019
6291 Clear 4 1019 26 0 1.74 220.205 06:26 13.10.2019
6292 Clear 1 1021 28 0 1.3 45.625 05:29 13.10.2019
6293 Clear 1 1021 28 0 1.3 45.625 04:38 13.10.2019
6294 Clear 1 1021 28 0 1.3 45.625 03:37 13.10.2019
6295 Clear -3 1020 42 0 1.57 35.588 02:32 13.10.2019
6296 Clear -3 1020 42 0 1.57 35.588 01:47 13.10.2019
6297 Clear -3 1020 41 0 1.64 39.336 01:21 13.10.2019
6298 Clear -3 1020 41 0 1.64 39.336 01:21 13.10.2019
6299 Clear -3 1020 41 0 1.64 39.336 00:43 13.10.2019
6300 Clear -2 1020 51 0 1.44 26.565 00:20 13.10.2019
6301 Clear -2 1020 51 0 1.44 26.565 23:54 12.10.2019
6302 Clear -2 1020 51 0 1.44 26.565 23:54 12.10.2019
6303 Clear -2 1020 51 0 1.44 26.565 23:36 12.10.2019
6304 Clear -2 1020 51 0 1.44 26.565 23:36 12.10.2019
6305 Clear -2 1020 51 0 1.44 26.565 23:18 12.10.2019
6306 Clear -2 1020 51 0 1.44 26.565 22:54 12.10.2019
6307 Clear -2 1020 51 0 1.44 26.565 22:36 12.10.2019
6308 Clear -2 1020 51 0 1.44 26.565 22:18 12.10.2019
6309 Clear -2 1020 51 0 1.44 26.565 21:41 12.10.2019
6310 Clouds -2 1021 60 0 1.43 27.781 21:23 12.10.2019
6311 Clouds -2 1021 60 0 1.44 22.905 20:56 12.10.2019
6312 Clouds -2 1021 60 0 1.44 22.905 20:38 12.10.2019
6313 Clouds -2 1021 60 0 1.44 22.905 20:38 12.10.2019
6314 Clouds -2 1021 60 0 1.44 22.905 20:20 12.10.2019
6315 Clouds -2 1021 60 0 1.44 22.905 19:37 12.10.2019
6316 Clouds -2 1021 60 0 1.44 22.905 19:19 12.10.2019
6317 Clouds -2 1021 60 0 1.44 22.905 18:46 12.10.2019
6318 Clouds -2 1021 60 0 1.44 22.905 18:27 12.10.2019
6319 Clouds -2 1020 78 0 1.7 19.457 17:58 12.10.2019
6320 Clouds -2 1020 78 0 1.7 19.457 17:40 12.10.2019
6321 Clouds -2 1020 78 0 1.7 19.457 17:18 12.10.2019
6322 Clouds -2 1020 78 0 1.7 19.457 16:41 12.10.2019
6323 Clouds -2 1020 78 0 1.7 19.457 16:21 12.10.2019
6324 Clouds -2 1020 78 0 1.7 19.457 15:58 12.10.2019
6325 Clouds -2 1020 78 0 1.7 19.457 15:39 12.10.2019
6326 Clouds 1 1018 71 0 1.38 220.516 15:21 12.10.2019
6327 Clouds 1 1018 71 0 1.38 220.516 14:41 12.10.2019
6328 Clouds 1 1018 71 0 1.38 220.516 14:21 12.10.2019
6329 Clouds 1 1018 71 0 1.38 220.516 13:53 12.10.2019
6330 Clouds 1 1018 71 0 1.38 220.516 13:53 12.10.2019
6331 Clouds 1 1018 71 0 1.38 220.516 13:33 12.10.2019
6332 Clouds 0 1017 84 0 0.31 181.488 12:59 12.10.2019
6333 Clouds 0 1017 84 0 0.31 181.488 12:38 12.10.2019
6334 Clouds 4 1017 40 0 2.91 218.804 12:20 12.10.2019
6335 Clouds 4 1017 40 0 2.91 218.804 11:56 12.10.2019
6336 Clouds 4 1017 40 0 2.91 218.804 11:38 12.10.2019
6337 Clouds 4 1017 40 0 2.91 218.804 11:18 12.10.2019
6338 Clouds 4 1017 40 0 2.91 218.804 10:40 12.10.2019
6339 Clouds 4 1017 40 0 2.91 218.804 10:22 12.10.2019
6340 Clouds 4 1017 40 0 2.91 218.804 09:57 12.10.2019
6341 Clouds 4 1017 40 0 2.91 218.804 09:39 12.10.2019
6342 Clear 4 1019 29 0 2.08 203.527 09:20 12.10.2019
6343 Clear 4 1019 25 0 1.67 201.674 08:56 12.10.2019
6344 Clear 4 1019 25 0 1.67 201.674 08:55 12.10.2019
6345 Clear 4 1019 25 0 1.67 201.674 08:36 12.10.2019
6346 Clear 4 1019 25 0 1.67 201.674 08:18 12.10.2019
6347 Clear 4 1019 25 0 1.67 201.674 07:33 12.10.2019
6348 Clear 4 1019 25 0 1.67 201.674 06:50 12.10.2019
6349 Clear 0 1020 38 0 1.41 73.679 05:46 12.10.2019
6350 Clear 0 1020 38 0 1.41 73.679 04:52 12.10.2019
6351 Clear 0 1020 38 0 1.41 73.679 03:58 12.10.2019
6352 Clear -3 1019 61 0 1.66 53.296 02:57 12.10.2019
6353 Clear -3 1019 60 0 1.67 52.856 01:36 12.10.2019
6354 Clear -3 1019 60 0 1.67 52.856 00:59 12.10.2019
6355 Clear -3 1019 60 0 1.67 52.856 00:39 12.10.2019
6356 Clear -3 1018 73 0 1.52 48.517 23:57 11.10.2019
6357 Clear -3 1018 73 0 1.52 48.517 23:39 11.10.2019
6358 Clear -3 1018 73 0 1.52 48.517 23:20 11.10.2019
6359 Clear -3 1018 73 0 1.52 48.517 22:40 11.10.2019
6360 Clear -3 1018 73 0 1.52 48.517 22:21 11.10.2019
6361 Clear -3 1018 73 0 1.52 48.517 21:56 11.10.2019
6362 Clear -3 1018 73 0 1.52 48.517 21:38 11.10.2019
6363 Clear -2 1019 80 0 1.07 52.722 21:19 11.10.2019
6364 Clear -2 1018 79 0 0.88 56.546 20:44 11.10.2019
6365 Clear -2 1018 79 0 0.88 56.546 20:25 11.10.2019
6366 Clear -2 1018 79 0 0.88 56.546 19:57 11.10.2019
6367 Clear -2 1018 79 0 0.88 56.546 19:38 11.10.2019
6368 Clear -2 1018 79 0 0.88 56.546 19:18 11.10.2019
6369 Clear -2 1018 79 0 0.88 56.546 18:58 11.10.2019
6370 Clear -2 1018 79 0 0.88 56.546 18:58 11.10.2019
6371 Clear -2 1018 79 0 0.88 56.546 18:38 11.10.2019
6372 Clear -2 1018 86 0 0.97 58.59 18:19 11.10.2019
6373 Clear -2 1018 86 0 0.97 58.59 17:58 11.10.2019
6374 Clear -2 1018 86 0 0.97 58.59 17:37 11.10.2019
6375 Clear -2 1018 86 0 0.97 58.59 17:19 11.10.2019
6376 Clear -2 1018 86 0 0.97 58.59 16:56 11.10.2019
6377 Clear -2 1018 86 0 0.97 58.59 16:37 11.10.2019
6378 Clear -2 1018 86 0 0.97 58.59 16:18 11.10.2019
6379 Clear -2 1018 86 0 0.97 58.59 15:41 11.10.2019
6380 Clear 1 1016 71 0 1.72 217.317 15:20 11.10.2019
6381 Clear 1 1016 71 0 1.72 217.317 14:58 11.10.2019
6382 Clear 1 1016 71 0 1.72 217.317 14:38 11.10.2019
6383 Clear 1 1016 71 0 1.72 217.317 14:19 11.10.2019
6384 Clear 1 1016 71 0 1.72 217.317 13:44 11.10.2019
6385 Clear 1 1015 67 0 1.77 218.544 13:25 11.10.2019
6386 Clear 1 1015 67 0 1.77 218.544 12:57 11.10.2019
6387 Clear 1 1015 67 0 1.77 218.544 12:38 11.10.2019
6388 Clear 3 1015 53 0 2.79 219.911 12:20 11.10.2019
6389 Clear 3 1015 53 0 2.79 219.911 11:57 11.10.2019
6390 Clear 3 1015 53 0 2.79 219.911 11:38 11.10.2019
6391 Clear 3 1015 53 0 2.79 219.911 11:20 11.10.2019
6392 Clear 3 1015 53 0 2.79 219.911 10:54 11.10.2019
6393 Clear 3 1015 53 0 2.79 219.911 10:36 11.10.2019
6394 Clear 3 1015 53 0 2.79 219.911 10:18 11.10.2019
6395 Clouds 3 1015 55 0 2.71 226.885 09:41 11.10.2019
6396 Clear 4 1017 33 0 2.33 211.956 09:20 11.10.2019
6397 Clear 4 1017 33 0 2.33 211.956 09:20 11.10.2019
6398 Clear 4 1017 33 0 2.33 211.956 08:56 11.10.2019
6399 Clear 4 1017 33 0 2.33 211.956 08:38 11.10.2019
6400 Clear 4 1017 33 0 2.33 211.956 08:20 11.10.2019
6401 Clear 4 1017 33 0 2.33 211.956 07:51 11.10.2019
6402 Clear 4 1017 33 0 2.33 211.956 07:33 11.10.2019
6403 Clear 4 1017 33 0 2.33 211.956 06:49 11.10.2019
6404 Clear 4 1017 33 0 2.33 211.956 06:25 11.10.2019
6405 Clear 0 1019 36 0 0.88 89.221 05:46 11.10.2019
6406 Clear 0 1019 36 0 0.88 89.221 05:27 11.10.2019
6407 Clear 0 1019 36 0 0.88 89.221 04:50 11.10.2019
6408 Clear -3 1018 51 0 1.5 51.102 03:21 11.10.2019
6409 Clear -3 1019 50 0 1.61 46.612 01:18 11.10.2019
6410 Clear -3 1019 50 0 1.61 46.612 00:31 11.10.2019
6411 Clear -3 1018 63 0 1.82 43.193 23:58 10.10.2019
6412 Clear -3 1018 63 0 1.82 43.193 23:40 10.10.2019
6413 Clear -3 1018 63 0 1.82 43.193 23:19 10.10.2019
6414 Clear -3 1018 63 0 1.82 43.193 22:55 10.10.2019
6415 Clear -3 1018 63 0 1.82 43.193 22:36 10.10.2019
6416 Clear -3 1018 63 0 1.82 43.193 22:18 10.10.2019
6417 Clear -3 1018 63 0 1.82 43.193 21:42 10.10.2019
6418 Clouds -2 1019 80 0 1.44 24.048 21:22 10.10.2019
6419 Clouds -2 1019 81 0 1.49 22.51 20:58 10.10.2019
6420 Clouds -2 1019 81 0 1.49 22.51 20:39 10.10.2019
6421 Clouds -2 1019 81 0 1.49 22.51 20:20 10.10.2019
6422 Clouds -2 1019 81 0 1.49 22.51 19:57 10.10.2019
6423 Clouds -2 1019 81 0 1.49 22.51 19:57 10.10.2019
6424 Clouds -2 1019 81 0 1.49 22.51 19:39 10.10.2019
6425 Clouds -2 1019 81 0 1.49 22.51 19:19 10.10.2019
6426 Clouds -2 1019 81 0 1.49 22.51 18:42 10.10.2019
6427 Clouds -1 1019 87 0 1.12 12.956 18:21 10.10.2019
6428 Clouds -1 1019 87 0 1.12 12.956 17:59 10.10.2019
6429 Clouds -1 1019 87 0 1.12 12.956 17:40 10.10.2019
6430 Clouds -1 1019 87 0 1.12 12.956 17:40 10.10.2019
6431 Clouds -1 1019 87 0 1.12 12.956 17:19 10.10.2019
6432 Clouds -1 1019 87 0 1.12 12.956 16:56 10.10.2019
6433 Clouds -1 1019 87 0 1.12 12.956 16:37 10.10.2019
6434 Clouds -1 1019 87 0 1.12 12.956 16:19 10.10.2019
6435 Clouds -1 1019 87 0 1.12 12.956 15:42 10.10.2019
6436 Clouds 1 1017 73 0 1.32 202.857 15:23 10.10.2019
6437 Clouds 1 1017 73 0 1.32 202.857 14:58 10.10.2019
6438 Clouds 1 1017 73 0 1.32 202.857 14:37 10.10.2019
6439 Clouds 1 1017 73 0 1.32 202.857 14:19 10.10.2019
6440 Clouds 1 1017 73 0 1.32 202.857 13:58 10.10.2019
6441 Clouds 1 1017 73 0 1.32 202.857 13:39 10.10.2019
6442 Clouds 1 1016 73 0 1.71 212.9 13:18 10.10.2019
6443 Clouds 1 1016 73 0 1.71 212.9 12:42 10.10.2019
6444 Clouds 1 1016 73 0 1.71 212.9 12:42 10.10.2019
6445 Clouds 4 1016 48 0 2.42 233.641 12:21 10.10.2019
6446 Clouds 4 1016 48 0 2.42 233.641 11:58 10.10.2019
6447 Clouds 4 1016 48 0 2.42 233.641 11:40 10.10.2019
6448 Clouds 4 1016 48 0 2.42 233.641 11:19 10.10.2019
6449 Clouds 4 1016 48 0 2.42 233.641 10:57 10.10.2019
6450 Clouds 4 1016 48 0 2.42 233.641 10:39 10.10.2019
6451 Clouds 4 1016 48 0 2.42 233.641 10:20 10.10.2019
6452 Clouds 4 1016 48 0 2.42 233.641 09:41 10.10.2019
6453 Clear 3 1019 40 0 2.28 227.115 09:23 10.10.2019
6454 Clear 3 1019 38 0 1.75 229.789 08:59 10.10.2019
6455 Clear 3 1019 38 0 1.75 229.789 08:40 10.10.2019
6456 Clear 3 1019 38 0 1.75 229.789 08:21 10.10.2019
6457 Clear 3 1019 38 0 1.75 229.789 07:57 10.10.2019
6458 Clear 3 1019 38 0 1.75 229.789 07:36 10.10.2019
6459 Clear 3 1019 38 0 1.75 229.789 07:18 10.10.2019
6460 Clear 3 1019 38 0 1.75 229.789 06:39 10.10.2019
6461 Clear -1 1020 47 0 1.16 56.57 05:56 10.10.2019
6462 Clear -1 1020 47 0 1.16 56.57 05:21 10.10.2019
6463 Clear -1 1020 47 0 1.16 56.57 04:36 10.10.2019
6464 Clear -4 1019 64 0 1.82 40.731 02:46 10.10.2019
6465 Clear -4 1019 64 0 1.82 40.731 01:39 10.10.2019
6466 Clear -4 1019 64 0 1.99 42.599 01:21 10.10.2019
6467 Clear -4 1019 64 0 1.99 42.599 00:41 10.10.2019
6468 Clear -3 1019 73 0 1.95 39.851 00:19 10.10.2019
6469 Clear -3 1019 73 0 1.95 39.851 23:38 09.10.2019
6470 Clear -3 1019 73 0 1.95 39.851 23:19 09.10.2019
6471 Clear -3 1019 73 0 1.95 39.851 23:19 09.10.2019
6472 Clear -3 1019 73 0 1.95 39.851 22:42 09.10.2019
6473 Clear -3 1019 73 0 1.95 39.851 22:23 09.10.2019
6474 Clear -3 1019 73 0 1.95 39.851 21:59 09.10.2019
6475 Clear -3 1019 73 0 1.95 39.851 21:39 09.10.2019
6476 Clear -3 1020 81 0 1.77 34.74 21:20 09.10.2019
6477 Clouds -3 1020 83 0 1.78 40.626 20:56 09.10.2019
6478 Clouds -3 1020 83 0 1.78 40.626 20:37 09.10.2019
6479 Clouds -3 1020 83 0 1.78 40.626 20:18 09.10.2019
6480 Clouds -3 1020 83 0 1.78 40.626 19:45 09.10.2019
6481 Clouds -3 1020 83 0 1.78 40.626 19:24 09.10.2019
6482 Clouds -3 1020 83 0 1.78 40.626 18:58 09.10.2019
6483 Clouds -3 1020 83 0 1.78 40.626 18:38 09.10.2019
6484 Clouds -3 1020 88 0 0.86 102.529 18:18 09.10.2019
6485 Clouds -3 1020 88 0 0.86 102.529 17:55 09.10.2019
6486 Clouds -3 1020 88 0 0.86 102.529 17:37 09.10.2019
6487 Clouds -3 1020 88 0 0.86 102.529 17:18 09.10.2019
6488 Clouds -3 1020 88 0 0.86 102.529 16:41 09.10.2019
6489 Clouds -3 1020 88 0 0.86 102.529 16:23 09.10.2019
6490 Clouds -3 1020 88 0 0.86 102.529 15:58 09.10.2019
6491 Clouds -3 1020 88 0 0.86 102.529 15:39 09.10.2019
6492 Clouds -1 1017 77 0 2.36 228.266 15:20 09.10.2019
6493 Clouds -1 1017 77 0 2.36 228.266 14:58 09.10.2019
6494 Clouds -1 1017 77 0 2.36 228.266 14:58 09.10.2019
6495 Clouds -1 1017 77 0 2.36 228.266 14:40 09.10.2019
6496 Clouds -1 1017 77 0 2.36 228.266 14:18 09.10.2019
6497 Clouds -1 1017 77 0 2.36 228.266 13:40 09.10.2019
6498 Clouds -1 1016 78 0 2.2 227.872 13:21 09.10.2019
6499 Clouds -1 1016 78 0 2.2 227.872 12:59 09.10.2019
6500 Clouds -1 1016 78 0 2.2 227.872 12:41 09.10.2019
6501 Clouds 1 1017 66 0 3.17 233.423 12:21 09.10.2019
6502 Clouds 1 1017 66 0 3.17 233.423 11:55 09.10.2019
6503 Clouds 1 1017 66 0 3.17 233.423 11:37 09.10.2019
6504 Clouds 1 1017 66 0 3.17 233.423 11:19 09.10.2019
6505 Clouds 1 1017 66 0 3.17 233.423 10:44 09.10.2019
6506 Clouds 1 1017 66 0 3.17 233.423 10:22 09.10.2019
6507 Clouds 1 1017 66 0 3.17 233.423 09:59 09.10.2019
6508 Clouds 1 1017 66 0 3.17 233.423 09:40 09.10.2019
6509 Clear 3 1019 46 0 2.35 209.842 09:19 09.10.2019
6510 Clear 2 1020 40 0 2.44 205.818 08:43 09.10.2019
6511 Clear 2 1020 40 0 2.44 205.818 08:23 09.10.2019
6512 Clear 2 1020 40 0 2.44 205.818 07:59 09.10.2019
6513 Clear 2 1020 40 0 2.44 205.818 07:39 09.10.2019
6514 Clear 2 1020 40 0 2.44 205.818 07:21 09.10.2019
6515 Clear 2 1020 40 0 2.44 205.818 06:52 09.10.2019
6516 Clear 2 1020 40 0 2.44 205.818 06:52 09.10.2019
6517 Clear -1 1021 54 0 0.63 131.015 06:19 09.10.2019
6518 Clear -1 1021 54 0 0.63 131.015 05:44 09.10.2019
6519 Clear -1 1021 54 0 0.63 131.015 04:26 09.10.2019
6520 Clear -3 1021 69 0 1.16 44.406 02:54 09.10.2019
6521 Clear -3 1021 69 0 1.16 44.406 01:44 09.10.2019
6522 Clear -3 1021 69 0 1.28 46.835 01:21 09.10.2019
6523 Clear -3 1021 69 0 1.28 46.835 00:57 09.10.2019
6524 Clear -3 1021 69 0 1.28 46.835 00:39 09.10.2019
6525 Clear -3 1020 73 0 1.28 47.255 00:20 09.10.2019
6526 Clear -3 1020 73 0 1.28 47.255 23:40 08.10.2019
6527 Clear -3 1020 73 0 1.28 47.255 23:19 08.10.2019
6528 Clear -3 1020 73 0 1.28 47.255 22:58 08.10.2019
6529 Clear -3 1020 73 0 1.28 47.255 22:39 08.10.2019
6530 Clear -3 1020 73 0 1.28 47.255 22:20 08.10.2019
6531 Clear -3 1020 73 0 1.28 47.255 21:57 08.10.2019
6532 Clear -3 1020 73 0 1.28 47.255 21:39 08.10.2019
6533 Clear -2 1021 80 0 1.08 99.069 21:19 08.10.2019
6534 Clear -2 1021 80 0 1.08 99.069 20:56 08.10.2019
6535 Clear -2 1020 78 0 1.12 100.406 20:38 08.10.2019
6536 Clear -2 1020 78 0 1.12 100.406 20:20 08.10.2019
6537 Clear -2 1020 78 0 1.12 100.406 19:58 08.10.2019
6538 Clear -2 1020 78 0 1.12 100.406 19:58 08.10.2019
6539 Clear -2 1020 78 0 1.12 100.406 19:40 08.10.2019
6540 Clear -2 1020 78 0 1.12 100.406 19:21 08.10.2019
6541 Clear -2 1020 78 0 1.12 100.406 19:21 08.10.2019
6542 Clear -2 1020 78 0 1.12 100.406 18:55 08.10.2019
6543 Clear -2 1020 78 0 1.12 100.406 18:36 08.10.2019
6544 Clear -2 1020 87 0 1.22 165.247 18:18 08.10.2019
6545 Clear -2 1020 87 0 1.22 165.247 17:40 08.10.2019
6546 Clear -2 1020 87 0 1.22 165.247 17:21 08.10.2019
6547 Clear -2 1020 87 0 1.22 165.247 16:59 08.10.2019
6548 Clear -2 1020 87 0 1.22 165.247 16:40 08.10.2019
6549 Clear -2 1020 87 0 1.22 165.247 16:22 08.10.2019
6550 Clear -2 1020 87 0 1.22 165.247 15:41 08.10.2019
6551 Clouds 1 1017 68 0 2.47 207.802 15:22 08.10.2019
6552 Clouds 1 1017 68 0 2.47 207.802 14:59 08.10.2019
6553 Clouds 1 1017 68 0 2.47 207.802 14:41 08.10.2019
6554 Clouds 1 1017 68 0 2.47 207.802 14:21 08.10.2019
6555 Clouds 1 1017 68 0 2.47 207.802 13:57 08.10.2019
6556 Clouds 1 1017 68 0 2.47 207.802 13:39 08.10.2019
6557 Clouds 1 1017 68 0 2.47 207.802 13:19 08.10.2019
6558 Clouds 1 1017 67 0 2.51 212.457 12:59 08.10.2019
6559 Clouds 1 1017 67 0 2.51 212.457 12:38 08.10.2019
6560 Clouds 4 1016 52 0 3.43 198.234 12:18 08.10.2019
6561 Clouds 4 1016 52 0 3.43 198.234 11:43 08.10.2019
6562 -273 0 0 0 0 0 11:24 08.10.2019
6563 Clouds 4 1016 52 0 3.43 198.234 10:59 08.10.2019
6564 Clouds 4 1016 52 0 3.43 198.234 10:38 08.10.2019
6565 Clouds 4 1016 52 0 3.43 198.234 10:20 08.10.2019
6566 Clouds 4 1016 52 0 3.43 198.234 09:57 08.10.2019
6567 Clouds 4 1016 52 0 3.43 198.234 09:39 08.10.2019
6568 Clear 4 1019 39 0 2.59 195.897 09:19 08.10.2019
6569 Clear 3 1019 43 0 2.53 173.173 08:42 08.10.2019
6570 Clear 3 1019 43 0 2.53 173.173 08:24 08.10.2019
6571 Clear 3 1019 43 0 2.53 173.173 07:45 08.10.2019
6572 Clear 3 1019 43 0 2.53 173.173 07:22 08.10.2019
6573 Clear 3 1019 43 0 2.53 173.173 06:56 08.10.2019
6574 Clear 3 1019 43 0 2.53 173.173 06:32 08.10.2019
6575 Clear -2 1021 49 0 1.19 78.737 05:57 08.10.2019
6576 Clear -2 1021 49 0 1.19 78.737 05:36 08.10.2019
6577 Clear -2 1021 49 0 1.19 78.737 05:36 08.10.2019
6578 Clear -2 1021 49 0 1.19 78.737 04:36 08.10.2019
6579 Clear -2 1021 49 0 1.19 78.737 03:29 08.10.2019
6580 Clear -5 1020 74 0 1.66 56.655 02:39 08.10.2019
6581 Clear -5 1020 74 0 1.66 56.655 01:49 08.10.2019
6582 Clear -5 1020 74 0 1.66 56.655 01:31 08.10.2019
6583 Clouds -5 1020 74 0 1.63 59.367 00:50 08.10.2019
6584 Clear -4 1021 81 0 1.59 53.367 00:21 08.10.2019
6585 Clear -4 1021 81 0 1.59 53.367 23:41 07.10.2019
6586 Clear -4 1021 81 0 1.59 53.367 23:21 07.10.2019
6587 Clear -4 1021 81 0 1.59 53.367 22:58 07.10.2019
6588 Clear -4 1021 81 0 1.59 53.367 22:40 07.10.2019
6589 Clear -4 1021 81 0 1.59 53.367 22:21 07.10.2019
6590 Clear -4 1021 81 0 1.59 53.367 21:58 07.10.2019
6591 Clear -4 1021 81 0 1.59 53.367 21:40 07.10.2019
6592 Clouds -4 1021 88 0 1.75 65.38 21:20 07.10.2019
6593 Clouds -4 1021 88 0 1.75 65.38 21:20 07.10.2019
6594 Clear -4 1021 87 0 1.59 64.548 20:58 07.10.2019
6595 Clear -4 1021 87 0 1.59 64.548 20:39 07.10.2019
6596 Clear -4 1021 87 0 1.59 64.548 20:20 07.10.2019
6597 Clear -4 1021 87 0 1.59 64.548 19:58 07.10.2019
6598 Clear -4 1021 87 0 1.59 64.548 19:40 07.10.2019
6599 Clear -4 1021 87 0 1.59 64.548 19:20 07.10.2019
6600 Clear -4 1021 87 0 1.59 64.548 18:58 07.10.2019
6601 Clear -4 1021 87 0 1.59 64.548 18:38 07.10.2019
6602 Clouds -4 1021 91 0 1.54 135.132 18:18 07.10.2019
6603 Clouds -4 1021 91 0 1.54 135.132 17:43 07.10.2019
6604 Clouds -4 1021 91 0 1.54 135.132 17:23 07.10.2019
6605 Clouds -4 1021 91 0 1.54 135.132 17:23 07.10.2019
6606 Clouds -4 1021 91 0 1.54 135.132 16:58 07.10.2019
6607 Clouds -4 1021 91 0 1.54 135.132 16:58 07.10.2019
6608 Clouds -4 1021 91 0 1.54 135.132 16:39 07.10.2019
6609 Clouds -4 1021 91 0 1.54 135.132 16:39 07.10.2019
6610 Clouds -4 1021 91 0 1.54 135.132 16:20 07.10.2019
6611 Clouds -4 1021 91 0 1.54 135.132 15:46 07.10.2019
6612 Clouds -4 1021 91 0 1.54 135.132 15:26 07.10.2019
6613 Clouds -4 1021 91 0 1.54 135.132 15:26 07.10.2019
6614 Clouds -4 1021 91 0 1.54 135.132 15:26 07.10.2019
6615 Clouds 0 1018 81 0 2.13 197.421 14:58 07.10.2019
6616 Clouds 0 1018 81 0 2.13 197.421 14:40 07.10.2019
6617 Clouds 0 1018 81 0 2.13 197.421 14:21 07.10.2019
6618 Clouds 0 1018 81 0 2.13 197.421 13:43 07.10.2019
6619 Clouds -1 1018 86 0 2.05 203.067 13:21 07.10.2019
6620 Clouds -1 1018 86 0 2.05 203.067 12:57 07.10.2019
6621 Clouds -1 1018 86 0 2.05 203.067 12:39 07.10.2019
6622 Clouds 1 1018 84 0 3.08 184.159 12:19 07.10.2019
6623 Clouds 1 1018 84 0 3.08 184.159 11:58 07.10.2019
6624 Clouds 1 1018 84 0 3.08 184.159 11:38 07.10.2019
6625 Clouds 1 1018 84 0 3.08 184.159 11:20 07.10.2019
6626 Clouds 1 1018 84 0 3.08 184.159 10:42 07.10.2019
6627 Clouds 1 1018 84 0 3.08 184.159 10:21 07.10.2019
6628 Clouds 1 1018 84 0 3.08 184.159 09:56 07.10.2019
6629 Clouds 1 1018 84 0 3.08 184.159 09:38 07.10.2019
6630 Clouds 0 1021 91 0 3.29 178.92 09:19 07.10.2019
6631 Clouds -1 1021 81 0 3.32 164.64 08:42 07.10.2019
6632 Clouds -1 1021 81 0 3.32 164.64 08:20 07.10.2019
6633 Clouds -1 1021 81 0 3.32 164.64 07:46 07.10.2019
6634 Clouds -1 1021 81 0 3.32 164.64 07:27 07.10.2019
6635 Clouds -1 1021 81 0 3.32 164.64 06:57 07.10.2019
6636 Clouds -1 1021 81 0 3.32 164.64 06:38 07.10.2019
6637 Clouds -2 1022 83 0 2.81 177.1 05:56 07.10.2019
6638 Clouds -2 1022 83 0 2.81 177.1 05:25 07.10.2019
6639 Clouds -2 1022 83 0 2.81 177.1 04:49 07.10.2019
6640 Clouds -2 1022 83 0 2.81 177.1 03:46 07.10.2019
6641 Clouds -2 1022 83 0 2.81 177.1 03:27 07.10.2019
6642 Clouds -3 1020 91 0 1.61 151.812 02:37 07.10.2019
6643 Clouds -3 1020 91 0 1.61 151.812 02:18 07.10.2019
6644 Clouds -3 1020 91 0 1.61 151.812 02:18 07.10.2019
6645 Clouds -3 1019 93 0 1.95 184.167 01:23 07.10.2019
6646 Clouds -3 1019 93 0 1.95 184.167 00:51 07.10.2019
6647 Clouds -3 1019 89 0 2.44 161.862 00:24 07.10.2019
6648 Clouds -3 1019 89 0 2.44 161.862 23:59 06.10.2019
6649 Clouds -3 1019 89 0 2.44 161.862 23:40 06.10.2019
6650 Clouds -3 1019 89 0 2.44 161.862 23:20 06.10.2019
6651 Clouds -3 1019 89 0 2.44 161.862 22:56 06.10.2019
6652 Clouds -3 1019 89 0 2.44 161.862 22:37 06.10.2019
6653 Clouds -3 1019 89 0 2.44 161.862 22:18 06.10.2019
6654 Clouds -3 1019 89 0 2.44 161.862 21:55 06.10.2019
6655 Clouds -3 1019 89 0 2.44 161.862 21:55 06.10.2019
6656 Clouds -3 1019 89 0 2.44 161.862 21:36 06.10.2019
6657 Clouds -2 1019 75 0 1.2 168.925 21:18 06.10.2019
6658 Clouds -2 1019 75 0 1.2 168.925 20:54 06.10.2019
6659 Clouds -2 1019 78 0 1.36 137.209 20:36 06.10.2019
6660 Clouds -2 1019 78 0 1.36 137.209 20:36 06.10.2019
6661 Clouds -2 1019 78 0 1.36 137.209 20:18 06.10.2019
6662 Clouds -2 1019 78 0 1.36 137.209 19:55 06.10.2019
6663 Clouds -2 1019 78 0 1.36 137.209 19:55 06.10.2019
6664 Clouds -2 1019 78 0 1.36 137.209 19:36 06.10.2019
6665 Clouds -2 1019 78 0 1.36 137.209 19:18 06.10.2019
6666 Clouds -2 1019 78 0 1.36 137.209 19:18 06.10.2019
6667 Clouds -2 1019 78 0 1.36 137.209 18:55 06.10.2019
6668 Clouds -2 1019 78 0 1.36 137.209 18:55 06.10.2019
6669 Clouds -2 1019 78 0 1.36 137.209 18:36 06.10.2019
6670 Clouds 0 1019 59 0 3.39 160.624 18:18 06.10.2019
6671 Clouds 0 1019 59 0 3.39 160.624 18:18 06.10.2019
6672 Clouds 0 1019 59 0 3.39 160.624 17:42 06.10.2019
6673 Clouds 0 1019 59 0 3.39 160.624 17:20 06.10.2019
6674 Clouds 0 1019 59 0 3.39 160.624 17:20 06.10.2019
6675 Clouds 0 1019 59 0 3.39 160.624 16:55 06.10.2019
6676 Clouds 0 1019 59 0 3.39 160.624 16:37 06.10.2019
6677 Clouds 0 1019 59 0 3.39 160.624 16:18 06.10.2019
6678 Clouds 0 1019 59 0 3.39 160.624 15:43 06.10.2019
6679 Clouds 3 1016 37 0 2.17 180.106 15:21 06.10.2019
6680 Clouds 3 1016 37 0 2.17 180.106 14:56 06.10.2019
6681 Clouds 3 1016 37 0 2.17 180.106 14:38 06.10.2019
6682 Clouds 3 1016 37 0 2.17 180.106 14:19 06.10.2019
6683 Clouds 3 1016 37 0 2.17 180.106 13:42 06.10.2019
6684 Clouds 3 1016 37 0 2.36 172.048 13:24 06.10.2019
6685 Clouds 3 1016 37 0 2.36 172.048 12:59 06.10.2019
6686 Clouds 3 1016 37 0 2.36 172.048 12:41 06.10.2019
6687 Clouds 5 1016 28 0 3.33 179.552 12:21 06.10.2019
6688 Clouds 5 1016 28 0 3.33 179.552 11:59 06.10.2019
6689 Clouds 5 1016 28 0 3.33 179.552 11:40 06.10.2019
6690 Clouds 5 1016 28 0 3.33 179.552 11:40 06.10.2019
6691 Clouds 5 1016 28 0 3.33 179.552 11:21 06.10.2019
6692 Clouds 5 1016 28 0 3.33 179.552 10:55 06.10.2019
6693 Clouds 5 1016 28 0 3.33 179.552 10:37 06.10.2019
6694 Clouds 5 1016 28 0 3.33 179.552 10:19 06.10.2019
6695 Clouds 5 1016 28 0 3.33 179.552 09:41 06.10.2019
6696 Clouds 5 1018 28 0 3.44 181.265 09:19 06.10.2019
6697 Clouds 5 1018 28 0 3.44 181.265 09:19 06.10.2019
6698 Clouds 5 1018 28 0 3.44 181.265 08:48 06.10.2019
6699 Clouds 5 1018 28 0 3.44 181.265 08:48 06.10.2019
6700 Clouds 5 1019 27 0 3.52 186.153 08:22 06.10.2019
6701 Clouds 5 1019 27 0 3.52 186.153 07:58 06.10.2019
6702 Clouds 5 1019 27 0 3.52 186.153 07:39 06.10.2019
6703 Clouds 5 1019 27 0 3.52 186.153 06:50 06.10.2019
6704 Clouds 1 1020 41 0 1.05 135.58 05:41 06.10.2019
6705 Clouds 1 1020 41 0 1.05 135.58 04:35 06.10.2019
6706 Clear -3 1019 67 0 1.21 70.697 02:53 06.10.2019
6707 Clear -3 1019 67 0 1.21 70.697 02:30 06.10.2019
6708 Clear -3 1019 67 0 1.21 70.697 01:48 06.10.2019
6709 Clear -2 1019 68 0 0.94 85.601 01:30 06.10.2019
6710 Clear -2 1019 68 0 0.94 85.601 00:59 06.10.2019
6711 Clear -2 1019 68 0 0.94 85.601 00:59 06.10.2019
6712 Clear -2 1019 68 0 0.94 85.601 00:33 06.10.2019
6713 Clear -2 1019 74 0 1.14 71.693 23:59 05.10.2019
6714 Clear -2 1019 74 0 1.14 71.693 23:40 05.10.2019
6715 Clear -2 1019 74 0 1.14 71.693 23:40 05.10.2019
6716 Clear -2 1019 74 0 1.14 71.693 23:19 05.10.2019
6717 Clear -2 1019 74 0 1.14 71.693 22:54 05.10.2019
6718 Clear -2 1019 74 0 1.14 71.693 22:36 05.10.2019
6719 Clear -2 1019 74 0 1.14 71.693 22:18 05.10.2019
6720 Clear -2 1019 74 0 1.14 71.693 21:41 05.10.2019
6721 Clear -2 1019 74 0 1.14 71.693 21:41 05.10.2019
6722 Clouds -2 1020 79 0 0.97 103.074 21:22 05.10.2019
6723 Clouds -2 1020 79 0 0.97 103.074 20:57 05.10.2019
6724 Clouds -2 1020 79 0 1.08 123.146 20:39 05.10.2019
6725 Clouds -2 1020 79 0 1.08 123.146 20:19 05.10.2019
6726 Clouds -2 1020 79 0 1.08 123.146 19:56 05.10.2019
6727 Clouds -2 1020 79 0 1.08 123.146 19:36 05.10.2019
6728 Clouds -2 1020 79 0 1.08 123.146 19:18 05.10.2019
6729 Clouds -2 1020 79 0 1.08 123.146 18:54 05.10.2019
6730 Clouds -2 1020 79 0 1.08 123.146 18:36 05.10.2019
6731 Clouds -1 1019 85 0 1.37 151.383 18:18 05.10.2019
6732 Clouds -1 1019 85 0 1.37 151.383 18:18 05.10.2019
6733 Clouds -1 1019 85 0 1.37 151.383 17:41 05.10.2019
6734 Clouds -1 1019 85 0 1.37 151.383 17:21 05.10.2019
6735 -273 0 0 0 0 0 16:55 05.10.2019
6736 Clouds -1 1019 85 0 1.37 151.383 16:36 05.10.2019
6737 Clouds -1 1019 85 0 1.37 151.383 16:18 05.10.2019
6738 Clouds -1 1019 85 0 1.37 151.383 15:55 05.10.2019
6739 Clouds -1 1019 85 0 1.37 151.383 15:37 05.10.2019
6740 Clouds 1 1017 69 0 2.09 190.457 15:18 05.10.2019
6741 Clouds 1 1017 69 0 2.09 190.457 14:41 05.10.2019
6742 Clouds 1 1017 69 0 2.09 190.457 14:22 05.10.2019
6743 Clouds 1 1017 69 0 2.09 190.457 13:44 05.10.2019
6744 Clouds 1 1016 69 0 2.3 196.63 13:26 05.10.2019
6745 Clouds 1 1016 69 0 2.3 196.63 12:58 05.10.2019
6746 Clouds 1 1016 69 0 2.3 196.63 12:40 05.10.2019
6747 Clouds 3 1016 59 0 3.3 197.5 12:19 05.10.2019
6748 Clouds 3 1016 59 0 3.3 197.5 11:39 05.10.2019
6749 Clouds 3 1016 59 0 3.3 197.5 11:20 05.10.2019
6750 Clouds 3 1016 59 0 3.3 197.5 10:57 05.10.2019
6751 Clouds 3 1016 59 0 3.3 197.5 10:38 05.10.2019
6752 Clouds 3 1016 59 0 3.3 197.5 10:38 05.10.2019
6753 Clouds 3 1016 59 0 3.3 197.5 10:19 05.10.2019
6754 Clouds 3 1016 59 0 3.3 197.5 10:19 05.10.2019
6755 Clouds 3 1016 59 0 3.3 197.5 09:40 05.10.2019
6756 Clouds 3 1018 60 0 3.32 188.235 09:22 05.10.2019
6757 Clouds 2 1019 66 0 2.92 170.143 08:42 05.10.2019
6758 Clouds 2 1019 66 0 2.92 170.143 08:23 05.10.2019
6759 Clouds 2 1019 66 0 2.92 170.143 07:59 05.10.2019
6760 Clouds 2 1019 66 0 2.92 170.143 07:59 05.10.2019
6761 Clouds 2 1019 66 0 2.92 170.143 07:39 05.10.2019
6762 Clouds 2 1019 66 0 2.92 170.143 07:39 05.10.2019
6763 Clouds 2 1019 66 0 2.92 170.143 07:20 05.10.2019
6764 Clouds 2 1019 66 0 2.92 170.143 06:52 05.10.2019
6765 Clouds 2 1019 66 0 2.92 170.143 06:52 05.10.2019
6766 Clear -2 1020 74 0 1.11 96.409 06:20 05.10.2019
6767 Clear -2 1020 74 0 1.11 96.409 04:46 05.10.2019
6768 Clear -2 1020 74 0 1.11 96.409 03:32 05.10.2019
6769 Clear -5 1019 86 0 1.01 65.32 02:26 05.10.2019
6770 Clear -6 1019 83 0 1.26 60.21 01:25 05.10.2019
6771 Clear -6 1019 83 0 1.26 60.21 00:48 05.10.2019
6772 Clear -6 1019 83 0 1.26 60.21 00:48 05.10.2019
6773 Clear -6 1019 83 0 1.26 60.21 00:27 05.10.2019
6774 Clear -6 1018 88 0 0.9 76.519 23:56 04.10.2019
6775 Clear -6 1018 88 0 0.9 76.519 23:56 04.10.2019
6776 Clear -6 1018 88 0 0.9 76.519 23:37 04.10.2019
6777 Clear -6 1018 88 0 0.9 76.519 23:18 04.10.2019
6778 Clear -6 1018 88 0 0.9 76.519 22:42 04.10.2019
6779 Clear -6 1018 88 0 0.9 76.519 22:24 04.10.2019
6780 Clear -6 1018 88 0 0.9 76.519 21:59 04.10.2019
6781 Clear -6 1018 88 0 0.9 76.519 21:40 04.10.2019
6782 Clouds -5 1019 91 0 0.7 82.308 21:22 04.10.2019
6783 Clouds -5 1019 91 0 0.7 82.308 20:59 04.10.2019
6784 Clouds -6 1018 90 0 0.73 75.542 20:40 04.10.2019
6785 Clouds -6 1018 90 0 0.73 75.542 20:22 04.10.2019
6786 Clouds -6 1018 90 0 0.73 75.542 19:56 04.10.2019
6787 Clouds -6 1018 90 0 0.73 75.542 19:37 04.10.2019
6788 Clouds -6 1018 90 0 0.73 75.542 19:19 04.10.2019
6789 Clouds -6 1018 90 0 0.73 75.542 18:54 04.10.2019
6790 Clouds -6 1018 90 0 0.73 75.542 18:36 04.10.2019
6791 Clouds -4 1018 93 0 1.28 129.239 18:18 04.10.2019
6792 Clouds -4 1018 93 0 1.28 129.239 17:39 04.10.2019
6793 Clouds -4 1018 93 0 1.28 129.239 17:21 04.10.2019
6794 Clouds -4 1018 93 0 1.28 129.239 16:58 04.10.2019
6795 Clouds -4 1018 93 0 1.28 129.239 16:39 04.10.2019
6796 Clouds -4 1018 93 0 1.28 129.239 16:39 04.10.2019
6797 Clouds -4 1018 93 0 1.28 129.239 16:18 04.10.2019
6798 Clouds -4 1018 93 0 1.28 129.239 16:18 04.10.2019
6799 Clouds -4 1018 93 0 1.28 129.239 16:18 04.10.2019
6800 Clouds -4 1018 93 0 1.28 129.239 15:56 04.10.2019
6801 Clouds -4 1018 93 0 1.28 129.239 15:38 04.10.2019
6802 Clouds -1 1016 97 0 2.7 221.306 15:19 04.10.2019
6803 Clouds -1 1016 97 0 2.7 221.306 14:55 04.10.2019
6804 Clouds -1 1016 97 0 2.7 221.306 14:37 04.10.2019
6805 Clouds -1 1016 97 0 2.7 221.306 14:19 04.10.2019
6806 Clouds -1 1016 97 0 2.7 221.306 13:44 04.10.2019
6807 Clouds -1 1016 97 0 2.7 221.306 13:44 04.10.2019
6808 Clouds -1 1016 94 0 3.44 214.051 13:21 04.10.2019
6809 Clouds -1 1016 94 0 3.44 214.051 12:49 04.10.2019
6810 Clouds -1 1016 94 0 3.44 214.051 12:30 04.10.2019
6811 Clouds 0 1016 94 0 3.58 224.309 11:59 04.10.2019
6812 Clouds 0 1016 94 0 3.58 224.309 11:41 04.10.2019
6813 Clouds 0 1016 94 0 3.58 224.309 11:41 04.10.2019
6814 Clouds 0 1016 94 0 3.58 224.309 11:41 04.10.2019
6815 Clouds 0 1016 94 0 3.58 224.309 11:21 04.10.2019
6816 Clouds 0 1016 94 0 3.58 224.309 11:21 04.10.2019
6817 Clouds 0 1016 94 0 3.58 224.309 10:41 04.10.2019
6818 Clouds 0 1016 94 0 3.58 224.309 10:41 04.10.2019
6819 Clouds 0 1016 94 0 3.58 224.309 10:21 04.10.2019
6820 Clouds 0 1016 94 0 3.58 224.309 10:21 04.10.2019
6821 Clouds 0 1016 94 0 3.58 224.309 09:50 04.10.2019
6822 Clouds 0 1016 94 0 3.58 224.309 09:32 04.10.2019
6823 Clouds 1 1018 77 0 2.68 192.87 08:59 04.10.2019
6824 Clouds 1 1018 77 0 2.68 192.87 08:41 04.10.2019
6825 Clouds 1 1018 77 0 2.68 192.87 08:23 04.10.2019
6826 Clouds 1 1018 77 0 2.68 192.87 07:47 04.10.2019
6827 Clouds 1 1018 77 0 2.68 192.87 07:23 04.10.2019
6828 Clouds 1 1018 77 0 2.68 192.87 06:48 04.10.2019
6829 Clouds 1 1018 77 0 2.68 192.87 06:27 04.10.2019
6830 Clouds 1 1020 55 0 1.73 174.161 05:52 04.10.2019
6831 Clouds 1 1020 55 0 1.73 174.161 05:19 04.10.2019
6832 Clouds 1 1020 55 0 1.73 174.161 04:25 04.10.2019
6833 Clouds -2 1019 65 0 0.85 100.952 02:56 04.10.2019
6834 Clouds -2 1019 65 0 0.85 100.952 02:56 04.10.2019
6835 Clouds -2 1019 65 0 0.85 100.952 02:37 04.10.2019
6836 Clouds -2 1019 65 0 0.85 100.952 01:43 04.10.2019
6837 Clouds -2 1020 69 0 1.12 75.653 01:24 04.10.2019
6838 Clouds -2 1020 69 0 1.12 75.653 00:29 04.10.2019
6839 Clouds -2 1019 65 0 1.07 133.062 23:38 03.10.2019
6840 Clouds -2 1019 65 0 1.07